<?xml version="1.0" encoding="UTF-8" standalone="no" ?>
<gpx xmlns="http://www.topografix.com/GPX/1/1" xmlns:xsi="http://www.w3.org/2001/XMLSchema-instance" xsi:schemaLocation="http://www.topografix.com/GPX/1/1 http://www.topografix.com/GPX/1/1/gpx.xsd" version="1.1" creator="VisuGPX - https://www.visugpx.com">
  <metadata>
    <name>Pass'Portes MTB 2024 </name>
  </metadata>
  <trk>
    <name><![CDATA[PP MTB 2024  - Trail Running Portes du Soleil]]></name>
    <extensions>
      <line xmlns="http://www.topografix.com/GPX/gpx_style/0/2">
        <color>0000FF</color>
        <width>4</width>
      </line>
    </extensions>
    <trkseg>
      <trkpt lat="46.20702" lon="6.77744">
        <ele>1495</ele>
        <time>2000-01-01T00:43:27.000Z</time>
      </trkpt>
      <trkpt lat="46.20673" lon="6.7772">
        <ele>1495</ele>
        <time>2000-01-01T00:43:37.000Z</time>
      </trkpt>
      <trkpt lat="46.20661" lon="6.77712">
        <ele>1495.9</ele>
        <time>2000-01-01T00:43:47.000Z</time>
      </trkpt>
      <trkpt lat="46.20648" lon="6.77711">
        <ele>1496</ele>
        <time>2000-01-01T00:43:57.000Z</time>
      </trkpt>
      <trkpt lat="46.20623" lon="6.77713">
        <ele>1496</ele>
        <time>2000-01-01T00:44:07.000Z</time>
      </trkpt>
      <trkpt lat="46.20596" lon="6.77716">
        <ele>1497</ele>
        <time>2000-01-01T00:44:17.000Z</time>
      </trkpt>
      <trkpt lat="46.20599" lon="6.7773">
        <ele>1496</ele>
        <time>2000-01-01T00:44:27.000Z</time>
      </trkpt>
      <trkpt lat="46.19321" lon="6.77949">
        <ele>1720</ele>
        <time>2000-01-01T00:44:37.000Z</time>
      </trkpt>
      <trkpt lat="46.19335" lon="6.7792">
        <ele>1829</ele>
        <time>2000-01-01T00:44:47.000Z</time>
      </trkpt>
      <trkpt lat="46.19351" lon="6.77887">
        <ele>1881</ele>
        <time>2000-01-01T00:44:57.000Z</time>
      </trkpt>
      <trkpt lat="46.1937" lon="6.77861">
        <ele>1906</ele>
        <time>2000-01-01T00:45:07.000Z</time>
      </trkpt>
      <trkpt lat="46.19394" lon="6.77829">
        <ele>1915</ele>
        <time>2000-01-01T00:45:17.000Z</time>
      </trkpt>
      <trkpt lat="46.19424" lon="6.77779">
        <ele>1916</ele>
        <time>2000-01-01T00:45:27.000Z</time>
      </trkpt>
      <trkpt lat="46.19433" lon="6.77754">
        <ele>1911</ele>
        <time>2000-01-01T00:45:37.000Z</time>
      </trkpt>
      <trkpt lat="46.19437" lon="6.77731">
        <ele>1914.4</ele>
        <time>2000-01-01T00:45:47.000Z</time>
      </trkpt>
      <trkpt lat="46.19441" lon="6.77648">
        <ele>1907</ele>
        <time>2000-01-01T00:45:57.000Z</time>
      </trkpt>
      <trkpt lat="46.1946" lon="6.77608">
        <ele>1902</ele>
        <time>2000-01-01T00:46:07.000Z</time>
      </trkpt>
      <trkpt lat="46.19474" lon="6.77577">
        <ele>1896</ele>
        <time>2000-01-01T00:46:17.000Z</time>
      </trkpt>
      <trkpt lat="46.19491" lon="6.77539">
        <ele>1889</ele>
        <time>2000-01-01T00:46:27.000Z</time>
      </trkpt>
      <trkpt lat="46.19507" lon="6.77501">
        <ele>1888</ele>
        <time>2000-01-01T00:46:37.000Z</time>
      </trkpt>
      <trkpt lat="46.1954" lon="6.77426">
        <ele>1882</ele>
        <time>2000-01-01T00:46:47.000Z</time>
      </trkpt>
      <trkpt lat="46.19551" lon="6.77407">
        <ele>1880.2</ele>
        <time>2000-01-01T00:46:57.000Z</time>
      </trkpt>
      <trkpt lat="46.19592" lon="6.77357">
        <ele>1873</ele>
        <time>2000-01-01T00:47:07.000Z</time>
      </trkpt>
      <trkpt lat="46.19624" lon="6.77334">
        <ele>1869</ele>
        <time>2000-01-01T00:47:17.000Z</time>
      </trkpt>
      <trkpt lat="46.19623" lon="6.77327">
        <ele>1869.4</ele>
        <time>2000-01-01T00:47:27.000Z</time>
      </trkpt>
      <trkpt lat="46.19617" lon="6.77318">
        <ele>1868</ele>
        <time>2000-01-01T00:47:37.000Z</time>
      </trkpt>
      <trkpt lat="46.19602" lon="6.77311">
        <ele>1864</ele>
        <time>2000-01-01T00:47:47.000Z</time>
      </trkpt>
      <trkpt lat="46.19575" lon="6.77306">
        <ele>1859</ele>
        <time>2000-01-01T00:47:57.000Z</time>
      </trkpt>
      <trkpt lat="46.19539" lon="6.77299">
        <ele>1851</ele>
        <time>2000-01-01T00:48:07.000Z</time>
      </trkpt>
      <trkpt lat="46.19514" lon="6.77298">
        <ele>1846</ele>
        <time>2000-01-01T00:48:17.000Z</time>
      </trkpt>
      <trkpt lat="46.19485" lon="6.77297">
        <ele>1839</ele>
        <time>2000-01-01T00:48:27.000Z</time>
      </trkpt>
      <trkpt lat="46.19459" lon="6.77289">
        <ele>1835</ele>
        <time>2000-01-01T00:48:37.000Z</time>
      </trkpt>
      <trkpt lat="46.19425" lon="6.77278">
        <ele>1831</ele>
        <time>2000-01-01T00:48:47.000Z</time>
      </trkpt>
      <trkpt lat="46.19406" lon="6.77281">
        <ele>1831</ele>
        <time>2000-01-01T00:48:57.000Z</time>
      </trkpt>
      <trkpt lat="46.19387" lon="6.77292">
        <ele>1830</ele>
        <time>2000-01-01T00:49:07.000Z</time>
      </trkpt>
      <trkpt lat="46.19406" lon="6.77264">
        <ele>1830</ele>
        <time>2000-01-01T00:49:17.000Z</time>
      </trkpt>
      <trkpt lat="46.19431" lon="6.77227">
        <ele>1829</ele>
        <time>2000-01-01T00:49:27.000Z</time>
      </trkpt>
      <trkpt lat="46.19453" lon="6.77192">
        <ele>1827</ele>
        <time>2000-01-01T00:49:37.000Z</time>
      </trkpt>
      <trkpt lat="46.19467" lon="6.77167">
        <ele>1826</ele>
        <time>2000-01-01T00:49:47.000Z</time>
      </trkpt>
      <trkpt lat="46.19482" lon="6.77131">
        <ele>1826</ele>
        <time>2000-01-01T00:49:57.000Z</time>
      </trkpt>
      <trkpt lat="46.19496" lon="6.77091">
        <ele>1825</ele>
        <time>2000-01-01T00:50:07.000Z</time>
      </trkpt>
      <trkpt lat="46.19507" lon="6.77058">
        <ele>1823</ele>
        <time>2000-01-01T00:50:17.000Z</time>
      </trkpt>
      <trkpt lat="46.1952" lon="6.77018">
        <ele>1823</ele>
        <time>2000-01-01T00:50:27.000Z</time>
      </trkpt>
      <trkpt lat="46.19537" lon="6.7696">
        <ele>1821</ele>
        <time>2000-01-01T00:50:37.000Z</time>
      </trkpt>
      <trkpt lat="46.1954" lon="6.76923">
        <ele>1821</ele>
        <time>2000-01-01T00:50:47.000Z</time>
      </trkpt>
      <trkpt lat="46.19544" lon="6.76879">
        <ele>1820</ele>
        <time>2000-01-01T00:50:57.000Z</time>
      </trkpt>
      <trkpt lat="46.19549" lon="6.76857">
        <ele>1819.5</ele>
        <time>2000-01-01T00:51:07.000Z</time>
      </trkpt>
      <trkpt lat="46.19554" lon="6.76844">
        <ele>1818</ele>
        <time>2000-01-01T00:51:17.000Z</time>
      </trkpt>
      <trkpt lat="46.19563" lon="6.7683">
        <ele>1817.7</ele>
        <time>2000-01-01T00:51:27.000Z</time>
      </trkpt>
      <trkpt lat="46.19602" lon="6.76803">
        <ele>1814</ele>
        <time>2000-01-01T00:51:37.000Z</time>
      </trkpt>
      <trkpt lat="46.19627" lon="6.76792">
        <ele>1812</ele>
        <time>2000-01-01T00:51:47.000Z</time>
      </trkpt>
      <trkpt lat="46.19618" lon="6.76761">
        <ele>1812</ele>
        <time>2000-01-01T00:51:57.000Z</time>
      </trkpt>
      <trkpt lat="46.1963" lon="6.76713">
        <ele>1806</ele>
        <time>2000-01-01T00:52:07.000Z</time>
      </trkpt>
      <trkpt lat="46.19646" lon="6.76692">
        <ele>1805</ele>
        <time>2000-01-01T00:52:17.000Z</time>
      </trkpt>
      <trkpt lat="46.19671" lon="6.76682">
        <ele>1803</ele>
        <time>2000-01-01T00:52:27.000Z</time>
      </trkpt>
      <trkpt lat="46.19675" lon="6.76674">
        <ele>1801.8</ele>
        <time>2000-01-01T00:52:37.000Z</time>
      </trkpt>
      <trkpt lat="46.1968" lon="6.7667">
        <ele>1800.8</ele>
        <time>2000-01-01T00:52:47.000Z</time>
      </trkpt>
      <trkpt lat="46.19714" lon="6.76662">
        <ele>1798</ele>
        <time>2000-01-01T00:52:57.000Z</time>
      </trkpt>
      <trkpt lat="46.19734" lon="6.76652">
        <ele>1794</ele>
        <time>2000-01-01T00:53:07.000Z</time>
      </trkpt>
      <trkpt lat="46.19763" lon="6.76629">
        <ele>1787</ele>
        <time>2000-01-01T00:53:17.000Z</time>
      </trkpt>
      <trkpt lat="46.1979" lon="6.76609">
        <ele>1783</ele>
        <time>2000-01-01T00:53:27.000Z</time>
      </trkpt>
      <trkpt lat="46.1984" lon="6.76572">
        <ele>1781</ele>
        <time>2000-01-01T00:53:37.000Z</time>
      </trkpt>
      <trkpt lat="46.19849" lon="6.76556">
        <ele>1781.9</ele>
        <time>2000-01-01T00:53:47.000Z</time>
      </trkpt>
      <trkpt lat="46.19861" lon="6.76524">
        <ele>1780</ele>
        <time>2000-01-01T00:53:57.000Z</time>
      </trkpt>
      <trkpt lat="46.19869" lon="6.76488">
        <ele>1779</ele>
        <time>2000-01-01T00:54:07.000Z</time>
      </trkpt>
      <trkpt lat="46.19873" lon="6.7645">
        <ele>1778</ele>
        <time>2000-01-01T00:54:17.000Z</time>
      </trkpt>
      <trkpt lat="46.19878" lon="6.76402">
        <ele>1775</ele>
        <time>2000-01-01T00:54:27.000Z</time>
      </trkpt>
      <trkpt lat="46.19882" lon="6.7635">
        <ele>1775</ele>
        <time>2000-01-01T00:54:37.000Z</time>
      </trkpt>
      <trkpt lat="46.19884" lon="6.76305">
        <ele>1772</ele>
        <time>2000-01-01T00:54:47.000Z</time>
      </trkpt>
      <trkpt lat="46.19888" lon="6.76218">
        <ele>1762</ele>
        <time>2000-01-01T00:54:57.000Z</time>
      </trkpt>
      <trkpt lat="46.19896" lon="6.76164">
        <ele>1759</ele>
        <time>2000-01-01T00:55:07.000Z</time>
      </trkpt>
      <trkpt lat="46.19906" lon="6.76132">
        <ele>1759</ele>
        <time>2000-01-01T00:55:17.000Z</time>
      </trkpt>
      <trkpt lat="46.19917" lon="6.76096">
        <ele>1758</ele>
        <time>2000-01-01T00:55:27.000Z</time>
      </trkpt>
      <trkpt lat="46.19929" lon="6.76052">
        <ele>1757</ele>
        <time>2000-01-01T00:55:37.000Z</time>
      </trkpt>
      <trkpt lat="46.19939" lon="6.76013">
        <ele>1755</ele>
        <time>2000-01-01T00:55:47.000Z</time>
      </trkpt>
      <trkpt lat="46.19954" lon="6.75953">
        <ele>1754</ele>
        <time>2000-01-01T00:55:57.000Z</time>
      </trkpt>
      <trkpt lat="46.19967" lon="6.75917">
        <ele>1752</ele>
        <time>2000-01-01T00:56:07.000Z</time>
      </trkpt>
      <trkpt lat="46.19988" lon="6.75863">
        <ele>1752</ele>
        <time>2000-01-01T00:56:17.000Z</time>
      </trkpt>
      <trkpt lat="46.20003" lon="6.75846">
        <ele>1753</ele>
        <time>2000-01-01T00:56:27.000Z</time>
      </trkpt>
      <trkpt lat="46.20016" lon="6.75822">
        <ele>1754</ele>
        <time>2000-01-01T00:56:37.000Z</time>
      </trkpt>
      <trkpt lat="46.20027" lon="6.75819">
        <ele>1755.4</ele>
        <time>2000-01-01T00:56:47.000Z</time>
      </trkpt>
      <trkpt lat="46.2003" lon="6.75806">
        <ele>1754</ele>
        <time>2000-01-01T00:56:57.000Z</time>
      </trkpt>
      <trkpt lat="46.20055" lon="6.75781">
        <ele>1754</ele>
        <time>2000-01-01T00:57:07.000Z</time>
      </trkpt>
      <trkpt lat="46.20069" lon="6.75747">
        <ele>1754</ele>
        <time>2000-01-01T00:57:17.000Z</time>
      </trkpt>
      <trkpt lat="46.2009" lon="6.757">
        <ele>1753</ele>
        <time>2000-01-01T00:57:27.000Z</time>
      </trkpt>
      <trkpt lat="46.201" lon="6.75643">
        <ele>1753</ele>
        <time>2000-01-01T00:57:37.000Z</time>
      </trkpt>
      <trkpt lat="46.20101" lon="6.75595">
        <ele>1753</ele>
        <time>2000-01-01T00:57:47.000Z</time>
      </trkpt>
      <trkpt lat="46.20102" lon="6.75548">
        <ele>1751</ele>
        <time>2000-01-01T00:57:57.000Z</time>
      </trkpt>
      <trkpt lat="46.20103" lon="6.75481">
        <ele>1749</ele>
        <time>2000-01-01T00:58:07.000Z</time>
      </trkpt>
      <trkpt lat="46.20112" lon="6.75423">
        <ele>1747</ele>
        <time>2000-01-01T00:58:17.000Z</time>
      </trkpt>
      <trkpt lat="46.20117" lon="6.75375">
        <ele>1746</ele>
        <time>2000-01-01T00:58:27.000Z</time>
      </trkpt>
      <trkpt lat="46.20122" lon="6.75328">
        <ele>1746</ele>
        <time>2000-01-01T00:58:37.000Z</time>
      </trkpt>
      <trkpt lat="46.2013" lon="6.75255">
        <ele>1744</ele>
        <time>2000-01-01T00:58:47.000Z</time>
      </trkpt>
      <trkpt lat="46.20129" lon="6.75214">
        <ele>1743</ele>
        <time>2000-01-01T00:58:57.000Z</time>
      </trkpt>
      <trkpt lat="46.20128" lon="6.75151">
        <ele>1743</ele>
        <time>2000-01-01T00:59:07.000Z</time>
      </trkpt>
      <trkpt lat="46.20122" lon="6.75115">
        <ele>1743</ele>
        <time>2000-01-01T00:59:17.000Z</time>
      </trkpt>
      <trkpt lat="46.20115" lon="6.75071">
        <ele>1744</ele>
        <time>2000-01-01T00:59:27.000Z</time>
      </trkpt>
      <trkpt lat="46.20111" lon="6.75025">
        <ele>1741</ele>
        <time>2000-01-01T00:59:37.000Z</time>
      </trkpt>
      <trkpt lat="46.201" lon="6.74975">
        <ele>1740</ele>
        <time>2000-01-01T00:59:47.000Z</time>
      </trkpt>
      <trkpt lat="46.20093" lon="6.74918">
        <ele>1739</ele>
        <time>2000-01-01T00:59:57.000Z</time>
      </trkpt>
      <trkpt lat="46.20091" lon="6.74873">
        <ele>1739</ele>
        <time>2000-01-01T01:00:07.000Z</time>
      </trkpt>
      <trkpt lat="46.20088" lon="6.74834">
        <ele>1736</ele>
        <time>2000-01-01T01:00:17.000Z</time>
      </trkpt>
      <trkpt lat="46.20085" lon="6.7478">
        <ele>1736</ele>
        <time>2000-01-01T01:00:27.000Z</time>
      </trkpt>
      <trkpt lat="46.20076" lon="6.74729">
        <ele>1735</ele>
        <time>2000-01-01T01:00:37.000Z</time>
      </trkpt>
      <trkpt lat="46.20065" lon="6.74718">
        <ele>1734.2</ele>
        <time>2000-01-01T01:00:47.000Z</time>
      </trkpt>
      <trkpt lat="46.20044" lon="6.74674">
        <ele>1728</ele>
        <time>2000-01-01T01:00:57.000Z</time>
      </trkpt>
      <trkpt lat="46.20027" lon="6.7462">
        <ele>1724</ele>
        <time>2000-01-01T01:01:07.000Z</time>
      </trkpt>
      <trkpt lat="46.20016" lon="6.74594">
        <ele>1724</ele>
        <time>2000-01-01T01:01:17.000Z</time>
      </trkpt>
      <trkpt lat="46.20005" lon="6.74571">
        <ele>1723</ele>
        <time>2000-01-01T01:01:27.000Z</time>
      </trkpt>
      <trkpt lat="46.19983" lon="6.74539">
        <ele>1720</ele>
        <time>2000-01-01T01:01:37.000Z</time>
      </trkpt>
      <trkpt lat="46.19972" lon="6.74514">
        <ele>1720</ele>
        <time>2000-01-01T01:01:47.000Z</time>
      </trkpt>
      <trkpt lat="46.19954" lon="6.7449">
        <ele>1718</ele>
        <time>2000-01-01T01:01:57.000Z</time>
      </trkpt>
      <trkpt lat="46.19951" lon="6.7447">
        <ele>1719.2</ele>
        <time>2000-01-01T01:02:07.000Z</time>
      </trkpt>
      <trkpt lat="46.19925" lon="6.74426">
        <ele>1717</ele>
        <time>2000-01-01T01:02:17.000Z</time>
      </trkpt>
      <trkpt lat="46.19915" lon="6.74394">
        <ele>1716</ele>
        <time>2000-01-01T01:02:27.000Z</time>
      </trkpt>
      <trkpt lat="46.19903" lon="6.74358">
        <ele>1713</ele>
        <time>2000-01-01T01:02:37.000Z</time>
      </trkpt>
      <trkpt lat="46.19896" lon="6.74349">
        <ele>1711.9</ele>
        <time>2000-01-01T01:02:47.000Z</time>
      </trkpt>
      <trkpt lat="46.19898" lon="6.74328">
        <ele>1710</ele>
        <time>2000-01-01T01:02:57.000Z</time>
      </trkpt>
      <trkpt lat="46.19875" lon="6.74317">
        <ele>1709</ele>
        <time>2000-01-01T01:03:07.000Z</time>
      </trkpt>
      <trkpt lat="46.1985" lon="6.74306">
        <ele>1704</ele>
        <time>2000-01-01T01:03:17.000Z</time>
      </trkpt>
      <trkpt lat="46.19838" lon="6.74295">
        <ele>1705.1</ele>
        <time>2000-01-01T01:03:27.000Z</time>
      </trkpt>
      <trkpt lat="46.19813" lon="6.74262">
        <ele>1700</ele>
        <time>2000-01-01T01:03:37.000Z</time>
      </trkpt>
      <trkpt lat="46.19796" lon="6.74229">
        <ele>1698</ele>
        <time>2000-01-01T01:03:47.000Z</time>
      </trkpt>
      <trkpt lat="46.19783" lon="6.74215">
        <ele>1698.6</ele>
        <time>2000-01-01T01:03:57.000Z</time>
      </trkpt>
      <trkpt lat="46.19777" lon="6.74212">
        <ele>1695</ele>
        <time>2000-01-01T01:04:07.000Z</time>
      </trkpt>
      <trkpt lat="46.19757" lon="6.74182">
        <ele>1692</ele>
        <time>2000-01-01T01:04:17.000Z</time>
      </trkpt>
      <trkpt lat="46.19744" lon="6.74153">
        <ele>1692</ele>
        <time>2000-01-01T01:04:27.000Z</time>
      </trkpt>
      <trkpt lat="46.19729" lon="6.74121">
        <ele>1691</ele>
        <time>2000-01-01T01:04:37.000Z</time>
      </trkpt>
      <trkpt lat="46.19709" lon="6.74092">
        <ele>1691</ele>
        <time>2000-01-01T01:04:47.000Z</time>
      </trkpt>
      <trkpt lat="46.19679" lon="6.74048">
        <ele>1690</ele>
        <time>2000-01-01T01:04:57.000Z</time>
      </trkpt>
      <trkpt lat="46.19662" lon="6.74008">
        <ele>1689</ele>
        <time>2000-01-01T01:05:07.000Z</time>
      </trkpt>
      <trkpt lat="46.19644" lon="6.73968">
        <ele>1684</ele>
        <time>2000-01-01T01:05:17.000Z</time>
      </trkpt>
      <trkpt lat="46.19623" lon="6.73917">
        <ele>1682</ele>
        <time>2000-01-01T01:05:27.000Z</time>
      </trkpt>
      <trkpt lat="46.19601" lon="6.7389">
        <ele>1681</ele>
        <time>2000-01-01T01:05:37.000Z</time>
      </trkpt>
      <trkpt lat="46.1957" lon="6.7387">
        <ele>1681</ele>
        <time>2000-01-01T01:05:47.000Z</time>
      </trkpt>
      <trkpt lat="46.19549" lon="6.73862">
        <ele>1675</ele>
        <time>2000-01-01T01:05:57.000Z</time>
      </trkpt>
      <trkpt lat="46.19538" lon="6.73852">
        <ele>1675.9</ele>
        <time>2000-01-01T01:06:07.000Z</time>
      </trkpt>
      <trkpt lat="46.19524" lon="6.73833">
        <ele>1674</ele>
        <time>2000-01-01T01:06:17.000Z</time>
      </trkpt>
      <trkpt lat="46.19517" lon="6.73812">
        <ele>1675.8</ele>
        <time>2000-01-01T01:06:27.000Z</time>
      </trkpt>
      <trkpt lat="46.19504" lon="6.73791">
        <ele>1671</ele>
        <time>2000-01-01T01:06:37.000Z</time>
      </trkpt>
      <trkpt lat="46.19496" lon="6.73768">
        <ele>1672.3</ele>
        <time>2000-01-01T01:06:47.000Z</time>
      </trkpt>
      <trkpt lat="46.19487" lon="6.73758">
        <ele>1666</ele>
        <time>2000-01-01T01:06:57.000Z</time>
      </trkpt>
      <trkpt lat="46.1948" lon="6.73737">
        <ele>1669.5</ele>
        <time>2000-01-01T01:07:07.000Z</time>
      </trkpt>
      <trkpt lat="46.19449" lon="6.73717">
        <ele>1663</ele>
        <time>2000-01-01T01:07:17.000Z</time>
      </trkpt>
      <trkpt lat="46.19416" lon="6.73674">
        <ele>1658</ele>
        <time>2000-01-01T01:07:27.000Z</time>
      </trkpt>
      <trkpt lat="46.19392" lon="6.73628">
        <ele>1657</ele>
        <time>2000-01-01T01:07:37.000Z</time>
      </trkpt>
      <trkpt lat="46.19387" lon="6.7361">
        <ele>1658.4</ele>
        <time>2000-01-01T01:07:47.000Z</time>
      </trkpt>
      <trkpt lat="46.19375" lon="6.73589">
        <ele>1654</ele>
        <time>2000-01-01T01:07:57.000Z</time>
      </trkpt>
      <trkpt lat="46.19363" lon="6.73556">
        <ele>1652</ele>
        <time>2000-01-01T01:08:07.000Z</time>
      </trkpt>
      <trkpt lat="46.19349" lon="6.73513">
        <ele>1647</ele>
        <time>2000-01-01T01:08:17.000Z</time>
      </trkpt>
      <trkpt lat="46.19347" lon="6.73501">
        <ele>1650.9</ele>
        <time>2000-01-01T01:08:27.000Z</time>
      </trkpt>
      <trkpt lat="46.19324" lon="6.7347">
        <ele>1644</ele>
        <time>2000-01-01T01:08:37.000Z</time>
      </trkpt>
      <trkpt lat="46.1931" lon="6.73453">
        <ele>1642.8</ele>
        <time>2000-01-01T01:08:47.000Z</time>
      </trkpt>
      <trkpt lat="46.19303" lon="6.73449">
        <ele>1641</ele>
        <time>2000-01-01T01:08:57.000Z</time>
      </trkpt>
      <trkpt lat="46.19287" lon="6.73421">
        <ele>1640</ele>
        <time>2000-01-01T01:09:07.000Z</time>
      </trkpt>
      <trkpt lat="46.19269" lon="6.73387">
        <ele>1640</ele>
        <time>2000-01-01T01:09:17.000Z</time>
      </trkpt>
      <trkpt lat="46.19258" lon="6.73348">
        <ele>1640</ele>
        <time>2000-01-01T01:09:27.000Z</time>
      </trkpt>
      <trkpt lat="46.19241" lon="6.73286">
        <ele>1637</ele>
        <time>2000-01-01T01:09:37.000Z</time>
      </trkpt>
      <trkpt lat="46.19236" lon="6.73264">
        <ele>1636</ele>
        <time>2000-01-01T01:09:47.000Z</time>
      </trkpt>
      <trkpt lat="46.19232" lon="6.7323">
        <ele>1634</ele>
        <time>2000-01-01T01:09:57.000Z</time>
      </trkpt>
      <trkpt lat="46.19225" lon="6.732">
        <ele>1634</ele>
        <time>2000-01-01T01:10:07.000Z</time>
      </trkpt>
      <trkpt lat="46.19222" lon="6.73161">
        <ele>1633</ele>
        <time>2000-01-01T01:10:17.000Z</time>
      </trkpt>
      <trkpt lat="46.19219" lon="6.73109">
        <ele>1633</ele>
        <time>2000-01-01T01:10:27.000Z</time>
      </trkpt>
      <trkpt lat="46.19222" lon="6.73053">
        <ele>1633</ele>
        <time>2000-01-01T01:10:37.000Z</time>
      </trkpt>
      <trkpt lat="46.19224" lon="6.72998">
        <ele>1628</ele>
        <time>2000-01-01T01:10:47.000Z</time>
      </trkpt>
      <trkpt lat="46.19227" lon="6.72943">
        <ele>1625</ele>
        <time>2000-01-01T01:10:57.000Z</time>
      </trkpt>
      <trkpt lat="46.19229" lon="6.72887">
        <ele>1622</ele>
        <time>2000-01-01T01:11:07.000Z</time>
      </trkpt>
      <trkpt lat="46.19231" lon="6.72848">
        <ele>1620</ele>
        <time>2000-01-01T01:11:17.000Z</time>
      </trkpt>
      <trkpt lat="46.19234" lon="6.72795">
        <ele>1618</ele>
        <time>2000-01-01T01:11:27.000Z</time>
      </trkpt>
      <trkpt lat="46.19238" lon="6.72754">
        <ele>1616</ele>
        <time>2000-01-01T01:11:37.000Z</time>
      </trkpt>
      <trkpt lat="46.19242" lon="6.7272">
        <ele>1615</ele>
        <time>2000-01-01T01:11:47.000Z</time>
      </trkpt>
      <trkpt lat="46.19246" lon="6.72686">
        <ele>1612</ele>
        <time>2000-01-01T01:11:57.000Z</time>
      </trkpt>
      <trkpt lat="46.19244" lon="6.72632">
        <ele>1610</ele>
        <time>2000-01-01T01:12:07.000Z</time>
      </trkpt>
      <trkpt lat="46.19236" lon="6.72569">
        <ele>1608</ele>
        <time>2000-01-01T01:12:17.000Z</time>
      </trkpt>
      <trkpt lat="46.19236" lon="6.72546">
        <ele>1608.8</ele>
        <time>2000-01-01T01:12:27.000Z</time>
      </trkpt>
      <trkpt lat="46.19248" lon="6.72491">
        <ele>1606</ele>
        <time>2000-01-01T01:12:37.000Z</time>
      </trkpt>
      <trkpt lat="46.19262" lon="6.72444">
        <ele>1605</ele>
        <time>2000-01-01T01:12:47.000Z</time>
      </trkpt>
      <trkpt lat="46.19268" lon="6.72433">
        <ele>1606.1</ele>
        <time>2000-01-01T01:12:57.000Z</time>
      </trkpt>
      <trkpt lat="46.193" lon="6.72381">
        <ele>1601</ele>
        <time>2000-01-01T01:13:07.000Z</time>
      </trkpt>
      <trkpt lat="46.19326" lon="6.72344">
        <ele>1601</ele>
        <time>2000-01-01T01:13:17.000Z</time>
      </trkpt>
      <trkpt lat="46.19345" lon="6.72325">
        <ele>1602</ele>
        <time>2000-01-01T01:13:27.000Z</time>
      </trkpt>
      <trkpt lat="46.19354" lon="6.72324">
        <ele>1603.5</ele>
        <time>2000-01-01T01:13:37.000Z</time>
      </trkpt>
      <trkpt lat="46.19366" lon="6.72315">
        <ele>1602</ele>
        <time>2000-01-01T01:13:47.000Z</time>
      </trkpt>
      <trkpt lat="46.1937" lon="6.72308">
        <ele>1602.3</ele>
        <time>2000-01-01T01:13:57.000Z</time>
      </trkpt>
      <trkpt lat="46.19381" lon="6.72266">
        <ele>1595</ele>
        <time>2000-01-01T01:14:07.000Z</time>
      </trkpt>
      <trkpt lat="46.19377" lon="6.72245">
        <ele>1593.5</ele>
        <time>2000-01-01T01:14:17.000Z</time>
      </trkpt>
      <trkpt lat="46.19371" lon="6.72233">
        <ele>1591</ele>
        <time>2000-01-01T01:14:27.000Z</time>
      </trkpt>
      <trkpt lat="46.19354" lon="6.72232">
        <ele>1588.6</ele>
        <time>2000-01-01T01:14:37.000Z</time>
      </trkpt>
      <trkpt lat="46.19348" lon="6.72227">
        <ele>1585</ele>
        <time>2000-01-01T01:14:47.000Z</time>
      </trkpt>
      <trkpt lat="46.19342" lon="6.72225">
        <ele>1585.2</ele>
        <time>2000-01-01T01:14:57.000Z</time>
      </trkpt>
      <trkpt lat="46.1933" lon="6.7223">
        <ele>1583.2</ele>
        <time>2000-01-01T01:15:07.000Z</time>
      </trkpt>
      <trkpt lat="46.19326" lon="6.72228">
        <ele>1579</ele>
        <time>2000-01-01T01:15:17.000Z</time>
      </trkpt>
      <trkpt lat="46.19324" lon="6.72221">
        <ele>1580.1</ele>
        <time>2000-01-01T01:15:27.000Z</time>
      </trkpt>
      <trkpt lat="46.19351" lon="6.72173">
        <ele>1575</ele>
        <time>2000-01-01T01:15:37.000Z</time>
      </trkpt>
      <trkpt lat="46.19347" lon="6.72166">
        <ele>1573.8</ele>
        <time>2000-01-01T01:15:47.000Z</time>
      </trkpt>
      <trkpt lat="46.19402" lon="6.72077">
        <ele>1548</ele>
        <time>2000-01-01T01:15:57.000Z</time>
      </trkpt>
      <trkpt lat="46.19441" lon="6.72058">
        <ele>1547</ele>
        <time>2000-01-01T01:16:07.000Z</time>
      </trkpt>
      <trkpt lat="46.19436" lon="6.72052">
        <ele>1546</ele>
        <time>2000-01-01T01:16:17.000Z</time>
      </trkpt>
      <trkpt lat="46.1944" lon="6.72045">
        <ele>1544.2</ele>
        <time>2000-01-01T01:16:27.000Z</time>
      </trkpt>
      <trkpt lat="46.19456" lon="6.72037">
        <ele>1539</ele>
        <time>2000-01-01T01:16:37.000Z</time>
      </trkpt>
      <trkpt lat="46.19436" lon="6.72025">
        <ele>1535</ele>
        <time>2000-01-01T01:16:47.000Z</time>
      </trkpt>
      <trkpt lat="46.19438" lon="6.7201">
        <ele>1531.4</ele>
        <time>2000-01-01T01:16:57.000Z</time>
      </trkpt>
      <trkpt lat="46.19425" lon="6.72002">
        <ele>1526</ele>
        <time>2000-01-01T01:17:07.000Z</time>
      </trkpt>
      <trkpt lat="46.19407" lon="6.71999">
        <ele>1527</ele>
        <time>2000-01-01T01:17:17.000Z</time>
      </trkpt>
      <trkpt lat="46.19379" lon="6.71964">
        <ele>1518</ele>
        <time>2000-01-01T01:17:27.000Z</time>
      </trkpt>
      <trkpt lat="46.19371" lon="6.71962">
        <ele>1518.6</ele>
        <time>2000-01-01T01:17:37.000Z</time>
      </trkpt>
      <trkpt lat="46.19369" lon="6.71957">
        <ele>1517.2</ele>
        <time>2000-01-01T01:17:47.000Z</time>
      </trkpt>
      <trkpt lat="46.1938" lon="6.71949">
        <ele>1510</ele>
        <time>2000-01-01T01:17:57.000Z</time>
      </trkpt>
      <trkpt lat="46.19379" lon="6.71943">
        <ele>1511.7</ele>
        <time>2000-01-01T01:18:07.000Z</time>
      </trkpt>
      <trkpt lat="46.19371" lon="6.71938">
        <ele>1511.4</ele>
        <time>2000-01-01T01:18:17.000Z</time>
      </trkpt>
      <trkpt lat="46.1937" lon="6.71932">
        <ele>1510.1</ele>
        <time>2000-01-01T01:18:27.000Z</time>
      </trkpt>
      <trkpt lat="46.19371" lon="6.71927">
        <ele>1508</ele>
        <time>2000-01-01T01:18:37.000Z</time>
      </trkpt>
      <trkpt lat="46.1938" lon="6.71928">
        <ele>1507.6</ele>
        <time>2000-01-01T01:18:47.000Z</time>
      </trkpt>
      <trkpt lat="46.19411" lon="6.71935">
        <ele>1501</ele>
        <time>2000-01-01T01:18:57.000Z</time>
      </trkpt>
      <trkpt lat="46.1942" lon="6.7193">
        <ele>1501.8</ele>
        <time>2000-01-01T01:19:07.000Z</time>
      </trkpt>
      <trkpt lat="46.19431" lon="6.71919">
        <ele>1497</ele>
        <time>2000-01-01T01:19:17.000Z</time>
      </trkpt>
      <trkpt lat="46.19453" lon="6.71903">
        <ele>1496</ele>
        <time>2000-01-01T01:19:27.000Z</time>
      </trkpt>
      <trkpt lat="46.19479" lon="6.71896">
        <ele>1492</ele>
        <time>2000-01-01T01:19:37.000Z</time>
      </trkpt>
      <trkpt lat="46.19511" lon="6.71888">
        <ele>1489</ele>
        <time>2000-01-01T01:19:47.000Z</time>
      </trkpt>
      <trkpt lat="46.19536" lon="6.71869">
        <ele>1485</ele>
        <time>2000-01-01T01:19:57.000Z</time>
      </trkpt>
      <trkpt lat="46.19572" lon="6.71842">
        <ele>1482</ele>
        <time>2000-01-01T01:20:07.000Z</time>
      </trkpt>
      <trkpt lat="46.19586" lon="6.7184">
        <ele>1480.6</ele>
        <time>2000-01-01T01:20:17.000Z</time>
      </trkpt>
      <trkpt lat="46.1959" lon="6.71832">
        <ele>1477</ele>
        <time>2000-01-01T01:20:27.000Z</time>
      </trkpt>
      <trkpt lat="46.19589" lon="6.71824">
        <ele>1478</ele>
        <time>2000-01-01T01:20:37.000Z</time>
      </trkpt>
      <trkpt lat="46.19603" lon="6.71815">
        <ele>1477</ele>
        <time>2000-01-01T01:20:47.000Z</time>
      </trkpt>
      <trkpt lat="46.19624" lon="6.71791">
        <ele>1474</ele>
        <time>2000-01-01T01:20:57.000Z</time>
      </trkpt>
      <trkpt lat="46.19649" lon="6.71776">
        <ele>1469</ele>
        <time>2000-01-01T01:21:07.000Z</time>
      </trkpt>
      <trkpt lat="46.19664" lon="6.71776">
        <ele>1469.8</ele>
        <time>2000-01-01T01:21:17.000Z</time>
      </trkpt>
      <trkpt lat="46.19671" lon="6.71772">
        <ele>1468</ele>
        <time>2000-01-01T01:21:27.000Z</time>
      </trkpt>
      <trkpt lat="46.19675" lon="6.71763">
        <ele>1470.2</ele>
        <time>2000-01-01T01:21:37.000Z</time>
      </trkpt>
      <trkpt lat="46.19678" lon="6.71736">
        <ele>1464</ele>
        <time>2000-01-01T01:21:47.000Z</time>
      </trkpt>
      <trkpt lat="46.19685" lon="6.71709">
        <ele>1459</ele>
        <time>2000-01-01T01:21:57.000Z</time>
      </trkpt>
      <trkpt lat="46.19689" lon="6.71701">
        <ele>1460.5</ele>
        <time>2000-01-01T01:22:07.000Z</time>
      </trkpt>
      <trkpt lat="46.19711" lon="6.71678">
        <ele>1456</ele>
        <time>2000-01-01T01:22:17.000Z</time>
      </trkpt>
      <trkpt lat="46.19733" lon="6.71664">
        <ele>1455</ele>
        <time>2000-01-01T01:22:27.000Z</time>
      </trkpt>
      <trkpt lat="46.19764" lon="6.71659">
        <ele>1450</ele>
        <time>2000-01-01T01:22:37.000Z</time>
      </trkpt>
      <trkpt lat="46.19771" lon="6.71652">
        <ele>1456</ele>
        <time>2000-01-01T01:22:47.000Z</time>
      </trkpt>
      <trkpt lat="46.19772" lon="6.71641">
        <ele>1454.8</ele>
        <time>2000-01-01T01:22:57.000Z</time>
      </trkpt>
      <trkpt lat="46.19765" lon="6.71614">
        <ele>1450</ele>
        <time>2000-01-01T01:23:07.000Z</time>
      </trkpt>
      <trkpt lat="46.1976" lon="6.71575">
        <ele>1448</ele>
        <time>2000-01-01T01:23:17.000Z</time>
      </trkpt>
      <trkpt lat="46.19763" lon="6.71547">
        <ele>1444</ele>
        <time>2000-01-01T01:23:27.000Z</time>
      </trkpt>
      <trkpt lat="46.1977" lon="6.71532">
        <ele>1443.7</ele>
        <time>2000-01-01T01:23:37.000Z</time>
      </trkpt>
      <trkpt lat="46.19789" lon="6.71518">
        <ele>1437</ele>
        <time>2000-01-01T01:23:47.000Z</time>
      </trkpt>
      <trkpt lat="46.19794" lon="6.7151">
        <ele>1444.1</ele>
        <time>2000-01-01T01:23:57.000Z</time>
      </trkpt>
      <trkpt lat="46.19814" lon="6.71453">
        <ele>1437</ele>
        <time>2000-01-01T01:24:07.000Z</time>
      </trkpt>
      <trkpt lat="46.19818" lon="6.71434">
        <ele>1441.1</ele>
        <time>2000-01-01T01:24:17.000Z</time>
      </trkpt>
      <trkpt lat="46.19817" lon="6.71401">
        <ele>1434</ele>
        <time>2000-01-01T01:24:27.000Z</time>
      </trkpt>
      <trkpt lat="46.19819" lon="6.7139">
        <ele>1438.9</ele>
        <time>2000-01-01T01:24:37.000Z</time>
      </trkpt>
      <trkpt lat="46.19839" lon="6.71338">
        <ele>1426</ele>
        <time>2000-01-01T01:24:47.000Z</time>
      </trkpt>
      <trkpt lat="46.1985" lon="6.71298">
        <ele>1427</ele>
        <time>2000-01-01T01:24:57.000Z</time>
      </trkpt>
      <trkpt lat="46.19858" lon="6.71265">
        <ele>1428</ele>
        <time>2000-01-01T01:25:07.000Z</time>
      </trkpt>
      <trkpt lat="46.19867" lon="6.7123">
        <ele>1424</ele>
        <time>2000-01-01T01:25:17.000Z</time>
      </trkpt>
      <trkpt lat="46.19858" lon="6.71208">
        <ele>1429.3</ele>
        <time>2000-01-01T01:25:27.000Z</time>
      </trkpt>
      <trkpt lat="46.19848" lon="6.71224">
        <ele>1420</ele>
        <time>2000-01-01T01:25:37.000Z</time>
      </trkpt>
      <trkpt lat="46.19836" lon="6.71262">
        <ele>1420</ele>
        <time>2000-01-01T01:25:47.000Z</time>
      </trkpt>
      <trkpt lat="46.19812" lon="6.71312">
        <ele>1410</ele>
        <time>2000-01-01T01:25:57.000Z</time>
      </trkpt>
      <trkpt lat="46.19802" lon="6.71326">
        <ele>1408.9</ele>
        <time>2000-01-01T01:26:07.000Z</time>
      </trkpt>
      <trkpt lat="46.19787" lon="6.71337">
        <ele>1402</ele>
        <time>2000-01-01T01:26:17.000Z</time>
      </trkpt>
      <trkpt lat="46.19781" lon="6.71338">
        <ele>1404.6</ele>
        <time>2000-01-01T01:26:27.000Z</time>
      </trkpt>
      <trkpt lat="46.19777" lon="6.71334">
        <ele>1402.1</ele>
        <time>2000-01-01T01:26:37.000Z</time>
      </trkpt>
      <trkpt lat="46.19767" lon="6.7129">
        <ele>1394</ele>
        <time>2000-01-01T01:26:47.000Z</time>
      </trkpt>
      <trkpt lat="46.19766" lon="6.71234">
        <ele>1387</ele>
        <time>2000-01-01T01:26:57.000Z</time>
      </trkpt>
      <trkpt lat="46.19772" lon="6.71181">
        <ele>1382</ele>
        <time>2000-01-01T01:27:07.000Z</time>
      </trkpt>
      <trkpt lat="46.19766" lon="6.71136">
        <ele>1374</ele>
        <time>2000-01-01T01:27:17.000Z</time>
      </trkpt>
      <trkpt lat="46.1976" lon="6.7109">
        <ele>1366</ele>
        <time>2000-01-01T01:27:27.000Z</time>
      </trkpt>
      <trkpt lat="46.19753" lon="6.71038">
        <ele>1359</ele>
        <time>2000-01-01T01:27:37.000Z</time>
      </trkpt>
      <trkpt lat="46.1975" lon="6.71033">
        <ele>1359.8</ele>
        <time>2000-01-01T01:27:47.000Z</time>
      </trkpt>
      <trkpt lat="46.19747" lon="6.71032">
        <ele>1358.7</ele>
        <time>2000-01-01T01:27:57.000Z</time>
      </trkpt>
      <trkpt lat="46.19728" lon="6.71054">
        <ele>1352</ele>
        <time>2000-01-01T01:28:07.000Z</time>
      </trkpt>
      <trkpt lat="46.19703" lon="6.71067">
        <ele>1349</ele>
        <time>2000-01-01T01:28:17.000Z</time>
      </trkpt>
      <trkpt lat="46.19696" lon="6.71064">
        <ele>1347.4</ele>
        <time>2000-01-01T01:28:27.000Z</time>
      </trkpt>
      <trkpt lat="46.19687" lon="6.71041">
        <ele>1340</ele>
        <time>2000-01-01T01:28:37.000Z</time>
      </trkpt>
      <trkpt lat="46.19683" lon="6.71013">
        <ele>1337</ele>
        <time>2000-01-01T01:28:47.000Z</time>
      </trkpt>
      <trkpt lat="46.19686" lon="6.70974">
        <ele>1332</ele>
        <time>2000-01-01T01:28:57.000Z</time>
      </trkpt>
      <trkpt lat="46.1969" lon="6.70921">
        <ele>1325</ele>
        <time>2000-01-01T01:29:07.000Z</time>
      </trkpt>
      <trkpt lat="46.19689" lon="6.70894">
        <ele>1318</ele>
        <time>2000-01-01T01:29:17.000Z</time>
      </trkpt>
      <trkpt lat="46.19673" lon="6.70853">
        <ele>1313</ele>
        <time>2000-01-01T01:29:27.000Z</time>
      </trkpt>
      <trkpt lat="46.19667" lon="6.70828">
        <ele>1309.8</ele>
        <time>2000-01-01T01:29:37.000Z</time>
      </trkpt>
      <trkpt lat="46.19661" lon="6.70734">
        <ele>1296</ele>
        <time>2000-01-01T01:29:47.000Z</time>
      </trkpt>
      <trkpt lat="46.19658" lon="6.70714">
        <ele>1295.9</ele>
        <time>2000-01-01T01:29:57.000Z</time>
      </trkpt>
      <trkpt lat="46.19654" lon="6.70709">
        <ele>1292</ele>
        <time>2000-01-01T01:30:07.000Z</time>
      </trkpt>
      <trkpt lat="46.19644" lon="6.70705">
        <ele>1291</ele>
        <time>2000-01-01T01:30:17.000Z</time>
      </trkpt>
      <trkpt lat="46.19641" lon="6.70698">
        <ele>1289.8</ele>
        <time>2000-01-01T01:30:27.000Z</time>
      </trkpt>
      <trkpt lat="46.1964" lon="6.70587">
        <ele>1275</ele>
        <time>2000-01-01T01:30:37.000Z</time>
      </trkpt>
      <trkpt lat="46.19637" lon="6.70584">
        <ele>1274.3</ele>
        <time>2000-01-01T01:30:47.000Z</time>
      </trkpt>
      <trkpt lat="46.19635" lon="6.70585">
        <ele>1273.7</ele>
        <time>2000-01-01T01:30:57.000Z</time>
      </trkpt>
      <trkpt lat="46.19618" lon="6.70616">
        <ele>1266</ele>
        <time>2000-01-01T01:31:07.000Z</time>
      </trkpt>
      <trkpt lat="46.19613" lon="6.70617">
        <ele>1267.3</ele>
        <time>2000-01-01T01:31:17.000Z</time>
      </trkpt>
      <trkpt lat="46.1961" lon="6.70613">
        <ele>1265.7</ele>
        <time>2000-01-01T01:31:27.000Z</time>
      </trkpt>
      <trkpt lat="46.19606" lon="6.7051">
        <ele>1250</ele>
        <time>2000-01-01T01:31:37.000Z</time>
      </trkpt>
      <trkpt lat="46.19601" lon="6.70509">
        <ele>1250.7</ele>
        <time>2000-01-01T01:31:47.000Z</time>
      </trkpt>
      <trkpt lat="46.19563" lon="6.70552">
        <ele>1241</ele>
        <time>2000-01-01T01:31:57.000Z</time>
      </trkpt>
      <trkpt lat="46.19549" lon="6.70572">
        <ele>1234</ele>
        <time>2000-01-01T01:32:07.000Z</time>
      </trkpt>
      <trkpt lat="46.19546" lon="6.70574">
        <ele>1237</ele>
        <time>2000-01-01T01:32:17.000Z</time>
      </trkpt>
      <trkpt lat="46.19543" lon="6.70573">
        <ele>1236.2</ele>
        <time>2000-01-01T01:32:27.000Z</time>
      </trkpt>
      <trkpt lat="46.19538" lon="6.7056">
        <ele>1234.6</ele>
        <time>2000-01-01T01:32:37.000Z</time>
      </trkpt>
      <trkpt lat="46.19537" lon="6.70525">
        <ele>1228</ele>
        <time>2000-01-01T01:32:47.000Z</time>
      </trkpt>
      <trkpt lat="46.1953" lon="6.70472">
        <ele>1223</ele>
        <time>2000-01-01T01:32:57.000Z</time>
      </trkpt>
      <trkpt lat="46.19529" lon="6.70406">
        <ele>1211</ele>
        <time>2000-01-01T01:33:07.000Z</time>
      </trkpt>
      <trkpt lat="46.19524" lon="6.70399">
        <ele>1211.7</ele>
        <time>2000-01-01T01:33:17.000Z</time>
      </trkpt>
      <trkpt lat="46.1952" lon="6.70398">
        <ele>1210.3</ele>
        <time>2000-01-01T01:33:27.000Z</time>
      </trkpt>
      <trkpt lat="46.1951" lon="6.70403">
        <ele>1204</ele>
        <time>2000-01-01T01:33:37.000Z</time>
      </trkpt>
      <trkpt lat="46.19501" lon="6.70412">
        <ele>1206.6</ele>
        <time>2000-01-01T01:33:47.000Z</time>
      </trkpt>
      <trkpt lat="46.19481" lon="6.7044">
        <ele>1198</ele>
        <time>2000-01-01T01:33:57.000Z</time>
      </trkpt>
      <trkpt lat="46.19469" lon="6.70475">
        <ele>1191</ele>
        <time>2000-01-01T01:34:07.000Z</time>
      </trkpt>
      <trkpt lat="46.19451" lon="6.70525">
        <ele>1186</ele>
        <time>2000-01-01T01:34:17.000Z</time>
      </trkpt>
      <trkpt lat="46.19447" lon="6.7056">
        <ele>1180</ele>
        <time>2000-01-01T01:34:27.000Z</time>
      </trkpt>
      <trkpt lat="46.19444" lon="6.70562">
        <ele>1183.7</ele>
        <time>2000-01-01T01:34:37.000Z</time>
      </trkpt>
      <trkpt lat="46.19441" lon="6.70561">
        <ele>1181.8</ele>
        <time>2000-01-01T01:34:47.000Z</time>
      </trkpt>
      <trkpt lat="46.19428" lon="6.7051">
        <ele>1167</ele>
        <time>2000-01-01T01:34:57.000Z</time>
      </trkpt>
      <trkpt lat="46.19428" lon="6.70467">
        <ele>1161</ele>
        <time>2000-01-01T01:35:07.000Z</time>
      </trkpt>
      <trkpt lat="46.19424" lon="6.70429">
        <ele>1161</ele>
        <time>2000-01-01T01:35:17.000Z</time>
      </trkpt>
      <trkpt lat="46.19418" lon="6.70376">
        <ele>1151</ele>
        <time>2000-01-01T01:35:27.000Z</time>
      </trkpt>
      <trkpt lat="46.1942" lon="6.70349">
        <ele>1149</ele>
        <time>2000-01-01T01:35:37.000Z</time>
      </trkpt>
      <trkpt lat="46.1943" lon="6.70314">
        <ele>1147</ele>
        <time>2000-01-01T01:35:47.000Z</time>
      </trkpt>
      <trkpt lat="46.19429" lon="6.70304">
        <ele>1144.3</ele>
        <time>2000-01-01T01:35:57.000Z</time>
      </trkpt>
      <trkpt lat="46.19424" lon="6.70299">
        <ele>1140.2</ele>
        <time>2000-01-01T01:36:07.000Z</time>
      </trkpt>
      <trkpt lat="46.19416" lon="6.70304">
        <ele>1134</ele>
        <time>2000-01-01T01:36:17.000Z</time>
      </trkpt>
      <trkpt lat="46.19382" lon="6.70347">
        <ele>1131</ele>
        <time>2000-01-01T01:36:27.000Z</time>
      </trkpt>
      <trkpt lat="46.19358" lon="6.70388">
        <ele>1120</ele>
        <time>2000-01-01T01:36:37.000Z</time>
      </trkpt>
      <trkpt lat="46.19351" lon="6.70406">
        <ele>1122.7</ele>
        <time>2000-01-01T01:36:47.000Z</time>
      </trkpt>
      <trkpt lat="46.19336" lon="6.70467">
        <ele>1109</ele>
        <time>2000-01-01T01:36:57.000Z</time>
      </trkpt>
      <trkpt lat="46.19331" lon="6.70467">
        <ele>1110.9</ele>
        <time>2000-01-01T01:37:07.000Z</time>
      </trkpt>
      <trkpt lat="46.19304" lon="6.70362">
        <ele>1091</ele>
        <time>2000-01-01T01:37:17.000Z</time>
      </trkpt>
      <trkpt lat="46.19301" lon="6.70332">
        <ele>1087</ele>
        <time>2000-01-01T01:37:27.000Z</time>
      </trkpt>
      <trkpt lat="46.19302" lon="6.7031">
        <ele>1085.3</ele>
        <time>2000-01-01T01:37:37.000Z</time>
      </trkpt>
      <trkpt lat="46.19317" lon="6.70242">
        <ele>1072</ele>
        <time>2000-01-01T01:37:47.000Z</time>
      </trkpt>
      <trkpt lat="46.19328" lon="6.70209">
        <ele>1059</ele>
        <time>2000-01-01T01:37:57.000Z</time>
      </trkpt>
      <trkpt lat="46.19341" lon="6.70172">
        <ele>1058</ele>
        <time>2000-01-01T01:38:07.000Z</time>
      </trkpt>
      <trkpt lat="46.19349" lon="6.70159">
        <ele>1060.6</ele>
        <time>2000-01-01T01:38:17.000Z</time>
      </trkpt>
      <trkpt lat="46.1935" lon="6.70154">
        <ele>1059.6</ele>
        <time>2000-01-01T01:38:27.000Z</time>
      </trkpt>
      <trkpt lat="46.19347" lon="6.7015">
        <ele>1055</ele>
        <time>2000-01-01T01:38:37.000Z</time>
      </trkpt>
      <trkpt lat="46.19343" lon="6.70151">
        <ele>1055.7</ele>
        <time>2000-01-01T01:38:47.000Z</time>
      </trkpt>
      <trkpt lat="46.19332" lon="6.70166">
        <ele>1050</ele>
        <time>2000-01-01T01:38:57.000Z</time>
      </trkpt>
      <trkpt lat="46.19303" lon="6.70182">
        <ele>1043</ele>
        <time>2000-01-01T01:39:07.000Z</time>
      </trkpt>
      <trkpt lat="46.19274" lon="6.70199">
        <ele>1034</ele>
        <time>2000-01-01T01:39:17.000Z</time>
      </trkpt>
      <trkpt lat="46.19245" lon="6.70215">
        <ele>1027</ele>
        <time>2000-01-01T01:39:27.000Z</time>
      </trkpt>
      <trkpt lat="46.19218" lon="6.70244">
        <ele>1023</ele>
        <time>2000-01-01T01:39:37.000Z</time>
      </trkpt>
      <trkpt lat="46.19214" lon="6.70242">
        <ele>1024.4</ele>
        <time>2000-01-01T01:39:47.000Z</time>
      </trkpt>
      <trkpt lat="46.19215" lon="6.70228">
        <ele>1021.7</ele>
        <time>2000-01-01T01:39:57.000Z</time>
      </trkpt>
      <trkpt lat="46.19231" lon="6.70179">
        <ele>1010</ele>
        <time>2000-01-01T01:40:07.000Z</time>
      </trkpt>
      <trkpt lat="46.19241" lon="6.70152">
        <ele>1010</ele>
        <time>2000-01-01T01:40:17.000Z</time>
      </trkpt>
      <trkpt lat="46.19266" lon="6.70098">
        <ele>1001</ele>
        <time>2000-01-01T01:40:27.000Z</time>
      </trkpt>
      <trkpt lat="46.19265" lon="6.70092">
        <ele>1002.8</ele>
        <time>2000-01-01T01:40:37.000Z</time>
      </trkpt>
      <trkpt lat="46.19253" lon="6.70097">
        <ele>1000.8</ele>
        <time>2000-01-01T01:40:47.000Z</time>
      </trkpt>
      <trkpt lat="46.19211" lon="6.70124">
        <ele>993</ele>
        <time>2000-01-01T01:40:57.000Z</time>
      </trkpt>
      <trkpt lat="46.19176" lon="6.70151">
        <ele>990</ele>
        <time>2000-01-01T01:41:07.000Z</time>
      </trkpt>
      <trkpt lat="46.19164" lon="6.70168">
        <ele>990.5</ele>
        <time>2000-01-01T01:41:17.000Z</time>
      </trkpt>
      <trkpt lat="46.19161" lon="6.70166">
        <ele>990</ele>
        <time>2000-01-01T01:41:27.000Z</time>
      </trkpt>
      <trkpt lat="46.1916" lon="6.70157">
        <ele>988.1</ele>
        <time>2000-01-01T01:41:37.000Z</time>
      </trkpt>
      <trkpt lat="46.19177" lon="6.70136">
        <ele>985</ele>
        <time>2000-01-01T01:41:47.000Z</time>
      </trkpt>
      <trkpt lat="46.19147" lon="6.70142">
        <ele>980</ele>
        <time>2000-01-01T01:41:57.000Z</time>
      </trkpt>
      <trkpt lat="46.19141" lon="6.70136">
        <ele>980.2</ele>
        <time>2000-01-01T01:42:07.000Z</time>
      </trkpt>
      <trkpt lat="46.1914" lon="6.70131">
        <ele>979.4</ele>
        <time>2000-01-01T01:42:17.000Z</time>
      </trkpt>
      <trkpt lat="46.19143" lon="6.70109">
        <ele>974</ele>
        <time>2000-01-01T01:42:27.000Z</time>
      </trkpt>
      <trkpt lat="46.1914" lon="6.70099">
        <ele>975.4</ele>
        <time>2000-01-01T01:42:37.000Z</time>
      </trkpt>
      <trkpt lat="46.19133" lon="6.70096">
        <ele>974.2</ele>
        <time>2000-01-01T01:42:47.000Z</time>
      </trkpt>
      <trkpt lat="46.19071" lon="6.70125">
        <ele>973</ele>
        <time>2000-01-01T01:42:57.000Z</time>
      </trkpt>
      <trkpt lat="46.1908" lon="6.70109">
        <ele>972.5</ele>
        <time>2000-01-01T01:43:07.000Z</time>
      </trkpt>
      <trkpt lat="46.19108" lon="6.70077">
        <ele>967</ele>
        <time>2000-01-01T01:43:17.000Z</time>
      </trkpt>
      <trkpt lat="46.19129" lon="6.70055">
        <ele>967</ele>
        <time>2000-01-01T01:43:27.000Z</time>
      </trkpt>
      <trkpt lat="46.19154" lon="6.70029">
        <ele>965</ele>
        <time>2000-01-01T01:43:37.000Z</time>
      </trkpt>
      <trkpt lat="46.19171" lon="6.70003">
        <ele>964</ele>
        <time>2000-01-01T01:43:47.000Z</time>
      </trkpt>
      <trkpt lat="46.1916" lon="6.69989">
        <ele>963</ele>
        <time>2000-01-01T01:43:57.000Z</time>
      </trkpt>
      <trkpt lat="46.19144" lon="6.69958">
        <ele>959</ele>
        <time>2000-01-01T01:44:07.000Z</time>
      </trkpt>
      <trkpt lat="46.19132" lon="6.69971">
        <ele>960</ele>
        <time>2000-01-01T01:44:17.000Z</time>
      </trkpt>
      <trkpt lat="46.19126" lon="6.6997">
        <ele>958</ele>
        <time>2000-01-01T01:44:27.000Z</time>
      </trkpt>
      <trkpt lat="46.19109" lon="6.6998">
        <ele>957.9</ele>
        <time>2000-01-01T01:44:37.000Z</time>
      </trkpt>
      <trkpt lat="46.19101" lon="6.6998">
        <ele>954</ele>
        <time>2000-01-01T01:44:47.000Z</time>
      </trkpt>
      <trkpt lat="46.19095" lon="6.69974">
        <ele>955.5</ele>
        <time>2000-01-01T01:44:57.000Z</time>
      </trkpt>
      <trkpt lat="46.19085" lon="6.69948">
        <ele>948</ele>
        <time>2000-01-01T01:45:07.000Z</time>
      </trkpt>
      <trkpt lat="46.19081" lon="6.69922">
        <ele>945.7</ele>
        <time>2000-01-01T01:45:17.000Z</time>
      </trkpt>
      <trkpt lat="46.19066" lon="6.6991">
        <ele>943</ele>
        <time>2000-01-01T01:45:27.000Z</time>
      </trkpt>
      <trkpt lat="46.1907" lon="6.69878">
        <ele>937</ele>
        <time>2000-01-01T01:45:37.000Z</time>
      </trkpt>
      <trkpt lat="46.1905" lon="6.69858">
        <ele>934</ele>
        <time>2000-01-01T01:45:47.000Z</time>
      </trkpt>
      <trkpt lat="46.19028" lon="6.69841">
        <ele>933</ele>
        <time>2000-01-01T01:45:57.000Z</time>
      </trkpt>
      <trkpt lat="46.19004" lon="6.6982">
        <ele>930</ele>
        <time>2000-01-01T01:46:07.000Z</time>
      </trkpt>
      <trkpt lat="46.18985" lon="6.69816">
        <ele>927</ele>
        <time>2000-01-01T01:46:17.000Z</time>
      </trkpt>
      <trkpt lat="46.18967" lon="6.69786">
        <ele>923</ele>
        <time>2000-01-01T01:46:27.000Z</time>
      </trkpt>
      <trkpt lat="46.18956" lon="6.69736">
        <ele>920</ele>
        <time>2000-01-01T01:46:37.000Z</time>
      </trkpt>
      <trkpt lat="46.18921" lon="6.69769">
        <ele>919</ele>
        <time>2000-01-01T01:46:47.000Z</time>
      </trkpt>
      <trkpt lat="46.18906" lon="6.69779">
        <ele>918.7</ele>
        <time>2000-01-01T01:46:57.000Z</time>
      </trkpt>
      <trkpt lat="46.1881" lon="6.69819">
        <ele>919</ele>
        <time>2000-01-01T01:47:07.000Z</time>
      </trkpt>
      <trkpt lat="46.18786" lon="6.6984">
        <ele>921</ele>
        <time>2000-01-01T01:47:17.000Z</time>
      </trkpt>
      <trkpt lat="46.18751" lon="6.69873">
        <ele>922</ele>
        <time>2000-01-01T01:47:27.000Z</time>
      </trkpt>
      <trkpt lat="46.18742" lon="6.69889">
        <ele>922.7</ele>
        <time>2000-01-01T01:47:37.000Z</time>
      </trkpt>
      <trkpt lat="46.18741" lon="6.69901">
        <ele>923</ele>
        <time>2000-01-01T01:47:47.000Z</time>
      </trkpt>
      <trkpt lat="46.18748" lon="6.69957">
        <ele>924</ele>
        <time>2000-01-01T01:47:57.000Z</time>
      </trkpt>
      <trkpt lat="46.18747" lon="6.69968">
        <ele>924.7</ele>
        <time>2000-01-01T01:48:07.000Z</time>
      </trkpt>
      <trkpt lat="46.18739" lon="6.69988">
        <ele>925</ele>
        <time>2000-01-01T01:48:17.000Z</time>
      </trkpt>
      <trkpt lat="46.18735" lon="6.70003">
        <ele>926.2</ele>
        <time>2000-01-01T01:48:27.000Z</time>
      </trkpt>
      <trkpt lat="46.18728" lon="6.70022">
        <ele>926</ele>
        <time>2000-01-01T01:48:37.000Z</time>
      </trkpt>
      <trkpt lat="46.18713" lon="6.70052">
        <ele>928</ele>
        <time>2000-01-01T01:48:47.000Z</time>
      </trkpt>
      <trkpt lat="46.18694" lon="6.7009">
        <ele>928</ele>
        <time>2000-01-01T01:48:57.000Z</time>
      </trkpt>
      <trkpt lat="46.18674" lon="6.70138">
        <ele>928</ele>
        <time>2000-01-01T01:49:07.000Z</time>
      </trkpt>
      <trkpt lat="46.18648" lon="6.70176">
        <ele>929</ele>
        <time>2000-01-01T01:49:17.000Z</time>
      </trkpt>
      <trkpt lat="46.18636" lon="6.70186">
        <ele>929.7</ele>
        <time>2000-01-01T01:49:27.000Z</time>
      </trkpt>
      <trkpt lat="46.18591" lon="6.70205">
        <ele>930</ele>
        <time>2000-01-01T01:49:37.000Z</time>
      </trkpt>
      <trkpt lat="46.18572" lon="6.70226">
        <ele>931</ele>
        <time>2000-01-01T01:49:47.000Z</time>
      </trkpt>
      <trkpt lat="46.18551" lon="6.7025">
        <ele>932</ele>
        <time>2000-01-01T01:49:57.000Z</time>
      </trkpt>
      <trkpt lat="46.1853" lon="6.70268">
        <ele>932</ele>
        <time>2000-01-01T01:50:07.000Z</time>
      </trkpt>
      <trkpt lat="46.1851" lon="6.70297">
        <ele>932</ele>
        <time>2000-01-01T01:50:17.000Z</time>
      </trkpt>
      <trkpt lat="46.18482" lon="6.7034">
        <ele>934</ele>
        <time>2000-01-01T01:50:27.000Z</time>
      </trkpt>
      <trkpt lat="46.18474" lon="6.70351">
        <ele>935.4</ele>
        <time>2000-01-01T01:50:37.000Z</time>
      </trkpt>
      <trkpt lat="46.18129" lon="6.70726">
        <ele>945</ele>
        <time>2000-01-01T01:50:47.000Z</time>
      </trkpt>
      <trkpt lat="46.18102" lon="6.70744">
        <ele>945</ele>
        <time>2000-01-01T01:50:57.000Z</time>
      </trkpt>
      <trkpt lat="46.18057" lon="6.70774">
        <ele>949</ele>
        <time>2000-01-01T01:51:07.000Z</time>
      </trkpt>
      <trkpt lat="46.18023" lon="6.70796">
        <ele>950</ele>
        <time>2000-01-01T01:51:17.000Z</time>
      </trkpt>
      <trkpt lat="46.17989" lon="6.70818">
        <ele>953</ele>
        <time>2000-01-01T01:51:27.000Z</time>
      </trkpt>
      <trkpt lat="46.17955" lon="6.7084">
        <ele>953</ele>
        <time>2000-01-01T01:51:37.000Z</time>
      </trkpt>
      <trkpt lat="46.17921" lon="6.70862">
        <ele>953</ele>
        <time>2000-01-01T01:51:47.000Z</time>
      </trkpt>
      <trkpt lat="46.17886" lon="6.70885">
        <ele>958</ele>
        <time>2000-01-01T01:51:57.000Z</time>
      </trkpt>
      <trkpt lat="46.17891" lon="6.70843">
        <ele>958</ele>
        <time>2000-01-01T01:52:07.000Z</time>
      </trkpt>
      <trkpt lat="46.17899" lon="6.7077">
        <ele>960</ele>
        <time>2000-01-01T01:52:17.000Z</time>
      </trkpt>
      <trkpt lat="46.17911" lon="6.70726">
        <ele>962</ele>
        <time>2000-01-01T01:52:27.000Z</time>
      </trkpt>
      <trkpt lat="46.17923" lon="6.70682">
        <ele>964</ele>
        <time>2000-01-01T01:52:37.000Z</time>
      </trkpt>
      <trkpt lat="46.17939" lon="6.70622">
        <ele>968</ele>
        <time>2000-01-01T01:52:47.000Z</time>
      </trkpt>
      <trkpt lat="46.17947" lon="6.70607">
        <ele>967.7</ele>
        <time>2000-01-01T01:52:57.000Z</time>
      </trkpt>
      <trkpt lat="46.17959" lon="6.70598">
        <ele>968</ele>
        <time>2000-01-01T01:53:07.000Z</time>
      </trkpt>
      <trkpt lat="46.17976" lon="6.70593">
        <ele>968.1</ele>
        <time>2000-01-01T01:53:17.000Z</time>
      </trkpt>
      <trkpt lat="46.18019" lon="6.7059">
        <ele>969</ele>
        <time>2000-01-01T01:53:27.000Z</time>
      </trkpt>
      <trkpt lat="46.18045" lon="6.70573">
        <ele>970</ele>
        <time>2000-01-01T01:53:37.000Z</time>
      </trkpt>
      <trkpt lat="46.18085" lon="6.70547">
        <ele>973</ele>
        <time>2000-01-01T01:53:47.000Z</time>
      </trkpt>
      <trkpt lat="46.18101" lon="6.70531">
        <ele>973</ele>
        <time>2000-01-01T01:53:57.000Z</time>
      </trkpt>
      <trkpt lat="46.18115" lon="6.70504">
        <ele>973</ele>
        <time>2000-01-01T01:54:07.000Z</time>
      </trkpt>
      <trkpt lat="46.18124" lon="6.70484">
        <ele>974</ele>
        <time>2000-01-01T01:54:17.000Z</time>
      </trkpt>
      <trkpt lat="46.18136" lon="6.70442">
        <ele>973</ele>
        <time>2000-01-01T01:54:27.000Z</time>
      </trkpt>
      <trkpt lat="46.18146" lon="6.70419">
        <ele>972</ele>
        <time>2000-01-01T01:54:37.000Z</time>
      </trkpt>
      <trkpt lat="46.18129" lon="6.70389">
        <ele>972</ele>
        <time>2000-01-01T01:54:47.000Z</time>
      </trkpt>
      <trkpt lat="46.18128" lon="6.70386">
        <ele>972.9</ele>
        <time>2000-01-01T01:54:57.000Z</time>
      </trkpt>
      <trkpt lat="46.1813" lon="6.70351">
        <ele>972</ele>
        <time>2000-01-01T01:55:07.000Z</time>
      </trkpt>
      <trkpt lat="46.18107" lon="6.70315">
        <ele>973</ele>
        <time>2000-01-01T01:55:17.000Z</time>
      </trkpt>
      <trkpt lat="46.18084" lon="6.70279">
        <ele>974</ele>
        <time>2000-01-01T01:55:27.000Z</time>
      </trkpt>
      <trkpt lat="46.18045" lon="6.7022">
        <ele>978</ele>
        <time>2000-01-01T01:55:37.000Z</time>
      </trkpt>
      <trkpt lat="46.1801" lon="6.70182">
        <ele>981</ele>
        <time>2000-01-01T01:55:47.000Z</time>
      </trkpt>
      <trkpt lat="46.17995" lon="6.7021">
        <ele>983</ele>
        <time>2000-01-01T01:55:57.000Z</time>
      </trkpt>
      <trkpt lat="46.17958" lon="6.70174">
        <ele>988</ele>
        <time>2000-01-01T01:56:07.000Z</time>
      </trkpt>
      <trkpt lat="46.1792" lon="6.70139">
        <ele>999</ele>
        <time>2000-01-01T01:56:17.000Z</time>
      </trkpt>
      <trkpt lat="46.17888" lon="6.70108">
        <ele>1012</ele>
        <time>2000-01-01T01:56:27.000Z</time>
      </trkpt>
      <trkpt lat="46.17856" lon="6.70077">
        <ele>1026</ele>
        <time>2000-01-01T01:56:37.000Z</time>
      </trkpt>
      <trkpt lat="46.17824" lon="6.70046">
        <ele>1040</ele>
        <time>2000-01-01T01:56:47.000Z</time>
      </trkpt>
      <trkpt lat="46.17791" lon="6.70015">
        <ele>1054</ele>
        <time>2000-01-01T01:56:57.000Z</time>
      </trkpt>
      <trkpt lat="46.17733" lon="6.69959">
        <ele>1091</ele>
        <time>2000-01-01T01:57:07.000Z</time>
      </trkpt>
      <trkpt lat="46.17695" lon="6.69924">
        <ele>1119</ele>
        <time>2000-01-01T01:57:17.000Z</time>
      </trkpt>
      <trkpt lat="46.17663" lon="6.69893">
        <ele>1142</ele>
        <time>2000-01-01T01:57:27.000Z</time>
      </trkpt>
      <trkpt lat="46.17631" lon="6.69862">
        <ele>1161</ele>
        <time>2000-01-01T01:57:37.000Z</time>
      </trkpt>
      <trkpt lat="46.17599" lon="6.69831">
        <ele>1188</ele>
        <time>2000-01-01T01:57:47.000Z</time>
      </trkpt>
      <trkpt lat="46.17566" lon="6.698">
        <ele>1198</ele>
        <time>2000-01-01T01:57:57.000Z</time>
      </trkpt>
      <trkpt lat="46.17508" lon="6.69744">
        <ele>1218</ele>
        <time>2000-01-01T01:58:07.000Z</time>
      </trkpt>
      <trkpt lat="46.1747" lon="6.69709">
        <ele>1231</ele>
        <time>2000-01-01T01:58:17.000Z</time>
      </trkpt>
      <trkpt lat="46.17438" lon="6.69678">
        <ele>1251</ele>
        <time>2000-01-01T01:58:27.000Z</time>
      </trkpt>
      <trkpt lat="46.17406" lon="6.69647">
        <ele>1268</ele>
        <time>2000-01-01T01:58:37.000Z</time>
      </trkpt>
      <trkpt lat="46.17374" lon="6.69616">
        <ele>1281</ele>
        <time>2000-01-01T01:58:47.000Z</time>
      </trkpt>
      <trkpt lat="46.17341" lon="6.69585">
        <ele>1291</ele>
        <time>2000-01-01T01:58:57.000Z</time>
      </trkpt>
      <trkpt lat="46.17283" lon="6.69529">
        <ele>1321</ele>
        <time>2000-01-01T01:59:07.000Z</time>
      </trkpt>
      <trkpt lat="46.17245" lon="6.69494">
        <ele>1337</ele>
        <time>2000-01-01T01:59:17.000Z</time>
      </trkpt>
      <trkpt lat="46.17216" lon="6.69466">
        <ele>1349</ele>
        <time>2000-01-01T01:59:27.000Z</time>
      </trkpt>
      <trkpt lat="46.17187" lon="6.69438">
        <ele>1372</ele>
        <time>2000-01-01T01:59:37.000Z</time>
      </trkpt>
      <trkpt lat="46.17133" lon="6.69386">
        <ele>1405</ele>
        <time>2000-01-01T01:59:47.000Z</time>
      </trkpt>
      <trkpt lat="46.17101" lon="6.69356">
        <ele>1426</ele>
        <time>2000-01-01T01:59:57.000Z</time>
      </trkpt>
      <trkpt lat="46.17069" lon="6.69325">
        <ele>1438</ele>
        <time>2000-01-01T02:00:07.000Z</time>
      </trkpt>
      <trkpt lat="46.17037" lon="6.69295">
        <ele>1462</ele>
        <time>2000-01-01T02:00:17.000Z</time>
      </trkpt>
      <trkpt lat="46.17005" lon="6.69264">
        <ele>1482</ele>
        <time>2000-01-01T02:00:27.000Z</time>
      </trkpt>
      <trkpt lat="46.16953" lon="6.69215">
        <ele>1485</ele>
        <time>2000-01-01T02:00:37.000Z</time>
      </trkpt>
      <trkpt lat="46.16955" lon="6.69215">
        <ele>1497.6</ele>
        <time>2000-01-01T02:00:47.000Z</time>
      </trkpt>
      <trkpt lat="46.16966" lon="6.69209">
        <ele>1496.4</ele>
        <time>2000-01-01T02:00:57.000Z</time>
      </trkpt>
      <trkpt lat="46.17023" lon="6.69158">
        <ele>1485</ele>
        <time>2000-01-01T02:01:07.000Z</time>
      </trkpt>
      <trkpt lat="46.17046" lon="6.69126">
        <ele>1485</ele>
        <time>2000-01-01T02:01:17.000Z</time>
      </trkpt>
      <trkpt lat="46.17067" lon="6.69101">
        <ele>1481</ele>
        <time>2000-01-01T02:01:27.000Z</time>
      </trkpt>
      <trkpt lat="46.17089" lon="6.69091">
        <ele>1478</ele>
        <time>2000-01-01T02:01:37.000Z</time>
      </trkpt>
      <trkpt lat="46.17098" lon="6.69089">
        <ele>1476.3</ele>
        <time>2000-01-01T02:01:47.000Z</time>
      </trkpt>
      <trkpt lat="46.17121" lon="6.69086">
        <ele>1474</ele>
        <time>2000-01-01T02:01:57.000Z</time>
      </trkpt>
      <trkpt lat="46.17142" lon="6.6909">
        <ele>1472</ele>
        <time>2000-01-01T02:02:07.000Z</time>
      </trkpt>
      <trkpt lat="46.1717" lon="6.69103">
        <ele>1470</ele>
        <time>2000-01-01T02:02:17.000Z</time>
      </trkpt>
      <trkpt lat="46.17184" lon="6.69102">
        <ele>1466.2</ele>
        <time>2000-01-01T02:02:27.000Z</time>
      </trkpt>
      <trkpt lat="46.1719" lon="6.69101">
        <ele>1466</ele>
        <time>2000-01-01T02:02:37.000Z</time>
      </trkpt>
      <trkpt lat="46.17202" lon="6.69096">
        <ele>1461.8</ele>
        <time>2000-01-01T02:02:47.000Z</time>
      </trkpt>
      <trkpt lat="46.17209" lon="6.69087">
        <ele>1463</ele>
        <time>2000-01-01T02:02:57.000Z</time>
      </trkpt>
      <trkpt lat="46.17213" lon="6.69075">
        <ele>1458.4</ele>
        <time>2000-01-01T02:03:07.000Z</time>
      </trkpt>
      <trkpt lat="46.17214" lon="6.69056">
        <ele>1455</ele>
        <time>2000-01-01T02:03:17.000Z</time>
      </trkpt>
      <trkpt lat="46.17211" lon="6.69002">
        <ele>1446</ele>
        <time>2000-01-01T02:03:27.000Z</time>
      </trkpt>
      <trkpt lat="46.17224" lon="6.68958">
        <ele>1439</ele>
        <time>2000-01-01T02:03:37.000Z</time>
      </trkpt>
      <trkpt lat="46.17228" lon="6.68942">
        <ele>1437.7</ele>
        <time>2000-01-01T02:03:47.000Z</time>
      </trkpt>
      <trkpt lat="46.17225" lon="6.6893">
        <ele>1437</ele>
        <time>2000-01-01T02:03:57.000Z</time>
      </trkpt>
      <trkpt lat="46.17215" lon="6.6891">
        <ele>1435.4</ele>
        <time>2000-01-01T02:04:07.000Z</time>
      </trkpt>
      <trkpt lat="46.17195" lon="6.68891">
        <ele>1438</ele>
        <time>2000-01-01T02:04:17.000Z</time>
      </trkpt>
      <trkpt lat="46.17186" lon="6.68869">
        <ele>1434.7</ele>
        <time>2000-01-01T02:04:27.000Z</time>
      </trkpt>
      <trkpt lat="46.1718" lon="6.68828">
        <ele>1438</ele>
        <time>2000-01-01T02:04:37.000Z</time>
      </trkpt>
      <trkpt lat="46.17174" lon="6.688">
        <ele>1438</ele>
        <time>2000-01-01T02:04:47.000Z</time>
      </trkpt>
      <trkpt lat="46.17168" lon="6.68784">
        <ele>1436.4</ele>
        <time>2000-01-01T02:04:57.000Z</time>
      </trkpt>
      <trkpt lat="46.17148" lon="6.68759">
        <ele>1434</ele>
        <time>2000-01-01T02:05:07.000Z</time>
      </trkpt>
      <trkpt lat="46.17119" lon="6.68739">
        <ele>1434</ele>
        <time>2000-01-01T02:05:17.000Z</time>
      </trkpt>
      <trkpt lat="46.17087" lon="6.68731">
        <ele>1435</ele>
        <time>2000-01-01T02:05:27.000Z</time>
      </trkpt>
      <trkpt lat="46.17055" lon="6.68723">
        <ele>1440</ele>
        <time>2000-01-01T02:05:37.000Z</time>
      </trkpt>
      <trkpt lat="46.17016" lon="6.68713">
        <ele>1448</ele>
        <time>2000-01-01T02:05:47.000Z</time>
      </trkpt>
      <trkpt lat="46.16987" lon="6.68708">
        <ele>1449</ele>
        <time>2000-01-01T02:05:57.000Z</time>
      </trkpt>
      <trkpt lat="46.16978" lon="6.687">
        <ele>1453.3</ele>
        <time>2000-01-01T02:06:07.000Z</time>
      </trkpt>
      <trkpt lat="46.16965" lon="6.68676">
        <ele>1448</ele>
        <time>2000-01-01T02:06:17.000Z</time>
      </trkpt>
      <trkpt lat="46.16939" lon="6.68656">
        <ele>1448</ele>
        <time>2000-01-01T02:06:27.000Z</time>
      </trkpt>
      <trkpt lat="46.16913" lon="6.68643">
        <ele>1446</ele>
        <time>2000-01-01T02:06:37.000Z</time>
      </trkpt>
      <trkpt lat="46.16877" lon="6.68624">
        <ele>1440</ele>
        <time>2000-01-01T02:06:47.000Z</time>
      </trkpt>
      <trkpt lat="46.16846" lon="6.68586">
        <ele>1432</ele>
        <time>2000-01-01T02:06:57.000Z</time>
      </trkpt>
      <trkpt lat="46.16836" lon="6.6858">
        <ele>1432.2</ele>
        <time>2000-01-01T02:07:07.000Z</time>
      </trkpt>
      <trkpt lat="46.16822" lon="6.68582">
        <ele>1430</ele>
        <time>2000-01-01T02:07:17.000Z</time>
      </trkpt>
      <trkpt lat="46.16807" lon="6.68592">
        <ele>1430.7</ele>
        <time>2000-01-01T02:07:27.000Z</time>
      </trkpt>
      <trkpt lat="46.16776" lon="6.68595">
        <ele>1429</ele>
        <time>2000-01-01T02:07:37.000Z</time>
      </trkpt>
      <trkpt lat="46.16746" lon="6.68583">
        <ele>1427</ele>
        <time>2000-01-01T02:07:47.000Z</time>
      </trkpt>
      <trkpt lat="46.16723" lon="6.68569">
        <ele>1423</ele>
        <time>2000-01-01T02:07:57.000Z</time>
      </trkpt>
      <trkpt lat="46.16695" lon="6.68552">
        <ele>1420</ele>
        <time>2000-01-01T02:08:07.000Z</time>
      </trkpt>
      <trkpt lat="46.16666" lon="6.68556">
        <ele>1418</ele>
        <time>2000-01-01T02:08:17.000Z</time>
      </trkpt>
      <trkpt lat="46.16621" lon="6.68563">
        <ele>1414</ele>
        <time>2000-01-01T02:08:27.000Z</time>
      </trkpt>
      <trkpt lat="46.16596" lon="6.68558">
        <ele>1411</ele>
        <time>2000-01-01T02:08:37.000Z</time>
      </trkpt>
      <trkpt lat="46.16567" lon="6.68552">
        <ele>1410</ele>
        <time>2000-01-01T02:08:47.000Z</time>
      </trkpt>
      <trkpt lat="46.16544" lon="6.68536">
        <ele>1408</ele>
        <time>2000-01-01T02:08:57.000Z</time>
      </trkpt>
      <trkpt lat="46.16514" lon="6.6853">
        <ele>1406</ele>
        <time>2000-01-01T02:09:07.000Z</time>
      </trkpt>
      <trkpt lat="46.16478" lon="6.68505">
        <ele>1403</ele>
        <time>2000-01-01T02:09:17.000Z</time>
      </trkpt>
      <trkpt lat="46.16444" lon="6.68471">
        <ele>1402</ele>
        <time>2000-01-01T02:09:27.000Z</time>
      </trkpt>
      <trkpt lat="46.16417" lon="6.68455">
        <ele>1401</ele>
        <time>2000-01-01T02:09:37.000Z</time>
      </trkpt>
      <trkpt lat="46.1637" lon="6.68429">
        <ele>1398</ele>
        <time>2000-01-01T02:09:47.000Z</time>
      </trkpt>
      <trkpt lat="46.16339" lon="6.68395">
        <ele>1393</ele>
        <time>2000-01-01T02:09:57.000Z</time>
      </trkpt>
      <trkpt lat="46.16304" lon="6.68384">
        <ele>1390</ele>
        <time>2000-01-01T02:10:07.000Z</time>
      </trkpt>
      <trkpt lat="46.16273" lon="6.68383">
        <ele>1390</ele>
        <time>2000-01-01T02:10:17.000Z</time>
      </trkpt>
      <trkpt lat="46.16239" lon="6.68395">
        <ele>1390</ele>
        <time>2000-01-01T02:10:27.000Z</time>
      </trkpt>
      <trkpt lat="46.16206" lon="6.68408">
        <ele>1388</ele>
        <time>2000-01-01T02:10:37.000Z</time>
      </trkpt>
      <trkpt lat="46.16141" lon="6.68432">
        <ele>1387</ele>
        <time>2000-01-01T02:10:47.000Z</time>
      </trkpt>
      <trkpt lat="46.16113" lon="6.68452">
        <ele>1385</ele>
        <time>2000-01-01T02:10:57.000Z</time>
      </trkpt>
      <trkpt lat="46.16058" lon="6.68491">
        <ele>1384</ele>
        <time>2000-01-01T02:11:07.000Z</time>
      </trkpt>
      <trkpt lat="46.16046" lon="6.68504">
        <ele>1383.2</ele>
        <time>2000-01-01T02:11:17.000Z</time>
      </trkpt>
      <trkpt lat="46.16039" lon="6.68514">
        <ele>1384</ele>
        <time>2000-01-01T02:11:27.000Z</time>
      </trkpt>
      <trkpt lat="46.16032" lon="6.68519">
        <ele>1385.4</ele>
        <time>2000-01-01T02:11:37.000Z</time>
      </trkpt>
      <trkpt lat="46.16023" lon="6.68515">
        <ele>1384.3</ele>
        <time>2000-01-01T02:11:47.000Z</time>
      </trkpt>
      <trkpt lat="46.16011" lon="6.68502">
        <ele>1380</ele>
        <time>2000-01-01T02:11:57.000Z</time>
      </trkpt>
      <trkpt lat="46.16002" lon="6.68498">
        <ele>1380.4</ele>
        <time>2000-01-01T02:12:07.000Z</time>
      </trkpt>
      <trkpt lat="46.15962" lon="6.685">
        <ele>1377</ele>
        <time>2000-01-01T02:12:17.000Z</time>
      </trkpt>
      <trkpt lat="46.15945" lon="6.68496">
        <ele>1378</ele>
        <time>2000-01-01T02:12:27.000Z</time>
      </trkpt>
      <trkpt lat="46.15938" lon="6.68491">
        <ele>1376</ele>
        <time>2000-01-01T02:12:37.000Z</time>
      </trkpt>
      <trkpt lat="46.15913" lon="6.68461">
        <ele>1369</ele>
        <time>2000-01-01T02:12:47.000Z</time>
      </trkpt>
      <trkpt lat="46.15894" lon="6.68446">
        <ele>1367</ele>
        <time>2000-01-01T02:12:57.000Z</time>
      </trkpt>
      <trkpt lat="46.15862" lon="6.68441">
        <ele>1367</ele>
        <time>2000-01-01T02:13:07.000Z</time>
      </trkpt>
      <trkpt lat="46.15846" lon="6.68433">
        <ele>1368.9</ele>
        <time>2000-01-01T02:13:17.000Z</time>
      </trkpt>
      <trkpt lat="46.15841" lon="6.68424">
        <ele>1367</ele>
        <time>2000-01-01T02:13:27.000Z</time>
      </trkpt>
      <trkpt lat="46.15829" lon="6.68373">
        <ele>1361</ele>
        <time>2000-01-01T02:13:37.000Z</time>
      </trkpt>
      <trkpt lat="46.1582" lon="6.6835">
        <ele>1358</ele>
        <time>2000-01-01T02:13:47.000Z</time>
      </trkpt>
      <trkpt lat="46.15799" lon="6.6831">
        <ele>1347</ele>
        <time>2000-01-01T02:13:57.000Z</time>
      </trkpt>
      <trkpt lat="46.15772" lon="6.68277">
        <ele>1338</ele>
        <time>2000-01-01T02:14:07.000Z</time>
      </trkpt>
      <trkpt lat="46.15745" lon="6.68243">
        <ele>1330</ele>
        <time>2000-01-01T02:14:17.000Z</time>
      </trkpt>
      <trkpt lat="46.15718" lon="6.6821">
        <ele>1321</ele>
        <time>2000-01-01T02:14:27.000Z</time>
      </trkpt>
      <trkpt lat="46.15687" lon="6.68171">
        <ele>1317</ele>
        <time>2000-01-01T02:14:37.000Z</time>
      </trkpt>
      <trkpt lat="46.15671" lon="6.68147">
        <ele>1313</ele>
        <time>2000-01-01T02:14:47.000Z</time>
      </trkpt>
      <trkpt lat="46.15637" lon="6.6812">
        <ele>1306</ele>
        <time>2000-01-01T02:14:57.000Z</time>
      </trkpt>
      <trkpt lat="46.15617" lon="6.68094">
        <ele>1303</ele>
        <time>2000-01-01T02:15:07.000Z</time>
      </trkpt>
      <trkpt lat="46.15603" lon="6.68057">
        <ele>1303</ele>
        <time>2000-01-01T02:15:17.000Z</time>
      </trkpt>
      <trkpt lat="46.15593" lon="6.68014">
        <ele>1301</ele>
        <time>2000-01-01T02:15:27.000Z</time>
      </trkpt>
      <trkpt lat="46.1559" lon="6.67972">
        <ele>1299</ele>
        <time>2000-01-01T02:15:37.000Z</time>
      </trkpt>
      <trkpt lat="46.15586" lon="6.67939">
        <ele>1298</ele>
        <time>2000-01-01T02:15:47.000Z</time>
      </trkpt>
      <trkpt lat="46.15583" lon="6.67905">
        <ele>1295</ele>
        <time>2000-01-01T02:15:57.000Z</time>
      </trkpt>
      <trkpt lat="46.15578" lon="6.67877">
        <ele>1295</ele>
        <time>2000-01-01T02:16:07.000Z</time>
      </trkpt>
      <trkpt lat="46.15566" lon="6.67843">
        <ele>1292</ele>
        <time>2000-01-01T02:16:17.000Z</time>
      </trkpt>
      <trkpt lat="46.15555" lon="6.67803">
        <ele>1289</ele>
        <time>2000-01-01T02:16:27.000Z</time>
      </trkpt>
      <trkpt lat="46.15546" lon="6.67783">
        <ele>1288.7</ele>
        <time>2000-01-01T02:16:37.000Z</time>
      </trkpt>
      <trkpt lat="46.15472" lon="6.6771">
        <ele>1283</ele>
        <time>2000-01-01T02:16:47.000Z</time>
      </trkpt>
      <trkpt lat="46.1545" lon="6.67669">
        <ele>1277</ele>
        <time>2000-01-01T02:16:57.000Z</time>
      </trkpt>
      <trkpt lat="46.15439" lon="6.67659">
        <ele>1276.8</ele>
        <time>2000-01-01T02:17:07.000Z</time>
      </trkpt>
      <trkpt lat="46.15425" lon="6.67656">
        <ele>1275</ele>
        <time>2000-01-01T02:17:17.000Z</time>
      </trkpt>
      <trkpt lat="46.15412" lon="6.67648">
        <ele>1275.4</ele>
        <time>2000-01-01T02:17:27.000Z</time>
      </trkpt>
      <trkpt lat="46.15406" lon="6.67636">
        <ele>1271</ele>
        <time>2000-01-01T02:17:37.000Z</time>
      </trkpt>
      <trkpt lat="46.15408" lon="6.67617">
        <ele>1268.1</ele>
        <time>2000-01-01T02:17:47.000Z</time>
      </trkpt>
      <trkpt lat="46.15419" lon="6.67599">
        <ele>1262</ele>
        <time>2000-01-01T02:17:57.000Z</time>
      </trkpt>
      <trkpt lat="46.15417" lon="6.67589">
        <ele>1263</ele>
        <time>2000-01-01T02:18:07.000Z</time>
      </trkpt>
      <trkpt lat="46.15381" lon="6.67547">
        <ele>1256</ele>
        <time>2000-01-01T02:18:17.000Z</time>
      </trkpt>
      <trkpt lat="46.15359" lon="6.67517">
        <ele>1255</ele>
        <time>2000-01-01T02:18:27.000Z</time>
      </trkpt>
      <trkpt lat="46.15355" lon="6.67506">
        <ele>1254.7</ele>
        <time>2000-01-01T02:18:37.000Z</time>
      </trkpt>
      <trkpt lat="46.15359" lon="6.67493">
        <ele>1253.3</ele>
        <time>2000-01-01T02:18:47.000Z</time>
      </trkpt>
      <trkpt lat="46.1537" lon="6.67482">
        <ele>1251</ele>
        <time>2000-01-01T02:18:57.000Z</time>
      </trkpt>
      <trkpt lat="46.1538" lon="6.67466">
        <ele>1249.9</ele>
        <time>2000-01-01T02:19:07.000Z</time>
      </trkpt>
      <trkpt lat="46.15389" lon="6.67444">
        <ele>1247</ele>
        <time>2000-01-01T02:19:17.000Z</time>
      </trkpt>
      <trkpt lat="46.15393" lon="6.67439">
        <ele>1247.5</ele>
        <time>2000-01-01T02:19:27.000Z</time>
      </trkpt>
      <trkpt lat="46.15407" lon="6.67388">
        <ele>1242</ele>
        <time>2000-01-01T02:19:37.000Z</time>
      </trkpt>
      <trkpt lat="46.15414" lon="6.6738">
        <ele>1242.5</ele>
        <time>2000-01-01T02:19:47.000Z</time>
      </trkpt>
      <trkpt lat="46.15429" lon="6.67374">
        <ele>1241</ele>
        <time>2000-01-01T02:19:57.000Z</time>
      </trkpt>
      <trkpt lat="46.15445" lon="6.67371">
        <ele>1240.3</ele>
        <time>2000-01-01T02:20:07.000Z</time>
      </trkpt>
      <trkpt lat="46.1546" lon="6.6735">
        <ele>1239</ele>
        <time>2000-01-01T02:20:17.000Z</time>
      </trkpt>
      <trkpt lat="46.15476" lon="6.67307">
        <ele>1237</ele>
        <time>2000-01-01T02:20:27.000Z</time>
      </trkpt>
      <trkpt lat="46.15489" lon="6.67274">
        <ele>1235</ele>
        <time>2000-01-01T02:20:37.000Z</time>
      </trkpt>
      <trkpt lat="46.15506" lon="6.67231">
        <ele>1232</ele>
        <time>2000-01-01T02:20:47.000Z</time>
      </trkpt>
      <trkpt lat="46.15522" lon="6.67189">
        <ele>1229</ele>
        <time>2000-01-01T02:20:57.000Z</time>
      </trkpt>
      <trkpt lat="46.15532" lon="6.67175">
        <ele>1228.1</ele>
        <time>2000-01-01T02:21:07.000Z</time>
      </trkpt>
      <trkpt lat="46.15547" lon="6.67159">
        <ele>1226</ele>
        <time>2000-01-01T02:21:17.000Z</time>
      </trkpt>
      <trkpt lat="46.15572" lon="6.67138">
        <ele>1223</ele>
        <time>2000-01-01T02:21:27.000Z</time>
      </trkpt>
      <trkpt lat="46.15614" lon="6.67103">
        <ele>1217</ele>
        <time>2000-01-01T02:21:37.000Z</time>
      </trkpt>
      <trkpt lat="46.15616" lon="6.67092">
        <ele>1215.9</ele>
        <time>2000-01-01T02:21:47.000Z</time>
      </trkpt>
      <trkpt lat="46.15611" lon="6.6708">
        <ele>1214.4</ele>
        <time>2000-01-01T02:21:57.000Z</time>
      </trkpt>
      <trkpt lat="46.15612" lon="6.67071">
        <ele>1212</ele>
        <time>2000-01-01T02:22:07.000Z</time>
      </trkpt>
      <trkpt lat="46.15615" lon="6.67069">
        <ele>1211.8</ele>
        <time>2000-01-01T02:22:17.000Z</time>
      </trkpt>
      <trkpt lat="46.15629" lon="6.67074">
        <ele>1210.5</ele>
        <time>2000-01-01T02:22:27.000Z</time>
      </trkpt>
      <trkpt lat="46.15632" lon="6.67073">
        <ele>1209</ele>
        <time>2000-01-01T02:22:37.000Z</time>
      </trkpt>
      <trkpt lat="46.15636" lon="6.67065">
        <ele>1207.5</ele>
        <time>2000-01-01T02:22:47.000Z</time>
      </trkpt>
      <trkpt lat="46.15633" lon="6.67057">
        <ele>1206.4</ele>
        <time>2000-01-01T02:22:57.000Z</time>
      </trkpt>
      <trkpt lat="46.15625" lon="6.67051">
        <ele>1207</ele>
        <time>2000-01-01T02:23:07.000Z</time>
      </trkpt>
      <trkpt lat="46.15625" lon="6.67043">
        <ele>1205</ele>
        <time>2000-01-01T02:23:17.000Z</time>
      </trkpt>
      <trkpt lat="46.1563" lon="6.6704">
        <ele>1203.4</ele>
        <time>2000-01-01T02:23:27.000Z</time>
      </trkpt>
      <trkpt lat="46.15644" lon="6.67049">
        <ele>1201</ele>
        <time>2000-01-01T02:23:37.000Z</time>
      </trkpt>
      <trkpt lat="46.15649" lon="6.67045">
        <ele>1200.5</ele>
        <time>2000-01-01T02:23:47.000Z</time>
      </trkpt>
      <trkpt lat="46.15647" lon="6.67034">
        <ele>1198.6</ele>
        <time>2000-01-01T02:23:57.000Z</time>
      </trkpt>
      <trkpt lat="46.15635" lon="6.67015">
        <ele>1196</ele>
        <time>2000-01-01T02:24:07.000Z</time>
      </trkpt>
      <trkpt lat="46.15636" lon="6.67007">
        <ele>1194.4</ele>
        <time>2000-01-01T02:24:17.000Z</time>
      </trkpt>
      <trkpt lat="46.15646" lon="6.67008">
        <ele>1192.5</ele>
        <time>2000-01-01T02:24:27.000Z</time>
      </trkpt>
      <trkpt lat="46.15662" lon="6.6702">
        <ele>1192</ele>
        <time>2000-01-01T02:24:37.000Z</time>
      </trkpt>
      <trkpt lat="46.1567" lon="6.67019">
        <ele>1190.1</ele>
        <time>2000-01-01T02:24:47.000Z</time>
      </trkpt>
      <trkpt lat="46.15671" lon="6.67011">
        <ele>1188</ele>
        <time>2000-01-01T02:24:57.000Z</time>
      </trkpt>
      <trkpt lat="46.15662" lon="6.66991">
        <ele>1185</ele>
        <time>2000-01-01T02:25:07.000Z</time>
      </trkpt>
      <trkpt lat="46.15664" lon="6.66986">
        <ele>1183.1</ele>
        <time>2000-01-01T02:25:17.000Z</time>
      </trkpt>
      <trkpt lat="46.15674" lon="6.66985">
        <ele>1181.3</ele>
        <time>2000-01-01T02:25:27.000Z</time>
      </trkpt>
      <trkpt lat="46.15677" lon="6.66979">
        <ele>1178</ele>
        <time>2000-01-01T02:25:37.000Z</time>
      </trkpt>
      <trkpt lat="46.15671" lon="6.66953">
        <ele>1175</ele>
        <time>2000-01-01T02:25:47.000Z</time>
      </trkpt>
      <trkpt lat="46.15657" lon="6.66914">
        <ele>1175</ele>
        <time>2000-01-01T02:25:57.000Z</time>
      </trkpt>
      <trkpt lat="46.15637" lon="6.66905">
        <ele>1178</ele>
        <time>2000-01-01T02:26:07.000Z</time>
      </trkpt>
      <trkpt lat="46.15617" lon="6.66891">
        <ele>1177</ele>
        <time>2000-01-01T02:26:17.000Z</time>
      </trkpt>
      <trkpt lat="46.15619" lon="6.66885">
        <ele>1179.4</ele>
        <time>2000-01-01T02:26:27.000Z</time>
      </trkpt>
      <trkpt lat="46.15624" lon="6.66883">
        <ele>1178.5</ele>
        <time>2000-01-01T02:26:37.000Z</time>
      </trkpt>
      <trkpt lat="46.15634" lon="6.66886">
        <ele>1177</ele>
        <time>2000-01-01T02:26:47.000Z</time>
      </trkpt>
      <trkpt lat="46.1564" lon="6.66876">
        <ele>1175.4</ele>
        <time>2000-01-01T02:26:57.000Z</time>
      </trkpt>
      <trkpt lat="46.15646" lon="6.66874">
        <ele>1174.3</ele>
        <time>2000-01-01T02:27:07.000Z</time>
      </trkpt>
      <trkpt lat="46.1564" lon="6.66853">
        <ele>1176</ele>
        <time>2000-01-01T02:27:17.000Z</time>
      </trkpt>
      <trkpt lat="46.15641" lon="6.6682">
        <ele>1170</ele>
        <time>2000-01-01T02:27:27.000Z</time>
      </trkpt>
      <trkpt lat="46.15645" lon="6.66814">
        <ele>1170.7</ele>
        <time>2000-01-01T02:27:37.000Z</time>
      </trkpt>
      <trkpt lat="46.15659" lon="6.6681">
        <ele>1169</ele>
        <time>2000-01-01T02:27:47.000Z</time>
      </trkpt>
      <trkpt lat="46.15663" lon="6.66812">
        <ele>1168</ele>
        <time>2000-01-01T02:27:57.000Z</time>
      </trkpt>
      <trkpt lat="46.15675" lon="6.66788">
        <ele>1165</ele>
        <time>2000-01-01T02:28:07.000Z</time>
      </trkpt>
      <trkpt lat="46.15695" lon="6.66816">
        <ele>1165</ele>
        <time>2000-01-01T02:28:17.000Z</time>
      </trkpt>
      <trkpt lat="46.15669" lon="6.66871">
        <ele>1171</ele>
        <time>2000-01-01T02:28:27.000Z</time>
      </trkpt>
      <trkpt lat="46.15652" lon="6.66908">
        <ele>1174</ele>
        <time>2000-01-01T02:28:37.000Z</time>
      </trkpt>
      <trkpt lat="46.15619" lon="6.66981">
        <ele>1193</ele>
        <time>2000-01-01T02:28:47.000Z</time>
      </trkpt>
      <trkpt lat="46.15593" lon="6.67036">
        <ele>1209</ele>
        <time>2000-01-01T02:28:57.000Z</time>
      </trkpt>
      <trkpt lat="46.15576" lon="6.67073">
        <ele>1219</ele>
        <time>2000-01-01T02:29:07.000Z</time>
      </trkpt>
      <trkpt lat="46.15543" lon="6.67146">
        <ele>1226</ele>
        <time>2000-01-01T02:29:17.000Z</time>
      </trkpt>
      <trkpt lat="46.15517" lon="6.672">
        <ele>1230</ele>
        <time>2000-01-01T02:29:27.000Z</time>
      </trkpt>
      <trkpt lat="46.155" lon="6.67237">
        <ele>1232</ele>
        <time>2000-01-01T02:29:37.000Z</time>
      </trkpt>
      <trkpt lat="46.15467" lon="6.6731">
        <ele>1237</ele>
        <time>2000-01-01T02:29:47.000Z</time>
      </trkpt>
      <trkpt lat="46.15441" lon="6.67365">
        <ele>1240</ele>
        <time>2000-01-01T02:29:57.000Z</time>
      </trkpt>
      <trkpt lat="46.15422" lon="6.67407">
        <ele>1243</ele>
        <time>2000-01-01T02:30:07.000Z</time>
      </trkpt>
      <trkpt lat="46.15403" lon="6.67449">
        <ele>1246</ele>
        <time>2000-01-01T02:30:17.000Z</time>
      </trkpt>
      <trkpt lat="46.15366" lon="6.6753">
        <ele>1256</ele>
        <time>2000-01-01T02:30:27.000Z</time>
      </trkpt>
      <trkpt lat="46.1534" lon="6.67585">
        <ele>1263</ele>
        <time>2000-01-01T02:30:37.000Z</time>
      </trkpt>
      <trkpt lat="46.15323" lon="6.67622">
        <ele>1269</ele>
        <time>2000-01-01T02:30:47.000Z</time>
      </trkpt>
      <trkpt lat="46.1529" lon="6.67695">
        <ele>1281</ele>
        <time>2000-01-01T02:30:57.000Z</time>
      </trkpt>
      <trkpt lat="46.15264" lon="6.6775">
        <ele>1293</ele>
        <time>2000-01-01T02:31:07.000Z</time>
      </trkpt>
      <trkpt lat="46.15247" lon="6.67787">
        <ele>1300</ele>
        <time>2000-01-01T02:31:17.000Z</time>
      </trkpt>
      <trkpt lat="46.15214" lon="6.67859">
        <ele>1317</ele>
        <time>2000-01-01T02:31:27.000Z</time>
      </trkpt>
      <trkpt lat="46.15188" lon="6.67914">
        <ele>1333</ele>
        <time>2000-01-01T02:31:37.000Z</time>
      </trkpt>
      <trkpt lat="46.15171" lon="6.67951">
        <ele>1344</ele>
        <time>2000-01-01T02:31:47.000Z</time>
      </trkpt>
      <trkpt lat="46.15138" lon="6.68024">
        <ele>1368</ele>
        <time>2000-01-01T02:31:57.000Z</time>
      </trkpt>
      <trkpt lat="46.15112" lon="6.68079">
        <ele>1381</ele>
        <time>2000-01-01T02:32:07.000Z</time>
      </trkpt>
      <trkpt lat="46.15095" lon="6.68116">
        <ele>1394</ele>
        <time>2000-01-01T02:32:17.000Z</time>
      </trkpt>
      <trkpt lat="46.15062" lon="6.68189">
        <ele>1419</ele>
        <time>2000-01-01T02:32:27.000Z</time>
      </trkpt>
      <trkpt lat="46.15036" lon="6.68244">
        <ele>1439</ele>
        <time>2000-01-01T02:32:37.000Z</time>
      </trkpt>
      <trkpt lat="46.15017" lon="6.68286">
        <ele>1446</ele>
        <time>2000-01-01T02:32:47.000Z</time>
      </trkpt>
      <trkpt lat="46.14998" lon="6.68328">
        <ele>1452</ele>
        <time>2000-01-01T02:32:57.000Z</time>
      </trkpt>
      <trkpt lat="46.14961" lon="6.68409">
        <ele>1464</ele>
        <time>2000-01-01T02:33:07.000Z</time>
      </trkpt>
      <trkpt lat="46.14935" lon="6.68464">
        <ele>1474</ele>
        <time>2000-01-01T02:33:17.000Z</time>
      </trkpt>
      <trkpt lat="46.14918" lon="6.68501">
        <ele>1480</ele>
        <time>2000-01-01T02:33:27.000Z</time>
      </trkpt>
      <trkpt lat="46.14885" lon="6.68573">
        <ele>1488</ele>
        <time>2000-01-01T02:33:37.000Z</time>
      </trkpt>
      <trkpt lat="46.14859" lon="6.68628">
        <ele>1497</ele>
        <time>2000-01-01T02:33:47.000Z</time>
      </trkpt>
      <trkpt lat="46.14842" lon="6.68665">
        <ele>1507</ele>
        <time>2000-01-01T02:33:57.000Z</time>
      </trkpt>
      <trkpt lat="46.14809" lon="6.68738">
        <ele>1521</ele>
        <time>2000-01-01T02:34:07.000Z</time>
      </trkpt>
      <trkpt lat="46.14783" lon="6.68793">
        <ele>1534</ele>
        <time>2000-01-01T02:34:17.000Z</time>
      </trkpt>
      <trkpt lat="46.14766" lon="6.6883">
        <ele>1541</ele>
        <time>2000-01-01T02:34:27.000Z</time>
      </trkpt>
      <trkpt lat="46.14733" lon="6.68903">
        <ele>1551</ele>
        <time>2000-01-01T02:34:37.000Z</time>
      </trkpt>
      <trkpt lat="46.14707" lon="6.68958">
        <ele>1554</ele>
        <time>2000-01-01T02:34:47.000Z</time>
      </trkpt>
      <trkpt lat="46.1469" lon="6.68995">
        <ele>1555</ele>
        <time>2000-01-01T02:34:57.000Z</time>
      </trkpt>
      <trkpt lat="46.14657" lon="6.69068">
        <ele>1565</ele>
        <time>2000-01-01T02:35:07.000Z</time>
      </trkpt>
      <trkpt lat="46.14631" lon="6.69123">
        <ele>1572</ele>
        <time>2000-01-01T02:35:17.000Z</time>
      </trkpt>
      <trkpt lat="46.14612" lon="6.69165">
        <ele>1578</ele>
        <time>2000-01-01T02:35:27.000Z</time>
      </trkpt>
      <trkpt lat="46.14593" lon="6.69207">
        <ele>1585</ele>
        <time>2000-01-01T02:35:37.000Z</time>
      </trkpt>
      <trkpt lat="46.14556" lon="6.69287">
        <ele>1600</ele>
        <time>2000-01-01T02:35:47.000Z</time>
      </trkpt>
      <trkpt lat="46.1453" lon="6.69342">
        <ele>1610</ele>
        <time>2000-01-01T02:35:57.000Z</time>
      </trkpt>
      <trkpt lat="46.14514" lon="6.69378">
        <ele>1611</ele>
        <time>2000-01-01T02:36:07.000Z</time>
      </trkpt>
      <trkpt lat="46.145" lon="6.69408">
        <ele>1612</ele>
        <time>2000-01-01T02:36:17.000Z</time>
      </trkpt>
      <trkpt lat="46.14484" lon="6.69442">
        <ele>1614</ele>
        <time>2000-01-01T02:36:27.000Z</time>
      </trkpt>
      <trkpt lat="46.1448" lon="6.69432">
        <ele>1613.5</ele>
        <time>2000-01-01T02:36:37.000Z</time>
      </trkpt>
      <trkpt lat="46.14479" lon="6.69443">
        <ele>1614.4</ele>
        <time>2000-01-01T02:36:47.000Z</time>
      </trkpt>
      <trkpt lat="46.14484" lon="6.69442">
        <ele>1614</ele>
        <time>2000-01-01T02:36:57.000Z</time>
      </trkpt>
      <trkpt lat="46.14521" lon="6.69439">
        <ele>1610</ele>
        <time>2000-01-01T02:37:07.000Z</time>
      </trkpt>
      <trkpt lat="46.14546" lon="6.69428">
        <ele>1610</ele>
        <time>2000-01-01T02:37:17.000Z</time>
      </trkpt>
      <trkpt lat="46.1458" lon="6.69414">
        <ele>1608</ele>
        <time>2000-01-01T02:37:27.000Z</time>
      </trkpt>
      <trkpt lat="46.14601" lon="6.69384">
        <ele>1606</ele>
        <time>2000-01-01T02:37:37.000Z</time>
      </trkpt>
      <trkpt lat="46.14618" lon="6.69359">
        <ele>1603</ele>
        <time>2000-01-01T02:37:47.000Z</time>
      </trkpt>
      <trkpt lat="46.14636" lon="6.69332">
        <ele>1601</ele>
        <time>2000-01-01T02:37:57.000Z</time>
      </trkpt>
      <trkpt lat="46.14646" lon="6.69323">
        <ele>1600.6</ele>
        <time>2000-01-01T02:38:07.000Z</time>
      </trkpt>
      <trkpt lat="46.14659" lon="6.69319">
        <ele>1600</ele>
        <time>2000-01-01T02:38:17.000Z</time>
      </trkpt>
      <trkpt lat="46.14695" lon="6.69313">
        <ele>1600</ele>
        <time>2000-01-01T02:38:27.000Z</time>
      </trkpt>
      <trkpt lat="46.14721" lon="6.69314">
        <ele>1599</ele>
        <time>2000-01-01T02:38:37.000Z</time>
      </trkpt>
      <trkpt lat="46.14755" lon="6.69316">
        <ele>1598</ele>
        <time>2000-01-01T02:38:47.000Z</time>
      </trkpt>
      <trkpt lat="46.1479" lon="6.69303">
        <ele>1593</ele>
        <time>2000-01-01T02:38:57.000Z</time>
      </trkpt>
      <trkpt lat="46.1483" lon="6.69295">
        <ele>1587</ele>
        <time>2000-01-01T02:39:07.000Z</time>
      </trkpt>
      <trkpt lat="46.14848" lon="6.69282">
        <ele>1585</ele>
        <time>2000-01-01T02:39:17.000Z</time>
      </trkpt>
      <trkpt lat="46.14859" lon="6.69296">
        <ele>1582.6</ele>
        <time>2000-01-01T02:39:27.000Z</time>
      </trkpt>
      <trkpt lat="46.1487" lon="6.69293">
        <ele>1582</ele>
        <time>2000-01-01T02:39:37.000Z</time>
      </trkpt>
      <trkpt lat="46.14883" lon="6.69311">
        <ele>1577.1</ele>
        <time>2000-01-01T02:39:47.000Z</time>
      </trkpt>
      <trkpt lat="46.14886" lon="6.6931">
        <ele>1578</ele>
        <time>2000-01-01T02:39:57.000Z</time>
      </trkpt>
      <trkpt lat="46.14886" lon="6.69302">
        <ele>1576.5</ele>
        <time>2000-01-01T02:40:07.000Z</time>
      </trkpt>
      <trkpt lat="46.14889" lon="6.69298">
        <ele>1575.4</ele>
        <time>2000-01-01T02:40:17.000Z</time>
      </trkpt>
      <trkpt lat="46.14893" lon="6.69299">
        <ele>1574</ele>
        <time>2000-01-01T02:40:27.000Z</time>
      </trkpt>
      <trkpt lat="46.149" lon="6.69322">
        <ele>1572</ele>
        <time>2000-01-01T02:40:37.000Z</time>
      </trkpt>
      <trkpt lat="46.1492" lon="6.69347">
        <ele>1569</ele>
        <time>2000-01-01T02:40:47.000Z</time>
      </trkpt>
      <trkpt lat="46.14925" lon="6.69381">
        <ele>1564</ele>
        <time>2000-01-01T02:40:57.000Z</time>
      </trkpt>
      <trkpt lat="46.14942" lon="6.69397">
        <ele>1560</ele>
        <time>2000-01-01T02:41:07.000Z</time>
      </trkpt>
      <trkpt lat="46.14972" lon="6.69421">
        <ele>1554</ele>
        <time>2000-01-01T02:41:17.000Z</time>
      </trkpt>
      <trkpt lat="46.14998" lon="6.69435">
        <ele>1551</ele>
        <time>2000-01-01T02:41:27.000Z</time>
      </trkpt>
      <trkpt lat="46.15033" lon="6.69455">
        <ele>1548</ele>
        <time>2000-01-01T02:41:37.000Z</time>
      </trkpt>
      <trkpt lat="46.15072" lon="6.69459">
        <ele>1546</ele>
        <time>2000-01-01T02:41:47.000Z</time>
      </trkpt>
      <trkpt lat="46.15094" lon="6.69455">
        <ele>1545</ele>
        <time>2000-01-01T02:41:57.000Z</time>
      </trkpt>
      <trkpt lat="46.15108" lon="6.69448">
        <ele>1543.2</ele>
        <time>2000-01-01T02:42:07.000Z</time>
      </trkpt>
      <trkpt lat="46.15144" lon="6.69406">
        <ele>1535</ele>
        <time>2000-01-01T02:42:17.000Z</time>
      </trkpt>
      <trkpt lat="46.15169" lon="6.69393">
        <ele>1531</ele>
        <time>2000-01-01T02:42:27.000Z</time>
      </trkpt>
      <trkpt lat="46.15203" lon="6.69377">
        <ele>1522</ele>
        <time>2000-01-01T02:42:37.000Z</time>
      </trkpt>
      <trkpt lat="46.15216" lon="6.69373">
        <ele>1521.2</ele>
        <time>2000-01-01T02:42:47.000Z</time>
      </trkpt>
      <trkpt lat="46.15246" lon="6.69389">
        <ele>1518</ele>
        <time>2000-01-01T02:42:57.000Z</time>
      </trkpt>
      <trkpt lat="46.15263" lon="6.69405">
        <ele>1518</ele>
        <time>2000-01-01T02:43:07.000Z</time>
      </trkpt>
      <trkpt lat="46.15277" lon="6.69399">
        <ele>1515.8</ele>
        <time>2000-01-01T02:43:17.000Z</time>
      </trkpt>
      <trkpt lat="46.15279" lon="6.69405">
        <ele>1517</ele>
        <time>2000-01-01T02:43:27.000Z</time>
      </trkpt>
      <trkpt lat="46.15279" lon="6.69415">
        <ele>1515</ele>
        <time>2000-01-01T02:43:37.000Z</time>
      </trkpt>
      <trkpt lat="46.15288" lon="6.69433">
        <ele>1512</ele>
        <time>2000-01-01T02:43:47.000Z</time>
      </trkpt>
      <trkpt lat="46.15303" lon="6.69438">
        <ele>1508.7</ele>
        <time>2000-01-01T02:43:57.000Z</time>
      </trkpt>
      <trkpt lat="46.15317" lon="6.69468">
        <ele>1502</ele>
        <time>2000-01-01T02:44:07.000Z</time>
      </trkpt>
      <trkpt lat="46.15324" lon="6.69477">
        <ele>1498.9</ele>
        <time>2000-01-01T02:44:17.000Z</time>
      </trkpt>
      <trkpt lat="46.15348" lon="6.69495">
        <ele>1500</ele>
        <time>2000-01-01T02:44:27.000Z</time>
      </trkpt>
      <trkpt lat="46.15371" lon="6.69509">
        <ele>1498</ele>
        <time>2000-01-01T02:44:37.000Z</time>
      </trkpt>
      <trkpt lat="46.15377" lon="6.69507">
        <ele>1497.7</ele>
        <time>2000-01-01T02:44:47.000Z</time>
      </trkpt>
      <trkpt lat="46.15388" lon="6.69512">
        <ele>1498</ele>
        <time>2000-01-01T02:44:57.000Z</time>
      </trkpt>
      <trkpt lat="46.15379" lon="6.69519">
        <ele>1494</ele>
        <time>2000-01-01T02:45:07.000Z</time>
      </trkpt>
      <trkpt lat="46.15369" lon="6.69519">
        <ele>1492.8</ele>
        <time>2000-01-01T02:45:17.000Z</time>
      </trkpt>
      <trkpt lat="46.15374" lon="6.69525">
        <ele>1491.7</ele>
        <time>2000-01-01T02:45:27.000Z</time>
      </trkpt>
      <trkpt lat="46.15388" lon="6.69529">
        <ele>1493</ele>
        <time>2000-01-01T02:45:37.000Z</time>
      </trkpt>
      <trkpt lat="46.15385" lon="6.69538">
        <ele>1488.9</ele>
        <time>2000-01-01T02:45:47.000Z</time>
      </trkpt>
      <trkpt lat="46.15372" lon="6.69543">
        <ele>1485</ele>
        <time>2000-01-01T02:45:57.000Z</time>
      </trkpt>
      <trkpt lat="46.15349" lon="6.69534">
        <ele>1485</ele>
        <time>2000-01-01T02:46:07.000Z</time>
      </trkpt>
      <trkpt lat="46.15327" lon="6.69525">
        <ele>1485</ele>
        <time>2000-01-01T02:46:17.000Z</time>
      </trkpt>
      <trkpt lat="46.15317" lon="6.69529">
        <ele>1483.4</ele>
        <time>2000-01-01T02:46:27.000Z</time>
      </trkpt>
      <trkpt lat="46.15316" lon="6.6954">
        <ele>1480</ele>
        <time>2000-01-01T02:46:37.000Z</time>
      </trkpt>
      <trkpt lat="46.15331" lon="6.69566">
        <ele>1475</ele>
        <time>2000-01-01T02:46:47.000Z</time>
      </trkpt>
      <trkpt lat="46.15341" lon="6.69573">
        <ele>1472.7</ele>
        <time>2000-01-01T02:46:57.000Z</time>
      </trkpt>
      <trkpt lat="46.15345" lon="6.69579">
        <ele>1471.2</ele>
        <time>2000-01-01T02:47:07.000Z</time>
      </trkpt>
      <trkpt lat="46.15339" lon="6.69583">
        <ele>1469</ele>
        <time>2000-01-01T02:47:17.000Z</time>
      </trkpt>
      <trkpt lat="46.15332" lon="6.69581">
        <ele>1469.5</ele>
        <time>2000-01-01T02:47:27.000Z</time>
      </trkpt>
      <trkpt lat="46.15338" lon="6.69598">
        <ele>1466</ele>
        <time>2000-01-01T02:47:37.000Z</time>
      </trkpt>
      <trkpt lat="46.15359" lon="6.69606">
        <ele>1463</ele>
        <time>2000-01-01T02:47:47.000Z</time>
      </trkpt>
      <trkpt lat="46.15352" lon="6.69616">
        <ele>1457.5</ele>
        <time>2000-01-01T02:47:57.000Z</time>
      </trkpt>
      <trkpt lat="46.15339" lon="6.69623">
        <ele>1455</ele>
        <time>2000-01-01T02:48:07.000Z</time>
      </trkpt>
      <trkpt lat="46.15327" lon="6.69623">
        <ele>1453.9</ele>
        <time>2000-01-01T02:48:17.000Z</time>
      </trkpt>
      <trkpt lat="46.15326" lon="6.69635">
        <ele>1450</ele>
        <time>2000-01-01T02:48:27.000Z</time>
      </trkpt>
      <trkpt lat="46.15333" lon="6.69641">
        <ele>1447.1</ele>
        <time>2000-01-01T02:48:37.000Z</time>
      </trkpt>
      <trkpt lat="46.15327" lon="6.69644">
        <ele>1445.6</ele>
        <time>2000-01-01T02:48:47.000Z</time>
      </trkpt>
      <trkpt lat="46.15314" lon="6.69638">
        <ele>1449</ele>
        <time>2000-01-01T02:48:57.000Z</time>
      </trkpt>
      <trkpt lat="46.15328" lon="6.69652">
        <ele>1442.3</ele>
        <time>2000-01-01T02:49:07.000Z</time>
      </trkpt>
      <trkpt lat="46.15339" lon="6.69649">
        <ele>1446</ele>
        <time>2000-01-01T02:49:17.000Z</time>
      </trkpt>
      <trkpt lat="46.15366" lon="6.69656">
        <ele>1442</ele>
        <time>2000-01-01T02:49:27.000Z</time>
      </trkpt>
      <trkpt lat="46.15393" lon="6.69658">
        <ele>1439</ele>
        <time>2000-01-01T02:49:37.000Z</time>
      </trkpt>
      <trkpt lat="46.15402" lon="6.69651">
        <ele>1436</ele>
        <time>2000-01-01T02:49:47.000Z</time>
      </trkpt>
      <trkpt lat="46.15426" lon="6.69649">
        <ele>1438</ele>
        <time>2000-01-01T02:49:57.000Z</time>
      </trkpt>
      <trkpt lat="46.15416" lon="6.69656">
        <ele>1431.1</ele>
        <time>2000-01-01T02:50:07.000Z</time>
      </trkpt>
      <trkpt lat="46.15409" lon="6.69671">
        <ele>1427</ele>
        <time>2000-01-01T02:50:17.000Z</time>
      </trkpt>
      <trkpt lat="46.1537" lon="6.69701">
        <ele>1424</ele>
        <time>2000-01-01T02:50:27.000Z</time>
      </trkpt>
      <trkpt lat="46.15347" lon="6.69707">
        <ele>1422</ele>
        <time>2000-01-01T02:50:37.000Z</time>
      </trkpt>
      <trkpt lat="46.15322" lon="6.69714">
        <ele>1420</ele>
        <time>2000-01-01T02:50:47.000Z</time>
      </trkpt>
      <trkpt lat="46.15322" lon="6.69731">
        <ele>1412.4</ele>
        <time>2000-01-01T02:50:57.000Z</time>
      </trkpt>
      <trkpt lat="46.15315" lon="6.69741">
        <ele>1410</ele>
        <time>2000-01-01T02:51:07.000Z</time>
      </trkpt>
      <trkpt lat="46.15315" lon="6.69749">
        <ele>1407.3</ele>
        <time>2000-01-01T02:51:17.000Z</time>
      </trkpt>
      <trkpt lat="46.15331" lon="6.69742">
        <ele>1408</ele>
        <time>2000-01-01T02:51:27.000Z</time>
      </trkpt>
      <trkpt lat="46.15365" lon="6.69748">
        <ele>1406</ele>
        <time>2000-01-01T02:51:37.000Z</time>
      </trkpt>
      <trkpt lat="46.15359" lon="6.69756">
        <ele>1399.7</ele>
        <time>2000-01-01T02:51:47.000Z</time>
      </trkpt>
      <trkpt lat="46.15354" lon="6.69758">
        <ele>1399.4</ele>
        <time>2000-01-01T02:51:57.000Z</time>
      </trkpt>
      <trkpt lat="46.15358" lon="6.69763">
        <ele>1396.8</ele>
        <time>2000-01-01T02:52:07.000Z</time>
      </trkpt>
      <trkpt lat="46.1537" lon="6.69769">
        <ele>1396</ele>
        <time>2000-01-01T02:52:17.000Z</time>
      </trkpt>
      <trkpt lat="46.15385" lon="6.69766">
        <ele>1391.3</ele>
        <time>2000-01-01T02:52:27.000Z</time>
      </trkpt>
      <trkpt lat="46.15384" lon="6.69773">
        <ele>1391</ele>
        <time>2000-01-01T02:52:37.000Z</time>
      </trkpt>
      <trkpt lat="46.15361" lon="6.69786">
        <ele>1388</ele>
        <time>2000-01-01T02:52:47.000Z</time>
      </trkpt>
      <trkpt lat="46.15363" lon="6.69801">
        <ele>1381.4</ele>
        <time>2000-01-01T02:52:57.000Z</time>
      </trkpt>
      <trkpt lat="46.1537" lon="6.69803">
        <ele>1379.9</ele>
        <time>2000-01-01T02:53:07.000Z</time>
      </trkpt>
      <trkpt lat="46.15391" lon="6.69792">
        <ele>1381</ele>
        <time>2000-01-01T02:53:17.000Z</time>
      </trkpt>
      <trkpt lat="46.15389" lon="6.69803">
        <ele>1377.8</ele>
        <time>2000-01-01T02:53:27.000Z</time>
      </trkpt>
      <trkpt lat="46.15374" lon="6.69811">
        <ele>1376</ele>
        <time>2000-01-01T02:53:37.000Z</time>
      </trkpt>
      <trkpt lat="46.15368" lon="6.69818">
        <ele>1375.7</ele>
        <time>2000-01-01T02:53:47.000Z</time>
      </trkpt>
      <trkpt lat="46.1539" lon="6.69825">
        <ele>1373</ele>
        <time>2000-01-01T02:53:57.000Z</time>
      </trkpt>
      <trkpt lat="46.15409" lon="6.69815">
        <ele>1372</ele>
        <time>2000-01-01T02:54:07.000Z</time>
      </trkpt>
      <trkpt lat="46.15387" lon="6.69838">
        <ele>1371</ele>
        <time>2000-01-01T02:54:17.000Z</time>
      </trkpt>
      <trkpt lat="46.15355" lon="6.6987">
        <ele>1363</ele>
        <time>2000-01-01T02:54:27.000Z</time>
      </trkpt>
      <trkpt lat="46.15383" lon="6.69864">
        <ele>1362</ele>
        <time>2000-01-01T02:54:37.000Z</time>
      </trkpt>
      <trkpt lat="46.15425" lon="6.69854">
        <ele>1359</ele>
        <time>2000-01-01T02:54:47.000Z</time>
      </trkpt>
      <trkpt lat="46.15399" lon="6.69876">
        <ele>1357</ele>
        <time>2000-01-01T02:54:57.000Z</time>
      </trkpt>
      <trkpt lat="46.15378" lon="6.69895">
        <ele>1354</ele>
        <time>2000-01-01T02:55:07.000Z</time>
      </trkpt>
      <trkpt lat="46.15353" lon="6.69916">
        <ele>1348</ele>
        <time>2000-01-01T02:55:17.000Z</time>
      </trkpt>
      <trkpt lat="46.15335" lon="6.69925">
        <ele>1345</ele>
        <time>2000-01-01T02:55:27.000Z</time>
      </trkpt>
      <trkpt lat="46.15314" lon="6.69942">
        <ele>1345</ele>
        <time>2000-01-01T02:55:37.000Z</time>
      </trkpt>
      <trkpt lat="46.15293" lon="6.69961">
        <ele>1344</ele>
        <time>2000-01-01T02:55:47.000Z</time>
      </trkpt>
      <trkpt lat="46.15271" lon="6.69975">
        <ele>1343</ele>
        <time>2000-01-01T02:55:57.000Z</time>
      </trkpt>
      <trkpt lat="46.1526" lon="6.6999">
        <ele>1343.1</ele>
        <time>2000-01-01T02:56:07.000Z</time>
      </trkpt>
      <trkpt lat="46.15196" lon="6.70093">
        <ele>1333</ele>
        <time>2000-01-01T02:56:17.000Z</time>
      </trkpt>
      <trkpt lat="46.15192" lon="6.70121">
        <ele>1333</ele>
        <time>2000-01-01T02:56:27.000Z</time>
      </trkpt>
      <trkpt lat="46.15198" lon="6.70165">
        <ele>1333</ele>
        <time>2000-01-01T02:56:37.000Z</time>
      </trkpt>
      <trkpt lat="46.15204" lon="6.70202">
        <ele>1330</ele>
        <time>2000-01-01T02:56:47.000Z</time>
      </trkpt>
      <trkpt lat="46.15211" lon="6.70244">
        <ele>1327</ele>
        <time>2000-01-01T02:56:57.000Z</time>
      </trkpt>
      <trkpt lat="46.15225" lon="6.70323">
        <ele>1324</ele>
        <time>2000-01-01T02:57:07.000Z</time>
      </trkpt>
      <trkpt lat="46.15227" lon="6.7035">
        <ele>1322</ele>
        <time>2000-01-01T02:57:17.000Z</time>
      </trkpt>
      <trkpt lat="46.15221" lon="6.70389">
        <ele>1321</ele>
        <time>2000-01-01T02:57:27.000Z</time>
      </trkpt>
      <trkpt lat="46.15205" lon="6.70432">
        <ele>1321</ele>
        <time>2000-01-01T02:57:37.000Z</time>
      </trkpt>
      <trkpt lat="46.152" lon="6.70456">
        <ele>1321.2</ele>
        <time>2000-01-01T02:57:47.000Z</time>
      </trkpt>
      <trkpt lat="46.152" lon="6.70467">
        <ele>1321</ele>
        <time>2000-01-01T02:57:57.000Z</time>
      </trkpt>
      <trkpt lat="46.15203" lon="6.70476">
        <ele>1323.1</ele>
        <time>2000-01-01T02:58:07.000Z</time>
      </trkpt>
      <trkpt lat="46.15206" lon="6.70479">
        <ele>1324</ele>
        <time>2000-01-01T02:58:17.000Z</time>
      </trkpt>
      <trkpt lat="46.15216" lon="6.70479">
        <ele>1320</ele>
        <time>2000-01-01T02:58:27.000Z</time>
      </trkpt>
      <trkpt lat="46.15225" lon="6.70466">
        <ele>1321.4</ele>
        <time>2000-01-01T02:58:37.000Z</time>
      </trkpt>
      <trkpt lat="46.15237" lon="6.70463">
        <ele>1320</ele>
        <time>2000-01-01T02:58:47.000Z</time>
      </trkpt>
      <trkpt lat="46.15252" lon="6.70464">
        <ele>1321.6</ele>
        <time>2000-01-01T02:58:57.000Z</time>
      </trkpt>
      <trkpt lat="46.15264" lon="6.70452">
        <ele>1316</ele>
        <time>2000-01-01T02:59:07.000Z</time>
      </trkpt>
      <trkpt lat="46.15278" lon="6.70422">
        <ele>1314</ele>
        <time>2000-01-01T02:59:17.000Z</time>
      </trkpt>
      <trkpt lat="46.15288" lon="6.70413">
        <ele>1314.9</ele>
        <time>2000-01-01T02:59:27.000Z</time>
      </trkpt>
      <trkpt lat="46.15327" lon="6.70394">
        <ele>1312</ele>
        <time>2000-01-01T02:59:37.000Z</time>
      </trkpt>
      <trkpt lat="46.15346" lon="6.70367">
        <ele>1311</ele>
        <time>2000-01-01T02:59:47.000Z</time>
      </trkpt>
      <trkpt lat="46.15357" lon="6.7036">
        <ele>1307.5</ele>
        <time>2000-01-01T02:59:57.000Z</time>
      </trkpt>
      <trkpt lat="46.1539" lon="6.70372">
        <ele>1310</ele>
        <time>2000-01-01T03:00:07.000Z</time>
      </trkpt>
      <trkpt lat="46.15408" lon="6.70368">
        <ele>1306.4</ele>
        <time>2000-01-01T03:00:17.000Z</time>
      </trkpt>
      <trkpt lat="46.15426" lon="6.70368">
        <ele>1303</ele>
        <time>2000-01-01T03:00:27.000Z</time>
      </trkpt>
      <trkpt lat="46.15448" lon="6.70352">
        <ele>1299</ele>
        <time>2000-01-01T03:00:37.000Z</time>
      </trkpt>
      <trkpt lat="46.15473" lon="6.70333">
        <ele>1298</ele>
        <time>2000-01-01T03:00:47.000Z</time>
      </trkpt>
      <trkpt lat="46.15496" lon="6.70317">
        <ele>1297</ele>
        <time>2000-01-01T03:00:57.000Z</time>
      </trkpt>
      <trkpt lat="46.15524" lon="6.70301">
        <ele>1297</ele>
        <time>2000-01-01T03:01:07.000Z</time>
      </trkpt>
      <trkpt lat="46.15539" lon="6.70299">
        <ele>1296.8</ele>
        <time>2000-01-01T03:01:17.000Z</time>
      </trkpt>
      <trkpt lat="46.15629" lon="6.70324">
        <ele>1297</ele>
        <time>2000-01-01T03:01:27.000Z</time>
      </trkpt>
      <trkpt lat="46.15653" lon="6.70334">
        <ele>1295</ele>
        <time>2000-01-01T03:01:37.000Z</time>
      </trkpt>
      <trkpt lat="46.15683" lon="6.70344">
        <ele>1293</ele>
        <time>2000-01-01T03:01:47.000Z</time>
      </trkpt>
      <trkpt lat="46.15703" lon="6.70345">
        <ele>1292</ele>
        <time>2000-01-01T03:01:57.000Z</time>
      </trkpt>
      <trkpt lat="46.15729" lon="6.70357">
        <ele>1291</ele>
        <time>2000-01-01T03:02:07.000Z</time>
      </trkpt>
      <trkpt lat="46.15766" lon="6.70374">
        <ele>1286</ele>
        <time>2000-01-01T03:02:17.000Z</time>
      </trkpt>
      <trkpt lat="46.15789" lon="6.70384">
        <ele>1284</ele>
        <time>2000-01-01T03:02:27.000Z</time>
      </trkpt>
      <trkpt lat="46.15815" lon="6.70395">
        <ele>1278</ele>
        <time>2000-01-01T03:02:37.000Z</time>
      </trkpt>
      <trkpt lat="46.15839" lon="6.70379">
        <ele>1271</ele>
        <time>2000-01-01T03:02:47.000Z</time>
      </trkpt>
      <trkpt lat="46.15853" lon="6.70376">
        <ele>1266.6</ele>
        <time>2000-01-01T03:02:57.000Z</time>
      </trkpt>
      <trkpt lat="46.1587" lon="6.7038">
        <ele>1262</ele>
        <time>2000-01-01T03:03:07.000Z</time>
      </trkpt>
      <trkpt lat="46.1589" lon="6.70391">
        <ele>1260</ele>
        <time>2000-01-01T03:03:17.000Z</time>
      </trkpt>
      <trkpt lat="46.15902" lon="6.70391">
        <ele>1259.8</ele>
        <time>2000-01-01T03:03:27.000Z</time>
      </trkpt>
      <trkpt lat="46.15946" lon="6.70404">
        <ele>1253</ele>
        <time>2000-01-01T03:03:37.000Z</time>
      </trkpt>
      <trkpt lat="46.15959" lon="6.70404">
        <ele>1250.7</ele>
        <time>2000-01-01T03:03:47.000Z</time>
      </trkpt>
      <trkpt lat="46.15976" lon="6.70411">
        <ele>1248</ele>
        <time>2000-01-01T03:03:57.000Z</time>
      </trkpt>
      <trkpt lat="46.15996" lon="6.70426">
        <ele>1245</ele>
        <time>2000-01-01T03:04:07.000Z</time>
      </trkpt>
      <trkpt lat="46.16027" lon="6.70438">
        <ele>1243</ele>
        <time>2000-01-01T03:04:17.000Z</time>
      </trkpt>
      <trkpt lat="46.16049" lon="6.70454">
        <ele>1241</ele>
        <time>2000-01-01T03:04:27.000Z</time>
      </trkpt>
      <trkpt lat="46.16076" lon="6.70472">
        <ele>1238</ele>
        <time>2000-01-01T03:04:37.000Z</time>
      </trkpt>
      <trkpt lat="46.16093" lon="6.70479">
        <ele>1236.1</ele>
        <time>2000-01-01T03:04:47.000Z</time>
      </trkpt>
      <trkpt lat="46.16129" lon="6.70485">
        <ele>1231</ele>
        <time>2000-01-01T03:04:57.000Z</time>
      </trkpt>
      <trkpt lat="46.1616" lon="6.705">
        <ele>1223</ele>
        <time>2000-01-01T03:05:07.000Z</time>
      </trkpt>
      <trkpt lat="46.16175" lon="6.70513">
        <ele>1216.6</ele>
        <time>2000-01-01T03:05:17.000Z</time>
      </trkpt>
      <trkpt lat="46.16246" lon="6.70652">
        <ele>1205</ele>
        <time>2000-01-01T03:05:27.000Z</time>
      </trkpt>
      <trkpt lat="46.16268" lon="6.70684">
        <ele>1201</ele>
        <time>2000-01-01T03:05:37.000Z</time>
      </trkpt>
      <trkpt lat="46.1629" lon="6.70717">
        <ele>1197</ele>
        <time>2000-01-01T03:05:47.000Z</time>
      </trkpt>
      <trkpt lat="46.16313" lon="6.70751">
        <ele>1190</ele>
        <time>2000-01-01T03:05:57.000Z</time>
      </trkpt>
      <trkpt lat="46.16335" lon="6.70776">
        <ele>1185</ele>
        <time>2000-01-01T03:06:07.000Z</time>
      </trkpt>
      <trkpt lat="46.1635" lon="6.7078">
        <ele>1180.9</ele>
        <time>2000-01-01T03:06:17.000Z</time>
      </trkpt>
      <trkpt lat="46.16374" lon="6.70782">
        <ele>1173</ele>
        <time>2000-01-01T03:06:27.000Z</time>
      </trkpt>
      <trkpt lat="46.16384" lon="6.70798">
        <ele>1171.3</ele>
        <time>2000-01-01T03:06:37.000Z</time>
      </trkpt>
      <trkpt lat="46.16391" lon="6.70802">
        <ele>1168</ele>
        <time>2000-01-01T03:06:47.000Z</time>
      </trkpt>
      <trkpt lat="46.16394" lon="6.70797">
        <ele>1167.4</ele>
        <time>2000-01-01T03:06:57.000Z</time>
      </trkpt>
      <trkpt lat="46.16399" lon="6.7078">
        <ele>1163.7</ele>
        <time>2000-01-01T03:07:07.000Z</time>
      </trkpt>
      <trkpt lat="46.16402" lon="6.70758">
        <ele>1165</ele>
        <time>2000-01-01T03:07:17.000Z</time>
      </trkpt>
      <trkpt lat="46.16409" lon="6.70742">
        <ele>1161.7</ele>
        <time>2000-01-01T03:07:27.000Z</time>
      </trkpt>
      <trkpt lat="46.16424" lon="6.70732">
        <ele>1163</ele>
        <time>2000-01-01T03:07:37.000Z</time>
      </trkpt>
      <trkpt lat="46.16459" lon="6.70721">
        <ele>1162</ele>
        <time>2000-01-01T03:07:47.000Z</time>
      </trkpt>
      <trkpt lat="46.16473" lon="6.7072">
        <ele>1163.3</ele>
        <time>2000-01-01T03:07:57.000Z</time>
      </trkpt>
      <trkpt lat="46.16485" lon="6.70729">
        <ele>1162</ele>
        <time>2000-01-01T03:08:07.000Z</time>
      </trkpt>
      <trkpt lat="46.16495" lon="6.70768">
        <ele>1162</ele>
        <time>2000-01-01T03:08:17.000Z</time>
      </trkpt>
      <trkpt lat="46.16501" lon="6.70773">
        <ele>1163.9</ele>
        <time>2000-01-01T03:08:27.000Z</time>
      </trkpt>
      <trkpt lat="46.16513" lon="6.70785">
        <ele>1162</ele>
        <time>2000-01-01T03:08:37.000Z</time>
      </trkpt>
      <trkpt lat="46.16525" lon="6.70795">
        <ele>1163.6</ele>
        <time>2000-01-01T03:08:47.000Z</time>
      </trkpt>
      <trkpt lat="46.1655" lon="6.70785">
        <ele>1162</ele>
        <time>2000-01-01T03:08:57.000Z</time>
      </trkpt>
      <trkpt lat="46.16577" lon="6.70784">
        <ele>1161</ele>
        <time>2000-01-01T03:09:07.000Z</time>
      </trkpt>
      <trkpt lat="46.16603" lon="6.70793">
        <ele>1157</ele>
        <time>2000-01-01T03:09:17.000Z</time>
      </trkpt>
      <trkpt lat="46.16633" lon="6.70787">
        <ele>1152</ele>
        <time>2000-01-01T03:09:27.000Z</time>
      </trkpt>
      <trkpt lat="46.1669" lon="6.70776">
        <ele>1144</ele>
        <time>2000-01-01T03:09:37.000Z</time>
      </trkpt>
      <trkpt lat="46.1671" lon="6.70758">
        <ele>1142</ele>
        <time>2000-01-01T03:09:47.000Z</time>
      </trkpt>
      <trkpt lat="46.1673" lon="6.7074">
        <ele>1142</ele>
        <time>2000-01-01T03:09:57.000Z</time>
      </trkpt>
      <trkpt lat="46.16748" lon="6.70715">
        <ele>1138</ele>
        <time>2000-01-01T03:10:07.000Z</time>
      </trkpt>
      <trkpt lat="46.1677" lon="6.70686">
        <ele>1135</ele>
        <time>2000-01-01T03:10:17.000Z</time>
      </trkpt>
      <trkpt lat="46.16774" lon="6.70683">
        <ele>1127</ele>
        <time>2000-01-01T03:10:27.000Z</time>
      </trkpt>
      <trkpt lat="46.16784" lon="6.70682">
        <ele>1127.2</ele>
        <time>2000-01-01T03:10:37.000Z</time>
      </trkpt>
      <trkpt lat="46.16819" lon="6.70694">
        <ele>1129</ele>
        <time>2000-01-01T03:10:47.000Z</time>
      </trkpt>
      <trkpt lat="46.16832" lon="6.70695">
        <ele>1126.9</ele>
        <time>2000-01-01T03:10:57.000Z</time>
      </trkpt>
      <trkpt lat="46.169" lon="6.70659">
        <ele>1124</ele>
        <time>2000-01-01T03:11:07.000Z</time>
      </trkpt>
      <trkpt lat="46.16931" lon="6.70658">
        <ele>1121</ele>
        <time>2000-01-01T03:11:17.000Z</time>
      </trkpt>
      <trkpt lat="46.16957" lon="6.70658">
        <ele>1117</ele>
        <time>2000-01-01T03:11:27.000Z</time>
      </trkpt>
      <trkpt lat="46.16991" lon="6.70658">
        <ele>1115</ele>
        <time>2000-01-01T03:11:37.000Z</time>
      </trkpt>
      <trkpt lat="46.17017" lon="6.70653">
        <ele>1111</ele>
        <time>2000-01-01T03:11:47.000Z</time>
      </trkpt>
      <trkpt lat="46.1705" lon="6.70646">
        <ele>1108</ele>
        <time>2000-01-01T03:11:57.000Z</time>
      </trkpt>
      <trkpt lat="46.17081" lon="6.70647">
        <ele>1104</ele>
        <time>2000-01-01T03:12:07.000Z</time>
      </trkpt>
      <trkpt lat="46.17097" lon="6.70646">
        <ele>1099.2</ele>
        <time>2000-01-01T03:12:17.000Z</time>
      </trkpt>
      <trkpt lat="46.17121" lon="6.70638">
        <ele>1103</ele>
        <time>2000-01-01T03:12:27.000Z</time>
      </trkpt>
      <trkpt lat="46.17144" lon="6.70624">
        <ele>1103</ele>
        <time>2000-01-01T03:12:37.000Z</time>
      </trkpt>
      <trkpt lat="46.17171" lon="6.70607">
        <ele>1095</ele>
        <time>2000-01-01T03:12:47.000Z</time>
      </trkpt>
      <trkpt lat="46.17176" lon="6.70609">
        <ele>1093.5</ele>
        <time>2000-01-01T03:12:57.000Z</time>
      </trkpt>
      <trkpt lat="46.17244" lon="6.70572">
        <ele>1087</ele>
        <time>2000-01-01T03:13:07.000Z</time>
      </trkpt>
      <trkpt lat="46.17272" lon="6.70558">
        <ele>1087</ele>
        <time>2000-01-01T03:13:17.000Z</time>
      </trkpt>
      <trkpt lat="46.17295" lon="6.70547">
        <ele>1087</ele>
        <time>2000-01-01T03:13:27.000Z</time>
      </trkpt>
      <trkpt lat="46.17319" lon="6.70536">
        <ele>1087</ele>
        <time>2000-01-01T03:13:37.000Z</time>
      </trkpt>
      <trkpt lat="46.17349" lon="6.70512">
        <ele>1084</ele>
        <time>2000-01-01T03:13:47.000Z</time>
      </trkpt>
      <trkpt lat="46.17378" lon="6.70489">
        <ele>1082</ele>
        <time>2000-01-01T03:13:57.000Z</time>
      </trkpt>
      <trkpt lat="46.17427" lon="6.7045">
        <ele>1076</ele>
        <time>2000-01-01T03:14:07.000Z</time>
      </trkpt>
      <trkpt lat="46.17454" lon="6.70431">
        <ele>1076</ele>
        <time>2000-01-01T03:14:17.000Z</time>
      </trkpt>
      <trkpt lat="46.17476" lon="6.70414">
        <ele>1076</ele>
        <time>2000-01-01T03:14:27.000Z</time>
      </trkpt>
      <trkpt lat="46.17502" lon="6.70396">
        <ele>1069</ele>
        <time>2000-01-01T03:14:37.000Z</time>
      </trkpt>
      <trkpt lat="46.17526" lon="6.70376">
        <ele>1067</ele>
        <time>2000-01-01T03:14:47.000Z</time>
      </trkpt>
      <trkpt lat="46.17563" lon="6.70346">
        <ele>1061</ele>
        <time>2000-01-01T03:14:57.000Z</time>
      </trkpt>
      <trkpt lat="46.17593" lon="6.70333">
        <ele>1056</ele>
        <time>2000-01-01T03:15:07.000Z</time>
      </trkpt>
      <trkpt lat="46.1763" lon="6.70322">
        <ele>1050</ele>
        <time>2000-01-01T03:15:17.000Z</time>
      </trkpt>
      <trkpt lat="46.17665" lon="6.70291">
        <ele>1045</ele>
        <time>2000-01-01T03:15:27.000Z</time>
      </trkpt>
      <trkpt lat="46.17677" lon="6.70285">
        <ele>1039.6</ele>
        <time>2000-01-01T03:15:37.000Z</time>
      </trkpt>
      <trkpt lat="46.1772" lon="6.7026">
        <ele>1032</ele>
        <time>2000-01-01T03:15:47.000Z</time>
      </trkpt>
      <trkpt lat="46.17744" lon="6.70241">
        <ele>1026</ele>
        <time>2000-01-01T03:15:57.000Z</time>
      </trkpt>
      <trkpt lat="46.17777" lon="6.70215">
        <ele>1024</ele>
        <time>2000-01-01T03:16:07.000Z</time>
      </trkpt>
      <trkpt lat="46.17808" lon="6.70195">
        <ele>1017</ele>
        <time>2000-01-01T03:16:17.000Z</time>
      </trkpt>
      <trkpt lat="46.17849" lon="6.70173">
        <ele>1012</ele>
        <time>2000-01-01T03:16:27.000Z</time>
      </trkpt>
      <trkpt lat="46.17856" lon="6.70167">
        <ele>1010.9</ele>
        <time>2000-01-01T03:16:37.000Z</time>
      </trkpt>
      <trkpt lat="46.17878" lon="6.70151">
        <ele>1008</ele>
        <time>2000-01-01T03:16:47.000Z</time>
      </trkpt>
      <trkpt lat="46.17899" lon="6.70157">
        <ele>1003</ele>
        <time>2000-01-01T03:16:57.000Z</time>
      </trkpt>
      <trkpt lat="46.1792" lon="6.70158">
        <ele>997</ele>
        <time>2000-01-01T03:17:07.000Z</time>
      </trkpt>
      <trkpt lat="46.17957" lon="6.70142">
        <ele>992</ele>
        <time>2000-01-01T03:17:17.000Z</time>
      </trkpt>
      <trkpt lat="46.17972" lon="6.70143">
        <ele>987.5</ele>
        <time>2000-01-01T03:17:27.000Z</time>
      </trkpt>
      <trkpt lat="46.17983" lon="6.70148">
        <ele>986</ele>
        <time>2000-01-01T03:17:37.000Z</time>
      </trkpt>
      <trkpt lat="46.1799" lon="6.70131">
        <ele>985.7</ele>
        <time>2000-01-01T03:17:47.000Z</time>
      </trkpt>
      <trkpt lat="46.17994" lon="6.70102">
        <ele>986</ele>
        <time>2000-01-01T03:17:57.000Z</time>
      </trkpt>
      <trkpt lat="46.18014" lon="6.70074">
        <ele>986</ele>
        <time>2000-01-01T03:18:07.000Z</time>
      </trkpt>
      <trkpt lat="46.18018" lon="6.7007">
        <ele>985.5</ele>
        <time>2000-01-01T03:18:17.000Z</time>
      </trkpt>
      <trkpt lat="46.18029" lon="6.70042">
        <ele>985</ele>
        <time>2000-01-01T03:18:27.000Z</time>
      </trkpt>
      <trkpt lat="46.18032" lon="6.70017">
        <ele>988.9</ele>
        <time>2000-01-01T03:18:37.000Z</time>
      </trkpt>
      <trkpt lat="46.18053" lon="6.70046">
        <ele>984</ele>
        <time>2000-01-01T03:18:47.000Z</time>
      </trkpt>
      <trkpt lat="46.18064" lon="6.70057">
        <ele>981.1</ele>
        <time>2000-01-01T03:18:57.000Z</time>
      </trkpt>
      <trkpt lat="46.18066" lon="6.70062">
        <ele>980.9</ele>
        <time>2000-01-01T03:19:07.000Z</time>
      </trkpt>
      <trkpt lat="46.18064" lon="6.70067">
        <ele>980</ele>
        <time>2000-01-01T03:19:17.000Z</time>
      </trkpt>
      <trkpt lat="46.18082" lon="6.70096">
        <ele>978</ele>
        <time>2000-01-01T03:19:27.000Z</time>
      </trkpt>
      <trkpt lat="46.18108" lon="6.70135">
        <ele>976</ele>
        <time>2000-01-01T03:19:37.000Z</time>
      </trkpt>
      <trkpt lat="46.18135" lon="6.70179">
        <ele>973</ele>
        <time>2000-01-01T03:19:47.000Z</time>
      </trkpt>
      <trkpt lat="46.18152" lon="6.70205">
        <ele>972</ele>
        <time>2000-01-01T03:19:57.000Z</time>
      </trkpt>
      <trkpt lat="46.18171" lon="6.70236">
        <ele>970</ele>
        <time>2000-01-01T03:20:07.000Z</time>
      </trkpt>
      <trkpt lat="46.18192" lon="6.70272">
        <ele>970</ele>
        <time>2000-01-01T03:20:17.000Z</time>
      </trkpt>
      <trkpt lat="46.18214" lon="6.70309">
        <ele>970</ele>
        <time>2000-01-01T03:20:27.000Z</time>
      </trkpt>
      <trkpt lat="46.18245" lon="6.70361">
        <ele>970</ele>
        <time>2000-01-01T03:20:37.000Z</time>
      </trkpt>
      <trkpt lat="46.18251" lon="6.70359">
        <ele>969.8</ele>
        <time>2000-01-01T03:20:47.000Z</time>
      </trkpt>
      <trkpt lat="46.18263" lon="6.70359">
        <ele>967.4</ele>
        <time>2000-01-01T03:20:57.000Z</time>
      </trkpt>
      <trkpt lat="46.18295" lon="6.70343">
        <ele>969</ele>
        <time>2000-01-01T03:21:07.000Z</time>
      </trkpt>
      <trkpt lat="46.18328" lon="6.70304">
        <ele>969</ele>
        <time>2000-01-01T03:21:17.000Z</time>
      </trkpt>
      <trkpt lat="46.1835" lon="6.70347">
        <ele>968</ele>
        <time>2000-01-01T03:21:27.000Z</time>
      </trkpt>
      <trkpt lat="46.18373" lon="6.70389">
        <ele>950</ele>
        <time>2000-01-01T03:21:37.000Z</time>
      </trkpt>
      <trkpt lat="46.18395" lon="6.70432">
        <ele>947</ele>
        <time>2000-01-01T03:21:47.000Z</time>
      </trkpt>
      <trkpt lat="46.18437" lon="6.70511">
        <ele>956</ele>
        <time>2000-01-01T03:21:57.000Z</time>
      </trkpt>
      <trkpt lat="46.18455" lon="6.70546">
        <ele>965</ele>
        <time>2000-01-01T03:22:07.000Z</time>
      </trkpt>
      <trkpt lat="46.18491" lon="6.70615">
        <ele>985</ele>
        <time>2000-01-01T03:22:17.000Z</time>
      </trkpt>
      <trkpt lat="46.18519" lon="6.70667">
        <ele>998</ele>
        <time>2000-01-01T03:22:27.000Z</time>
      </trkpt>
      <trkpt lat="46.18542" lon="6.70711">
        <ele>1018</ele>
        <time>2000-01-01T03:22:37.000Z</time>
      </trkpt>
      <trkpt lat="46.18565" lon="6.70756">
        <ele>1037</ele>
        <time>2000-01-01T03:22:47.000Z</time>
      </trkpt>
      <trkpt lat="46.18589" lon="6.70801">
        <ele>1060</ele>
        <time>2000-01-01T03:22:57.000Z</time>
      </trkpt>
      <trkpt lat="46.18612" lon="6.70845">
        <ele>1087</ele>
        <time>2000-01-01T03:23:07.000Z</time>
      </trkpt>
      <trkpt lat="46.18654" lon="6.70926">
        <ele>1136</ele>
        <time>2000-01-01T03:23:17.000Z</time>
      </trkpt>
      <trkpt lat="46.18682" lon="6.70978">
        <ele>1159</ele>
        <time>2000-01-01T03:23:27.000Z</time>
      </trkpt>
      <trkpt lat="46.18704" lon="6.71021">
        <ele>1180</ele>
        <time>2000-01-01T03:23:37.000Z</time>
      </trkpt>
      <trkpt lat="46.18727" lon="6.71063">
        <ele>1205</ele>
        <time>2000-01-01T03:23:47.000Z</time>
      </trkpt>
      <trkpt lat="46.18749" lon="6.71106">
        <ele>1225</ele>
        <time>2000-01-01T03:23:57.000Z</time>
      </trkpt>
      <trkpt lat="46.1879" lon="6.71185">
        <ele>1277</ele>
        <time>2000-01-01T03:24:07.000Z</time>
      </trkpt>
      <trkpt lat="46.18818" lon="6.71237">
        <ele>1294</ele>
        <time>2000-01-01T03:24:17.000Z</time>
      </trkpt>
      <trkpt lat="46.1884" lon="6.7128">
        <ele>1310</ele>
        <time>2000-01-01T03:24:27.000Z</time>
      </trkpt>
      <trkpt lat="46.18863" lon="6.71322">
        <ele>1326</ele>
        <time>2000-01-01T03:24:37.000Z</time>
      </trkpt>
      <trkpt lat="46.18885" lon="6.71365">
        <ele>1338</ele>
        <time>2000-01-01T03:24:47.000Z</time>
      </trkpt>
      <trkpt lat="46.18926" lon="6.71444">
        <ele>1360</ele>
        <time>2000-01-01T03:24:57.000Z</time>
      </trkpt>
      <trkpt lat="46.18954" lon="6.71496">
        <ele>1377</ele>
        <time>2000-01-01T03:25:07.000Z</time>
      </trkpt>
      <trkpt lat="46.18975" lon="6.71536">
        <ele>1389</ele>
        <time>2000-01-01T03:25:17.000Z</time>
      </trkpt>
      <trkpt lat="46.18996" lon="6.71576">
        <ele>1401</ele>
        <time>2000-01-01T03:25:27.000Z</time>
      </trkpt>
      <trkpt lat="46.19035" lon="6.71652">
        <ele>1420</ele>
        <time>2000-01-01T03:25:37.000Z</time>
      </trkpt>
      <trkpt lat="46.19055" lon="6.71691">
        <ele>1428</ele>
        <time>2000-01-01T03:25:47.000Z</time>
      </trkpt>
      <trkpt lat="46.19076" lon="6.71729">
        <ele>1436</ele>
        <time>2000-01-01T03:25:57.000Z</time>
      </trkpt>
      <trkpt lat="46.19108" lon="6.71791">
        <ele>1444</ele>
        <time>2000-01-01T03:26:07.000Z</time>
      </trkpt>
      <trkpt lat="46.19081" lon="6.71805">
        <ele>1446</ele>
        <time>2000-01-01T03:26:17.000Z</time>
      </trkpt>
      <trkpt lat="46.19037" lon="6.71827">
        <ele>1448</ele>
        <time>2000-01-01T03:26:27.000Z</time>
      </trkpt>
      <trkpt lat="46.19053" lon="6.71865">
        <ele>1452</ele>
        <time>2000-01-01T03:26:37.000Z</time>
      </trkpt>
      <trkpt lat="46.19083" lon="6.71937">
        <ele>1475</ele>
        <time>2000-01-01T03:26:47.000Z</time>
      </trkpt>
      <trkpt lat="46.19107" lon="6.71992">
        <ele>1486</ele>
        <time>2000-01-01T03:26:57.000Z</time>
      </trkpt>
      <trkpt lat="46.19123" lon="6.7203">
        <ele>1496</ele>
        <time>2000-01-01T03:27:07.000Z</time>
      </trkpt>
      <trkpt lat="46.19153" lon="6.72102">
        <ele>1512</ele>
        <time>2000-01-01T03:27:17.000Z</time>
      </trkpt>
      <trkpt lat="46.19177" lon="6.72157">
        <ele>1530</ele>
        <time>2000-01-01T03:27:27.000Z</time>
      </trkpt>
      <trkpt lat="46.19193" lon="6.72195">
        <ele>1542</ele>
        <time>2000-01-01T03:27:37.000Z</time>
      </trkpt>
      <trkpt lat="46.19223" lon="6.72267">
        <ele>1568</ele>
        <time>2000-01-01T03:27:47.000Z</time>
      </trkpt>
      <trkpt lat="46.19247" lon="6.72322">
        <ele>1582</ele>
        <time>2000-01-01T03:27:57.000Z</time>
      </trkpt>
      <trkpt lat="46.19263" lon="6.7236">
        <ele>1591</ele>
        <time>2000-01-01T03:28:07.000Z</time>
      </trkpt>
      <trkpt lat="46.19293" lon="6.72432">
        <ele>1609</ele>
        <time>2000-01-01T03:28:17.000Z</time>
      </trkpt>
      <trkpt lat="46.19317" lon="6.72487">
        <ele>1619</ele>
        <time>2000-01-01T03:28:27.000Z</time>
      </trkpt>
      <trkpt lat="46.19333" lon="6.72525">
        <ele>1625</ele>
        <time>2000-01-01T03:28:37.000Z</time>
      </trkpt>
      <trkpt lat="46.19363" lon="6.72597">
        <ele>1635</ele>
        <time>2000-01-01T03:28:47.000Z</time>
      </trkpt>
      <trkpt lat="46.19387" lon="6.72652">
        <ele>1642</ele>
        <time>2000-01-01T03:28:57.000Z</time>
      </trkpt>
      <trkpt lat="46.19403" lon="6.7269">
        <ele>1648</ele>
        <time>2000-01-01T03:29:07.000Z</time>
      </trkpt>
      <trkpt lat="46.19433" lon="6.72762">
        <ele>1657</ele>
        <time>2000-01-01T03:29:17.000Z</time>
      </trkpt>
      <trkpt lat="46.19457" lon="6.72817">
        <ele>1664</ele>
        <time>2000-01-01T03:29:27.000Z</time>
      </trkpt>
      <trkpt lat="46.19473" lon="6.72855">
        <ele>1674</ele>
        <time>2000-01-01T03:29:37.000Z</time>
      </trkpt>
      <trkpt lat="46.19503" lon="6.72927">
        <ele>1687</ele>
        <time>2000-01-01T03:29:47.000Z</time>
      </trkpt>
      <trkpt lat="46.19527" lon="6.72982">
        <ele>1698</ele>
        <time>2000-01-01T03:29:57.000Z</time>
      </trkpt>
      <trkpt lat="46.19544" lon="6.73022">
        <ele>1706</ele>
        <time>2000-01-01T03:30:07.000Z</time>
      </trkpt>
      <trkpt lat="46.1956" lon="6.73061">
        <ele>1714</ele>
        <time>2000-01-01T03:30:17.000Z</time>
      </trkpt>
      <trkpt lat="46.1958" lon="6.73109">
        <ele>1720</ele>
        <time>2000-01-01T03:30:27.000Z</time>
      </trkpt>
      <trkpt lat="46.19599" lon="6.73145">
        <ele>1730</ele>
        <time>2000-01-01T03:30:37.000Z</time>
      </trkpt>
      <trkpt lat="46.19618" lon="6.73181">
        <ele>1744</ele>
        <time>2000-01-01T03:30:47.000Z</time>
      </trkpt>
      <trkpt lat="46.19638" lon="6.73218">
        <ele>1748</ele>
        <time>2000-01-01T03:30:57.000Z</time>
      </trkpt>
      <trkpt lat="46.19633" lon="6.73248">
        <ele>1749</ele>
        <time>2000-01-01T03:31:07.000Z</time>
      </trkpt>
      <trkpt lat="46.19622" lon="6.73291">
        <ele>1747</ele>
        <time>2000-01-01T03:31:17.000Z</time>
      </trkpt>
      <trkpt lat="46.19609" lon="6.73332">
        <ele>1747</ele>
        <time>2000-01-01T03:31:27.000Z</time>
      </trkpt>
      <trkpt lat="46.19615" lon="6.73366">
        <ele>1748</ele>
        <time>2000-01-01T03:31:37.000Z</time>
      </trkpt>
      <trkpt lat="46.19623" lon="6.73405">
        <ele>1750</ele>
        <time>2000-01-01T03:31:47.000Z</time>
      </trkpt>
      <trkpt lat="46.19639" lon="6.73437">
        <ele>1749</ele>
        <time>2000-01-01T03:31:57.000Z</time>
      </trkpt>
      <trkpt lat="46.19639" lon="6.73479">
        <ele>1749</ele>
        <time>2000-01-01T03:32:07.000Z</time>
      </trkpt>
      <trkpt lat="46.19649" lon="6.7351">
        <ele>1751</ele>
        <time>2000-01-01T03:32:17.000Z</time>
      </trkpt>
      <trkpt lat="46.19672" lon="6.73549">
        <ele>1752</ele>
        <time>2000-01-01T03:32:27.000Z</time>
      </trkpt>
      <trkpt lat="46.19682" lon="6.7358">
        <ele>1752</ele>
        <time>2000-01-01T03:32:37.000Z</time>
      </trkpt>
      <trkpt lat="46.19696" lon="6.73609">
        <ele>1753</ele>
        <time>2000-01-01T03:32:47.000Z</time>
      </trkpt>
      <trkpt lat="46.1972" lon="6.73642">
        <ele>1753</ele>
        <time>2000-01-01T03:32:57.000Z</time>
      </trkpt>
      <trkpt lat="46.19741" lon="6.73672">
        <ele>1756</ele>
        <time>2000-01-01T03:33:07.000Z</time>
      </trkpt>
      <trkpt lat="46.19777" lon="6.73723">
        <ele>1757</ele>
        <time>2000-01-01T03:33:17.000Z</time>
      </trkpt>
      <trkpt lat="46.19803" lon="6.73747">
        <ele>1761</ele>
        <time>2000-01-01T03:33:27.000Z</time>
      </trkpt>
      <trkpt lat="46.1983" lon="6.73771">
        <ele>1763</ele>
        <time>2000-01-01T03:33:37.000Z</time>
      </trkpt>
      <trkpt lat="46.19857" lon="6.73796">
        <ele>1766</ele>
        <time>2000-01-01T03:33:47.000Z</time>
      </trkpt>
      <trkpt lat="46.19884" lon="6.73833">
        <ele>1769</ele>
        <time>2000-01-01T03:33:57.000Z</time>
      </trkpt>
      <trkpt lat="46.19895" lon="6.73856">
        <ele>1770</ele>
        <time>2000-01-01T03:34:07.000Z</time>
      </trkpt>
      <trkpt lat="46.19902" lon="6.73883">
        <ele>1770</ele>
        <time>2000-01-01T03:34:17.000Z</time>
      </trkpt>
      <trkpt lat="46.19904" lon="6.739">
        <ele>1768.5</ele>
        <time>2000-01-01T03:34:27.000Z</time>
      </trkpt>
      <trkpt lat="46.19906" lon="6.73975">
        <ele>1766</ele>
        <time>2000-01-01T03:34:37.000Z</time>
      </trkpt>
      <trkpt lat="46.19915" lon="6.74021">
        <ele>1765</ele>
        <time>2000-01-01T03:34:47.000Z</time>
      </trkpt>
      <trkpt lat="46.19935" lon="6.74055">
        <ele>1765</ele>
        <time>2000-01-01T03:34:57.000Z</time>
      </trkpt>
      <trkpt lat="46.19972" lon="6.74119">
        <ele>1763</ele>
        <time>2000-01-01T03:35:07.000Z</time>
      </trkpt>
      <trkpt lat="46.19987" lon="6.74153">
        <ele>1760</ele>
        <time>2000-01-01T03:35:17.000Z</time>
      </trkpt>
      <trkpt lat="46.20009" lon="6.74205">
        <ele>1757</ele>
        <time>2000-01-01T03:35:27.000Z</time>
      </trkpt>
      <trkpt lat="46.20016" lon="6.74201">
        <ele>1756.8</ele>
        <time>2000-01-01T03:35:37.000Z</time>
      </trkpt>
      <trkpt lat="46.20021" lon="6.74206">
        <ele>1756.8</ele>
        <time>2000-01-01T03:35:47.000Z</time>
      </trkpt>
      <trkpt lat="46.20026" lon="6.74225">
        <ele>1757</ele>
        <time>2000-01-01T03:35:57.000Z</time>
      </trkpt>
      <trkpt lat="46.20041" lon="6.74257">
        <ele>1759</ele>
        <time>2000-01-01T03:36:07.000Z</time>
      </trkpt>
      <trkpt lat="46.20061" lon="6.74301">
        <ele>1762</ele>
        <time>2000-01-01T03:36:17.000Z</time>
      </trkpt>
      <trkpt lat="46.20066" lon="6.74322">
        <ele>1762.8</ele>
        <time>2000-01-01T03:36:27.000Z</time>
      </trkpt>
      <trkpt lat="46.20068" lon="6.74365">
        <ele>1762</ele>
        <time>2000-01-01T03:36:37.000Z</time>
      </trkpt>
      <trkpt lat="46.20067" lon="6.744">
        <ele>1762</ele>
        <time>2000-01-01T03:36:47.000Z</time>
      </trkpt>
      <trkpt lat="46.20066" lon="6.7444">
        <ele>1759</ele>
        <time>2000-01-01T03:36:57.000Z</time>
      </trkpt>
      <trkpt lat="46.20073" lon="6.74479">
        <ele>1757</ele>
        <time>2000-01-01T03:37:07.000Z</time>
      </trkpt>
      <trkpt lat="46.20083" lon="6.74541">
        <ele>1751</ele>
        <time>2000-01-01T03:37:17.000Z</time>
      </trkpt>
      <trkpt lat="46.20088" lon="6.74579">
        <ele>1748</ele>
        <time>2000-01-01T03:37:27.000Z</time>
      </trkpt>
      <trkpt lat="46.20095" lon="6.74633">
        <ele>1747</ele>
        <time>2000-01-01T03:37:37.000Z</time>
      </trkpt>
      <trkpt lat="46.20102" lon="6.74693">
        <ele>1746</ele>
        <time>2000-01-01T03:37:47.000Z</time>
      </trkpt>
      <trkpt lat="46.20105" lon="6.74729">
        <ele>1745</ele>
        <time>2000-01-01T03:37:57.000Z</time>
      </trkpt>
      <trkpt lat="46.20108" lon="6.74771">
        <ele>1742</ele>
        <time>2000-01-01T03:38:07.000Z</time>
      </trkpt>
      <trkpt lat="46.2011" lon="6.74809">
        <ele>1742</ele>
        <time>2000-01-01T03:38:17.000Z</time>
      </trkpt>
      <trkpt lat="46.20123" lon="6.74865">
        <ele>1749</ele>
        <time>2000-01-01T03:38:27.000Z</time>
      </trkpt>
      <trkpt lat="46.20133" lon="6.74915">
        <ele>1753</ele>
        <time>2000-01-01T03:38:37.000Z</time>
      </trkpt>
      <trkpt lat="46.20143" lon="6.74966">
        <ele>1755</ele>
        <time>2000-01-01T03:38:47.000Z</time>
      </trkpt>
      <trkpt lat="46.20152" lon="6.75017">
        <ele>1758</ele>
        <time>2000-01-01T03:38:57.000Z</time>
      </trkpt>
      <trkpt lat="46.20159" lon="6.75052">
        <ele>1759</ele>
        <time>2000-01-01T03:39:07.000Z</time>
      </trkpt>
      <trkpt lat="46.20167" lon="6.75095">
        <ele>1762</ele>
        <time>2000-01-01T03:39:17.000Z</time>
      </trkpt>
      <trkpt lat="46.20173" lon="6.75116">
        <ele>1761.6</ele>
        <time>2000-01-01T03:39:27.000Z</time>
      </trkpt>
      <trkpt lat="46.20199" lon="6.75192">
        <ele>1769</ele>
        <time>2000-01-01T03:39:37.000Z</time>
      </trkpt>
      <trkpt lat="46.20203" lon="6.7524">
        <ele>1773</ele>
        <time>2000-01-01T03:39:47.000Z</time>
      </trkpt>
      <trkpt lat="46.20208" lon="6.75288">
        <ele>1774</ele>
        <time>2000-01-01T03:39:57.000Z</time>
      </trkpt>
      <trkpt lat="46.20211" lon="6.75323">
        <ele>1779</ele>
        <time>2000-01-01T03:40:07.000Z</time>
      </trkpt>
      <trkpt lat="46.20215" lon="6.75363">
        <ele>1780</ele>
        <time>2000-01-01T03:40:17.000Z</time>
      </trkpt>
      <trkpt lat="46.20222" lon="6.75397">
        <ele>1784</ele>
        <time>2000-01-01T03:40:27.000Z</time>
      </trkpt>
      <trkpt lat="46.2023" lon="6.75437">
        <ele>1783</ele>
        <time>2000-01-01T03:40:37.000Z</time>
      </trkpt>
      <trkpt lat="46.20229" lon="6.75487">
        <ele>1783</ele>
        <time>2000-01-01T03:40:47.000Z</time>
      </trkpt>
      <trkpt lat="46.20227" lon="6.755">
        <ele>1784.3</ele>
        <time>2000-01-01T03:40:57.000Z</time>
      </trkpt>
      <trkpt lat="46.20222" lon="6.75525">
        <ele>1781</ele>
        <time>2000-01-01T03:41:07.000Z</time>
      </trkpt>
      <trkpt lat="46.20208" lon="6.75552">
        <ele>1780</ele>
        <time>2000-01-01T03:41:17.000Z</time>
      </trkpt>
      <trkpt lat="46.20207" lon="6.75565">
        <ele>1783.7</ele>
        <time>2000-01-01T03:41:27.000Z</time>
      </trkpt>
      <trkpt lat="46.20194" lon="6.75606">
        <ele>1779</ele>
        <time>2000-01-01T03:41:37.000Z</time>
      </trkpt>
      <trkpt lat="46.20188" lon="6.75655">
        <ele>1775</ele>
        <time>2000-01-01T03:41:47.000Z</time>
      </trkpt>
      <trkpt lat="46.20176" lon="6.75688">
        <ele>1773</ele>
        <time>2000-01-01T03:41:57.000Z</time>
      </trkpt>
      <trkpt lat="46.20162" lon="6.75712">
        <ele>1772</ele>
        <time>2000-01-01T03:42:07.000Z</time>
      </trkpt>
      <trkpt lat="46.20142" lon="6.75733">
        <ele>1769</ele>
        <time>2000-01-01T03:42:17.000Z</time>
      </trkpt>
      <trkpt lat="46.20121" lon="6.75755">
        <ele>1766</ele>
        <time>2000-01-01T03:42:27.000Z</time>
      </trkpt>
      <trkpt lat="46.20095" lon="6.75802">
        <ele>1763</ele>
        <time>2000-01-01T03:42:37.000Z</time>
      </trkpt>
      <trkpt lat="46.20075" lon="6.75841">
        <ele>1763</ele>
        <time>2000-01-01T03:42:47.000Z</time>
      </trkpt>
      <trkpt lat="46.20042" lon="6.75874">
        <ele>1762</ele>
        <time>2000-01-01T03:42:57.000Z</time>
      </trkpt>
      <trkpt lat="46.20015" lon="6.75912">
        <ele>1759</ele>
        <time>2000-01-01T03:43:07.000Z</time>
      </trkpt>
      <trkpt lat="46.2001" lon="6.75928">
        <ele>1758.5</ele>
        <time>2000-01-01T03:43:17.000Z</time>
      </trkpt>
      <trkpt lat="46.20014" lon="6.75934">
        <ele>1757.4</ele>
        <time>2000-01-01T03:43:27.000Z</time>
      </trkpt>
      <trkpt lat="46.20029" lon="6.75943">
        <ele>1755</ele>
        <time>2000-01-01T03:43:37.000Z</time>
      </trkpt>
      <trkpt lat="46.2003" lon="6.75949">
        <ele>1752</ele>
        <time>2000-01-01T03:43:47.000Z</time>
      </trkpt>
      <trkpt lat="46.20028" lon="6.75959">
        <ele>1750.4</ele>
        <time>2000-01-01T03:43:57.000Z</time>
      </trkpt>
      <trkpt lat="46.20018" lon="6.75973">
        <ele>1749</ele>
        <time>2000-01-01T03:44:07.000Z</time>
      </trkpt>
      <trkpt lat="46.20016" lon="6.75989">
        <ele>1747.9</ele>
        <time>2000-01-01T03:44:17.000Z</time>
      </trkpt>
      <trkpt lat="46.2002" lon="6.75996">
        <ele>1745.7</ele>
        <time>2000-01-01T03:44:27.000Z</time>
      </trkpt>
      <trkpt lat="46.20032" lon="6.75994">
        <ele>1742</ele>
        <time>2000-01-01T03:44:37.000Z</time>
      </trkpt>
      <trkpt lat="46.20038" lon="6.75995">
        <ele>1742.6</ele>
        <time>2000-01-01T03:44:47.000Z</time>
      </trkpt>
      <trkpt lat="46.20041" lon="6.76004">
        <ele>1740</ele>
        <time>2000-01-01T03:44:57.000Z</time>
      </trkpt>
      <trkpt lat="46.20038" lon="6.76022">
        <ele>1736</ele>
        <time>2000-01-01T03:45:07.000Z</time>
      </trkpt>
      <trkpt lat="46.20052" lon="6.76039">
        <ele>1729.9</ele>
        <time>2000-01-01T03:45:17.000Z</time>
      </trkpt>
      <trkpt lat="46.20058" lon="6.76044">
        <ele>1728</ele>
        <time>2000-01-01T03:45:27.000Z</time>
      </trkpt>
      <trkpt lat="46.20067" lon="6.76068">
        <ele>1726</ele>
        <time>2000-01-01T03:45:37.000Z</time>
      </trkpt>
      <trkpt lat="46.20067" lon="6.76079">
        <ele>1721</ele>
        <time>2000-01-01T03:45:47.000Z</time>
      </trkpt>
      <trkpt lat="46.20062" lon="6.761">
        <ele>1720</ele>
        <time>2000-01-01T03:45:57.000Z</time>
      </trkpt>
      <trkpt lat="46.20069" lon="6.76118">
        <ele>1714.9</ele>
        <time>2000-01-01T03:46:07.000Z</time>
      </trkpt>
      <trkpt lat="46.20069" lon="6.76127">
        <ele>1719</ele>
        <time>2000-01-01T03:46:17.000Z</time>
      </trkpt>
      <trkpt lat="46.20056" lon="6.76161">
        <ele>1716</ele>
        <time>2000-01-01T03:46:27.000Z</time>
      </trkpt>
      <trkpt lat="46.2005" lon="6.76191">
        <ele>1714</ele>
        <time>2000-01-01T03:46:37.000Z</time>
      </trkpt>
      <trkpt lat="46.20048" lon="6.76215">
        <ele>1706</ele>
        <time>2000-01-01T03:46:47.000Z</time>
      </trkpt>
      <trkpt lat="46.20054" lon="6.76257">
        <ele>1702</ele>
        <time>2000-01-01T03:46:57.000Z</time>
      </trkpt>
      <trkpt lat="46.20054" lon="6.76315">
        <ele>1701</ele>
        <time>2000-01-01T03:47:07.000Z</time>
      </trkpt>
      <trkpt lat="46.20057" lon="6.76379">
        <ele>1700</ele>
        <time>2000-01-01T03:47:17.000Z</time>
      </trkpt>
      <trkpt lat="46.20062" lon="6.76403">
        <ele>1697.3</ele>
        <time>2000-01-01T03:47:27.000Z</time>
      </trkpt>
      <trkpt lat="46.20077" lon="6.76442">
        <ele>1694</ele>
        <time>2000-01-01T03:47:37.000Z</time>
      </trkpt>
      <trkpt lat="46.20071" lon="6.76472">
        <ele>1692</ele>
        <time>2000-01-01T03:47:47.000Z</time>
      </trkpt>
      <trkpt lat="46.20074" lon="6.76493">
        <ele>1690.6</ele>
        <time>2000-01-01T03:47:57.000Z</time>
      </trkpt>
      <trkpt lat="46.20084" lon="6.76504">
        <ele>1687</ele>
        <time>2000-01-01T03:48:07.000Z</time>
      </trkpt>
      <trkpt lat="46.20092" lon="6.765">
        <ele>1682.6</ele>
        <time>2000-01-01T03:48:17.000Z</time>
      </trkpt>
      <trkpt lat="46.20096" lon="6.76494">
        <ele>1680.8</ele>
        <time>2000-01-01T03:48:27.000Z</time>
      </trkpt>
      <trkpt lat="46.20099" lon="6.76496">
        <ele>1679.7</ele>
        <time>2000-01-01T03:48:37.000Z</time>
      </trkpt>
      <trkpt lat="46.20094" lon="6.76512">
        <ele>1685</ele>
        <time>2000-01-01T03:48:47.000Z</time>
      </trkpt>
      <trkpt lat="46.20095" lon="6.76519">
        <ele>1683.8</ele>
        <time>2000-01-01T03:48:57.000Z</time>
      </trkpt>
      <trkpt lat="46.20128" lon="6.76571">
        <ele>1677</ele>
        <time>2000-01-01T03:49:07.000Z</time>
      </trkpt>
      <trkpt lat="46.20128" lon="6.76585">
        <ele>1673.1</ele>
        <time>2000-01-01T03:49:17.000Z</time>
      </trkpt>
      <trkpt lat="46.20115" lon="6.76643">
        <ele>1672</ele>
        <time>2000-01-01T03:49:27.000Z</time>
      </trkpt>
      <trkpt lat="46.20112" lon="6.76683">
        <ele>1671</ele>
        <time>2000-01-01T03:49:37.000Z</time>
      </trkpt>
      <trkpt lat="46.201" lon="6.76727">
        <ele>1670</ele>
        <time>2000-01-01T03:49:47.000Z</time>
      </trkpt>
      <trkpt lat="46.20097" lon="6.76754">
        <ele>1668</ele>
        <time>2000-01-01T03:49:57.000Z</time>
      </trkpt>
      <trkpt lat="46.201" lon="6.7679">
        <ele>1665</ele>
        <time>2000-01-01T03:50:07.000Z</time>
      </trkpt>
      <trkpt lat="46.20098" lon="6.76807">
        <ele>1660.1</ele>
        <time>2000-01-01T03:50:17.000Z</time>
      </trkpt>
      <trkpt lat="46.201" lon="6.76816">
        <ele>1658.9</ele>
        <time>2000-01-01T03:50:27.000Z</time>
      </trkpt>
      <trkpt lat="46.20106" lon="6.7682">
        <ele>1657</ele>
        <time>2000-01-01T03:50:37.000Z</time>
      </trkpt>
      <trkpt lat="46.20111" lon="6.76811">
        <ele>1655.8</ele>
        <time>2000-01-01T03:50:47.000Z</time>
      </trkpt>
      <trkpt lat="46.20118" lon="6.76807">
        <ele>1654</ele>
        <time>2000-01-01T03:50:57.000Z</time>
      </trkpt>
      <trkpt lat="46.20126" lon="6.76826">
        <ele>1653</ele>
        <time>2000-01-01T03:51:07.000Z</time>
      </trkpt>
      <trkpt lat="46.20138" lon="6.76838">
        <ele>1648.6</ele>
        <time>2000-01-01T03:51:17.000Z</time>
      </trkpt>
      <trkpt lat="46.20145" lon="6.76859">
        <ele>1649</ele>
        <time>2000-01-01T03:51:27.000Z</time>
      </trkpt>
      <trkpt lat="46.20161" lon="6.76879">
        <ele>1647</ele>
        <time>2000-01-01T03:51:37.000Z</time>
      </trkpt>
      <trkpt lat="46.20189" lon="6.76882">
        <ele>1647</ele>
        <time>2000-01-01T03:51:47.000Z</time>
      </trkpt>
      <trkpt lat="46.20202" lon="6.7688">
        <ele>1644.1</ele>
        <time>2000-01-01T03:51:57.000Z</time>
      </trkpt>
      <trkpt lat="46.20223" lon="6.76893">
        <ele>1644</ele>
        <time>2000-01-01T03:52:07.000Z</time>
      </trkpt>
      <trkpt lat="46.20232" lon="6.76895">
        <ele>1645.8</ele>
        <time>2000-01-01T03:52:17.000Z</time>
      </trkpt>
      <trkpt lat="46.20287" lon="6.76884">
        <ele>1640</ele>
        <time>2000-01-01T03:52:27.000Z</time>
      </trkpt>
      <trkpt lat="46.20317" lon="6.76874">
        <ele>1640</ele>
        <time>2000-01-01T03:52:37.000Z</time>
      </trkpt>
      <trkpt lat="46.20349" lon="6.76877">
        <ele>1640</ele>
        <time>2000-01-01T03:52:47.000Z</time>
      </trkpt>
      <trkpt lat="46.20363" lon="6.76875">
        <ele>1643</ele>
        <time>2000-01-01T03:52:57.000Z</time>
      </trkpt>
      <trkpt lat="46.20406" lon="6.76853">
        <ele>1638</ele>
        <time>2000-01-01T03:53:07.000Z</time>
      </trkpt>
      <trkpt lat="46.20418" lon="6.76839">
        <ele>1635.7</ele>
        <time>2000-01-01T03:53:17.000Z</time>
      </trkpt>
      <trkpt lat="46.20425" lon="6.76835">
        <ele>1633</ele>
        <time>2000-01-01T03:53:27.000Z</time>
      </trkpt>
      <trkpt lat="46.20439" lon="6.76839">
        <ele>1633.2</ele>
        <time>2000-01-01T03:53:37.000Z</time>
      </trkpt>
      <trkpt lat="46.20456" lon="6.76855">
        <ele>1633</ele>
        <time>2000-01-01T03:53:47.000Z</time>
      </trkpt>
      <trkpt lat="46.20472" lon="6.76858">
        <ele>1628.8</ele>
        <time>2000-01-01T03:53:57.000Z</time>
      </trkpt>
      <trkpt lat="46.20486" lon="6.76865">
        <ele>1627</ele>
        <time>2000-01-01T03:54:07.000Z</time>
      </trkpt>
      <trkpt lat="46.2049" lon="6.76876">
        <ele>1625.4</ele>
        <time>2000-01-01T03:54:17.000Z</time>
      </trkpt>
      <trkpt lat="46.20491" lon="6.7691">
        <ele>1625</ele>
        <time>2000-01-01T03:54:27.000Z</time>
      </trkpt>
      <trkpt lat="46.20495" lon="6.76946">
        <ele>1625</ele>
        <time>2000-01-01T03:54:37.000Z</time>
      </trkpt>
      <trkpt lat="46.205" lon="6.76988">
        <ele>1623</ele>
        <time>2000-01-01T03:54:47.000Z</time>
      </trkpt>
      <trkpt lat="46.20499" lon="6.77024">
        <ele>1621</ele>
        <time>2000-01-01T03:54:57.000Z</time>
      </trkpt>
      <trkpt lat="46.20498" lon="6.77064">
        <ele>1619</ele>
        <time>2000-01-01T03:55:07.000Z</time>
      </trkpt>
      <trkpt lat="46.20492" lon="6.77119">
        <ele>1616</ele>
        <time>2000-01-01T03:55:17.000Z</time>
      </trkpt>
      <trkpt lat="46.20491" lon="6.77174">
        <ele>1617</ele>
        <time>2000-01-01T03:55:27.000Z</time>
      </trkpt>
      <trkpt lat="46.20488" lon="6.77189">
        <ele>1617</ele>
        <time>2000-01-01T03:55:37.000Z</time>
      </trkpt>
      <trkpt lat="46.2048" lon="6.77213">
        <ele>1618</ele>
        <time>2000-01-01T03:55:47.000Z</time>
      </trkpt>
      <trkpt lat="46.2048" lon="6.77223">
        <ele>1618.9</ele>
        <time>2000-01-01T03:55:57.000Z</time>
      </trkpt>
      <trkpt lat="46.20487" lon="6.77234">
        <ele>1617.4</ele>
        <time>2000-01-01T03:56:07.000Z</time>
      </trkpt>
      <trkpt lat="46.20488" lon="6.77246">
        <ele>1618</ele>
        <time>2000-01-01T03:56:17.000Z</time>
      </trkpt>
      <trkpt lat="46.20477" lon="6.77279">
        <ele>1618</ele>
        <time>2000-01-01T03:56:27.000Z</time>
      </trkpt>
      <trkpt lat="46.20465" lon="6.77318">
        <ele>1615</ele>
        <time>2000-01-01T03:56:37.000Z</time>
      </trkpt>
      <trkpt lat="46.2045" lon="6.77346">
        <ele>1615</ele>
        <time>2000-01-01T03:56:47.000Z</time>
      </trkpt>
      <trkpt lat="46.20432" lon="6.77379">
        <ele>1609</ele>
        <time>2000-01-01T03:56:57.000Z</time>
      </trkpt>
      <trkpt lat="46.20416" lon="6.7741">
        <ele>1607</ele>
        <time>2000-01-01T03:57:07.000Z</time>
      </trkpt>
      <trkpt lat="46.20384" lon="6.77446">
        <ele>1606</ele>
        <time>2000-01-01T03:57:17.000Z</time>
      </trkpt>
      <trkpt lat="46.20364" lon="6.7748">
        <ele>1606</ele>
        <time>2000-01-01T03:57:27.000Z</time>
      </trkpt>
      <trkpt lat="46.20359" lon="6.77505">
        <ele>1600.5</ele>
        <time>2000-01-01T03:57:37.000Z</time>
      </trkpt>
      <trkpt lat="46.20364" lon="6.7756">
        <ele>1598</ele>
        <time>2000-01-01T03:57:47.000Z</time>
      </trkpt>
      <trkpt lat="46.20361" lon="6.77579">
        <ele>1598</ele>
        <time>2000-01-01T03:57:57.000Z</time>
      </trkpt>
      <trkpt lat="46.20362" lon="6.77594">
        <ele>1598</ele>
        <time>2000-01-01T03:58:07.000Z</time>
      </trkpt>
      <trkpt lat="46.20368" lon="6.77628">
        <ele>1597</ele>
        <time>2000-01-01T03:58:17.000Z</time>
      </trkpt>
      <trkpt lat="46.20374" lon="6.77637">
        <ele>1596.8</ele>
        <time>2000-01-01T03:58:27.000Z</time>
      </trkpt>
      <trkpt lat="46.20388" lon="6.77646">
        <ele>1597</ele>
        <time>2000-01-01T03:58:37.000Z</time>
      </trkpt>
      <trkpt lat="46.20391" lon="6.77651">
        <ele>1596</ele>
        <time>2000-01-01T03:58:47.000Z</time>
      </trkpt>
      <trkpt lat="46.20392" lon="6.77662">
        <ele>1596.5</ele>
        <time>2000-01-01T03:58:57.000Z</time>
      </trkpt>
      <trkpt lat="46.20385" lon="6.77689">
        <ele>1596</ele>
        <time>2000-01-01T03:59:07.000Z</time>
      </trkpt>
      <trkpt lat="46.20371" lon="6.77717">
        <ele>1596</ele>
        <time>2000-01-01T03:59:17.000Z</time>
      </trkpt>
      <trkpt lat="46.20356" lon="6.77738">
        <ele>1597</ele>
        <time>2000-01-01T03:59:27.000Z</time>
      </trkpt>
      <trkpt lat="46.20342" lon="6.77764">
        <ele>1597</ele>
        <time>2000-01-01T03:59:37.000Z</time>
      </trkpt>
      <trkpt lat="46.2033" lon="6.77795">
        <ele>1597</ele>
        <time>2000-01-01T03:59:47.000Z</time>
      </trkpt>
      <trkpt lat="46.20329" lon="6.77816">
        <ele>1598</ele>
        <time>2000-01-01T03:59:57.000Z</time>
      </trkpt>
      <trkpt lat="46.20332" lon="6.77846">
        <ele>1601</ele>
        <time>2000-01-01T04:00:07.000Z</time>
      </trkpt>
      <trkpt lat="46.20341" lon="6.77864">
        <ele>1599.9</ele>
        <time>2000-01-01T04:00:17.000Z</time>
      </trkpt>
      <trkpt lat="46.20347" lon="6.77886">
        <ele>1601</ele>
        <time>2000-01-01T04:00:27.000Z</time>
      </trkpt>
      <trkpt lat="46.20345" lon="6.77905">
        <ele>1599.1</ele>
        <time>2000-01-01T04:00:37.000Z</time>
      </trkpt>
      <trkpt lat="46.20335" lon="6.7792">
        <ele>1602</ele>
        <time>2000-01-01T04:00:47.000Z</time>
      </trkpt>
      <trkpt lat="46.20312" lon="6.7793">
        <ele>1601</ele>
        <time>2000-01-01T04:00:57.000Z</time>
      </trkpt>
      <trkpt lat="46.20302" lon="6.77944">
        <ele>1603.7</ele>
        <time>2000-01-01T04:01:07.000Z</time>
      </trkpt>
      <trkpt lat="46.2029" lon="6.77986">
        <ele>1601</ele>
        <time>2000-01-01T04:01:17.000Z</time>
      </trkpt>
      <trkpt lat="46.20289" lon="6.78007">
        <ele>1598.4</ele>
        <time>2000-01-01T04:01:27.000Z</time>
      </trkpt>
      <trkpt lat="46.20291" lon="6.78027">
        <ele>1602</ele>
        <time>2000-01-01T04:01:37.000Z</time>
      </trkpt>
      <trkpt lat="46.20279" lon="6.7802">
        <ele>1597.9</ele>
        <time>2000-01-01T04:01:47.000Z</time>
      </trkpt>
      <trkpt lat="46.2026" lon="6.78021">
        <ele>1599</ele>
        <time>2000-01-01T04:01:57.000Z</time>
      </trkpt>
      <trkpt lat="46.20251" lon="6.78014">
        <ele>1604.8</ele>
        <time>2000-01-01T04:02:07.000Z</time>
      </trkpt>
      <trkpt lat="46.20268" lon="6.78058">
        <ele>1600</ele>
        <time>2000-01-01T04:02:17.000Z</time>
      </trkpt>
      <trkpt lat="46.20239" lon="6.78092">
        <ele>1601</ele>
        <time>2000-01-01T04:02:27.000Z</time>
      </trkpt>
      <trkpt lat="46.20225" lon="6.78128">
        <ele>1601</ele>
        <time>2000-01-01T04:02:37.000Z</time>
      </trkpt>
      <trkpt lat="46.20208" lon="6.78187">
        <ele>1602</ele>
        <time>2000-01-01T04:02:47.000Z</time>
      </trkpt>
      <trkpt lat="46.20201" lon="6.78204">
        <ele>1593.5</ele>
        <time>2000-01-01T04:02:57.000Z</time>
      </trkpt>
      <trkpt lat="46.20127" lon="6.78292">
        <ele>1599</ele>
        <time>2000-01-01T04:03:07.000Z</time>
      </trkpt>
      <trkpt lat="46.20113" lon="6.78331">
        <ele>1599</ele>
        <time>2000-01-01T04:03:17.000Z</time>
      </trkpt>
      <trkpt lat="46.20119" lon="6.78324">
        <ele>1595</ele>
        <time>2000-01-01T04:03:27.000Z</time>
      </trkpt>
      <trkpt lat="46.20124" lon="6.78323">
        <ele>1593.2</ele>
        <time>2000-01-01T04:03:37.000Z</time>
      </trkpt>
      <trkpt lat="46.20126" lon="6.78314">
        <ele>1599</ele>
        <time>2000-01-01T04:03:47.000Z</time>
      </trkpt>
      <trkpt lat="46.2013" lon="6.78313">
        <ele>1593.5</ele>
        <time>2000-01-01T04:03:57.000Z</time>
      </trkpt>
      <trkpt lat="46.20136" lon="6.7832">
        <ele>1589</ele>
        <time>2000-01-01T04:04:07.000Z</time>
      </trkpt>
      <trkpt lat="46.20138" lon="6.78312">
        <ele>1590.5</ele>
        <time>2000-01-01T04:04:17.000Z</time>
      </trkpt>
      <trkpt lat="46.20141" lon="6.7831">
        <ele>1590</ele>
        <time>2000-01-01T04:04:27.000Z</time>
      </trkpt>
      <trkpt lat="46.20144" lon="6.78313">
        <ele>1587.6</ele>
        <time>2000-01-01T04:04:37.000Z</time>
      </trkpt>
      <trkpt lat="46.20149" lon="6.78312">
        <ele>1585.7</ele>
        <time>2000-01-01T04:04:47.000Z</time>
      </trkpt>
      <trkpt lat="46.20151" lon="6.78305">
        <ele>1586.9</ele>
        <time>2000-01-01T04:04:57.000Z</time>
      </trkpt>
      <trkpt lat="46.20157" lon="6.78303">
        <ele>1589</ele>
        <time>2000-01-01T04:05:07.000Z</time>
      </trkpt>
      <trkpt lat="46.2016" lon="6.78306">
        <ele>1582.7</ele>
        <time>2000-01-01T04:05:17.000Z</time>
      </trkpt>
      <trkpt lat="46.20166" lon="6.783">
        <ele>1581.7</ele>
        <time>2000-01-01T04:05:27.000Z</time>
      </trkpt>
      <trkpt lat="46.20168" lon="6.7829">
        <ele>1583.4</ele>
        <time>2000-01-01T04:05:37.000Z</time>
      </trkpt>
      <trkpt lat="46.2017" lon="6.78287">
        <ele>1589</ele>
        <time>2000-01-01T04:05:47.000Z</time>
      </trkpt>
      <trkpt lat="46.20175" lon="6.78289">
        <ele>1580.7</ele>
        <time>2000-01-01T04:05:57.000Z</time>
      </trkpt>
      <trkpt lat="46.20181" lon="6.7828">
        <ele>1580.3</ele>
        <time>2000-01-01T04:06:07.000Z</time>
      </trkpt>
      <trkpt lat="46.20191" lon="6.7828">
        <ele>1576</ele>
        <time>2000-01-01T04:06:17.000Z</time>
      </trkpt>
      <trkpt lat="46.20195" lon="6.78277">
        <ele>1575</ele>
        <time>2000-01-01T04:06:27.000Z</time>
      </trkpt>
      <trkpt lat="46.20198" lon="6.78267">
        <ele>1576.9</ele>
        <time>2000-01-01T04:06:37.000Z</time>
      </trkpt>
      <trkpt lat="46.20221" lon="6.78254">
        <ele>1572</ele>
        <time>2000-01-01T04:06:47.000Z</time>
      </trkpt>
      <trkpt lat="46.20234" lon="6.78242">
        <ele>1570.7</ele>
        <time>2000-01-01T04:06:57.000Z</time>
      </trkpt>
      <trkpt lat="46.20247" lon="6.78244">
        <ele>1569</ele>
        <time>2000-01-01T04:07:07.000Z</time>
      </trkpt>
      <trkpt lat="46.20268" lon="6.78228">
        <ele>1568</ele>
        <time>2000-01-01T04:07:17.000Z</time>
      </trkpt>
      <trkpt lat="46.20271" lon="6.78229">
        <ele>1564</ele>
        <time>2000-01-01T04:07:27.000Z</time>
      </trkpt>
      <trkpt lat="46.20273" lon="6.78236">
        <ele>1562.1</ele>
        <time>2000-01-01T04:07:37.000Z</time>
      </trkpt>
      <trkpt lat="46.20264" lon="6.78248">
        <ele>1563</ele>
        <time>2000-01-01T04:07:47.000Z</time>
      </trkpt>
      <trkpt lat="46.20266" lon="6.78252">
        <ele>1560.2</ele>
        <time>2000-01-01T04:07:57.000Z</time>
      </trkpt>
      <trkpt lat="46.2029" lon="6.78242">
        <ele>1557</ele>
        <time>2000-01-01T04:08:07.000Z</time>
      </trkpt>
      <trkpt lat="46.2033" lon="6.78249">
        <ele>1552</ele>
        <time>2000-01-01T04:08:17.000Z</time>
      </trkpt>
      <trkpt lat="46.20333" lon="6.78257">
        <ele>1550.3</ele>
        <time>2000-01-01T04:08:27.000Z</time>
      </trkpt>
      <trkpt lat="46.20334" lon="6.78277">
        <ele>1548</ele>
        <time>2000-01-01T04:08:37.000Z</time>
      </trkpt>
      <trkpt lat="46.2034" lon="6.78286">
        <ele>1546.5</ele>
        <time>2000-01-01T04:08:47.000Z</time>
      </trkpt>
      <trkpt lat="46.20345" lon="6.78288">
        <ele>1545.9</ele>
        <time>2000-01-01T04:08:57.000Z</time>
      </trkpt>
      <trkpt lat="46.20353" lon="6.78286">
        <ele>1546</ele>
        <time>2000-01-01T04:09:07.000Z</time>
      </trkpt>
      <trkpt lat="46.20374" lon="6.78271">
        <ele>1545</ele>
        <time>2000-01-01T04:09:17.000Z</time>
      </trkpt>
      <trkpt lat="46.20384" lon="6.78268">
        <ele>1544.1</ele>
        <time>2000-01-01T04:09:27.000Z</time>
      </trkpt>
      <trkpt lat="46.204" lon="6.78252">
        <ele>1544</ele>
        <time>2000-01-01T04:09:37.000Z</time>
      </trkpt>
      <trkpt lat="46.20401" lon="6.78244">
        <ele>1544</ele>
        <time>2000-01-01T04:09:47.000Z</time>
      </trkpt>
      <trkpt lat="46.2044" lon="6.78175">
        <ele>1543</ele>
        <time>2000-01-01T04:09:57.000Z</time>
      </trkpt>
      <trkpt lat="46.20445" lon="6.78162">
        <ele>1541.1</ele>
        <time>2000-01-01T04:10:07.000Z</time>
      </trkpt>
      <trkpt lat="46.20444" lon="6.7813">
        <ele>1542</ele>
        <time>2000-01-01T04:10:17.000Z</time>
      </trkpt>
      <trkpt lat="46.20461" lon="6.78113">
        <ele>1537</ele>
        <time>2000-01-01T04:10:27.000Z</time>
      </trkpt>
      <trkpt lat="46.20471" lon="6.78098">
        <ele>1534.9</ele>
        <time>2000-01-01T04:10:37.000Z</time>
      </trkpt>
      <trkpt lat="46.20597" lon="6.7786">
        <ele>1499</ele>
        <time>2000-01-01T04:10:47.000Z</time>
      </trkpt>
      <trkpt lat="46.20631" lon="6.77815">
        <ele>1496</ele>
        <time>2000-01-01T04:10:57.000Z</time>
      </trkpt>
      <trkpt lat="46.20653" lon="6.77796">
        <ele>1495</ele>
        <time>2000-01-01T04:11:07.000Z</time>
      </trkpt>
      <trkpt lat="46.20679" lon="6.77772">
        <ele>1495</ele>
        <time>2000-01-01T04:11:17.000Z</time>
      </trkpt>
      <trkpt lat="46.2069" lon="6.7776">
        <ele>1496.2</ele>
        <time>2000-01-01T04:11:27.000Z</time>
      </trkpt>
      <trkpt lat="46.20679" lon="6.77791">
        <ele>1496</ele>
        <time>2000-01-01T04:11:37.000Z</time>
      </trkpt>
      <trkpt lat="46.20679" lon="6.77798">
        <ele>1497.2</ele>
        <time>2000-01-01T04:11:47.000Z</time>
      </trkpt>
      <trkpt lat="46.20683" lon="6.77841">
        <ele>1498</ele>
        <time>2000-01-01T04:11:57.000Z</time>
      </trkpt>
      <trkpt lat="46.20703" lon="6.77831">
        <ele>1498</ele>
        <time>2000-01-01T04:12:07.000Z</time>
      </trkpt>
      <trkpt lat="46.20725" lon="6.77887">
        <ele>1502</ele>
        <time>2000-01-01T04:12:17.000Z</time>
      </trkpt>
      <trkpt lat="46.20746" lon="6.77943">
        <ele>1509</ele>
        <time>2000-01-01T04:12:27.000Z</time>
      </trkpt>
      <trkpt lat="46.20761" lon="6.77981">
        <ele>1518</ele>
        <time>2000-01-01T04:12:37.000Z</time>
      </trkpt>
      <trkpt lat="46.2079" lon="6.78055">
        <ele>1535</ele>
        <time>2000-01-01T04:12:47.000Z</time>
      </trkpt>
      <trkpt lat="46.20811" lon="6.78111">
        <ele>1550</ele>
        <time>2000-01-01T04:12:57.000Z</time>
      </trkpt>
      <trkpt lat="46.20833" lon="6.78167">
        <ele>1563</ele>
        <time>2000-01-01T04:13:07.000Z</time>
      </trkpt>
      <trkpt lat="46.20854" lon="6.78224">
        <ele>1586</ele>
        <time>2000-01-01T04:13:17.000Z</time>
      </trkpt>
      <trkpt lat="46.20871" lon="6.78267">
        <ele>1598</ele>
        <time>2000-01-01T04:13:27.000Z</time>
      </trkpt>
      <trkpt lat="46.20888" lon="6.78311">
        <ele>1604</ele>
        <time>2000-01-01T04:13:37.000Z</time>
      </trkpt>
      <trkpt lat="46.2092" lon="6.78392">
        <ele>1654</ele>
        <time>2000-01-01T04:13:47.000Z</time>
      </trkpt>
      <trkpt lat="46.20937" lon="6.78436">
        <ele>1675</ele>
        <time>2000-01-01T04:13:57.000Z</time>
      </trkpt>
      <trkpt lat="46.20953" lon="6.78479">
        <ele>1695</ele>
        <time>2000-01-01T04:14:07.000Z</time>
      </trkpt>
      <trkpt lat="46.20984" lon="6.7856">
        <ele>1740</ele>
        <time>2000-01-01T04:14:17.000Z</time>
      </trkpt>
      <trkpt lat="46.20999" lon="6.78598">
        <ele>1756</ele>
        <time>2000-01-01T04:14:27.000Z</time>
      </trkpt>
      <trkpt lat="46.21028" lon="6.78672">
        <ele>1789</ele>
        <time>2000-01-01T04:14:37.000Z</time>
      </trkpt>
      <trkpt lat="46.21049" lon="6.78728">
        <ele>1805</ele>
        <time>2000-01-01T04:14:47.000Z</time>
      </trkpt>
      <trkpt lat="46.21064" lon="6.78767">
        <ele>1818</ele>
        <time>2000-01-01T04:14:57.000Z</time>
      </trkpt>
      <trkpt lat="46.21093" lon="6.78841">
        <ele>1844</ele>
        <time>2000-01-01T04:15:07.000Z</time>
      </trkpt>
      <trkpt lat="46.21114" lon="6.78897">
        <ele>1861</ele>
        <time>2000-01-01T04:15:17.000Z</time>
      </trkpt>
      <trkpt lat="46.2113" lon="6.78938">
        <ele>1876</ele>
        <time>2000-01-01T04:15:27.000Z</time>
      </trkpt>
      <trkpt lat="46.21146" lon="6.78979">
        <ele>1887</ele>
        <time>2000-01-01T04:15:37.000Z</time>
      </trkpt>
      <trkpt lat="46.21168" lon="6.79035">
        <ele>1905</ele>
        <time>2000-01-01T04:15:47.000Z</time>
      </trkpt>
      <trkpt lat="46.21178" lon="6.79082">
        <ele>1915</ele>
        <time>2000-01-01T04:15:57.000Z</time>
      </trkpt>
      <trkpt lat="46.21159" lon="6.79105">
        <ele>1915</ele>
        <time>2000-01-01T04:16:07.000Z</time>
      </trkpt>
      <trkpt lat="46.21137" lon="6.79132">
        <ele>1918</ele>
        <time>2000-01-01T04:16:17.000Z</time>
      </trkpt>
      <trkpt lat="46.21152" lon="6.79167">
        <ele>1919</ele>
        <time>2000-01-01T04:16:27.000Z</time>
      </trkpt>
      <trkpt lat="46.21164" lon="6.79185">
        <ele>1918.5</ele>
        <time>2000-01-01T04:16:37.000Z</time>
      </trkpt>
      <trkpt lat="46.21164" lon="6.79195">
        <ele>1917</ele>
        <time>2000-01-01T04:16:47.000Z</time>
      </trkpt>
      <trkpt lat="46.21157" lon="6.79203">
        <ele>1914.8</ele>
        <time>2000-01-01T04:16:57.000Z</time>
      </trkpt>
      <trkpt lat="46.21137" lon="6.7921">
        <ele>1918</ele>
        <time>2000-01-01T04:17:07.000Z</time>
      </trkpt>
      <trkpt lat="46.21119" lon="6.79225">
        <ele>1913</ele>
        <time>2000-01-01T04:17:17.000Z</time>
      </trkpt>
      <trkpt lat="46.21093" lon="6.79256">
        <ele>1911</ele>
        <time>2000-01-01T04:17:27.000Z</time>
      </trkpt>
      <trkpt lat="46.21076" lon="6.79279">
        <ele>1910</ele>
        <time>2000-01-01T04:17:37.000Z</time>
      </trkpt>
      <trkpt lat="46.2106" lon="6.79306">
        <ele>1903</ele>
        <time>2000-01-01T04:17:47.000Z</time>
      </trkpt>
      <trkpt lat="46.21043" lon="6.7933">
        <ele>1900</ele>
        <time>2000-01-01T04:17:57.000Z</time>
      </trkpt>
      <trkpt lat="46.21041" lon="6.79353">
        <ele>1896</ele>
        <time>2000-01-01T04:18:07.000Z</time>
      </trkpt>
      <trkpt lat="46.21046" lon="6.79374">
        <ele>1898</ele>
        <time>2000-01-01T04:18:17.000Z</time>
      </trkpt>
      <trkpt lat="46.21037" lon="6.79399">
        <ele>1896</ele>
        <time>2000-01-01T04:18:27.000Z</time>
      </trkpt>
      <trkpt lat="46.21031" lon="6.79431">
        <ele>1892</ele>
        <time>2000-01-01T04:18:37.000Z</time>
      </trkpt>
      <trkpt lat="46.21023" lon="6.79449">
        <ele>1886.6</ele>
        <time>2000-01-01T04:18:47.000Z</time>
      </trkpt>
      <trkpt lat="46.20993" lon="6.79489">
        <ele>1889</ele>
        <time>2000-01-01T04:18:57.000Z</time>
      </trkpt>
      <trkpt lat="46.20977" lon="6.79513">
        <ele>1886</ele>
        <time>2000-01-01T04:19:07.000Z</time>
      </trkpt>
      <trkpt lat="46.2096" lon="6.79531">
        <ele>1883</ele>
        <time>2000-01-01T04:19:17.000Z</time>
      </trkpt>
      <trkpt lat="46.20944" lon="6.79551">
        <ele>1877</ele>
        <time>2000-01-01T04:19:27.000Z</time>
      </trkpt>
      <trkpt lat="46.20931" lon="6.79572">
        <ele>1873</ele>
        <time>2000-01-01T04:19:37.000Z</time>
      </trkpt>
      <trkpt lat="46.20914" lon="6.79582">
        <ele>1871.8</ele>
        <time>2000-01-01T04:19:47.000Z</time>
      </trkpt>
      <trkpt lat="46.20913" lon="6.79591">
        <ele>1866</ele>
        <time>2000-01-01T04:19:57.000Z</time>
      </trkpt>
      <trkpt lat="46.20952" lon="6.79596">
        <ele>1860</ele>
        <time>2000-01-01T04:20:07.000Z</time>
      </trkpt>
      <trkpt lat="46.20984" lon="6.79597">
        <ele>1852</ele>
        <time>2000-01-01T04:20:17.000Z</time>
      </trkpt>
      <trkpt lat="46.21008" lon="6.79576">
        <ele>1852</ele>
        <time>2000-01-01T04:20:27.000Z</time>
      </trkpt>
      <trkpt lat="46.21017" lon="6.79572">
        <ele>1845.3</ele>
        <time>2000-01-01T04:20:37.000Z</time>
      </trkpt>
      <trkpt lat="46.21033" lon="6.79553">
        <ele>1846</ele>
        <time>2000-01-01T04:20:47.000Z</time>
      </trkpt>
      <trkpt lat="46.21057" lon="6.79551">
        <ele>1840</ele>
        <time>2000-01-01T04:20:57.000Z</time>
      </trkpt>
      <trkpt lat="46.2106" lon="6.79555">
        <ele>1834.7</ele>
        <time>2000-01-01T04:21:07.000Z</time>
      </trkpt>
      <trkpt lat="46.21059" lon="6.79563">
        <ele>1832.8</ele>
        <time>2000-01-01T04:21:17.000Z</time>
      </trkpt>
      <trkpt lat="46.21055" lon="6.79571">
        <ele>1831.7</ele>
        <time>2000-01-01T04:21:27.000Z</time>
      </trkpt>
      <trkpt lat="46.21055" lon="6.79578">
        <ele>1833</ele>
        <time>2000-01-01T04:21:37.000Z</time>
      </trkpt>
      <trkpt lat="46.21068" lon="6.79574">
        <ele>1827.3</ele>
        <time>2000-01-01T04:21:47.000Z</time>
      </trkpt>
      <trkpt lat="46.21079" lon="6.79575">
        <ele>1827</ele>
        <time>2000-01-01T04:21:57.000Z</time>
      </trkpt>
      <trkpt lat="46.21096" lon="6.79568">
        <ele>1821</ele>
        <time>2000-01-01T04:22:07.000Z</time>
      </trkpt>
      <trkpt lat="46.21117" lon="6.79572">
        <ele>1817</ele>
        <time>2000-01-01T04:22:17.000Z</time>
      </trkpt>
      <trkpt lat="46.21127" lon="6.79572">
        <ele>1814.3</ele>
        <time>2000-01-01T04:22:27.000Z</time>
      </trkpt>
      <trkpt lat="46.21135" lon="6.79559">
        <ele>1815</ele>
        <time>2000-01-01T04:22:37.000Z</time>
      </trkpt>
      <trkpt lat="46.21151" lon="6.79554">
        <ele>1811.9</ele>
        <time>2000-01-01T04:22:47.000Z</time>
      </trkpt>
      <trkpt lat="46.21174" lon="6.79537">
        <ele>1812</ele>
        <time>2000-01-01T04:22:57.000Z</time>
      </trkpt>
      <trkpt lat="46.21188" lon="6.79528">
        <ele>1809.1</ele>
        <time>2000-01-01T04:23:07.000Z</time>
      </trkpt>
      <trkpt lat="46.21199" lon="6.7949">
        <ele>1809</ele>
        <time>2000-01-01T04:23:17.000Z</time>
      </trkpt>
      <trkpt lat="46.21218" lon="6.79467">
        <ele>1809</ele>
        <time>2000-01-01T04:23:27.000Z</time>
      </trkpt>
      <trkpt lat="46.21239" lon="6.79441">
        <ele>1809</ele>
        <time>2000-01-01T04:23:37.000Z</time>
      </trkpt>
      <trkpt lat="46.21263" lon="6.79407">
        <ele>1808</ele>
        <time>2000-01-01T04:23:47.000Z</time>
      </trkpt>
      <trkpt lat="46.213" lon="6.79378">
        <ele>1808</ele>
        <time>2000-01-01T04:23:57.000Z</time>
      </trkpt>
      <trkpt lat="46.21318" lon="6.79347">
        <ele>1810</ele>
        <time>2000-01-01T04:24:07.000Z</time>
      </trkpt>
      <trkpt lat="46.21338" lon="6.79323">
        <ele>1810</ele>
        <time>2000-01-01T04:24:17.000Z</time>
      </trkpt>
      <trkpt lat="46.21363" lon="6.79294">
        <ele>1814</ele>
        <time>2000-01-01T04:24:27.000Z</time>
      </trkpt>
      <trkpt lat="46.21371" lon="6.79281">
        <ele>1812.2</ele>
        <time>2000-01-01T04:24:37.000Z</time>
      </trkpt>
      <trkpt lat="46.21376" lon="6.79266">
        <ele>1815</ele>
        <time>2000-01-01T04:24:47.000Z</time>
      </trkpt>
      <trkpt lat="46.21376" lon="6.79257">
        <ele>1813.1</ele>
        <time>2000-01-01T04:24:57.000Z</time>
      </trkpt>
      <trkpt lat="46.21367" lon="6.7923">
        <ele>1814</ele>
        <time>2000-01-01T04:25:07.000Z</time>
      </trkpt>
      <trkpt lat="46.21375" lon="6.79211">
        <ele>1814.2</ele>
        <time>2000-01-01T04:25:17.000Z</time>
      </trkpt>
      <trkpt lat="46.21393" lon="6.79177">
        <ele>1814</ele>
        <time>2000-01-01T04:25:27.000Z</time>
      </trkpt>
      <trkpt lat="46.21401" lon="6.79169">
        <ele>1812</ele>
        <time>2000-01-01T04:25:37.000Z</time>
      </trkpt>
      <trkpt lat="46.2143" lon="6.79159">
        <ele>1808</ele>
        <time>2000-01-01T04:25:47.000Z</time>
      </trkpt>
      <trkpt lat="46.21439" lon="6.79151">
        <ele>1804.5</ele>
        <time>2000-01-01T04:25:57.000Z</time>
      </trkpt>
      <trkpt lat="46.21453" lon="6.79121">
        <ele>1808</ele>
        <time>2000-01-01T04:26:07.000Z</time>
      </trkpt>
      <trkpt lat="46.2147" lon="6.79096">
        <ele>1808</ele>
        <time>2000-01-01T04:26:17.000Z</time>
      </trkpt>
      <trkpt lat="46.21488" lon="6.7907">
        <ele>1804</ele>
        <time>2000-01-01T04:26:27.000Z</time>
      </trkpt>
      <trkpt lat="46.21503" lon="6.79042">
        <ele>1795</ele>
        <time>2000-01-01T04:26:37.000Z</time>
      </trkpt>
      <trkpt lat="46.21527" lon="6.79017">
        <ele>1793</ele>
        <time>2000-01-01T04:26:47.000Z</time>
      </trkpt>
      <trkpt lat="46.21537" lon="6.79004">
        <ele>1789.9</ele>
        <time>2000-01-01T04:26:57.000Z</time>
      </trkpt>
      <trkpt lat="46.2154" lon="6.78995">
        <ele>1793</ele>
        <time>2000-01-01T04:27:07.000Z</time>
      </trkpt>
      <trkpt lat="46.21544" lon="6.78988">
        <ele>1788.4</ele>
        <time>2000-01-01T04:27:17.000Z</time>
      </trkpt>
      <trkpt lat="46.21553" lon="6.78947">
        <ele>1784</ele>
        <time>2000-01-01T04:27:27.000Z</time>
      </trkpt>
      <trkpt lat="46.21567" lon="6.78913">
        <ele>1780</ele>
        <time>2000-01-01T04:27:37.000Z</time>
      </trkpt>
      <trkpt lat="46.21588" lon="6.78864">
        <ele>1773</ele>
        <time>2000-01-01T04:27:47.000Z</time>
      </trkpt>
      <trkpt lat="46.21612" lon="6.78832">
        <ele>1765</ele>
        <time>2000-01-01T04:27:57.000Z</time>
      </trkpt>
      <trkpt lat="46.21635" lon="6.78819">
        <ele>1762</ele>
        <time>2000-01-01T04:28:07.000Z</time>
      </trkpt>
      <trkpt lat="46.21664" lon="6.78798">
        <ele>1754</ele>
        <time>2000-01-01T04:28:17.000Z</time>
      </trkpt>
      <trkpt lat="46.21688" lon="6.7878">
        <ele>1749</ele>
        <time>2000-01-01T04:28:27.000Z</time>
      </trkpt>
      <trkpt lat="46.21722" lon="6.78754">
        <ele>1740</ele>
        <time>2000-01-01T04:28:37.000Z</time>
      </trkpt>
      <trkpt lat="46.21735" lon="6.78763">
        <ele>1730.7</ele>
        <time>2000-01-01T04:28:47.000Z</time>
      </trkpt>
      <trkpt lat="46.21752" lon="6.78754">
        <ele>1726</ele>
        <time>2000-01-01T04:28:57.000Z</time>
      </trkpt>
      <trkpt lat="46.21765" lon="6.78744">
        <ele>1722.6</ele>
        <time>2000-01-01T04:29:07.000Z</time>
      </trkpt>
      <trkpt lat="46.21774" lon="6.78741">
        <ele>1720</ele>
        <time>2000-01-01T04:29:17.000Z</time>
      </trkpt>
      <trkpt lat="46.2178" lon="6.78746">
        <ele>1716.3</ele>
        <time>2000-01-01T04:29:27.000Z</time>
      </trkpt>
      <trkpt lat="46.21783" lon="6.78755">
        <ele>1713.4</ele>
        <time>2000-01-01T04:29:37.000Z</time>
      </trkpt>
      <trkpt lat="46.21778" lon="6.78779">
        <ele>1715</ele>
        <time>2000-01-01T04:29:47.000Z</time>
      </trkpt>
      <trkpt lat="46.21771" lon="6.78788">
        <ele>1710.3</ele>
        <time>2000-01-01T04:29:57.000Z</time>
      </trkpt>
      <trkpt lat="46.21755" lon="6.788">
        <ele>1715</ele>
        <time>2000-01-01T04:30:07.000Z</time>
      </trkpt>
      <trkpt lat="46.21745" lon="6.78835">
        <ele>1714</ele>
        <time>2000-01-01T04:30:17.000Z</time>
      </trkpt>
      <trkpt lat="46.21742" lon="6.78856">
        <ele>1708.4</ele>
        <time>2000-01-01T04:30:27.000Z</time>
      </trkpt>
      <trkpt lat="46.21724" lon="6.78898">
        <ele>1711</ele>
        <time>2000-01-01T04:30:37.000Z</time>
      </trkpt>
      <trkpt lat="46.21725" lon="6.78912">
        <ele>1705.5</ele>
        <time>2000-01-01T04:30:47.000Z</time>
      </trkpt>
      <trkpt lat="46.21731" lon="6.78928">
        <ele>1701</ele>
        <time>2000-01-01T04:30:57.000Z</time>
      </trkpt>
      <trkpt lat="46.21756" lon="6.78962">
        <ele>1701</ele>
        <time>2000-01-01T04:31:07.000Z</time>
      </trkpt>
      <trkpt lat="46.21772" lon="6.78978">
        <ele>1695</ele>
        <time>2000-01-01T04:31:17.000Z</time>
      </trkpt>
      <trkpt lat="46.21775" lon="6.78984">
        <ele>1694.1</ele>
        <time>2000-01-01T04:31:27.000Z</time>
      </trkpt>
      <trkpt lat="46.21775" lon="6.79">
        <ele>1693.4</ele>
        <time>2000-01-01T04:31:37.000Z</time>
      </trkpt>
      <trkpt lat="46.21763" lon="6.79025">
        <ele>1692</ele>
        <time>2000-01-01T04:31:47.000Z</time>
      </trkpt>
      <trkpt lat="46.21763" lon="6.79041">
        <ele>1690</ele>
        <time>2000-01-01T04:31:57.000Z</time>
      </trkpt>
      <trkpt lat="46.21748" lon="6.79079">
        <ele>1690</ele>
        <time>2000-01-01T04:32:07.000Z</time>
      </trkpt>
      <trkpt lat="46.21742" lon="6.79082">
        <ele>1685.8</ele>
        <time>2000-01-01T04:32:17.000Z</time>
      </trkpt>
      <trkpt lat="46.21723" lon="6.79074">
        <ele>1689</ele>
        <time>2000-01-01T04:32:27.000Z</time>
      </trkpt>
      <trkpt lat="46.21713" lon="6.79108">
        <ele>1686</ele>
        <time>2000-01-01T04:32:37.000Z</time>
      </trkpt>
      <trkpt lat="46.21701" lon="6.79149">
        <ele>1679</ele>
        <time>2000-01-01T04:32:47.000Z</time>
      </trkpt>
      <trkpt lat="46.21688" lon="6.79191">
        <ele>1670</ele>
        <time>2000-01-01T04:32:57.000Z</time>
      </trkpt>
      <trkpt lat="46.21667" lon="6.79234">
        <ele>1663</ele>
        <time>2000-01-01T04:33:07.000Z</time>
      </trkpt>
      <trkpt lat="46.2166" lon="6.79257">
        <ele>1657.5</ele>
        <time>2000-01-01T04:33:17.000Z</time>
      </trkpt>
      <trkpt lat="46.21655" lon="6.79289">
        <ele>1657</ele>
        <time>2000-01-01T04:33:27.000Z</time>
      </trkpt>
      <trkpt lat="46.21656" lon="6.79303">
        <ele>1651.2</ele>
        <time>2000-01-01T04:33:37.000Z</time>
      </trkpt>
      <trkpt lat="46.21661" lon="6.79317">
        <ele>1649</ele>
        <time>2000-01-01T04:33:47.000Z</time>
      </trkpt>
      <trkpt lat="46.21673" lon="6.79327">
        <ele>1647</ele>
        <time>2000-01-01T04:33:57.000Z</time>
      </trkpt>
      <trkpt lat="46.21698" lon="6.79342">
        <ele>1644</ele>
        <time>2000-01-01T04:34:07.000Z</time>
      </trkpt>
      <trkpt lat="46.2171" lon="6.79336">
        <ele>1641.7</ele>
        <time>2000-01-01T04:34:17.000Z</time>
      </trkpt>
      <trkpt lat="46.21719" lon="6.79322">
        <ele>1641</ele>
        <time>2000-01-01T04:34:27.000Z</time>
      </trkpt>
      <trkpt lat="46.21728" lon="6.79315">
        <ele>1639.7</ele>
        <time>2000-01-01T04:34:37.000Z</time>
      </trkpt>
      <trkpt lat="46.21752" lon="6.79306">
        <ele>1638</ele>
        <time>2000-01-01T04:34:47.000Z</time>
      </trkpt>
      <trkpt lat="46.21779" lon="6.79302">
        <ele>1638</ele>
        <time>2000-01-01T04:34:57.000Z</time>
      </trkpt>
      <trkpt lat="46.21809" lon="6.7927">
        <ele>1639</ele>
        <time>2000-01-01T04:35:07.000Z</time>
      </trkpt>
      <trkpt lat="46.21831" lon="6.79237">
        <ele>1639</ele>
        <time>2000-01-01T04:35:17.000Z</time>
      </trkpt>
      <trkpt lat="46.21859" lon="6.79215">
        <ele>1639</ele>
        <time>2000-01-01T04:35:27.000Z</time>
      </trkpt>
      <trkpt lat="46.21883" lon="6.7919">
        <ele>1639</ele>
        <time>2000-01-01T04:35:37.000Z</time>
      </trkpt>
      <trkpt lat="46.219" lon="6.79164">
        <ele>1637</ele>
        <time>2000-01-01T04:35:47.000Z</time>
      </trkpt>
      <trkpt lat="46.21921" lon="6.79143">
        <ele>1635</ele>
        <time>2000-01-01T04:35:57.000Z</time>
      </trkpt>
      <trkpt lat="46.21926" lon="6.79145">
        <ele>1632.8</ele>
        <time>2000-01-01T04:36:07.000Z</time>
      </trkpt>
      <trkpt lat="46.2193" lon="6.79154">
        <ele>1630.4</ele>
        <time>2000-01-01T04:36:17.000Z</time>
      </trkpt>
      <trkpt lat="46.21934" lon="6.79154">
        <ele>1628.7</ele>
        <time>2000-01-01T04:36:27.000Z</time>
      </trkpt>
      <trkpt lat="46.21937" lon="6.79151">
        <ele>1631</ele>
        <time>2000-01-01T04:36:37.000Z</time>
      </trkpt>
      <trkpt lat="46.21941" lon="6.79126">
        <ele>1628.9</ele>
        <time>2000-01-01T04:36:47.000Z</time>
      </trkpt>
      <trkpt lat="46.21946" lon="6.79118">
        <ele>1630</ele>
        <time>2000-01-01T04:36:57.000Z</time>
      </trkpt>
      <trkpt lat="46.21948" lon="6.79106">
        <ele>1627.8</ele>
        <time>2000-01-01T04:37:07.000Z</time>
      </trkpt>
      <trkpt lat="46.21956" lon="6.79099">
        <ele>1624.9</ele>
        <time>2000-01-01T04:37:17.000Z</time>
      </trkpt>
      <trkpt lat="46.21959" lon="6.79092">
        <ele>1627</ele>
        <time>2000-01-01T04:37:27.000Z</time>
      </trkpt>
      <trkpt lat="46.2197" lon="6.79082">
        <ele>1620</ele>
        <time>2000-01-01T04:37:37.000Z</time>
      </trkpt>
      <trkpt lat="46.21978" lon="6.7909">
        <ele>1619</ele>
        <time>2000-01-01T04:37:47.000Z</time>
      </trkpt>
      <trkpt lat="46.2199" lon="6.79076">
        <ele>1610.3</ele>
        <time>2000-01-01T04:37:57.000Z</time>
      </trkpt>
      <trkpt lat="46.21992" lon="6.79085">
        <ele>1617</ele>
        <time>2000-01-01T04:38:07.000Z</time>
      </trkpt>
      <trkpt lat="46.21979" lon="6.79122">
        <ele>1615</ele>
        <time>2000-01-01T04:38:17.000Z</time>
      </trkpt>
      <trkpt lat="46.21982" lon="6.79131">
        <ele>1607.3</ele>
        <time>2000-01-01T04:38:27.000Z</time>
      </trkpt>
      <trkpt lat="46.21988" lon="6.7913">
        <ele>1603.7</ele>
        <time>2000-01-01T04:38:37.000Z</time>
      </trkpt>
      <trkpt lat="46.21998" lon="6.79111">
        <ele>1607</ele>
        <time>2000-01-01T04:38:47.000Z</time>
      </trkpt>
      <trkpt lat="46.22003" lon="6.7911">
        <ele>1599.1</ele>
        <time>2000-01-01T04:38:57.000Z</time>
      </trkpt>
      <trkpt lat="46.22006" lon="6.79117">
        <ele>1595.5</ele>
        <time>2000-01-01T04:39:07.000Z</time>
      </trkpt>
      <trkpt lat="46.22003" lon="6.79131">
        <ele>1595</ele>
        <time>2000-01-01T04:39:17.000Z</time>
      </trkpt>
      <trkpt lat="46.22004" lon="6.79138">
        <ele>1591.6</ele>
        <time>2000-01-01T04:39:27.000Z</time>
      </trkpt>
      <trkpt lat="46.22009" lon="6.79139">
        <ele>1588.1</ele>
        <time>2000-01-01T04:39:37.000Z</time>
      </trkpt>
      <trkpt lat="46.22025" lon="6.79086">
        <ele>1592</ele>
        <time>2000-01-01T04:39:47.000Z</time>
      </trkpt>
      <trkpt lat="46.22027" lon="6.79084">
        <ele>1586.4</ele>
        <time>2000-01-01T04:39:57.000Z</time>
      </trkpt>
      <trkpt lat="46.22033" lon="6.7912">
        <ele>1577</ele>
        <time>2000-01-01T04:40:07.000Z</time>
      </trkpt>
      <trkpt lat="46.22038" lon="6.79116">
        <ele>1573.6</ele>
        <time>2000-01-01T04:40:17.000Z</time>
      </trkpt>
      <trkpt lat="46.22041" lon="6.79096">
        <ele>1576</ele>
        <time>2000-01-01T04:40:27.000Z</time>
      </trkpt>
      <trkpt lat="46.22047" lon="6.79089">
        <ele>1571.9</ele>
        <time>2000-01-01T04:40:37.000Z</time>
      </trkpt>
      <trkpt lat="46.22046" lon="6.79113">
        <ele>1572</ele>
        <time>2000-01-01T04:40:47.000Z</time>
      </trkpt>
      <trkpt lat="46.2205" lon="6.79128">
        <ele>1562.4</ele>
        <time>2000-01-01T04:40:57.000Z</time>
      </trkpt>
      <trkpt lat="46.22053" lon="6.79125">
        <ele>1560.8</ele>
        <time>2000-01-01T04:41:07.000Z</time>
      </trkpt>
      <trkpt lat="46.22053" lon="6.79119">
        <ele>1566</ele>
        <time>2000-01-01T04:41:17.000Z</time>
      </trkpt>
      <trkpt lat="46.2206" lon="6.791">
        <ele>1561.1</ele>
        <time>2000-01-01T04:41:27.000Z</time>
      </trkpt>
      <trkpt lat="46.22062" lon="6.791">
        <ele>1559.8</ele>
        <time>2000-01-01T04:41:37.000Z</time>
      </trkpt>
      <trkpt lat="46.22063" lon="6.79115">
        <ele>1557</ele>
        <time>2000-01-01T04:41:47.000Z</time>
      </trkpt>
      <trkpt lat="46.22065" lon="6.79122">
        <ele>1553.2</ele>
        <time>2000-01-01T04:41:57.000Z</time>
      </trkpt>
      <trkpt lat="46.22073" lon="6.79121">
        <ele>1547.9</ele>
        <time>2000-01-01T04:42:07.000Z</time>
      </trkpt>
      <trkpt lat="46.22076" lon="6.79105">
        <ele>1554</ele>
        <time>2000-01-01T04:42:17.000Z</time>
      </trkpt>
      <trkpt lat="46.22082" lon="6.79104">
        <ele>1545.7</ele>
        <time>2000-01-01T04:42:27.000Z</time>
      </trkpt>
      <trkpt lat="46.22097" lon="6.79086">
        <ele>1545</ele>
        <time>2000-01-01T04:42:37.000Z</time>
      </trkpt>
      <trkpt lat="46.22131" lon="6.79055">
        <ele>1535</ele>
        <time>2000-01-01T04:42:47.000Z</time>
      </trkpt>
      <trkpt lat="46.22132" lon="6.79045">
        <ele>1536.7</ele>
        <time>2000-01-01T04:42:57.000Z</time>
      </trkpt>
      <trkpt lat="46.2213" lon="6.79037">
        <ele>1539.4</ele>
        <time>2000-01-01T04:43:07.000Z</time>
      </trkpt>
      <trkpt lat="46.22135" lon="6.79034">
        <ele>1538</ele>
        <time>2000-01-01T04:43:17.000Z</time>
      </trkpt>
      <trkpt lat="46.22151" lon="6.79037">
        <ele>1534</ele>
        <time>2000-01-01T04:43:27.000Z</time>
      </trkpt>
      <trkpt lat="46.2216" lon="6.79044">
        <ele>1529.2</ele>
        <time>2000-01-01T04:43:37.000Z</time>
      </trkpt>
      <trkpt lat="46.2218" lon="6.7904">
        <ele>1530</ele>
        <time>2000-01-01T04:43:47.000Z</time>
      </trkpt>
      <trkpt lat="46.22182" lon="6.79042">
        <ele>1524.2</ele>
        <time>2000-01-01T04:43:57.000Z</time>
      </trkpt>
      <trkpt lat="46.22179" lon="6.79051">
        <ele>1522</ele>
        <time>2000-01-01T04:44:07.000Z</time>
      </trkpt>
      <trkpt lat="46.22165" lon="6.79057">
        <ele>1526</ele>
        <time>2000-01-01T04:44:17.000Z</time>
      </trkpt>
      <trkpt lat="46.22159" lon="6.79067">
        <ele>1522.2</ele>
        <time>2000-01-01T04:44:27.000Z</time>
      </trkpt>
      <trkpt lat="46.22158" lon="6.79076">
        <ele>1519.5</ele>
        <time>2000-01-01T04:44:37.000Z</time>
      </trkpt>
      <trkpt lat="46.2216" lon="6.79089">
        <ele>1519</ele>
        <time>2000-01-01T04:44:47.000Z</time>
      </trkpt>
      <trkpt lat="46.22152" lon="6.79122">
        <ele>1509</ele>
        <time>2000-01-01T04:44:57.000Z</time>
      </trkpt>
      <trkpt lat="46.22141" lon="6.79161">
        <ele>1507</ele>
        <time>2000-01-01T04:45:07.000Z</time>
      </trkpt>
      <trkpt lat="46.22145" lon="6.79169">
        <ele>1505.2</ele>
        <time>2000-01-01T04:45:17.000Z</time>
      </trkpt>
      <trkpt lat="46.22162" lon="6.79188">
        <ele>1500</ele>
        <time>2000-01-01T04:45:27.000Z</time>
      </trkpt>
      <trkpt lat="46.22196" lon="6.79215">
        <ele>1492</ele>
        <time>2000-01-01T04:45:37.000Z</time>
      </trkpt>
      <trkpt lat="46.22215" lon="6.79188">
        <ele>1489</ele>
        <time>2000-01-01T04:45:47.000Z</time>
      </trkpt>
      <trkpt lat="46.22227" lon="6.79175">
        <ele>1486.7</ele>
        <time>2000-01-01T04:45:57.000Z</time>
      </trkpt>
      <trkpt lat="46.2227" lon="6.79137">
        <ele>1481</ele>
        <time>2000-01-01T04:46:07.000Z</time>
      </trkpt>
      <trkpt lat="46.22302" lon="6.79119">
        <ele>1477</ele>
        <time>2000-01-01T04:46:17.000Z</time>
      </trkpt>
      <trkpt lat="46.22315" lon="6.79147">
        <ele>1471</ele>
        <time>2000-01-01T04:46:27.000Z</time>
      </trkpt>
      <trkpt lat="46.22328" lon="6.79161">
        <ele>1467.4</ele>
        <time>2000-01-01T04:46:37.000Z</time>
      </trkpt>
      <trkpt lat="46.22333" lon="6.79163">
        <ele>1467</ele>
        <time>2000-01-01T04:46:47.000Z</time>
      </trkpt>
      <trkpt lat="46.22328" lon="6.79172">
        <ele>1467</ele>
        <time>2000-01-01T04:46:57.000Z</time>
      </trkpt>
      <trkpt lat="46.22328" lon="6.79182">
        <ele>1467</ele>
        <time>2000-01-01T04:47:07.000Z</time>
      </trkpt>
      <trkpt lat="46.22338" lon="6.79197">
        <ele>1466</ele>
        <time>2000-01-01T04:47:17.000Z</time>
      </trkpt>
      <trkpt lat="46.22349" lon="6.79207">
        <ele>1466.1</ele>
        <time>2000-01-01T04:47:27.000Z</time>
      </trkpt>
      <trkpt lat="46.22367" lon="6.79215">
        <ele>1465</ele>
        <time>2000-01-01T04:47:37.000Z</time>
      </trkpt>
      <trkpt lat="46.2239" lon="6.79214">
        <ele>1463</ele>
        <time>2000-01-01T04:47:47.000Z</time>
      </trkpt>
      <trkpt lat="46.22414" lon="6.79198">
        <ele>1459</ele>
        <time>2000-01-01T04:47:57.000Z</time>
      </trkpt>
      <trkpt lat="46.22445" lon="6.79176">
        <ele>1456</ele>
        <time>2000-01-01T04:48:07.000Z</time>
      </trkpt>
      <trkpt lat="46.22458" lon="6.79175">
        <ele>1459.9</ele>
        <time>2000-01-01T04:48:17.000Z</time>
      </trkpt>
      <trkpt lat="46.22472" lon="6.79155">
        <ele>1454</ele>
        <time>2000-01-01T04:48:27.000Z</time>
      </trkpt>
      <trkpt lat="46.22496" lon="6.79137">
        <ele>1449</ele>
        <time>2000-01-01T04:48:37.000Z</time>
      </trkpt>
      <trkpt lat="46.2253" lon="6.79113">
        <ele>1448</ele>
        <time>2000-01-01T04:48:47.000Z</time>
      </trkpt>
      <trkpt lat="46.22568" lon="6.79084">
        <ele>1442</ele>
        <time>2000-01-01T04:48:57.000Z</time>
      </trkpt>
      <trkpt lat="46.22607" lon="6.79069">
        <ele>1439</ele>
        <time>2000-01-01T04:49:07.000Z</time>
      </trkpt>
      <trkpt lat="46.22633" lon="6.79043">
        <ele>1438</ele>
        <time>2000-01-01T04:49:17.000Z</time>
      </trkpt>
      <trkpt lat="46.22647" lon="6.79048">
        <ele>1443.8</ele>
        <time>2000-01-01T04:49:27.000Z</time>
      </trkpt>
      <trkpt lat="46.22722" lon="6.78982">
        <ele>1427</ele>
        <time>2000-01-01T04:49:37.000Z</time>
      </trkpt>
      <trkpt lat="46.22768" lon="6.78983">
        <ele>1423</ele>
        <time>2000-01-01T04:49:47.000Z</time>
      </trkpt>
      <trkpt lat="46.22772" lon="6.78973">
        <ele>1420.1</ele>
        <time>2000-01-01T04:49:57.000Z</time>
      </trkpt>
      <trkpt lat="46.22766" lon="6.78962">
        <ele>1417.1</ele>
        <time>2000-01-01T04:50:07.000Z</time>
      </trkpt>
      <trkpt lat="46.22769" lon="6.78947">
        <ele>1409</ele>
        <time>2000-01-01T04:50:17.000Z</time>
      </trkpt>
      <trkpt lat="46.22774" lon="6.78941">
        <ele>1408.9</ele>
        <time>2000-01-01T04:50:27.000Z</time>
      </trkpt>
      <trkpt lat="46.22794" lon="6.78933">
        <ele>1404</ele>
        <time>2000-01-01T04:50:37.000Z</time>
      </trkpt>
      <trkpt lat="46.2281" lon="6.78945">
        <ele>1405.2</ele>
        <time>2000-01-01T04:50:47.000Z</time>
      </trkpt>
      <trkpt lat="46.22816" lon="6.78942">
        <ele>1404</ele>
        <time>2000-01-01T04:50:57.000Z</time>
      </trkpt>
      <trkpt lat="46.22821" lon="6.78933">
        <ele>1399.4</ele>
        <time>2000-01-01T04:51:07.000Z</time>
      </trkpt>
      <trkpt lat="46.22827" lon="6.7893">
        <ele>1397.5</ele>
        <time>2000-01-01T04:51:17.000Z</time>
      </trkpt>
      <trkpt lat="46.22846" lon="6.78942">
        <ele>1398</ele>
        <time>2000-01-01T04:51:27.000Z</time>
      </trkpt>
      <trkpt lat="46.2285" lon="6.78948">
        <ele>1397.6</ele>
        <time>2000-01-01T04:51:37.000Z</time>
      </trkpt>
      <trkpt lat="46.22866" lon="6.78962">
        <ele>1397</ele>
        <time>2000-01-01T04:51:47.000Z</time>
      </trkpt>
      <trkpt lat="46.2289" lon="6.78967">
        <ele>1391</ele>
        <time>2000-01-01T04:51:57.000Z</time>
      </trkpt>
      <trkpt lat="46.22894" lon="6.7896">
        <ele>1390</ele>
        <time>2000-01-01T04:52:07.000Z</time>
      </trkpt>
      <trkpt lat="46.22888" lon="6.78927">
        <ele>1385</ele>
        <time>2000-01-01T04:52:17.000Z</time>
      </trkpt>
      <trkpt lat="46.22893" lon="6.78924">
        <ele>1384.5</ele>
        <time>2000-01-01T04:52:27.000Z</time>
      </trkpt>
      <trkpt lat="46.22912" lon="6.78929">
        <ele>1380</ele>
        <time>2000-01-01T04:52:37.000Z</time>
      </trkpt>
      <trkpt lat="46.22914" lon="6.78924">
        <ele>1380.6</ele>
        <time>2000-01-01T04:52:47.000Z</time>
      </trkpt>
      <trkpt lat="46.2291" lon="6.78883">
        <ele>1370</ele>
        <time>2000-01-01T04:52:57.000Z</time>
      </trkpt>
      <trkpt lat="46.22903" lon="6.78872">
        <ele>1369</ele>
        <time>2000-01-01T04:53:07.000Z</time>
      </trkpt>
      <trkpt lat="46.22905" lon="6.78867">
        <ele>1367.2</ele>
        <time>2000-01-01T04:53:17.000Z</time>
      </trkpt>
      <trkpt lat="46.22913" lon="6.78865">
        <ele>1363</ele>
        <time>2000-01-01T04:53:27.000Z</time>
      </trkpt>
      <trkpt lat="46.22948" lon="6.78875">
        <ele>1363</ele>
        <time>2000-01-01T04:53:37.000Z</time>
      </trkpt>
      <trkpt lat="46.2296" lon="6.7888">
        <ele>1360.3</ele>
        <time>2000-01-01T04:53:47.000Z</time>
      </trkpt>
      <trkpt lat="46.22971" lon="6.78894">
        <ele>1359</ele>
        <time>2000-01-01T04:53:57.000Z</time>
      </trkpt>
      <trkpt lat="46.22983" lon="6.78891">
        <ele>1355.4</ele>
        <time>2000-01-01T04:54:07.000Z</time>
      </trkpt>
      <trkpt lat="46.22981" lon="6.78881">
        <ele>1354</ele>
        <time>2000-01-01T04:54:17.000Z</time>
      </trkpt>
      <trkpt lat="46.22973" lon="6.78867">
        <ele>1353.2</ele>
        <time>2000-01-01T04:54:27.000Z</time>
      </trkpt>
      <trkpt lat="46.22953" lon="6.78844">
        <ele>1351</ele>
        <time>2000-01-01T04:54:37.000Z</time>
      </trkpt>
      <trkpt lat="46.22929" lon="6.78828">
        <ele>1349</ele>
        <time>2000-01-01T04:54:47.000Z</time>
      </trkpt>
      <trkpt lat="46.22948" lon="6.78825">
        <ele>1346</ele>
        <time>2000-01-01T04:54:57.000Z</time>
      </trkpt>
      <trkpt lat="46.2294" lon="6.78811">
        <ele>1345.2</ele>
        <time>2000-01-01T04:55:07.000Z</time>
      </trkpt>
      <trkpt lat="46.22961" lon="6.78791">
        <ele>1338</ele>
        <time>2000-01-01T04:55:17.000Z</time>
      </trkpt>
      <trkpt lat="46.22974" lon="6.78762">
        <ele>1334</ele>
        <time>2000-01-01T04:55:27.000Z</time>
      </trkpt>
      <trkpt lat="46.22983" lon="6.7875">
        <ele>1330.9</ele>
        <time>2000-01-01T04:55:37.000Z</time>
      </trkpt>
      <trkpt lat="46.23017" lon="6.78744">
        <ele>1323</ele>
        <time>2000-01-01T04:55:47.000Z</time>
      </trkpt>
      <trkpt lat="46.23029" lon="6.78745">
        <ele>1319.8</ele>
        <time>2000-01-01T04:55:57.000Z</time>
      </trkpt>
      <trkpt lat="46.23155" lon="6.78793">
        <ele>1315</ele>
        <time>2000-01-01T04:56:07.000Z</time>
      </trkpt>
      <trkpt lat="46.23182" lon="6.78793">
        <ele>1307</ele>
        <time>2000-01-01T04:56:17.000Z</time>
      </trkpt>
      <trkpt lat="46.2319" lon="6.78797">
        <ele>1306.6</ele>
        <time>2000-01-01T04:56:27.000Z</time>
      </trkpt>
      <trkpt lat="46.23195" lon="6.78805">
        <ele>1305.2</ele>
        <time>2000-01-01T04:56:37.000Z</time>
      </trkpt>
      <trkpt lat="46.23214" lon="6.78891">
        <ele>1296</ele>
        <time>2000-01-01T04:56:47.000Z</time>
      </trkpt>
      <trkpt lat="46.23225" lon="6.78897">
        <ele>1297.2</ele>
        <time>2000-01-01T04:56:57.000Z</time>
      </trkpt>
      <trkpt lat="46.23239" lon="6.78895">
        <ele>1296</ele>
        <time>2000-01-01T04:57:07.000Z</time>
      </trkpt>
      <trkpt lat="46.23242" lon="6.78898">
        <ele>1296.4</ele>
        <time>2000-01-01T04:57:17.000Z</time>
      </trkpt>
      <trkpt lat="46.2329" lon="6.7892">
        <ele>1292</ele>
        <time>2000-01-01T04:57:27.000Z</time>
      </trkpt>
      <trkpt lat="46.23306" lon="6.7892">
        <ele>1292.9</ele>
        <time>2000-01-01T04:57:37.000Z</time>
      </trkpt>
      <trkpt lat="46.23314" lon="6.78927">
        <ele>1292</ele>
        <time>2000-01-01T04:57:47.000Z</time>
      </trkpt>
      <trkpt lat="46.23318" lon="6.78939">
        <ele>1291.2</ele>
        <time>2000-01-01T04:57:57.000Z</time>
      </trkpt>
      <trkpt lat="46.23322" lon="6.78955">
        <ele>1291</ele>
        <time>2000-01-01T04:58:07.000Z</time>
      </trkpt>
      <trkpt lat="46.2334" lon="6.78978">
        <ele>1291</ele>
        <time>2000-01-01T04:58:17.000Z</time>
      </trkpt>
      <trkpt lat="46.23358" lon="6.79001">
        <ele>1290</ele>
        <time>2000-01-01T04:58:27.000Z</time>
      </trkpt>
      <trkpt lat="46.23378" lon="6.78992">
        <ele>1289</ele>
        <time>2000-01-01T04:58:37.000Z</time>
      </trkpt>
      <trkpt lat="46.23403" lon="6.79003">
        <ele>1282</ele>
        <time>2000-01-01T04:58:47.000Z</time>
      </trkpt>
      <trkpt lat="46.23433" lon="6.79017">
        <ele>1280</ele>
        <time>2000-01-01T04:58:57.000Z</time>
      </trkpt>
      <trkpt lat="46.23466" lon="6.79003">
        <ele>1280</ele>
        <time>2000-01-01T04:59:07.000Z</time>
      </trkpt>
      <trkpt lat="46.23489" lon="6.79031">
        <ele>1280</ele>
        <time>2000-01-01T04:59:17.000Z</time>
      </trkpt>
      <trkpt lat="46.23534" lon="6.79044">
        <ele>1277</ele>
        <time>2000-01-01T04:59:27.000Z</time>
      </trkpt>
      <trkpt lat="46.23511" lon="6.79073">
        <ele>1277</ele>
        <time>2000-01-01T04:59:37.000Z</time>
      </trkpt>
      <trkpt lat="46.23466" lon="6.79129">
        <ele>1281</ele>
        <time>2000-01-01T04:59:47.000Z</time>
      </trkpt>
      <trkpt lat="46.23431" lon="6.79171">
        <ele>1297</ele>
        <time>2000-01-01T04:59:57.000Z</time>
      </trkpt>
      <trkpt lat="46.23397" lon="6.79213">
        <ele>1328</ele>
        <time>2000-01-01T05:00:07.000Z</time>
      </trkpt>
      <trkpt lat="46.23366" lon="6.79251">
        <ele>1359</ele>
        <time>2000-01-01T05:00:17.000Z</time>
      </trkpt>
      <trkpt lat="46.23335" lon="6.7929">
        <ele>1384</ele>
        <time>2000-01-01T05:00:27.000Z</time>
      </trkpt>
      <trkpt lat="46.23305" lon="6.79328">
        <ele>1424</ele>
        <time>2000-01-01T05:00:37.000Z</time>
      </trkpt>
      <trkpt lat="46.23274" lon="6.79366">
        <ele>1456</ele>
        <time>2000-01-01T05:00:47.000Z</time>
      </trkpt>
      <trkpt lat="46.23243" lon="6.79405">
        <ele>1484</ele>
        <time>2000-01-01T05:00:57.000Z</time>
      </trkpt>
      <trkpt lat="46.23213" lon="6.79443">
        <ele>1510</ele>
        <time>2000-01-01T05:01:07.000Z</time>
      </trkpt>
      <trkpt lat="46.23159" lon="6.7951">
        <ele>1548</ele>
        <time>2000-01-01T05:01:17.000Z</time>
      </trkpt>
      <trkpt lat="46.23125" lon="6.79552">
        <ele>1577</ele>
        <time>2000-01-01T05:01:27.000Z</time>
      </trkpt>
      <trkpt lat="46.2309" lon="6.79594">
        <ele>1579</ele>
        <time>2000-01-01T05:01:37.000Z</time>
      </trkpt>
      <trkpt lat="46.23059" lon="6.79632">
        <ele>1586</ele>
        <time>2000-01-01T05:01:47.000Z</time>
      </trkpt>
      <trkpt lat="46.23029" lon="6.79671">
        <ele>1607</ele>
        <time>2000-01-01T05:01:57.000Z</time>
      </trkpt>
      <trkpt lat="46.22998" lon="6.79709">
        <ele>1618</ele>
        <time>2000-01-01T05:02:07.000Z</time>
      </trkpt>
      <trkpt lat="46.22967" lon="6.79747">
        <ele>1628</ele>
        <time>2000-01-01T05:02:17.000Z</time>
      </trkpt>
      <trkpt lat="46.22936" lon="6.79786">
        <ele>1637</ele>
        <time>2000-01-01T05:02:27.000Z</time>
      </trkpt>
      <trkpt lat="46.22906" lon="6.79824">
        <ele>1638</ele>
        <time>2000-01-01T05:02:37.000Z</time>
      </trkpt>
      <trkpt lat="46.22852" lon="6.79891">
        <ele>1647</ele>
        <time>2000-01-01T05:02:47.000Z</time>
      </trkpt>
      <trkpt lat="46.22818" lon="6.79933">
        <ele>1659</ele>
        <time>2000-01-01T05:02:57.000Z</time>
      </trkpt>
      <trkpt lat="46.22783" lon="6.79975">
        <ele>1670</ele>
        <time>2000-01-01T05:03:07.000Z</time>
      </trkpt>
      <trkpt lat="46.22749" lon="6.80018">
        <ele>1680</ele>
        <time>2000-01-01T05:03:17.000Z</time>
      </trkpt>
      <trkpt lat="46.22719" lon="6.80055">
        <ele>1691</ele>
        <time>2000-01-01T05:03:27.000Z</time>
      </trkpt>
      <trkpt lat="46.2269" lon="6.80091">
        <ele>1708</ele>
        <time>2000-01-01T05:03:37.000Z</time>
      </trkpt>
      <trkpt lat="46.22661" lon="6.80128">
        <ele>1728</ele>
        <time>2000-01-01T05:03:47.000Z</time>
      </trkpt>
      <trkpt lat="46.22631" lon="6.80164">
        <ele>1745</ele>
        <time>2000-01-01T05:03:57.000Z</time>
      </trkpt>
      <trkpt lat="46.22602" lon="6.80201">
        <ele>1763</ele>
        <time>2000-01-01T05:04:07.000Z</time>
      </trkpt>
      <trkpt lat="46.22572" lon="6.80238">
        <ele>1766</ele>
        <time>2000-01-01T05:04:17.000Z</time>
      </trkpt>
      <trkpt lat="46.22584" lon="6.80262">
        <ele>1770</ele>
        <time>2000-01-01T05:04:27.000Z</time>
      </trkpt>
      <trkpt lat="46.22587" lon="6.80279">
        <ele>1770.6</ele>
        <time>2000-01-01T05:04:37.000Z</time>
      </trkpt>
      <trkpt lat="46.22585" lon="6.80297">
        <ele>1770</ele>
        <time>2000-01-01T05:04:47.000Z</time>
      </trkpt>
      <trkpt lat="46.22577" lon="6.80311">
        <ele>1772</ele>
        <time>2000-01-01T05:04:57.000Z</time>
      </trkpt>
      <trkpt lat="46.22573" lon="6.80329">
        <ele>1770</ele>
        <time>2000-01-01T05:05:07.000Z</time>
      </trkpt>
      <trkpt lat="46.22611" lon="6.80322">
        <ele>1764</ele>
        <time>2000-01-01T05:05:17.000Z</time>
      </trkpt>
      <trkpt lat="46.22649" lon="6.80328">
        <ele>1756</ele>
        <time>2000-01-01T05:05:27.000Z</time>
      </trkpt>
      <trkpt lat="46.22676" lon="6.80321">
        <ele>1749</ele>
        <time>2000-01-01T05:05:37.000Z</time>
      </trkpt>
      <trkpt lat="46.22717" lon="6.80312">
        <ele>1739</ele>
        <time>2000-01-01T05:05:47.000Z</time>
      </trkpt>
      <trkpt lat="46.22735" lon="6.80304">
        <ele>1736</ele>
        <time>2000-01-01T05:05:57.000Z</time>
      </trkpt>
      <trkpt lat="46.22754" lon="6.8029">
        <ele>1735</ele>
        <time>2000-01-01T05:06:07.000Z</time>
      </trkpt>
      <trkpt lat="46.22759" lon="6.80283">
        <ele>1731.7</ele>
        <time>2000-01-01T05:06:17.000Z</time>
      </trkpt>
      <trkpt lat="46.22758" lon="6.80273">
        <ele>1729.6</ele>
        <time>2000-01-01T05:06:27.000Z</time>
      </trkpt>
      <trkpt lat="46.22766" lon="6.80282">
        <ele>1732</ele>
        <time>2000-01-01T05:06:37.000Z</time>
      </trkpt>
      <trkpt lat="46.22774" lon="6.80317">
        <ele>1729</ele>
        <time>2000-01-01T05:06:47.000Z</time>
      </trkpt>
      <trkpt lat="46.22791" lon="6.80361">
        <ele>1729</ele>
        <time>2000-01-01T05:06:57.000Z</time>
      </trkpt>
      <trkpt lat="46.22803" lon="6.80379">
        <ele>1729.9</ele>
        <time>2000-01-01T05:07:07.000Z</time>
      </trkpt>
      <trkpt lat="46.22815" lon="6.80385">
        <ele>1726</ele>
        <time>2000-01-01T05:07:17.000Z</time>
      </trkpt>
      <trkpt lat="46.22817" lon="6.80359">
        <ele>1730.1</ele>
        <time>2000-01-01T05:07:27.000Z</time>
      </trkpt>
      <trkpt lat="46.22821" lon="6.8035">
        <ele>1723</ele>
        <time>2000-01-01T05:07:37.000Z</time>
      </trkpt>
      <trkpt lat="46.2284" lon="6.80319">
        <ele>1721</ele>
        <time>2000-01-01T05:07:47.000Z</time>
      </trkpt>
      <trkpt lat="46.2287" lon="6.80273">
        <ele>1721</ele>
        <time>2000-01-01T05:07:57.000Z</time>
      </trkpt>
      <trkpt lat="46.2289" lon="6.80251">
        <ele>1721</ele>
        <time>2000-01-01T05:08:07.000Z</time>
      </trkpt>
      <trkpt lat="46.22914" lon="6.80225">
        <ele>1718</ele>
        <time>2000-01-01T05:08:17.000Z</time>
      </trkpt>
      <trkpt lat="46.22937" lon="6.80201">
        <ele>1714</ele>
        <time>2000-01-01T05:08:27.000Z</time>
      </trkpt>
      <trkpt lat="46.22956" lon="6.80172">
        <ele>1707</ele>
        <time>2000-01-01T05:08:37.000Z</time>
      </trkpt>
      <trkpt lat="46.22983" lon="6.80129">
        <ele>1688</ele>
        <time>2000-01-01T05:08:47.000Z</time>
      </trkpt>
      <trkpt lat="46.23001" lon="6.80102">
        <ele>1684</ele>
        <time>2000-01-01T05:08:57.000Z</time>
      </trkpt>
      <trkpt lat="46.23023" lon="6.80068">
        <ele>1680</ele>
        <time>2000-01-01T05:09:07.000Z</time>
      </trkpt>
      <trkpt lat="46.23053" lon="6.80032">
        <ele>1670</ele>
        <time>2000-01-01T05:09:17.000Z</time>
      </trkpt>
      <trkpt lat="46.23066" lon="6.80029">
        <ele>1667.9</ele>
        <time>2000-01-01T05:09:27.000Z</time>
      </trkpt>
      <trkpt lat="46.23086" lon="6.80035">
        <ele>1664</ele>
        <time>2000-01-01T05:09:37.000Z</time>
      </trkpt>
      <trkpt lat="46.23109" lon="6.80053">
        <ele>1664</ele>
        <time>2000-01-01T05:09:47.000Z</time>
      </trkpt>
      <trkpt lat="46.23138" lon="6.80076">
        <ele>1664</ele>
        <time>2000-01-01T05:09:57.000Z</time>
      </trkpt>
      <trkpt lat="46.23175" lon="6.8011">
        <ele>1664</ele>
        <time>2000-01-01T05:10:07.000Z</time>
      </trkpt>
      <trkpt lat="46.23188" lon="6.80112">
        <ele>1665.7</ele>
        <time>2000-01-01T05:10:17.000Z</time>
      </trkpt>
      <trkpt lat="46.232" lon="6.80106">
        <ele>1664</ele>
        <time>2000-01-01T05:10:27.000Z</time>
      </trkpt>
      <trkpt lat="46.2321" lon="6.80096">
        <ele>1661.7</ele>
        <time>2000-01-01T05:10:37.000Z</time>
      </trkpt>
      <trkpt lat="46.2322" lon="6.80077">
        <ele>1662</ele>
        <time>2000-01-01T05:10:47.000Z</time>
      </trkpt>
      <trkpt lat="46.2323" lon="6.80045">
        <ele>1656</ele>
        <time>2000-01-01T05:10:57.000Z</time>
      </trkpt>
      <trkpt lat="46.23242" lon="6.80009">
        <ele>1651</ele>
        <time>2000-01-01T05:11:07.000Z</time>
      </trkpt>
      <trkpt lat="46.23245" lon="6.79983">
        <ele>1650</ele>
        <time>2000-01-01T05:11:17.000Z</time>
      </trkpt>
      <trkpt lat="46.23242" lon="6.79962">
        <ele>1648</ele>
        <time>2000-01-01T05:11:27.000Z</time>
      </trkpt>
      <trkpt lat="46.23256" lon="6.79988">
        <ele>1648</ele>
        <time>2000-01-01T05:11:37.000Z</time>
      </trkpt>
      <trkpt lat="46.23265" lon="6.80026">
        <ele>1646</ele>
        <time>2000-01-01T05:11:47.000Z</time>
      </trkpt>
      <trkpt lat="46.23271" lon="6.80039">
        <ele>1643.3</ele>
        <time>2000-01-01T05:11:57.000Z</time>
      </trkpt>
      <trkpt lat="46.23292" lon="6.8006">
        <ele>1638</ele>
        <time>2000-01-01T05:12:07.000Z</time>
      </trkpt>
      <trkpt lat="46.23305" lon="6.80066">
        <ele>1638.4</ele>
        <time>2000-01-01T05:12:17.000Z</time>
      </trkpt>
      <trkpt lat="46.23315" lon="6.80066">
        <ele>1637</ele>
        <time>2000-01-01T05:12:27.000Z</time>
      </trkpt>
      <trkpt lat="46.23335" lon="6.80042">
        <ele>1636</ele>
        <time>2000-01-01T05:12:37.000Z</time>
      </trkpt>
      <trkpt lat="46.2334" lon="6.80041">
        <ele>1635.1</ele>
        <time>2000-01-01T05:12:47.000Z</time>
      </trkpt>
      <trkpt lat="46.23345" lon="6.8005">
        <ele>1635.3</ele>
        <time>2000-01-01T05:12:57.000Z</time>
      </trkpt>
      <trkpt lat="46.23345" lon="6.80069">
        <ele>1636</ele>
        <time>2000-01-01T05:13:07.000Z</time>
      </trkpt>
      <trkpt lat="46.23349" lon="6.80081">
        <ele>1637.7</ele>
        <time>2000-01-01T05:13:17.000Z</time>
      </trkpt>
      <trkpt lat="46.23356" lon="6.80089">
        <ele>1639.1</ele>
        <time>2000-01-01T05:13:27.000Z</time>
      </trkpt>
      <trkpt lat="46.23368" lon="6.80092">
        <ele>1636</ele>
        <time>2000-01-01T05:13:37.000Z</time>
      </trkpt>
      <trkpt lat="46.2338" lon="6.80092">
        <ele>1640</ele>
        <time>2000-01-01T05:13:47.000Z</time>
      </trkpt>
      <trkpt lat="46.23411" lon="6.80065">
        <ele>1636</ele>
        <time>2000-01-01T05:13:57.000Z</time>
      </trkpt>
      <trkpt lat="46.23437" lon="6.80061">
        <ele>1640</ele>
        <time>2000-01-01T05:14:07.000Z</time>
      </trkpt>
      <trkpt lat="46.23454" lon="6.80089">
        <ele>1637</ele>
        <time>2000-01-01T05:14:17.000Z</time>
      </trkpt>
      <trkpt lat="46.23465" lon="6.80092">
        <ele>1642.4</ele>
        <time>2000-01-01T05:14:27.000Z</time>
      </trkpt>
      <trkpt lat="46.2351" lon="6.80077">
        <ele>1636</ele>
        <time>2000-01-01T05:14:37.000Z</time>
      </trkpt>
      <trkpt lat="46.23529" lon="6.80061">
        <ele>1636</ele>
        <time>2000-01-01T05:14:47.000Z</time>
      </trkpt>
      <trkpt lat="46.23536" lon="6.80062">
        <ele>1634.3</ele>
        <time>2000-01-01T05:14:57.000Z</time>
      </trkpt>
      <trkpt lat="46.23542" lon="6.80068">
        <ele>1636.7</ele>
        <time>2000-01-01T05:15:07.000Z</time>
      </trkpt>
      <trkpt lat="46.2357" lon="6.80088">
        <ele>1637</ele>
        <time>2000-01-01T05:15:17.000Z</time>
      </trkpt>
      <trkpt lat="46.23592" lon="6.80114">
        <ele>1636</ele>
        <time>2000-01-01T05:15:27.000Z</time>
      </trkpt>
      <trkpt lat="46.23625" lon="6.80153">
        <ele>1635</ele>
        <time>2000-01-01T05:15:37.000Z</time>
      </trkpt>
      <trkpt lat="46.23646" lon="6.80179">
        <ele>1628</ele>
        <time>2000-01-01T05:15:47.000Z</time>
      </trkpt>
      <trkpt lat="46.23676" lon="6.80217">
        <ele>1628</ele>
        <time>2000-01-01T05:15:57.000Z</time>
      </trkpt>
      <trkpt lat="46.23696" lon="6.80261">
        <ele>1624</ele>
        <time>2000-01-01T05:16:07.000Z</time>
      </trkpt>
      <trkpt lat="46.23701" lon="6.80294">
        <ele>1620</ele>
        <time>2000-01-01T05:16:17.000Z</time>
      </trkpt>
      <trkpt lat="46.23706" lon="6.80328">
        <ele>1619</ele>
        <time>2000-01-01T05:16:27.000Z</time>
      </trkpt>
      <trkpt lat="46.23707" lon="6.80355">
        <ele>1621</ele>
        <time>2000-01-01T05:16:37.000Z</time>
      </trkpt>
      <trkpt lat="46.237" lon="6.80398">
        <ele>1615</ele>
        <time>2000-01-01T05:16:47.000Z</time>
      </trkpt>
      <trkpt lat="46.23686" lon="6.80484">
        <ele>1610</ele>
        <time>2000-01-01T05:16:57.000Z</time>
      </trkpt>
      <trkpt lat="46.23686" lon="6.8051">
        <ele>1604.8</ele>
        <time>2000-01-01T05:17:07.000Z</time>
      </trkpt>
      <trkpt lat="46.23689" lon="6.80522">
        <ele>1606</ele>
        <time>2000-01-01T05:17:17.000Z</time>
      </trkpt>
      <trkpt lat="46.23704" lon="6.80537">
        <ele>1598.1</ele>
        <time>2000-01-01T05:17:27.000Z</time>
      </trkpt>
      <trkpt lat="46.23711" lon="6.80589">
        <ele>1596</ele>
        <time>2000-01-01T05:17:37.000Z</time>
      </trkpt>
      <trkpt lat="46.23718" lon="6.8061">
        <ele>1595.1</ele>
        <time>2000-01-01T05:17:47.000Z</time>
      </trkpt>
      <trkpt lat="46.23794" lon="6.80703">
        <ele>1575</ele>
        <time>2000-01-01T05:17:57.000Z</time>
      </trkpt>
      <trkpt lat="46.23807" lon="6.80712">
        <ele>1572.8</ele>
        <time>2000-01-01T05:18:07.000Z</time>
      </trkpt>
      <trkpt lat="46.23828" lon="6.8072">
        <ele>1572</ele>
        <time>2000-01-01T05:18:17.000Z</time>
      </trkpt>
      <trkpt lat="46.23848" lon="6.8072">
        <ele>1571</ele>
        <time>2000-01-01T05:18:27.000Z</time>
      </trkpt>
      <trkpt lat="46.23868" lon="6.80738">
        <ele>1569</ele>
        <time>2000-01-01T05:18:37.000Z</time>
      </trkpt>
      <trkpt lat="46.23907" lon="6.80756">
        <ele>1564</ele>
        <time>2000-01-01T05:18:47.000Z</time>
      </trkpt>
      <trkpt lat="46.23944" lon="6.80781">
        <ele>1558</ele>
        <time>2000-01-01T05:18:57.000Z</time>
      </trkpt>
      <trkpt lat="46.23974" lon="6.80817">
        <ele>1552</ele>
        <time>2000-01-01T05:19:07.000Z</time>
      </trkpt>
      <trkpt lat="46.24007" lon="6.80813">
        <ele>1545</ele>
        <time>2000-01-01T05:19:17.000Z</time>
      </trkpt>
      <trkpt lat="46.24036" lon="6.8081">
        <ele>1543</ele>
        <time>2000-01-01T05:19:27.000Z</time>
      </trkpt>
      <trkpt lat="46.24082" lon="6.80806">
        <ele>1540</ele>
        <time>2000-01-01T05:19:37.000Z</time>
      </trkpt>
      <trkpt lat="46.24093" lon="6.80807">
        <ele>1536.6</ele>
        <time>2000-01-01T05:19:47.000Z</time>
      </trkpt>
      <trkpt lat="46.24103" lon="6.80812">
        <ele>1538</ele>
        <time>2000-01-01T05:19:57.000Z</time>
      </trkpt>
      <trkpt lat="46.24129" lon="6.80828">
        <ele>1537</ele>
        <time>2000-01-01T05:20:07.000Z</time>
      </trkpt>
      <trkpt lat="46.2417" lon="6.80854">
        <ele>1536</ele>
        <time>2000-01-01T05:20:17.000Z</time>
      </trkpt>
      <trkpt lat="46.24213" lon="6.80863">
        <ele>1532</ele>
        <time>2000-01-01T05:20:27.000Z</time>
      </trkpt>
      <trkpt lat="46.24228" lon="6.80876">
        <ele>1533.3</ele>
        <time>2000-01-01T05:20:37.000Z</time>
      </trkpt>
      <trkpt lat="46.2425" lon="6.80905">
        <ele>1534</ele>
        <time>2000-01-01T05:20:47.000Z</time>
      </trkpt>
      <trkpt lat="46.24269" lon="6.8094">
        <ele>1532</ele>
        <time>2000-01-01T05:20:57.000Z</time>
      </trkpt>
      <trkpt lat="46.24308" lon="6.8101">
        <ele>1531</ele>
        <time>2000-01-01T05:21:07.000Z</time>
      </trkpt>
      <trkpt lat="46.24328" lon="6.81044">
        <ele>1523</ele>
        <time>2000-01-01T05:21:17.000Z</time>
      </trkpt>
      <trkpt lat="46.24352" lon="6.81071">
        <ele>1526</ele>
        <time>2000-01-01T05:21:27.000Z</time>
      </trkpt>
      <trkpt lat="46.24397" lon="6.81122">
        <ele>1522</ele>
        <time>2000-01-01T05:21:37.000Z</time>
      </trkpt>
      <trkpt lat="46.2441" lon="6.81153">
        <ele>1519</ele>
        <time>2000-01-01T05:21:47.000Z</time>
      </trkpt>
      <trkpt lat="46.24424" lon="6.8119">
        <ele>1519</ele>
        <time>2000-01-01T05:21:57.000Z</time>
      </trkpt>
      <trkpt lat="46.2444" lon="6.81215">
        <ele>1519</ele>
        <time>2000-01-01T05:22:07.000Z</time>
      </trkpt>
      <trkpt lat="46.2447" lon="6.81248">
        <ele>1523</ele>
        <time>2000-01-01T05:22:17.000Z</time>
      </trkpt>
      <trkpt lat="46.24475" lon="6.81256">
        <ele>1530.6</ele>
        <time>2000-01-01T05:22:27.000Z</time>
      </trkpt>
      <trkpt lat="46.24532" lon="6.81376">
        <ele>1529</ele>
        <time>2000-01-01T05:22:37.000Z</time>
      </trkpt>
      <trkpt lat="46.24537" lon="6.81395">
        <ele>1528.5</ele>
        <time>2000-01-01T05:22:47.000Z</time>
      </trkpt>
      <trkpt lat="46.24538" lon="6.81417">
        <ele>1530</ele>
        <time>2000-01-01T05:22:57.000Z</time>
      </trkpt>
      <trkpt lat="46.24537" lon="6.81448">
        <ele>1521</ele>
        <time>2000-01-01T05:23:07.000Z</time>
      </trkpt>
      <trkpt lat="46.24533" lon="6.81465">
        <ele>1516.9</ele>
        <time>2000-01-01T05:23:17.000Z</time>
      </trkpt>
      <trkpt lat="46.24526" lon="6.81481">
        <ele>1513</ele>
        <time>2000-01-01T05:23:27.000Z</time>
      </trkpt>
      <trkpt lat="46.2451" lon="6.81508">
        <ele>1510</ele>
        <time>2000-01-01T05:23:37.000Z</time>
      </trkpt>
      <trkpt lat="46.24491" lon="6.81538">
        <ele>1501</ele>
        <time>2000-01-01T05:23:47.000Z</time>
      </trkpt>
      <trkpt lat="46.24476" lon="6.81571">
        <ele>1499</ele>
        <time>2000-01-01T05:23:57.000Z</time>
      </trkpt>
      <trkpt lat="46.24454" lon="6.8162">
        <ele>1490</ele>
        <time>2000-01-01T05:24:07.000Z</time>
      </trkpt>
      <trkpt lat="46.24444" lon="6.81641">
        <ele>1486.1</ele>
        <time>2000-01-01T05:24:17.000Z</time>
      </trkpt>
      <trkpt lat="46.24441" lon="6.81658">
        <ele>1485</ele>
        <time>2000-01-01T05:24:27.000Z</time>
      </trkpt>
      <trkpt lat="46.24446" lon="6.81707">
        <ele>1481</ele>
        <time>2000-01-01T05:24:37.000Z</time>
      </trkpt>
      <trkpt lat="46.24449" lon="6.81717">
        <ele>1479.6</ele>
        <time>2000-01-01T05:24:47.000Z</time>
      </trkpt>
      <trkpt lat="46.24485" lon="6.81745">
        <ele>1474</ele>
        <time>2000-01-01T05:24:57.000Z</time>
      </trkpt>
      <trkpt lat="46.24526" lon="6.81763">
        <ele>1469</ele>
        <time>2000-01-01T05:25:07.000Z</time>
      </trkpt>
      <trkpt lat="46.24561" lon="6.81767">
        <ele>1466</ele>
        <time>2000-01-01T05:25:17.000Z</time>
      </trkpt>
      <trkpt lat="46.24588" lon="6.81763">
        <ele>1466</ele>
        <time>2000-01-01T05:25:27.000Z</time>
      </trkpt>
      <trkpt lat="46.24602" lon="6.81765">
        <ele>1465.5</ele>
        <time>2000-01-01T05:25:37.000Z</time>
      </trkpt>
      <trkpt lat="46.24609" lon="6.81769">
        <ele>1465</ele>
        <time>2000-01-01T05:25:47.000Z</time>
      </trkpt>
      <trkpt lat="46.24634" lon="6.81792">
        <ele>1460</ele>
        <time>2000-01-01T05:25:57.000Z</time>
      </trkpt>
      <trkpt lat="46.24651" lon="6.81819">
        <ele>1456</ele>
        <time>2000-01-01T05:26:07.000Z</time>
      </trkpt>
      <trkpt lat="46.24655" lon="6.8183">
        <ele>1454</ele>
        <time>2000-01-01T05:26:17.000Z</time>
      </trkpt>
      <trkpt lat="46.24654" lon="6.81884">
        <ele>1454</ele>
        <time>2000-01-01T05:26:27.000Z</time>
      </trkpt>
      <trkpt lat="46.24658" lon="6.81898">
        <ele>1453</ele>
        <time>2000-01-01T05:26:37.000Z</time>
      </trkpt>
      <trkpt lat="46.24711" lon="6.81966">
        <ele>1436</ele>
        <time>2000-01-01T05:26:47.000Z</time>
      </trkpt>
      <trkpt lat="46.2472" lon="6.8198">
        <ele>1432.7</ele>
        <time>2000-01-01T05:26:57.000Z</time>
      </trkpt>
      <trkpt lat="46.24729" lon="6.82007">
        <ele>1435</ele>
        <time>2000-01-01T05:27:07.000Z</time>
      </trkpt>
      <trkpt lat="46.24742" lon="6.82068">
        <ele>1430</ele>
        <time>2000-01-01T05:27:17.000Z</time>
      </trkpt>
      <trkpt lat="46.24748" lon="6.82107">
        <ele>1425</ele>
        <time>2000-01-01T05:27:27.000Z</time>
      </trkpt>
      <trkpt lat="46.24756" lon="6.82162">
        <ele>1422</ele>
        <time>2000-01-01T05:27:37.000Z</time>
      </trkpt>
      <trkpt lat="46.24753" lon="6.82197">
        <ele>1416</ele>
        <time>2000-01-01T05:27:47.000Z</time>
      </trkpt>
      <trkpt lat="46.2475" lon="6.82237">
        <ele>1406</ele>
        <time>2000-01-01T05:27:57.000Z</time>
      </trkpt>
      <trkpt lat="46.24751" lon="6.82276">
        <ele>1404</ele>
        <time>2000-01-01T05:28:07.000Z</time>
      </trkpt>
      <trkpt lat="46.24745" lon="6.82298">
        <ele>1398.8</ele>
        <time>2000-01-01T05:28:17.000Z</time>
      </trkpt>
      <trkpt lat="46.24727" lon="6.8232">
        <ele>1400</ele>
        <time>2000-01-01T05:28:27.000Z</time>
      </trkpt>
      <trkpt lat="46.24718" lon="6.82342">
        <ele>1394.5</ele>
        <time>2000-01-01T05:28:37.000Z</time>
      </trkpt>
      <trkpt lat="46.24696" lon="6.82406">
        <ele>1393</ele>
        <time>2000-01-01T05:28:47.000Z</time>
      </trkpt>
      <trkpt lat="46.24671" lon="6.82455">
        <ele>1382</ele>
        <time>2000-01-01T05:28:57.000Z</time>
      </trkpt>
      <trkpt lat="46.2467" lon="6.82466">
        <ele>1381.7</ele>
        <time>2000-01-01T05:29:07.000Z</time>
      </trkpt>
      <trkpt lat="46.24674" lon="6.82483">
        <ele>1379</ele>
        <time>2000-01-01T05:29:17.000Z</time>
      </trkpt>
      <trkpt lat="46.24685" lon="6.82496">
        <ele>1377.4</ele>
        <time>2000-01-01T05:29:27.000Z</time>
      </trkpt>
      <trkpt lat="46.2478" lon="6.82582">
        <ele>1369</ele>
        <time>2000-01-01T05:29:37.000Z</time>
      </trkpt>
      <trkpt lat="46.24805" lon="6.8259">
        <ele>1366</ele>
        <time>2000-01-01T05:29:47.000Z</time>
      </trkpt>
      <trkpt lat="46.24838" lon="6.826">
        <ele>1363</ele>
        <time>2000-01-01T05:29:57.000Z</time>
      </trkpt>
      <trkpt lat="46.24871" lon="6.82603">
        <ele>1359</ele>
        <time>2000-01-01T05:30:07.000Z</time>
      </trkpt>
      <trkpt lat="46.24901" lon="6.82605">
        <ele>1356</ele>
        <time>2000-01-01T05:30:17.000Z</time>
      </trkpt>
      <trkpt lat="46.24957" lon="6.82608">
        <ele>1349</ele>
        <time>2000-01-01T05:30:27.000Z</time>
      </trkpt>
      <trkpt lat="46.24972" lon="6.82613">
        <ele>1345.4</ele>
        <time>2000-01-01T05:30:37.000Z</time>
      </trkpt>
      <trkpt lat="46.25004" lon="6.82643">
        <ele>1341</ele>
        <time>2000-01-01T05:30:47.000Z</time>
      </trkpt>
      <trkpt lat="46.25025" lon="6.82669">
        <ele>1338</ele>
        <time>2000-01-01T05:30:57.000Z</time>
      </trkpt>
      <trkpt lat="46.25057" lon="6.82707">
        <ele>1331</ele>
        <time>2000-01-01T05:31:07.000Z</time>
      </trkpt>
      <trkpt lat="46.25079" lon="6.82726">
        <ele>1327</ele>
        <time>2000-01-01T05:31:17.000Z</time>
      </trkpt>
      <trkpt lat="46.25104" lon="6.82749">
        <ele>1322</ele>
        <time>2000-01-01T05:31:27.000Z</time>
      </trkpt>
      <trkpt lat="46.25128" lon="6.82786">
        <ele>1316</ele>
        <time>2000-01-01T05:31:37.000Z</time>
      </trkpt>
      <trkpt lat="46.25163" lon="6.82823">
        <ele>1306</ele>
        <time>2000-01-01T05:31:47.000Z</time>
      </trkpt>
      <trkpt lat="46.25171" lon="6.82842">
        <ele>1303.4</ele>
        <time>2000-01-01T05:31:57.000Z</time>
      </trkpt>
      <trkpt lat="46.25174" lon="6.82866">
        <ele>1301</ele>
        <time>2000-01-01T05:32:07.000Z</time>
      </trkpt>
      <trkpt lat="46.25182" lon="6.82903">
        <ele>1292</ele>
        <time>2000-01-01T05:32:17.000Z</time>
      </trkpt>
      <trkpt lat="46.25194" lon="6.82956">
        <ele>1283</ele>
        <time>2000-01-01T05:32:27.000Z</time>
      </trkpt>
      <trkpt lat="46.25206" lon="6.82999">
        <ele>1279</ele>
        <time>2000-01-01T05:32:37.000Z</time>
      </trkpt>
      <trkpt lat="46.25217" lon="6.83034">
        <ele>1274</ele>
        <time>2000-01-01T05:32:47.000Z</time>
      </trkpt>
      <trkpt lat="46.25233" lon="6.83082">
        <ele>1265</ele>
        <time>2000-01-01T05:32:57.000Z</time>
      </trkpt>
      <trkpt lat="46.25242" lon="6.8312">
        <ele>1267</ele>
        <time>2000-01-01T05:33:07.000Z</time>
      </trkpt>
      <trkpt lat="46.25255" lon="6.83175">
        <ele>1266</ele>
        <time>2000-01-01T05:33:17.000Z</time>
      </trkpt>
      <trkpt lat="46.25282" lon="6.83225">
        <ele>1265</ele>
        <time>2000-01-01T05:33:27.000Z</time>
      </trkpt>
      <trkpt lat="46.25291" lon="6.83248">
        <ele>1264.9</ele>
        <time>2000-01-01T05:33:37.000Z</time>
      </trkpt>
      <trkpt lat="46.25313" lon="6.8327">
        <ele>1260</ele>
        <time>2000-01-01T05:33:47.000Z</time>
      </trkpt>
      <trkpt lat="46.25331" lon="6.8331">
        <ele>1257</ele>
        <time>2000-01-01T05:33:57.000Z</time>
      </trkpt>
      <trkpt lat="46.2534" lon="6.83321">
        <ele>1255.1</ele>
        <time>2000-01-01T05:34:07.000Z</time>
      </trkpt>
      <trkpt lat="46.2543" lon="6.83473">
        <ele>1255</ele>
        <time>2000-01-01T05:34:17.000Z</time>
      </trkpt>
      <trkpt lat="46.2545" lon="6.83519">
        <ele>1255</ele>
        <time>2000-01-01T05:34:27.000Z</time>
      </trkpt>
      <trkpt lat="46.25465" lon="6.83554">
        <ele>1255</ele>
        <time>2000-01-01T05:34:37.000Z</time>
      </trkpt>
      <trkpt lat="46.25488" lon="6.8361">
        <ele>1255</ele>
        <time>2000-01-01T05:34:47.000Z</time>
      </trkpt>
      <trkpt lat="46.25502" lon="6.83644">
        <ele>1256</ele>
        <time>2000-01-01T05:34:57.000Z</time>
      </trkpt>
      <trkpt lat="46.25522" lon="6.83694">
        <ele>1257</ele>
        <time>2000-01-01T05:35:07.000Z</time>
      </trkpt>
      <trkpt lat="46.25552" lon="6.83744">
        <ele>1257</ele>
        <time>2000-01-01T05:35:17.000Z</time>
      </trkpt>
      <trkpt lat="46.2557" lon="6.83767">
        <ele>1259</ele>
        <time>2000-01-01T05:35:27.000Z</time>
      </trkpt>
      <trkpt lat="46.25589" lon="6.83791">
        <ele>1259</ele>
        <time>2000-01-01T05:35:37.000Z</time>
      </trkpt>
      <trkpt lat="46.25616" lon="6.8384">
        <ele>1257</ele>
        <time>2000-01-01T05:35:47.000Z</time>
      </trkpt>
      <trkpt lat="46.25628" lon="6.83873">
        <ele>1256</ele>
        <time>2000-01-01T05:35:57.000Z</time>
      </trkpt>
      <trkpt lat="46.25642" lon="6.83913">
        <ele>1253</ele>
        <time>2000-01-01T05:36:07.000Z</time>
      </trkpt>
      <trkpt lat="46.25656" lon="6.83935">
        <ele>1253</ele>
        <time>2000-01-01T05:36:17.000Z</time>
      </trkpt>
      <trkpt lat="46.25683" lon="6.83957">
        <ele>1251</ele>
        <time>2000-01-01T05:36:27.000Z</time>
      </trkpt>
      <trkpt lat="46.25698" lon="6.83973">
        <ele>1249</ele>
        <time>2000-01-01T05:36:37.000Z</time>
      </trkpt>
      <trkpt lat="46.25717" lon="6.84">
        <ele>1246</ele>
        <time>2000-01-01T05:36:47.000Z</time>
      </trkpt>
      <trkpt lat="46.25725" lon="6.84017">
        <ele>1243.6</ele>
        <time>2000-01-01T05:36:57.000Z</time>
      </trkpt>
      <trkpt lat="46.25725" lon="6.84026">
        <ele>1242</ele>
        <time>2000-01-01T05:37:07.000Z</time>
      </trkpt>
      <trkpt lat="46.25764" lon="6.84036">
        <ele>1240</ele>
        <time>2000-01-01T05:37:17.000Z</time>
      </trkpt>
      <trkpt lat="46.25755" lon="6.84061">
        <ele>1240</ele>
        <time>2000-01-01T05:37:27.000Z</time>
      </trkpt>
      <trkpt lat="46.25767" lon="6.84072">
        <ele>1239.9</ele>
        <time>2000-01-01T05:37:37.000Z</time>
      </trkpt>
      <trkpt lat="46.25783" lon="6.84113">
        <ele>1240</ele>
        <time>2000-01-01T05:37:47.000Z</time>
      </trkpt>
      <trkpt lat="46.25794" lon="6.84149">
        <ele>1240</ele>
        <time>2000-01-01T05:37:57.000Z</time>
      </trkpt>
      <trkpt lat="46.2581" lon="6.84201">
        <ele>1240</ele>
        <time>2000-01-01T05:38:07.000Z</time>
      </trkpt>
      <trkpt lat="46.2581" lon="6.84211">
        <ele>1242</ele>
        <time>2000-01-01T05:38:17.000Z</time>
      </trkpt>
      <trkpt lat="46.25807" lon="6.84221">
        <ele>1242.9</ele>
        <time>2000-01-01T05:38:27.000Z</time>
      </trkpt>
      <trkpt lat="46.2581" lon="6.84211">
        <ele>1241</ele>
        <time>2000-01-01T05:38:37.000Z</time>
      </trkpt>
      <trkpt lat="46.25816" lon="6.8423">
        <ele>1244.7</ele>
        <time>2000-01-01T05:38:47.000Z</time>
      </trkpt>
      <trkpt lat="46.25836" lon="6.84237">
        <ele>1245</ele>
        <time>2000-01-01T05:38:57.000Z</time>
      </trkpt>
      <trkpt lat="46.25851" lon="6.84252">
        <ele>1250.7</ele>
        <time>2000-01-01T05:39:07.000Z</time>
      </trkpt>
      <trkpt lat="46.25891" lon="6.84258">
        <ele>1249</ele>
        <time>2000-01-01T05:39:17.000Z</time>
      </trkpt>
      <trkpt lat="46.25913" lon="6.84251">
        <ele>1253</ele>
        <time>2000-01-01T05:39:27.000Z</time>
      </trkpt>
      <trkpt lat="46.25942" lon="6.84235">
        <ele>1258</ele>
        <time>2000-01-01T05:39:37.000Z</time>
      </trkpt>
      <trkpt lat="46.25997" lon="6.84203">
        <ele>1258</ele>
        <time>2000-01-01T05:39:47.000Z</time>
      </trkpt>
      <trkpt lat="46.26021" lon="6.8419">
        <ele>1257</ele>
        <time>2000-01-01T05:39:57.000Z</time>
      </trkpt>
      <trkpt lat="46.26033" lon="6.84189">
        <ele>1255.9</ele>
        <time>2000-01-01T05:40:07.000Z</time>
      </trkpt>
      <trkpt lat="46.26061" lon="6.84203">
        <ele>1257</ele>
        <time>2000-01-01T05:40:17.000Z</time>
      </trkpt>
      <trkpt lat="46.2609" lon="6.842">
        <ele>1258</ele>
        <time>2000-01-01T05:40:27.000Z</time>
      </trkpt>
      <trkpt lat="46.26118" lon="6.8421">
        <ele>1256</ele>
        <time>2000-01-01T05:40:37.000Z</time>
      </trkpt>
      <trkpt lat="46.26143" lon="6.84214">
        <ele>1255</ele>
        <time>2000-01-01T05:40:47.000Z</time>
      </trkpt>
      <trkpt lat="46.26173" lon="6.84219">
        <ele>1248</ele>
        <time>2000-01-01T05:40:57.000Z</time>
      </trkpt>
      <trkpt lat="46.26201" lon="6.84225">
        <ele>1246</ele>
        <time>2000-01-01T05:41:07.000Z</time>
      </trkpt>
      <trkpt lat="46.26222" lon="6.84233">
        <ele>1246</ele>
        <time>2000-01-01T05:41:17.000Z</time>
      </trkpt>
      <trkpt lat="46.2624" lon="6.8423">
        <ele>1241.6</ele>
        <time>2000-01-01T05:41:27.000Z</time>
      </trkpt>
      <trkpt lat="46.26266" lon="6.84242">
        <ele>1241</ele>
        <time>2000-01-01T05:41:37.000Z</time>
      </trkpt>
      <trkpt lat="46.26291" lon="6.84249">
        <ele>1235</ele>
        <time>2000-01-01T05:41:47.000Z</time>
      </trkpt>
      <trkpt lat="46.26311" lon="6.84252">
        <ele>1235</ele>
        <time>2000-01-01T05:41:57.000Z</time>
      </trkpt>
      <trkpt lat="46.2632" lon="6.8425">
        <ele>1236</ele>
        <time>2000-01-01T05:42:07.000Z</time>
      </trkpt>
      <trkpt lat="46.26377" lon="6.84267">
        <ele>1234</ele>
        <time>2000-01-01T05:42:17.000Z</time>
      </trkpt>
      <trkpt lat="46.26402" lon="6.84278">
        <ele>1232</ele>
        <time>2000-01-01T05:42:27.000Z</time>
      </trkpt>
      <trkpt lat="46.26435" lon="6.84293">
        <ele>1232</ele>
        <time>2000-01-01T05:42:37.000Z</time>
      </trkpt>
      <trkpt lat="46.26459" lon="6.84309">
        <ele>1232</ele>
        <time>2000-01-01T05:42:47.000Z</time>
      </trkpt>
      <trkpt lat="46.26491" lon="6.84331">
        <ele>1242</ele>
        <time>2000-01-01T05:42:57.000Z</time>
      </trkpt>
      <trkpt lat="46.26509" lon="6.84347">
        <ele>1241</ele>
        <time>2000-01-01T05:43:07.000Z</time>
      </trkpt>
      <trkpt lat="46.26526" lon="6.84354">
        <ele>1248.5</ele>
        <time>2000-01-01T05:43:17.000Z</time>
      </trkpt>
      <trkpt lat="46.26616" lon="6.84353">
        <ele>1241</ele>
        <time>2000-01-01T05:43:27.000Z</time>
      </trkpt>
      <trkpt lat="46.26644" lon="6.84358">
        <ele>1240</ele>
        <time>2000-01-01T05:43:37.000Z</time>
      </trkpt>
      <trkpt lat="46.26678" lon="6.84352">
        <ele>1240</ele>
        <time>2000-01-01T05:43:47.000Z</time>
      </trkpt>
      <trkpt lat="46.2668" lon="6.84346">
        <ele>1236.9</ele>
        <time>2000-01-01T05:43:57.000Z</time>
      </trkpt>
      <trkpt lat="46.26696" lon="6.84333">
        <ele>1231</ele>
        <time>2000-01-01T05:44:07.000Z</time>
      </trkpt>
      <trkpt lat="46.26688" lon="6.84319">
        <ele>1227.1</ele>
        <time>2000-01-01T05:44:17.000Z</time>
      </trkpt>
      <trkpt lat="46.26694" lon="6.8431">
        <ele>1223</ele>
        <time>2000-01-01T05:44:27.000Z</time>
      </trkpt>
      <trkpt lat="46.26688" lon="6.84297">
        <ele>1219.6</ele>
        <time>2000-01-01T05:44:37.000Z</time>
      </trkpt>
      <trkpt lat="46.26683" lon="6.84294">
        <ele>1218.6</ele>
        <time>2000-01-01T05:44:47.000Z</time>
      </trkpt>
      <trkpt lat="46.26685" lon="6.8429">
        <ele>1216</ele>
        <time>2000-01-01T05:44:57.000Z</time>
      </trkpt>
      <trkpt lat="46.26689" lon="6.84288">
        <ele>1216.8</ele>
        <time>2000-01-01T05:45:07.000Z</time>
      </trkpt>
      <trkpt lat="46.26689" lon="6.84282">
        <ele>1214.9</ele>
        <time>2000-01-01T05:45:17.000Z</time>
      </trkpt>
      <trkpt lat="46.26681" lon="6.84267">
        <ele>1209</ele>
        <time>2000-01-01T05:45:27.000Z</time>
      </trkpt>
      <trkpt lat="46.26684" lon="6.8426">
        <ele>1210.5</ele>
        <time>2000-01-01T05:45:37.000Z</time>
      </trkpt>
      <trkpt lat="46.26694" lon="6.84251">
        <ele>1209.2</ele>
        <time>2000-01-01T05:45:47.000Z</time>
      </trkpt>
      <trkpt lat="46.26695" lon="6.84206">
        <ele>1206</ele>
        <time>2000-01-01T05:45:57.000Z</time>
      </trkpt>
      <trkpt lat="46.26693" lon="6.84193">
        <ele>1199.8</ele>
        <time>2000-01-01T05:46:07.000Z</time>
      </trkpt>
      <trkpt lat="46.26669" lon="6.8421">
        <ele>1205</ele>
        <time>2000-01-01T05:46:17.000Z</time>
      </trkpt>
      <trkpt lat="46.26664" lon="6.84211">
        <ele>1203.4</ele>
        <time>2000-01-01T05:46:27.000Z</time>
      </trkpt>
      <trkpt lat="46.26667" lon="6.84239">
        <ele>1205</ele>
        <time>2000-01-01T05:46:37.000Z</time>
      </trkpt>
      <trkpt lat="46.26671" lon="6.84303">
        <ele>1217</ele>
        <time>2000-01-01T05:46:47.000Z</time>
      </trkpt>
      <trkpt lat="46.26674" lon="6.84367">
        <ele>1242</ele>
        <time>2000-01-01T05:46:57.000Z</time>
      </trkpt>
      <trkpt lat="46.26678" lon="6.84432">
        <ele>1265</ele>
        <time>2000-01-01T05:47:07.000Z</time>
      </trkpt>
      <trkpt lat="46.26681" lon="6.84496">
        <ele>1290</ele>
        <time>2000-01-01T05:47:17.000Z</time>
      </trkpt>
      <trkpt lat="46.26685" lon="6.8456">
        <ele>1322</ele>
        <time>2000-01-01T05:47:27.000Z</time>
      </trkpt>
      <trkpt lat="46.26688" lon="6.84624">
        <ele>1364</ele>
        <time>2000-01-01T05:47:37.000Z</time>
      </trkpt>
      <trkpt lat="46.26692" lon="6.84688">
        <ele>1401</ele>
        <time>2000-01-01T05:47:47.000Z</time>
      </trkpt>
      <trkpt lat="46.26695" lon="6.84753">
        <ele>1445</ele>
        <time>2000-01-01T05:47:57.000Z</time>
      </trkpt>
      <trkpt lat="46.26698" lon="6.84797">
        <ele>1465</ele>
        <time>2000-01-01T05:48:07.000Z</time>
      </trkpt>
      <trkpt lat="46.26703" lon="6.84881">
        <ele>1491</ele>
        <time>2000-01-01T05:48:17.000Z</time>
      </trkpt>
      <trkpt lat="46.26706" lon="6.84945">
        <ele>1504</ele>
        <time>2000-01-01T05:48:27.000Z</time>
      </trkpt>
      <trkpt lat="46.2671" lon="6.85009">
        <ele>1510</ele>
        <time>2000-01-01T05:48:37.000Z</time>
      </trkpt>
      <trkpt lat="46.26713" lon="6.85074">
        <ele>1511</ele>
        <time>2000-01-01T05:48:47.000Z</time>
      </trkpt>
      <trkpt lat="46.26717" lon="6.85138">
        <ele>1515</ele>
        <time>2000-01-01T05:48:57.000Z</time>
      </trkpt>
      <trkpt lat="46.2672" lon="6.85202">
        <ele>1516</ele>
        <time>2000-01-01T05:49:07.000Z</time>
      </trkpt>
      <trkpt lat="46.26724" lon="6.85266">
        <ele>1519</ele>
        <time>2000-01-01T05:49:17.000Z</time>
      </trkpt>
      <trkpt lat="46.26727" lon="6.85331">
        <ele>1526</ele>
        <time>2000-01-01T05:49:27.000Z</time>
      </trkpt>
      <trkpt lat="46.26731" lon="6.85395">
        <ele>1539</ele>
        <time>2000-01-01T05:49:37.000Z</time>
      </trkpt>
      <trkpt lat="46.26734" lon="6.85459">
        <ele>1554</ele>
        <time>2000-01-01T05:49:47.000Z</time>
      </trkpt>
      <trkpt lat="46.26737" lon="6.85503">
        <ele>1564</ele>
        <time>2000-01-01T05:49:57.000Z</time>
      </trkpt>
      <trkpt lat="46.26742" lon="6.85587">
        <ele>1585</ele>
        <time>2000-01-01T05:50:07.000Z</time>
      </trkpt>
      <trkpt lat="46.26744" lon="6.8563">
        <ele>1598</ele>
        <time>2000-01-01T05:50:17.000Z</time>
      </trkpt>
      <trkpt lat="46.26748" lon="6.85705">
        <ele>1616</ele>
        <time>2000-01-01T05:50:27.000Z</time>
      </trkpt>
      <trkpt lat="46.26729" lon="6.8572">
        <ele>1619</ele>
        <time>2000-01-01T05:50:37.000Z</time>
      </trkpt>
      <trkpt lat="46.26721" lon="6.85731">
        <ele>1621.3</ele>
        <time>2000-01-01T05:50:47.000Z</time>
      </trkpt>
      <trkpt lat="46.26715" lon="6.85752">
        <ele>1623</ele>
        <time>2000-01-01T05:50:57.000Z</time>
      </trkpt>
      <trkpt lat="46.26714" lon="6.8579">
        <ele>1629</ele>
        <time>2000-01-01T05:51:07.000Z</time>
      </trkpt>
      <trkpt lat="46.26716" lon="6.85832">
        <ele>1635</ele>
        <time>2000-01-01T05:51:17.000Z</time>
      </trkpt>
      <trkpt lat="46.26708" lon="6.85842">
        <ele>1636.9</ele>
        <time>2000-01-01T05:51:27.000Z</time>
      </trkpt>
      <trkpt lat="46.26656" lon="6.85918">
        <ele>1637</ele>
        <time>2000-01-01T05:51:37.000Z</time>
      </trkpt>
      <trkpt lat="46.26642" lon="6.85931">
        <ele>1643.5</ele>
        <time>2000-01-01T05:51:47.000Z</time>
      </trkpt>
      <trkpt lat="46.26618" lon="6.85946">
        <ele>1642</ele>
        <time>2000-01-01T05:51:57.000Z</time>
      </trkpt>
      <trkpt lat="46.26582" lon="6.85987">
        <ele>1647</ele>
        <time>2000-01-01T05:52:07.000Z</time>
      </trkpt>
      <trkpt lat="46.26563" lon="6.86011">
        <ele>1651</ele>
        <time>2000-01-01T05:52:17.000Z</time>
      </trkpt>
      <trkpt lat="46.2654" lon="6.8604">
        <ele>1655</ele>
        <time>2000-01-01T05:52:27.000Z</time>
      </trkpt>
      <trkpt lat="46.26501" lon="6.86066">
        <ele>1658</ele>
        <time>2000-01-01T05:52:37.000Z</time>
      </trkpt>
      <trkpt lat="46.26483" lon="6.86086">
        <ele>1662</ele>
        <time>2000-01-01T05:52:47.000Z</time>
      </trkpt>
      <trkpt lat="46.26468" lon="6.86117">
        <ele>1667</ele>
        <time>2000-01-01T05:52:57.000Z</time>
      </trkpt>
      <trkpt lat="46.26463" lon="6.86142">
        <ele>1672.2</ele>
        <time>2000-01-01T05:53:07.000Z</time>
      </trkpt>
      <trkpt lat="46.26464" lon="6.86155">
        <ele>1671</ele>
        <time>2000-01-01T05:53:17.000Z</time>
      </trkpt>
      <trkpt lat="46.26474" lon="6.86172">
        <ele>1674.1</ele>
        <time>2000-01-01T05:53:27.000Z</time>
      </trkpt>
      <trkpt lat="46.26461" lon="6.8618">
        <ele>1673</ele>
        <time>2000-01-01T05:53:37.000Z</time>
      </trkpt>
      <trkpt lat="46.2645" lon="6.86197">
        <ele>1674</ele>
        <time>2000-01-01T05:53:47.000Z</time>
      </trkpt>
      <trkpt lat="46.26441" lon="6.86224">
        <ele>1678</ele>
        <time>2000-01-01T05:53:57.000Z</time>
      </trkpt>
      <trkpt lat="46.26435" lon="6.86263">
        <ele>1682</ele>
        <time>2000-01-01T05:54:07.000Z</time>
      </trkpt>
      <trkpt lat="46.26439" lon="6.8629">
        <ele>1685</ele>
        <time>2000-01-01T05:54:17.000Z</time>
      </trkpt>
      <trkpt lat="46.26452" lon="6.86326">
        <ele>1685</ele>
        <time>2000-01-01T05:54:27.000Z</time>
      </trkpt>
      <trkpt lat="46.26471" lon="6.86381">
        <ele>1689</ele>
        <time>2000-01-01T05:54:37.000Z</time>
      </trkpt>
      <trkpt lat="46.26486" lon="6.86427">
        <ele>1692</ele>
        <time>2000-01-01T05:54:47.000Z</time>
      </trkpt>
      <trkpt lat="46.26503" lon="6.86476">
        <ele>1692</ele>
        <time>2000-01-01T05:54:57.000Z</time>
      </trkpt>
      <trkpt lat="46.2651" lon="6.86486">
        <ele>1687.4</ele>
        <time>2000-01-01T05:55:07.000Z</time>
      </trkpt>
      <trkpt lat="46.26521" lon="6.86487">
        <ele>1691</ele>
        <time>2000-01-01T05:55:17.000Z</time>
      </trkpt>
      <trkpt lat="46.26541" lon="6.86482">
        <ele>1691</ele>
        <time>2000-01-01T05:55:27.000Z</time>
      </trkpt>
      <trkpt lat="46.26536" lon="6.86523">
        <ele>1692</ele>
        <time>2000-01-01T05:55:37.000Z</time>
      </trkpt>
      <trkpt lat="46.26537" lon="6.86533">
        <ele>1684.5</ele>
        <time>2000-01-01T05:55:47.000Z</time>
      </trkpt>
      <trkpt lat="46.26539" lon="6.86541">
        <ele>1684.7</ele>
        <time>2000-01-01T05:55:57.000Z</time>
      </trkpt>
      <trkpt lat="46.26554" lon="6.8657">
        <ele>1692</ele>
        <time>2000-01-01T05:56:07.000Z</time>
      </trkpt>
      <trkpt lat="46.26558" lon="6.86603">
        <ele>1692</ele>
        <time>2000-01-01T05:56:17.000Z</time>
      </trkpt>
      <trkpt lat="46.26558" lon="6.86633">
        <ele>1692</ele>
        <time>2000-01-01T05:56:27.000Z</time>
      </trkpt>
      <trkpt lat="46.26548" lon="6.86671">
        <ele>1692</ele>
        <time>2000-01-01T05:56:37.000Z</time>
      </trkpt>
      <trkpt lat="46.26525" lon="6.86726">
        <ele>1692</ele>
        <time>2000-01-01T05:56:47.000Z</time>
      </trkpt>
      <trkpt lat="46.26523" lon="6.86736">
        <ele>1686.4</ele>
        <time>2000-01-01T05:56:57.000Z</time>
      </trkpt>
      <trkpt lat="46.26526" lon="6.86747">
        <ele>1685.5</ele>
        <time>2000-01-01T05:57:07.000Z</time>
      </trkpt>
      <trkpt lat="46.26516" lon="6.86766">
        <ele>1689</ele>
        <time>2000-01-01T05:57:17.000Z</time>
      </trkpt>
      <trkpt lat="46.26508" lon="6.86775">
        <ele>1682.8</ele>
        <time>2000-01-01T05:57:27.000Z</time>
      </trkpt>
      <trkpt lat="46.26496" lon="6.86781">
        <ele>1688</ele>
        <time>2000-01-01T05:57:37.000Z</time>
      </trkpt>
      <trkpt lat="46.26472" lon="6.868">
        <ele>1688</ele>
        <time>2000-01-01T05:57:47.000Z</time>
      </trkpt>
      <trkpt lat="46.26439" lon="6.86827">
        <ele>1688</ele>
        <time>2000-01-01T05:57:57.000Z</time>
      </trkpt>
      <trkpt lat="46.264" lon="6.86857">
        <ele>1688</ele>
        <time>2000-01-01T05:58:07.000Z</time>
      </trkpt>
      <trkpt lat="46.2638" lon="6.86866">
        <ele>1688</ele>
        <time>2000-01-01T05:58:17.000Z</time>
      </trkpt>
      <trkpt lat="46.26358" lon="6.86886">
        <ele>1688</ele>
        <time>2000-01-01T05:58:27.000Z</time>
      </trkpt>
      <trkpt lat="46.2633" lon="6.86896">
        <ele>1688</ele>
        <time>2000-01-01T05:58:37.000Z</time>
      </trkpt>
      <trkpt lat="46.26298" lon="6.86914">
        <ele>1692</ele>
        <time>2000-01-01T05:58:47.000Z</time>
      </trkpt>
      <trkpt lat="46.26268" lon="6.86948">
        <ele>1693</ele>
        <time>2000-01-01T05:58:57.000Z</time>
      </trkpt>
      <trkpt lat="46.26263" lon="6.86959">
        <ele>1689.3</ele>
        <time>2000-01-01T05:59:07.000Z</time>
      </trkpt>
      <trkpt lat="46.26257" lon="6.86988">
        <ele>1694</ele>
        <time>2000-01-01T05:59:17.000Z</time>
      </trkpt>
      <trkpt lat="46.26251" lon="6.87028">
        <ele>1694</ele>
        <time>2000-01-01T05:59:27.000Z</time>
      </trkpt>
      <trkpt lat="46.26246" lon="6.87052">
        <ele>1693.9</ele>
        <time>2000-01-01T05:59:37.000Z</time>
      </trkpt>
      <trkpt lat="46.26245" lon="6.87085">
        <ele>1699</ele>
        <time>2000-01-01T05:59:47.000Z</time>
      </trkpt>
      <trkpt lat="46.26247" lon="6.87101">
        <ele>1697.1</ele>
        <time>2000-01-01T05:59:57.000Z</time>
      </trkpt>
      <trkpt lat="46.26246" lon="6.87106">
        <ele>1698</ele>
        <time>2000-01-01T06:00:07.000Z</time>
      </trkpt>
      <trkpt lat="46.2624" lon="6.8711">
        <ele>1699</ele>
        <time>2000-01-01T06:00:17.000Z</time>
      </trkpt>
      <trkpt lat="46.26231" lon="6.87105">
        <ele>1700.7</ele>
        <time>2000-01-01T06:00:27.000Z</time>
      </trkpt>
      <trkpt lat="46.26196" lon="6.87069">
        <ele>1710</ele>
        <time>2000-01-01T06:00:37.000Z</time>
      </trkpt>
      <trkpt lat="46.26193" lon="6.87045">
        <ele>1706.2</ele>
        <time>2000-01-01T06:00:47.000Z</time>
      </trkpt>
      <trkpt lat="46.26197" lon="6.87005">
        <ele>1712</ele>
        <time>2000-01-01T06:00:57.000Z</time>
      </trkpt>
      <trkpt lat="46.26194" lon="6.86953">
        <ele>1716</ele>
        <time>2000-01-01T06:01:07.000Z</time>
      </trkpt>
      <trkpt lat="46.26189" lon="6.86911">
        <ele>1722</ele>
        <time>2000-01-01T06:01:17.000Z</time>
      </trkpt>
      <trkpt lat="46.26184" lon="6.86876">
        <ele>1725</ele>
        <time>2000-01-01T06:01:27.000Z</time>
      </trkpt>
      <trkpt lat="46.26179" lon="6.86836">
        <ele>1728</ele>
        <time>2000-01-01T06:01:37.000Z</time>
      </trkpt>
      <trkpt lat="46.26183" lon="6.8681">
        <ele>1724.3</ele>
        <time>2000-01-01T06:01:47.000Z</time>
      </trkpt>
      <trkpt lat="46.26194" lon="6.86799">
        <ele>1731</ele>
        <time>2000-01-01T06:01:57.000Z</time>
      </trkpt>
      <trkpt lat="46.26197" lon="6.86791">
        <ele>1723.4</ele>
        <time>2000-01-01T06:02:07.000Z</time>
      </trkpt>
      <trkpt lat="46.26195" lon="6.86783">
        <ele>1724.4</ele>
        <time>2000-01-01T06:02:17.000Z</time>
      </trkpt>
      <trkpt lat="46.26188" lon="6.86783">
        <ele>1734</ele>
        <time>2000-01-01T06:02:27.000Z</time>
      </trkpt>
      <trkpt lat="46.26173" lon="6.86797">
        <ele>1728.3</ele>
        <time>2000-01-01T06:02:37.000Z</time>
      </trkpt>
      <trkpt lat="46.26166" lon="6.8681">
        <ele>1737</ele>
        <time>2000-01-01T06:02:47.000Z</time>
      </trkpt>
      <trkpt lat="46.26158" lon="6.8685">
        <ele>1739</ele>
        <time>2000-01-01T06:02:57.000Z</time>
      </trkpt>
      <trkpt lat="46.26145" lon="6.86915">
        <ele>1741</ele>
        <time>2000-01-01T06:03:07.000Z</time>
      </trkpt>
      <trkpt lat="46.26138" lon="6.86934">
        <ele>1736.5</ele>
        <time>2000-01-01T06:03:17.000Z</time>
      </trkpt>
      <trkpt lat="46.26071" lon="6.87033">
        <ele>1749</ele>
        <time>2000-01-01T06:03:27.000Z</time>
      </trkpt>
      <trkpt lat="46.26046" lon="6.87062">
        <ele>1753</ele>
        <time>2000-01-01T06:03:37.000Z</time>
      </trkpt>
      <trkpt lat="46.2602" lon="6.87078">
        <ele>1757</ele>
        <time>2000-01-01T06:03:47.000Z</time>
      </trkpt>
      <trkpt lat="46.25998" lon="6.87079">
        <ele>1764</ele>
        <time>2000-01-01T06:03:57.000Z</time>
      </trkpt>
      <trkpt lat="46.25971" lon="6.8706">
        <ele>1768</ele>
        <time>2000-01-01T06:04:07.000Z</time>
      </trkpt>
      <trkpt lat="46.25957" lon="6.8706">
        <ele>1761.5</ele>
        <time>2000-01-01T06:04:17.000Z</time>
      </trkpt>
      <trkpt lat="46.25948" lon="6.87065">
        <ele>1768</ele>
        <time>2000-01-01T06:04:27.000Z</time>
      </trkpt>
      <trkpt lat="46.25943" lon="6.87073">
        <ele>1763.1</ele>
        <time>2000-01-01T06:04:37.000Z</time>
      </trkpt>
      <trkpt lat="46.25941" lon="6.87087">
        <ele>1763.4</ele>
        <time>2000-01-01T06:04:47.000Z</time>
      </trkpt>
      <trkpt lat="46.25943" lon="6.87094">
        <ele>1768</ele>
        <time>2000-01-01T06:04:57.000Z</time>
      </trkpt>
      <trkpt lat="46.25961" lon="6.87133">
        <ele>1767</ele>
        <time>2000-01-01T06:05:07.000Z</time>
      </trkpt>
      <trkpt lat="46.25961" lon="6.87147">
        <ele>1766.2</ele>
        <time>2000-01-01T06:05:17.000Z</time>
      </trkpt>
      <trkpt lat="46.25959" lon="6.87153">
        <ele>1766.4</ele>
        <time>2000-01-01T06:05:27.000Z</time>
      </trkpt>
      <trkpt lat="46.25946" lon="6.87161">
        <ele>1768</ele>
        <time>2000-01-01T06:05:37.000Z</time>
      </trkpt>
      <trkpt lat="46.25926" lon="6.87166">
        <ele>1770</ele>
        <time>2000-01-01T06:05:47.000Z</time>
      </trkpt>
      <trkpt lat="46.25915" lon="6.87167">
        <ele>1772.1</ele>
        <time>2000-01-01T06:05:57.000Z</time>
      </trkpt>
      <trkpt lat="46.2589" lon="6.87162">
        <ele>1781</ele>
        <time>2000-01-01T06:06:07.000Z</time>
      </trkpt>
      <trkpt lat="46.25873" lon="6.87168">
        <ele>1777.4</ele>
        <time>2000-01-01T06:06:17.000Z</time>
      </trkpt>
      <trkpt lat="46.25867" lon="6.8718">
        <ele>1783</ele>
        <time>2000-01-01T06:06:27.000Z</time>
      </trkpt>
      <trkpt lat="46.25865" lon="6.8721">
        <ele>1785</ele>
        <time>2000-01-01T06:06:37.000Z</time>
      </trkpt>
      <trkpt lat="46.25862" lon="6.87227">
        <ele>1780.3</ele>
        <time>2000-01-01T06:06:47.000Z</time>
      </trkpt>
      <trkpt lat="46.25842" lon="6.87274">
        <ele>1786</ele>
        <time>2000-01-01T06:06:57.000Z</time>
      </trkpt>
      <trkpt lat="46.25824" lon="6.87313">
        <ele>1784</ele>
        <time>2000-01-01T06:07:07.000Z</time>
      </trkpt>
      <trkpt lat="46.25817" lon="6.87301">
        <ele>1788.1</ele>
        <time>2000-01-01T06:07:17.000Z</time>
      </trkpt>
      <trkpt lat="46.25787" lon="6.87316">
        <ele>1783</ele>
        <time>2000-01-01T06:07:27.000Z</time>
      </trkpt>
      <trkpt lat="46.25758" lon="6.87318">
        <ele>1781</ele>
        <time>2000-01-01T06:07:37.000Z</time>
      </trkpt>
      <trkpt lat="46.25735" lon="6.87342">
        <ele>1773</ele>
        <time>2000-01-01T06:07:47.000Z</time>
      </trkpt>
      <trkpt lat="46.25714" lon="6.87336">
        <ele>1770</ele>
        <time>2000-01-01T06:07:57.000Z</time>
      </trkpt>
      <trkpt lat="46.25693" lon="6.87321">
        <ele>1767</ele>
        <time>2000-01-01T06:08:07.000Z</time>
      </trkpt>
      <trkpt lat="46.25672" lon="6.87306">
        <ele>1767</ele>
        <time>2000-01-01T06:08:17.000Z</time>
      </trkpt>
      <trkpt lat="46.25644" lon="6.8731">
        <ele>1763</ele>
        <time>2000-01-01T06:08:27.000Z</time>
      </trkpt>
      <trkpt lat="46.25603" lon="6.87315">
        <ele>1757</ele>
        <time>2000-01-01T06:08:37.000Z</time>
      </trkpt>
      <trkpt lat="46.25578" lon="6.8731">
        <ele>1755</ele>
        <time>2000-01-01T06:08:47.000Z</time>
      </trkpt>
      <trkpt lat="46.25547" lon="6.87303">
        <ele>1752</ele>
        <time>2000-01-01T06:08:57.000Z</time>
      </trkpt>
      <trkpt lat="46.25515" lon="6.87297">
        <ele>1751</ele>
        <time>2000-01-01T06:09:07.000Z</time>
      </trkpt>
      <trkpt lat="46.25481" lon="6.87305">
        <ele>1747</ele>
        <time>2000-01-01T06:09:17.000Z</time>
      </trkpt>
      <trkpt lat="46.25446" lon="6.87313">
        <ele>1743</ele>
        <time>2000-01-01T06:09:27.000Z</time>
      </trkpt>
      <trkpt lat="46.25378" lon="6.87329">
        <ele>1736</ele>
        <time>2000-01-01T06:09:37.000Z</time>
      </trkpt>
      <trkpt lat="46.25349" lon="6.87325">
        <ele>1734</ele>
        <time>2000-01-01T06:09:47.000Z</time>
      </trkpt>
      <trkpt lat="46.25321" lon="6.87313">
        <ele>1734</ele>
        <time>2000-01-01T06:09:57.000Z</time>
      </trkpt>
      <trkpt lat="46.25292" lon="6.87308">
        <ele>1730</ele>
        <time>2000-01-01T06:10:07.000Z</time>
      </trkpt>
      <trkpt lat="46.25249" lon="6.87288">
        <ele>1723</ele>
        <time>2000-01-01T06:10:17.000Z</time>
      </trkpt>
      <trkpt lat="46.25215" lon="6.87304">
        <ele>1720</ele>
        <time>2000-01-01T06:10:27.000Z</time>
      </trkpt>
      <trkpt lat="46.25177" lon="6.87334">
        <ele>1715</ele>
        <time>2000-01-01T06:10:37.000Z</time>
      </trkpt>
      <trkpt lat="46.25132" lon="6.87322">
        <ele>1708</ele>
        <time>2000-01-01T06:10:47.000Z</time>
      </trkpt>
      <trkpt lat="46.25118" lon="6.87301">
        <ele>1702</ele>
        <time>2000-01-01T06:10:57.000Z</time>
      </trkpt>
      <trkpt lat="46.25101" lon="6.87251">
        <ele>1697</ele>
        <time>2000-01-01T06:11:07.000Z</time>
      </trkpt>
      <trkpt lat="46.25094" lon="6.8722">
        <ele>1693</ele>
        <time>2000-01-01T06:11:17.000Z</time>
      </trkpt>
      <trkpt lat="46.25085" lon="6.87212">
        <ele>1690.8</ele>
        <time>2000-01-01T06:11:27.000Z</time>
      </trkpt>
      <trkpt lat="46.25085" lon="6.872">
        <ele>1686</ele>
        <time>2000-01-01T06:11:37.000Z</time>
      </trkpt>
      <trkpt lat="46.25083" lon="6.87195">
        <ele>1688</ele>
        <time>2000-01-01T06:11:47.000Z</time>
      </trkpt>
      <trkpt lat="46.25094" lon="6.87168">
        <ele>1686</ele>
        <time>2000-01-01T06:11:57.000Z</time>
      </trkpt>
      <trkpt lat="46.25121" lon="6.87136">
        <ele>1683</ele>
        <time>2000-01-01T06:12:07.000Z</time>
      </trkpt>
      <trkpt lat="46.25124" lon="6.87128">
        <ele>1678.3</ele>
        <time>2000-01-01T06:12:17.000Z</time>
      </trkpt>
      <trkpt lat="46.25122" lon="6.87122">
        <ele>1677.2</ele>
        <time>2000-01-01T06:12:27.000Z</time>
      </trkpt>
      <trkpt lat="46.2511" lon="6.87105">
        <ele>1681</ele>
        <time>2000-01-01T06:12:37.000Z</time>
      </trkpt>
      <trkpt lat="46.2509" lon="6.87097">
        <ele>1679</ele>
        <time>2000-01-01T06:12:47.000Z</time>
      </trkpt>
      <trkpt lat="46.25073" lon="6.87096">
        <ele>1671.1</ele>
        <time>2000-01-01T06:12:57.000Z</time>
      </trkpt>
      <trkpt lat="46.25036" lon="6.87083">
        <ele>1669</ele>
        <time>2000-01-01T06:13:07.000Z</time>
      </trkpt>
      <trkpt lat="46.24996" lon="6.87088">
        <ele>1658</ele>
        <time>2000-01-01T06:13:17.000Z</time>
      </trkpt>
      <trkpt lat="46.24982" lon="6.87077">
        <ele>1655.9</ele>
        <time>2000-01-01T06:13:27.000Z</time>
      </trkpt>
      <trkpt lat="46.24971" lon="6.87055">
        <ele>1657</ele>
        <time>2000-01-01T06:13:37.000Z</time>
      </trkpt>
      <trkpt lat="46.24964" lon="6.87048">
        <ele>1650.7</ele>
        <time>2000-01-01T06:13:47.000Z</time>
      </trkpt>
      <trkpt lat="46.24919" lon="6.87037">
        <ele>1644</ele>
        <time>2000-01-01T06:13:57.000Z</time>
      </trkpt>
      <trkpt lat="46.24899" lon="6.87029">
        <ele>1640</ele>
        <time>2000-01-01T06:14:07.000Z</time>
      </trkpt>
      <trkpt lat="46.24857" lon="6.87006">
        <ele>1637</ele>
        <time>2000-01-01T06:14:17.000Z</time>
      </trkpt>
      <trkpt lat="46.24834" lon="6.87013">
        <ele>1633</ele>
        <time>2000-01-01T06:14:27.000Z</time>
      </trkpt>
      <trkpt lat="46.24814" lon="6.87013">
        <ele>1633</ele>
        <time>2000-01-01T06:14:37.000Z</time>
      </trkpt>
      <trkpt lat="46.2478" lon="6.87018">
        <ele>1631</ele>
        <time>2000-01-01T06:14:47.000Z</time>
      </trkpt>
      <trkpt lat="46.24769" lon="6.87023">
        <ele>1619.9</ele>
        <time>2000-01-01T06:14:57.000Z</time>
      </trkpt>
      <trkpt lat="46.24761" lon="6.87033">
        <ele>1625</ele>
        <time>2000-01-01T06:15:07.000Z</time>
      </trkpt>
      <trkpt lat="46.24757" lon="6.87029">
        <ele>1618.7</ele>
        <time>2000-01-01T06:15:17.000Z</time>
      </trkpt>
      <trkpt lat="46.24753" lon="6.87029">
        <ele>1618.7</ele>
        <time>2000-01-01T06:15:27.000Z</time>
      </trkpt>
      <trkpt lat="46.24714" lon="6.87065">
        <ele>1621</ele>
        <time>2000-01-01T06:15:37.000Z</time>
      </trkpt>
      <trkpt lat="46.24684" lon="6.87082">
        <ele>1620</ele>
        <time>2000-01-01T06:15:47.000Z</time>
      </trkpt>
      <trkpt lat="46.24655" lon="6.87093">
        <ele>1614</ele>
        <time>2000-01-01T06:15:57.000Z</time>
      </trkpt>
      <trkpt lat="46.24649" lon="6.87093">
        <ele>1620.4</ele>
        <time>2000-01-01T06:16:07.000Z</time>
      </trkpt>
      <trkpt lat="46.24643" lon="6.87088">
        <ele>1621.4</ele>
        <time>2000-01-01T06:16:17.000Z</time>
      </trkpt>
      <trkpt lat="46.24634" lon="6.87061">
        <ele>1614</ele>
        <time>2000-01-01T06:16:27.000Z</time>
      </trkpt>
      <trkpt lat="46.24619" lon="6.87033">
        <ele>1613</ele>
        <time>2000-01-01T06:16:37.000Z</time>
      </trkpt>
      <trkpt lat="46.24607" lon="6.86992">
        <ele>1613</ele>
        <time>2000-01-01T06:16:47.000Z</time>
      </trkpt>
      <trkpt lat="46.24584" lon="6.86913">
        <ele>1617</ele>
        <time>2000-01-01T06:16:57.000Z</time>
      </trkpt>
      <trkpt lat="46.2458" lon="6.86873">
        <ele>1617</ele>
        <time>2000-01-01T06:17:07.000Z</time>
      </trkpt>
      <trkpt lat="46.24585" lon="6.86854">
        <ele>1625.5</ele>
        <time>2000-01-01T06:17:17.000Z</time>
      </trkpt>
      <trkpt lat="46.24596" lon="6.86832">
        <ele>1623</ele>
        <time>2000-01-01T06:17:27.000Z</time>
      </trkpt>
      <trkpt lat="46.24601" lon="6.86786">
        <ele>1630</ele>
        <time>2000-01-01T06:17:37.000Z</time>
      </trkpt>
      <trkpt lat="46.24605" lon="6.86765">
        <ele>1628.3</ele>
        <time>2000-01-01T06:17:47.000Z</time>
      </trkpt>
      <trkpt lat="46.24613" lon="6.86678">
        <ele>1636</ele>
        <time>2000-01-01T06:17:57.000Z</time>
      </trkpt>
      <trkpt lat="46.24621" lon="6.86648">
        <ele>1639</ele>
        <time>2000-01-01T06:18:07.000Z</time>
      </trkpt>
      <trkpt lat="46.24622" lon="6.86618">
        <ele>1636</ele>
        <time>2000-01-01T06:18:17.000Z</time>
      </trkpt>
      <trkpt lat="46.2462" lon="6.86595">
        <ele>1630.9</ele>
        <time>2000-01-01T06:18:27.000Z</time>
      </trkpt>
      <trkpt lat="46.24603" lon="6.86556">
        <ele>1634</ele>
        <time>2000-01-01T06:18:37.000Z</time>
      </trkpt>
      <trkpt lat="46.24581" lon="6.86516">
        <ele>1630</ele>
        <time>2000-01-01T06:18:47.000Z</time>
      </trkpt>
      <trkpt lat="46.24577" lon="6.86505">
        <ele>1631.2</ele>
        <time>2000-01-01T06:18:57.000Z</time>
      </trkpt>
      <trkpt lat="46.24575" lon="6.86482">
        <ele>1632</ele>
        <time>2000-01-01T06:19:07.000Z</time>
      </trkpt>
      <trkpt lat="46.24582" lon="6.86427">
        <ele>1634</ele>
        <time>2000-01-01T06:19:17.000Z</time>
      </trkpt>
      <trkpt lat="46.24582" lon="6.86395">
        <ele>1636</ele>
        <time>2000-01-01T06:19:27.000Z</time>
      </trkpt>
      <trkpt lat="46.24588" lon="6.8636">
        <ele>1638</ele>
        <time>2000-01-01T06:19:37.000Z</time>
      </trkpt>
      <trkpt lat="46.24596" lon="6.86319">
        <ele>1644</ele>
        <time>2000-01-01T06:19:47.000Z</time>
      </trkpt>
      <trkpt lat="46.24593" lon="6.86283">
        <ele>1645</ele>
        <time>2000-01-01T06:19:57.000Z</time>
      </trkpt>
      <trkpt lat="46.2459" lon="6.86242">
        <ele>1645</ele>
        <time>2000-01-01T06:20:07.000Z</time>
      </trkpt>
      <trkpt lat="46.24592" lon="6.86219">
        <ele>1642.4</ele>
        <time>2000-01-01T06:20:17.000Z</time>
      </trkpt>
      <trkpt lat="46.24599" lon="6.86175">
        <ele>1645</ele>
        <time>2000-01-01T06:20:27.000Z</time>
      </trkpt>
      <trkpt lat="46.24615" lon="6.86144">
        <ele>1645</ele>
        <time>2000-01-01T06:20:37.000Z</time>
      </trkpt>
      <trkpt lat="46.24618" lon="6.86119">
        <ele>1648.9</ele>
        <time>2000-01-01T06:20:47.000Z</time>
      </trkpt>
      <trkpt lat="46.24609" lon="6.86105">
        <ele>1645</ele>
        <time>2000-01-01T06:20:57.000Z</time>
      </trkpt>
      <trkpt lat="46.24608" lon="6.86097">
        <ele>1645.3</ele>
        <time>2000-01-01T06:21:07.000Z</time>
      </trkpt>
      <trkpt lat="46.24609" lon="6.86051">
        <ele>1645</ele>
        <time>2000-01-01T06:21:17.000Z</time>
      </trkpt>
      <trkpt lat="46.246" lon="6.85997">
        <ele>1644</ele>
        <time>2000-01-01T06:21:27.000Z</time>
      </trkpt>
      <trkpt lat="46.24603" lon="6.85964">
        <ele>1643</ele>
        <time>2000-01-01T06:21:37.000Z</time>
      </trkpt>
      <trkpt lat="46.24612" lon="6.85943">
        <ele>1639.7</ele>
        <time>2000-01-01T06:21:47.000Z</time>
      </trkpt>
      <trkpt lat="46.24637" lon="6.85909">
        <ele>1642</ele>
        <time>2000-01-01T06:21:57.000Z</time>
      </trkpt>
      <trkpt lat="46.24648" lon="6.85885">
        <ele>1642</ele>
        <time>2000-01-01T06:22:07.000Z</time>
      </trkpt>
      <trkpt lat="46.24657" lon="6.85851">
        <ele>1642</ele>
        <time>2000-01-01T06:22:17.000Z</time>
      </trkpt>
      <trkpt lat="46.24684" lon="6.85819">
        <ele>1634</ele>
        <time>2000-01-01T06:22:27.000Z</time>
      </trkpt>
      <trkpt lat="46.24695" lon="6.85758">
        <ele>1631</ele>
        <time>2000-01-01T06:22:37.000Z</time>
      </trkpt>
      <trkpt lat="46.24698" lon="6.8575">
        <ele>1627.5</ele>
        <time>2000-01-01T06:22:47.000Z</time>
      </trkpt>
      <trkpt lat="46.24706" lon="6.85742">
        <ele>1625.3</ele>
        <time>2000-01-01T06:22:57.000Z</time>
      </trkpt>
      <trkpt lat="46.24721" lon="6.85738">
        <ele>1636</ele>
        <time>2000-01-01T06:23:07.000Z</time>
      </trkpt>
      <trkpt lat="46.24765" lon="6.85743">
        <ele>1642</ele>
        <time>2000-01-01T06:23:17.000Z</time>
      </trkpt>
      <trkpt lat="46.24784" lon="6.8573">
        <ele>1639</ele>
        <time>2000-01-01T06:23:27.000Z</time>
      </trkpt>
      <trkpt lat="46.24809" lon="6.85707">
        <ele>1637</ele>
        <time>2000-01-01T06:23:37.000Z</time>
      </trkpt>
      <trkpt lat="46.2482" lon="6.85676">
        <ele>1634</ele>
        <time>2000-01-01T06:23:47.000Z</time>
      </trkpt>
      <trkpt lat="46.24833" lon="6.85644">
        <ele>1628</ele>
        <time>2000-01-01T06:23:57.000Z</time>
      </trkpt>
      <trkpt lat="46.24839" lon="6.85612">
        <ele>1622</ele>
        <time>2000-01-01T06:24:07.000Z</time>
      </trkpt>
      <trkpt lat="46.2484" lon="6.85594">
        <ele>1613.8</ele>
        <time>2000-01-01T06:24:17.000Z</time>
      </trkpt>
      <trkpt lat="46.24848" lon="6.85544">
        <ele>1610</ele>
        <time>2000-01-01T06:24:27.000Z</time>
      </trkpt>
      <trkpt lat="46.24853" lon="6.85527">
        <ele>1607.7</ele>
        <time>2000-01-01T06:24:37.000Z</time>
      </trkpt>
      <trkpt lat="46.24875" lon="6.85514">
        <ele>1606</ele>
        <time>2000-01-01T06:24:47.000Z</time>
      </trkpt>
      <trkpt lat="46.24892" lon="6.85491">
        <ele>1602</ele>
        <time>2000-01-01T06:24:57.000Z</time>
      </trkpt>
      <trkpt lat="46.2491" lon="6.85484">
        <ele>1602</ele>
        <time>2000-01-01T06:25:07.000Z</time>
      </trkpt>
      <trkpt lat="46.24936" lon="6.85483">
        <ele>1603</ele>
        <time>2000-01-01T06:25:17.000Z</time>
      </trkpt>
      <trkpt lat="46.24973" lon="6.85494">
        <ele>1601</ele>
        <time>2000-01-01T06:25:27.000Z</time>
      </trkpt>
      <trkpt lat="46.24984" lon="6.85491">
        <ele>1602.1</ele>
        <time>2000-01-01T06:25:37.000Z</time>
      </trkpt>
      <trkpt lat="46.24998" lon="6.85468">
        <ele>1600</ele>
        <time>2000-01-01T06:25:47.000Z</time>
      </trkpt>
      <trkpt lat="46.2501" lon="6.85429">
        <ele>1591</ele>
        <time>2000-01-01T06:25:57.000Z</time>
      </trkpt>
      <trkpt lat="46.25021" lon="6.85408">
        <ele>1593.3</ele>
        <time>2000-01-01T06:26:07.000Z</time>
      </trkpt>
      <trkpt lat="46.25036" lon="6.8539">
        <ele>1586</ele>
        <time>2000-01-01T06:26:17.000Z</time>
      </trkpt>
      <trkpt lat="46.25051" lon="6.85377">
        <ele>1589</ele>
        <time>2000-01-01T06:26:27.000Z</time>
      </trkpt>
      <trkpt lat="46.25058" lon="6.85374">
        <ele>1587</ele>
        <time>2000-01-01T06:26:37.000Z</time>
      </trkpt>
      <trkpt lat="46.25069" lon="6.85375">
        <ele>1588</ele>
        <time>2000-01-01T06:26:47.000Z</time>
      </trkpt>
      <trkpt lat="46.25106" lon="6.85396">
        <ele>1586</ele>
        <time>2000-01-01T06:26:57.000Z</time>
      </trkpt>
      <trkpt lat="46.2512" lon="6.85394">
        <ele>1583.8</ele>
        <time>2000-01-01T06:27:07.000Z</time>
      </trkpt>
      <trkpt lat="46.25135" lon="6.85385">
        <ele>1586</ele>
        <time>2000-01-01T06:27:17.000Z</time>
      </trkpt>
      <trkpt lat="46.2514" lon="6.85373">
        <ele>1579.3</ele>
        <time>2000-01-01T06:27:27.000Z</time>
      </trkpt>
      <trkpt lat="46.25141" lon="6.85366">
        <ele>1578.4</ele>
        <time>2000-01-01T06:27:37.000Z</time>
      </trkpt>
      <trkpt lat="46.25139" lon="6.85355">
        <ele>1580</ele>
        <time>2000-01-01T06:27:47.000Z</time>
      </trkpt>
      <trkpt lat="46.25127" lon="6.85329">
        <ele>1575</ele>
        <time>2000-01-01T06:27:57.000Z</time>
      </trkpt>
      <trkpt lat="46.25114" lon="6.85307">
        <ele>1573</ele>
        <time>2000-01-01T06:28:07.000Z</time>
      </trkpt>
      <trkpt lat="46.25088" lon="6.85278">
        <ele>1568</ele>
        <time>2000-01-01T06:28:17.000Z</time>
      </trkpt>
      <trkpt lat="46.25074" lon="6.85267">
        <ele>1566.7</ele>
        <time>2000-01-01T06:28:27.000Z</time>
      </trkpt>
      <trkpt lat="46.25068" lon="6.85265">
        <ele>1565</ele>
        <time>2000-01-01T06:28:37.000Z</time>
      </trkpt>
      <trkpt lat="46.25046" lon="6.8527">
        <ele>1565</ele>
        <time>2000-01-01T06:28:47.000Z</time>
      </trkpt>
      <trkpt lat="46.25019" lon="6.85264">
        <ele>1558</ele>
        <time>2000-01-01T06:28:57.000Z</time>
      </trkpt>
      <trkpt lat="46.25007" lon="6.85271">
        <ele>1559.9</ele>
        <time>2000-01-01T06:29:07.000Z</time>
      </trkpt>
      <trkpt lat="46.24969" lon="6.85309">
        <ele>1557</ele>
        <time>2000-01-01T06:29:17.000Z</time>
      </trkpt>
      <trkpt lat="46.24952" lon="6.85334">
        <ele>1557</ele>
        <time>2000-01-01T06:29:27.000Z</time>
      </trkpt>
      <trkpt lat="46.24934" lon="6.85362">
        <ele>1551</ele>
        <time>2000-01-01T06:29:37.000Z</time>
      </trkpt>
      <trkpt lat="46.24922" lon="6.85366">
        <ele>1552.6</ele>
        <time>2000-01-01T06:29:47.000Z</time>
      </trkpt>
      <trkpt lat="46.24917" lon="6.85365">
        <ele>1551.5</ele>
        <time>2000-01-01T06:29:57.000Z</time>
      </trkpt>
      <trkpt lat="46.24889" lon="6.85346">
        <ele>1546</ele>
        <time>2000-01-01T06:30:07.000Z</time>
      </trkpt>
      <trkpt lat="46.24869" lon="6.85342">
        <ele>1544</ele>
        <time>2000-01-01T06:30:17.000Z</time>
      </trkpt>
      <trkpt lat="46.24858" lon="6.85345">
        <ele>1545.4</ele>
        <time>2000-01-01T06:30:27.000Z</time>
      </trkpt>
      <trkpt lat="46.24811" lon="6.85374">
        <ele>1545</ele>
        <time>2000-01-01T06:30:37.000Z</time>
      </trkpt>
      <trkpt lat="46.24796" lon="6.8539">
        <ele>1547</ele>
        <time>2000-01-01T06:30:47.000Z</time>
      </trkpt>
      <trkpt lat="46.24789" lon="6.854">
        <ele>1541.2</ele>
        <time>2000-01-01T06:30:57.000Z</time>
      </trkpt>
      <trkpt lat="46.24774" lon="6.85431">
        <ele>1555</ele>
        <time>2000-01-01T06:31:07.000Z</time>
      </trkpt>
      <trkpt lat="46.24769" lon="6.85454">
        <ele>1543.1</ele>
        <time>2000-01-01T06:31:17.000Z</time>
      </trkpt>
      <trkpt lat="46.2476" lon="6.8547">
        <ele>1553</ele>
        <time>2000-01-01T06:31:27.000Z</time>
      </trkpt>
      <trkpt lat="46.24721" lon="6.85497">
        <ele>1552</ele>
        <time>2000-01-01T06:31:37.000Z</time>
      </trkpt>
      <trkpt lat="46.24691" lon="6.85508">
        <ele>1549</ele>
        <time>2000-01-01T06:31:47.000Z</time>
      </trkpt>
      <trkpt lat="46.24679" lon="6.85521">
        <ele>1536.8</ele>
        <time>2000-01-01T06:31:57.000Z</time>
      </trkpt>
      <trkpt lat="46.24662" lon="6.85555">
        <ele>1547</ele>
        <time>2000-01-01T06:32:07.000Z</time>
      </trkpt>
      <trkpt lat="46.24649" lon="6.85571">
        <ele>1538.6</ele>
        <time>2000-01-01T06:32:17.000Z</time>
      </trkpt>
      <trkpt lat="46.24626" lon="6.85585">
        <ele>1541</ele>
        <time>2000-01-01T06:32:27.000Z</time>
      </trkpt>
      <trkpt lat="46.24604" lon="6.85589">
        <ele>1538</ele>
        <time>2000-01-01T06:32:37.000Z</time>
      </trkpt>
      <trkpt lat="46.24601" lon="6.85592">
        <ele>1534.8</ele>
        <time>2000-01-01T06:32:47.000Z</time>
      </trkpt>
      <trkpt lat="46.24586" lon="6.85619">
        <ele>1536</ele>
        <time>2000-01-01T06:32:57.000Z</time>
      </trkpt>
      <trkpt lat="46.24569" lon="6.85638">
        <ele>1541</ele>
        <time>2000-01-01T06:33:07.000Z</time>
      </trkpt>
      <trkpt lat="46.2454" lon="6.85683">
        <ele>1538</ele>
        <time>2000-01-01T06:33:17.000Z</time>
      </trkpt>
      <trkpt lat="46.24528" lon="6.85689">
        <ele>1533.7</ele>
        <time>2000-01-01T06:33:27.000Z</time>
      </trkpt>
      <trkpt lat="46.24508" lon="6.85694">
        <ele>1538</ele>
        <time>2000-01-01T06:33:37.000Z</time>
      </trkpt>
      <trkpt lat="46.24502" lon="6.857">
        <ele>1535.3</ele>
        <time>2000-01-01T06:33:47.000Z</time>
      </trkpt>
      <trkpt lat="46.24471" lon="6.85764">
        <ele>1536</ele>
        <time>2000-01-01T06:33:57.000Z</time>
      </trkpt>
      <trkpt lat="46.24452" lon="6.85816">
        <ele>1537</ele>
        <time>2000-01-01T06:34:07.000Z</time>
      </trkpt>
      <trkpt lat="46.24443" lon="6.8587">
        <ele>1531</ele>
        <time>2000-01-01T06:34:17.000Z</time>
      </trkpt>
      <trkpt lat="46.24438" lon="6.85879">
        <ele>1527.9</ele>
        <time>2000-01-01T06:34:27.000Z</time>
      </trkpt>
      <trkpt lat="46.24432" lon="6.85884">
        <ele>1526.9</ele>
        <time>2000-01-01T06:34:37.000Z</time>
      </trkpt>
      <trkpt lat="46.24402" lon="6.85891">
        <ele>1526</ele>
        <time>2000-01-01T06:34:47.000Z</time>
      </trkpt>
      <trkpt lat="46.24386" lon="6.85903">
        <ele>1521.1</ele>
        <time>2000-01-01T06:34:57.000Z</time>
      </trkpt>
      <trkpt lat="46.24374" lon="6.85916">
        <ele>1516</ele>
        <time>2000-01-01T06:35:07.000Z</time>
      </trkpt>
      <trkpt lat="46.2437" lon="6.85924">
        <ele>1519.3</ele>
        <time>2000-01-01T06:35:17.000Z</time>
      </trkpt>
      <trkpt lat="46.24368" lon="6.85936">
        <ele>1519.3</ele>
        <time>2000-01-01T06:35:27.000Z</time>
      </trkpt>
      <trkpt lat="46.24367" lon="6.85963">
        <ele>1516</ele>
        <time>2000-01-01T06:35:37.000Z</time>
      </trkpt>
      <trkpt lat="46.2436" lon="6.85963">
        <ele>1515.2</ele>
        <time>2000-01-01T06:35:47.000Z</time>
      </trkpt>
      <trkpt lat="46.24357" lon="6.85958">
        <ele>1514.1</ele>
        <time>2000-01-01T06:35:57.000Z</time>
      </trkpt>
      <trkpt lat="46.24353" lon="6.85927">
        <ele>1510</ele>
        <time>2000-01-01T06:36:07.000Z</time>
      </trkpt>
      <trkpt lat="46.24355" lon="6.85884">
        <ele>1503</ele>
        <time>2000-01-01T06:36:17.000Z</time>
      </trkpt>
      <trkpt lat="46.24362" lon="6.85844">
        <ele>1504</ele>
        <time>2000-01-01T06:36:27.000Z</time>
      </trkpt>
      <trkpt lat="46.24371" lon="6.85834">
        <ele>1500</ele>
        <time>2000-01-01T06:36:37.000Z</time>
      </trkpt>
      <trkpt lat="46.24382" lon="6.85816">
        <ele>1498</ele>
        <time>2000-01-01T06:36:47.000Z</time>
      </trkpt>
      <trkpt lat="46.24381" lon="6.8581">
        <ele>1497.7</ele>
        <time>2000-01-01T06:36:57.000Z</time>
      </trkpt>
      <trkpt lat="46.24378" lon="6.85808">
        <ele>1496.7</ele>
        <time>2000-01-01T06:37:07.000Z</time>
      </trkpt>
      <trkpt lat="46.2437" lon="6.85811">
        <ele>1495.3</ele>
        <time>2000-01-01T06:37:17.000Z</time>
      </trkpt>
      <trkpt lat="46.24359" lon="6.8582">
        <ele>1493</ele>
        <time>2000-01-01T06:37:27.000Z</time>
      </trkpt>
      <trkpt lat="46.24337" lon="6.85825">
        <ele>1492</ele>
        <time>2000-01-01T06:37:37.000Z</time>
      </trkpt>
      <trkpt lat="46.2433" lon="6.8584">
        <ele>1489.9</ele>
        <time>2000-01-01T06:37:47.000Z</time>
      </trkpt>
      <trkpt lat="46.24323" lon="6.85867">
        <ele>1491</ele>
        <time>2000-01-01T06:37:57.000Z</time>
      </trkpt>
      <trkpt lat="46.24304" lon="6.85886">
        <ele>1485</ele>
        <time>2000-01-01T06:38:07.000Z</time>
      </trkpt>
      <trkpt lat="46.24301" lon="6.85893">
        <ele>1484.3</ele>
        <time>2000-01-01T06:38:17.000Z</time>
      </trkpt>
      <trkpt lat="46.24299" lon="6.85907">
        <ele>1484.2</ele>
        <time>2000-01-01T06:38:27.000Z</time>
      </trkpt>
      <trkpt lat="46.24293" lon="6.8591">
        <ele>1485</ele>
        <time>2000-01-01T06:38:37.000Z</time>
      </trkpt>
      <trkpt lat="46.24288" lon="6.85905">
        <ele>1481.7</ele>
        <time>2000-01-01T06:38:47.000Z</time>
      </trkpt>
      <trkpt lat="46.24289" lon="6.85899">
        <ele>1482</ele>
        <time>2000-01-01T06:38:57.000Z</time>
      </trkpt>
      <trkpt lat="46.24298" lon="6.85868">
        <ele>1481</ele>
        <time>2000-01-01T06:39:07.000Z</time>
      </trkpt>
      <trkpt lat="46.24302" lon="6.85843">
        <ele>1479.2</ele>
        <time>2000-01-01T06:39:17.000Z</time>
      </trkpt>
      <trkpt lat="46.24299" lon="6.85822">
        <ele>1477</ele>
        <time>2000-01-01T06:39:27.000Z</time>
      </trkpt>
      <trkpt lat="46.24293" lon="6.85807">
        <ele>1478.3</ele>
        <time>2000-01-01T06:39:37.000Z</time>
      </trkpt>
      <trkpt lat="46.24293" lon="6.85792">
        <ele>1477</ele>
        <time>2000-01-01T06:39:47.000Z</time>
      </trkpt>
      <trkpt lat="46.24303" lon="6.85779">
        <ele>1477.4</ele>
        <time>2000-01-01T06:39:57.000Z</time>
      </trkpt>
      <trkpt lat="46.2432" lon="6.85774">
        <ele>1477</ele>
        <time>2000-01-01T06:40:07.000Z</time>
      </trkpt>
      <trkpt lat="46.24334" lon="6.85765">
        <ele>1476.4</ele>
        <time>2000-01-01T06:40:17.000Z</time>
      </trkpt>
      <trkpt lat="46.24351" lon="6.85746">
        <ele>1478</ele>
        <time>2000-01-01T06:40:27.000Z</time>
      </trkpt>
      <trkpt lat="46.24365" lon="6.85718">
        <ele>1480</ele>
        <time>2000-01-01T06:40:37.000Z</time>
      </trkpt>
      <trkpt lat="46.24381" lon="6.85688">
        <ele>1481</ele>
        <time>2000-01-01T06:40:47.000Z</time>
      </trkpt>
      <trkpt lat="46.24411" lon="6.85642">
        <ele>740</ele>
        <time>2000-01-01T06:40:57.000Z</time>
      </trkpt>
      <trkpt lat="46.24422" lon="6.85612">
        <ele>1467.7</ele>
        <time>2000-01-01T06:41:07.000Z</time>
      </trkpt>
      <trkpt lat="46.24438" lon="6.85586">
        <ele>1465.8</ele>
        <time>2000-01-01T06:41:17.000Z</time>
      </trkpt>
      <trkpt lat="46.24454" lon="6.8556">
        <ele>1463.6</ele>
        <time>2000-01-01T06:41:27.000Z</time>
      </trkpt>
      <trkpt lat="46.24463" lon="6.85527">
        <ele>1460.2</ele>
        <time>2000-01-01T06:41:37.000Z</time>
      </trkpt>
      <trkpt lat="46.24473" lon="6.85492">
        <ele>1458.1</ele>
        <time>2000-01-01T06:41:47.000Z</time>
      </trkpt>
      <trkpt lat="46.24497" lon="6.85441">
        <ele>1452.9</ele>
        <time>2000-01-01T06:41:57.000Z</time>
      </trkpt>
      <trkpt lat="46.24497" lon="6.85394">
        <ele>1448.7</ele>
        <time>2000-01-01T06:42:07.000Z</time>
      </trkpt>
      <trkpt lat="46.24505" lon="6.85359">
        <ele>1448.5</ele>
        <time>2000-01-01T06:42:17.000Z</time>
      </trkpt>
      <trkpt lat="46.24514" lon="6.85318">
        <ele>1443.4</ele>
        <time>2000-01-01T06:42:27.000Z</time>
      </trkpt>
      <trkpt lat="46.24524" lon="6.85294">
        <ele>1442.2</ele>
        <time>2000-01-01T06:42:37.000Z</time>
      </trkpt>
      <trkpt lat="46.24556" lon="6.85252">
        <ele>1439.7</ele>
        <time>2000-01-01T06:42:47.000Z</time>
      </trkpt>
      <trkpt lat="46.24569" lon="6.85223">
        <ele>1437.5</ele>
        <time>2000-01-01T06:42:57.000Z</time>
      </trkpt>
      <trkpt lat="46.24582" lon="6.85192">
        <ele>715</ele>
        <time>2000-01-01T06:43:07.000Z</time>
      </trkpt>
      <trkpt lat="46.24588" lon="6.85181">
        <ele>1431.5</ele>
        <time>2000-01-01T06:43:17.000Z</time>
      </trkpt>
      <trkpt lat="46.24625" lon="6.85148">
        <ele>1068</ele>
        <time>2000-01-01T06:43:27.000Z</time>
      </trkpt>
      <trkpt lat="46.24663" lon="6.85116">
        <ele>1422</ele>
        <time>2000-01-01T06:43:37.000Z</time>
      </trkpt>
      <trkpt lat="46.24687" lon="6.85112">
        <ele>1420</ele>
        <time>2000-01-01T06:43:47.000Z</time>
      </trkpt>
      <trkpt lat="46.24715" lon="6.85108">
        <ele>1418</ele>
        <time>2000-01-01T06:43:57.000Z</time>
      </trkpt>
      <trkpt lat="46.24734" lon="6.85095">
        <ele>1417</ele>
        <time>2000-01-01T06:44:07.000Z</time>
      </trkpt>
      <trkpt lat="46.2474" lon="6.85085">
        <ele>1415.3</ele>
        <time>2000-01-01T06:44:17.000Z</time>
      </trkpt>
      <trkpt lat="46.24747" lon="6.85067">
        <ele>1410</ele>
        <time>2000-01-01T06:44:27.000Z</time>
      </trkpt>
      <trkpt lat="46.2475" lon="6.85014">
        <ele>1408</ele>
        <time>2000-01-01T06:44:37.000Z</time>
      </trkpt>
      <trkpt lat="46.24765" lon="6.84966">
        <ele>1404</ele>
        <time>2000-01-01T06:44:47.000Z</time>
      </trkpt>
      <trkpt lat="46.24785" lon="6.84928">
        <ele>1398</ele>
        <time>2000-01-01T06:44:57.000Z</time>
      </trkpt>
      <trkpt lat="46.24802" lon="6.84894">
        <ele>1398</ele>
        <time>2000-01-01T06:45:07.000Z</time>
      </trkpt>
      <trkpt lat="46.24829" lon="6.8484">
        <ele>1393</ele>
        <time>2000-01-01T06:45:17.000Z</time>
      </trkpt>
      <trkpt lat="46.2485" lon="6.84821">
        <ele>1393</ele>
        <time>2000-01-01T06:45:27.000Z</time>
      </trkpt>
      <trkpt lat="46.24867" lon="6.84817">
        <ele>1389.1</ele>
        <time>2000-01-01T06:45:37.000Z</time>
      </trkpt>
      <trkpt lat="46.24893" lon="6.84818">
        <ele>1385</ele>
        <time>2000-01-01T06:45:47.000Z</time>
      </trkpt>
      <trkpt lat="46.24921" lon="6.84807">
        <ele>1384</ele>
        <time>2000-01-01T06:45:57.000Z</time>
      </trkpt>
      <trkpt lat="46.24942" lon="6.84782">
        <ele>1383</ele>
        <time>2000-01-01T06:46:07.000Z</time>
      </trkpt>
      <trkpt lat="46.24959" lon="6.84756">
        <ele>1380</ele>
        <time>2000-01-01T06:46:17.000Z</time>
      </trkpt>
      <trkpt lat="46.24977" lon="6.84728">
        <ele>1378</ele>
        <time>2000-01-01T06:46:27.000Z</time>
      </trkpt>
      <trkpt lat="46.24979" lon="6.84721">
        <ele>1379.6</ele>
        <time>2000-01-01T06:46:37.000Z</time>
      </trkpt>
      <trkpt lat="46.24978" lon="6.84715">
        <ele>1378.9</ele>
        <time>2000-01-01T06:46:47.000Z</time>
      </trkpt>
      <trkpt lat="46.2497" lon="6.84708">
        <ele>1376</ele>
        <time>2000-01-01T06:46:57.000Z</time>
      </trkpt>
      <trkpt lat="46.24966" lon="6.84711">
        <ele>1376.5</ele>
        <time>2000-01-01T06:47:07.000Z</time>
      </trkpt>
      <trkpt lat="46.24946" lon="6.84746">
        <ele>1372</ele>
        <time>2000-01-01T06:47:17.000Z</time>
      </trkpt>
      <trkpt lat="46.24932" lon="6.84756">
        <ele>1374.3</ele>
        <time>2000-01-01T06:47:27.000Z</time>
      </trkpt>
      <trkpt lat="46.24905" lon="6.84761">
        <ele>1372</ele>
        <time>2000-01-01T06:47:37.000Z</time>
      </trkpt>
      <trkpt lat="46.24897" lon="6.84755">
        <ele>1371.1</ele>
        <time>2000-01-01T06:47:47.000Z</time>
      </trkpt>
      <trkpt lat="46.24907" lon="6.84749">
        <ele>1371</ele>
        <time>2000-01-01T06:47:57.000Z</time>
      </trkpt>
      <trkpt lat="46.24927" lon="6.84726">
        <ele>1370</ele>
        <time>2000-01-01T06:48:07.000Z</time>
      </trkpt>
      <trkpt lat="46.24936" lon="6.84689">
        <ele>1369</ele>
        <time>2000-01-01T06:48:17.000Z</time>
      </trkpt>
      <trkpt lat="46.24949" lon="6.84638">
        <ele>1369</ele>
        <time>2000-01-01T06:48:27.000Z</time>
      </trkpt>
      <trkpt lat="46.24962" lon="6.84604">
        <ele>1370</ele>
        <time>2000-01-01T06:48:37.000Z</time>
      </trkpt>
      <trkpt lat="46.24952" lon="6.84597">
        <ele>1370.4</ele>
        <time>2000-01-01T06:48:47.000Z</time>
      </trkpt>
      <trkpt lat="46.24932" lon="6.846">
        <ele>1370</ele>
        <time>2000-01-01T06:48:57.000Z</time>
      </trkpt>
      <trkpt lat="46.249" lon="6.84609">
        <ele>1374</ele>
        <time>2000-01-01T06:49:07.000Z</time>
      </trkpt>
      <trkpt lat="46.24868" lon="6.84618">
        <ele>1375</ele>
        <time>2000-01-01T06:49:17.000Z</time>
      </trkpt>
      <trkpt lat="46.24828" lon="6.84629">
        <ele>1374</ele>
        <time>2000-01-01T06:49:27.000Z</time>
      </trkpt>
      <trkpt lat="46.24792" lon="6.84646">
        <ele>1374</ele>
        <time>2000-01-01T06:49:37.000Z</time>
      </trkpt>
      <trkpt lat="46.2476" lon="6.84649">
        <ele>1375</ele>
        <time>2000-01-01T06:49:47.000Z</time>
      </trkpt>
      <trkpt lat="46.24729" lon="6.84652">
        <ele>1375</ele>
        <time>2000-01-01T06:49:57.000Z</time>
      </trkpt>
      <trkpt lat="46.24694" lon="6.84655">
        <ele>1376</ele>
        <time>2000-01-01T06:50:07.000Z</time>
      </trkpt>
      <trkpt lat="46.2466" lon="6.84672">
        <ele>1377</ele>
        <time>2000-01-01T06:50:17.000Z</time>
      </trkpt>
      <trkpt lat="46.24643" lon="6.84676">
        <ele>1377.2</ele>
        <time>2000-01-01T06:50:27.000Z</time>
      </trkpt>
      <trkpt lat="46.24626" lon="6.84683">
        <ele>1378</ele>
        <time>2000-01-01T06:50:37.000Z</time>
      </trkpt>
      <trkpt lat="46.24586" lon="6.84714">
        <ele>1379</ele>
        <time>2000-01-01T06:50:47.000Z</time>
      </trkpt>
      <trkpt lat="46.24564" lon="6.84725">
        <ele>1379</ele>
        <time>2000-01-01T06:50:57.000Z</time>
      </trkpt>
      <trkpt lat="46.2454" lon="6.84729">
        <ele>1380</ele>
        <time>2000-01-01T06:51:07.000Z</time>
      </trkpt>
      <trkpt lat="46.24514" lon="6.84735">
        <ele>1381</ele>
        <time>2000-01-01T06:51:17.000Z</time>
      </trkpt>
      <trkpt lat="46.24485" lon="6.84745">
        <ele>1381</ele>
        <time>2000-01-01T06:51:27.000Z</time>
      </trkpt>
      <trkpt lat="46.24461" lon="6.84762">
        <ele>1381</ele>
        <time>2000-01-01T06:51:37.000Z</time>
      </trkpt>
      <trkpt lat="46.24432" lon="6.84797">
        <ele>1381</ele>
        <time>2000-01-01T06:51:47.000Z</time>
      </trkpt>
      <trkpt lat="46.24422" lon="6.8482">
        <ele>1381</ele>
        <time>2000-01-01T06:51:57.000Z</time>
      </trkpt>
      <trkpt lat="46.24418" lon="6.84841">
        <ele>1380.7</ele>
        <time>2000-01-01T06:52:07.000Z</time>
      </trkpt>
      <trkpt lat="46.24422" lon="6.84867">
        <ele>1381</ele>
        <time>2000-01-01T06:52:17.000Z</time>
      </trkpt>
      <trkpt lat="46.24421" lon="6.84889">
        <ele>1380.6</ele>
        <time>2000-01-01T06:52:27.000Z</time>
      </trkpt>
      <trkpt lat="46.24412" lon="6.84916">
        <ele>1381</ele>
        <time>2000-01-01T06:52:37.000Z</time>
      </trkpt>
      <trkpt lat="46.2439" lon="6.84944">
        <ele>1380</ele>
        <time>2000-01-01T06:52:47.000Z</time>
      </trkpt>
      <trkpt lat="46.24371" lon="6.84964">
        <ele>1380</ele>
        <time>2000-01-01T06:52:57.000Z</time>
      </trkpt>
      <trkpt lat="46.24352" lon="6.84985">
        <ele>1382</ele>
        <time>2000-01-01T06:53:07.000Z</time>
      </trkpt>
      <trkpt lat="46.24328" lon="6.85028">
        <ele>1382</ele>
        <time>2000-01-01T06:53:17.000Z</time>
      </trkpt>
      <trkpt lat="46.24319" lon="6.85035">
        <ele>1379.6</ele>
        <time>2000-01-01T06:53:27.000Z</time>
      </trkpt>
      <trkpt lat="46.24297" lon="6.85047">
        <ele>1382</ele>
        <time>2000-01-01T06:53:37.000Z</time>
      </trkpt>
      <trkpt lat="46.2429" lon="6.85044">
        <ele>1380.6</ele>
        <time>2000-01-01T06:53:47.000Z</time>
      </trkpt>
      <trkpt lat="46.24246" lon="6.85055">
        <ele>1382</ele>
        <time>2000-01-01T06:53:57.000Z</time>
      </trkpt>
      <trkpt lat="46.242" lon="6.85051">
        <ele>1385</ele>
        <time>2000-01-01T06:54:07.000Z</time>
      </trkpt>
      <trkpt lat="46.2417" lon="6.8504">
        <ele>1388</ele>
        <time>2000-01-01T06:54:17.000Z</time>
      </trkpt>
      <trkpt lat="46.24144" lon="6.85013">
        <ele>1390</ele>
        <time>2000-01-01T06:54:27.000Z</time>
      </trkpt>
      <trkpt lat="46.24121" lon="6.84998">
        <ele>1389</ele>
        <time>2000-01-01T06:54:37.000Z</time>
      </trkpt>
      <trkpt lat="46.24119" lon="6.8499">
        <ele>1391.8</ele>
        <time>2000-01-01T06:54:47.000Z</time>
      </trkpt>
      <trkpt lat="46.24106" lon="6.84981">
        <ele>1389</ele>
        <time>2000-01-01T06:54:57.000Z</time>
      </trkpt>
      <trkpt lat="46.24081" lon="6.84958">
        <ele>1389</ele>
        <time>2000-01-01T06:55:07.000Z</time>
      </trkpt>
      <trkpt lat="46.24055" lon="6.84951">
        <ele>1383</ele>
        <time>2000-01-01T06:55:17.000Z</time>
      </trkpt>
      <trkpt lat="46.24019" lon="6.84941">
        <ele>1381</ele>
        <time>2000-01-01T06:55:27.000Z</time>
      </trkpt>
      <trkpt lat="46.23992" lon="6.84938">
        <ele>810</ele>
        <time>2000-01-01T06:55:37.000Z</time>
      </trkpt>
      <trkpt lat="46.23967" lon="6.84942">
        <ele>1092</ele>
        <time>2000-01-01T06:55:47.000Z</time>
      </trkpt>
      <trkpt lat="46.2394" lon="6.84947">
        <ele>1375.6</ele>
        <time>2000-01-01T06:55:57.000Z</time>
      </trkpt>
      <trkpt lat="46.23926" lon="6.84936">
        <ele>1377.3</ele>
        <time>2000-01-01T06:56:07.000Z</time>
      </trkpt>
      <trkpt lat="46.23906" lon="6.84911">
        <ele>1380</ele>
        <time>2000-01-01T06:56:17.000Z</time>
      </trkpt>
      <trkpt lat="46.23887" lon="6.84898">
        <ele>1380.6</ele>
        <time>2000-01-01T06:56:27.000Z</time>
      </trkpt>
      <trkpt lat="46.23857" lon="6.84884">
        <ele>1380.7</ele>
        <time>2000-01-01T06:56:37.000Z</time>
      </trkpt>
      <trkpt lat="46.23847" lon="6.84882">
        <ele>1380.6</ele>
        <time>2000-01-01T06:56:47.000Z</time>
      </trkpt>
      <trkpt lat="46.23837" lon="6.84886">
        <ele>1379</ele>
        <time>2000-01-01T06:56:57.000Z</time>
      </trkpt>
      <trkpt lat="46.23812" lon="6.84889">
        <ele>1379</ele>
        <time>2000-01-01T06:57:07.000Z</time>
      </trkpt>
      <trkpt lat="46.23781" lon="6.84892">
        <ele>1375</ele>
        <time>2000-01-01T06:57:17.000Z</time>
      </trkpt>
      <trkpt lat="46.23759" lon="6.84906">
        <ele>1373</ele>
        <time>2000-01-01T06:57:27.000Z</time>
      </trkpt>
      <trkpt lat="46.23734" lon="6.8492">
        <ele>1370</ele>
        <time>2000-01-01T06:57:37.000Z</time>
      </trkpt>
      <trkpt lat="46.23704" lon="6.84915">
        <ele>1370</ele>
        <time>2000-01-01T06:57:47.000Z</time>
      </trkpt>
      <trkpt lat="46.23669" lon="6.84902">
        <ele>1368</ele>
        <time>2000-01-01T06:57:57.000Z</time>
      </trkpt>
      <trkpt lat="46.2365" lon="6.84898">
        <ele>1366</ele>
        <time>2000-01-01T06:58:07.000Z</time>
      </trkpt>
      <trkpt lat="46.23645" lon="6.84901">
        <ele>1363.9</ele>
        <time>2000-01-01T06:58:17.000Z</time>
      </trkpt>
      <trkpt lat="46.2363" lon="6.84892">
        <ele>1363</ele>
        <time>2000-01-01T06:58:27.000Z</time>
      </trkpt>
      <trkpt lat="46.23611" lon="6.84866">
        <ele>1363</ele>
        <time>2000-01-01T06:58:37.000Z</time>
      </trkpt>
      <trkpt lat="46.23599" lon="6.84855">
        <ele>1362.5</ele>
        <time>2000-01-01T06:58:47.000Z</time>
      </trkpt>
      <trkpt lat="46.23571" lon="6.84839">
        <ele>1360</ele>
        <time>2000-01-01T06:58:57.000Z</time>
      </trkpt>
      <trkpt lat="46.23546" lon="6.84822">
        <ele>1356</ele>
        <time>2000-01-01T06:59:07.000Z</time>
      </trkpt>
      <trkpt lat="46.2351" lon="6.84797">
        <ele>1353</ele>
        <time>2000-01-01T06:59:17.000Z</time>
      </trkpt>
      <trkpt lat="46.23515" lon="6.84829">
        <ele>1352</ele>
        <time>2000-01-01T06:59:27.000Z</time>
      </trkpt>
      <trkpt lat="46.23515" lon="6.84843">
        <ele>1352.2</ele>
        <time>2000-01-01T06:59:37.000Z</time>
      </trkpt>
      <trkpt lat="46.2351" lon="6.84848">
        <ele>1351.3</ele>
        <time>2000-01-01T06:59:47.000Z</time>
      </trkpt>
      <trkpt lat="46.23532" lon="6.84906">
        <ele>1349</ele>
        <time>2000-01-01T06:59:57.000Z</time>
      </trkpt>
      <trkpt lat="46.2351" lon="6.84898">
        <ele>1345</ele>
        <time>2000-01-01T07:00:07.000Z</time>
      </trkpt>
      <trkpt lat="46.23486" lon="6.84867">
        <ele>1343</ele>
        <time>2000-01-01T07:00:17.000Z</time>
      </trkpt>
      <trkpt lat="46.23474" lon="6.84859">
        <ele>1342.7</ele>
        <time>2000-01-01T07:00:27.000Z</time>
      </trkpt>
      <trkpt lat="46.23462" lon="6.84842">
        <ele>1340</ele>
        <time>2000-01-01T07:00:37.000Z</time>
      </trkpt>
      <trkpt lat="46.23464" lon="6.84908">
        <ele>1334</ele>
        <time>2000-01-01T07:00:47.000Z</time>
      </trkpt>
      <trkpt lat="46.23468" lon="6.84922">
        <ele>1333</ele>
        <time>2000-01-01T07:00:57.000Z</time>
      </trkpt>
      <trkpt lat="46.23469" lon="6.84937">
        <ele>1334</ele>
        <time>2000-01-01T07:01:07.000Z</time>
      </trkpt>
      <trkpt lat="46.23473" lon="6.84942">
        <ele>1333</ele>
        <time>2000-01-01T07:01:17.000Z</time>
      </trkpt>
      <trkpt lat="46.23484" lon="6.84947">
        <ele>1332.2</ele>
        <time>2000-01-01T07:01:27.000Z</time>
      </trkpt>
      <trkpt lat="46.23489" lon="6.84971">
        <ele>1334</ele>
        <time>2000-01-01T07:01:37.000Z</time>
      </trkpt>
      <trkpt lat="46.23476" lon="6.84983">
        <ele>1334.3</ele>
        <time>2000-01-01T07:01:47.000Z</time>
      </trkpt>
      <trkpt lat="46.23473" lon="6.84999">
        <ele>1335</ele>
        <time>2000-01-01T07:01:57.000Z</time>
      </trkpt>
      <trkpt lat="46.2348" lon="6.8504">
        <ele>1335</ele>
        <time>2000-01-01T07:02:07.000Z</time>
      </trkpt>
      <trkpt lat="46.23491" lon="6.85108">
        <ele>1335</ele>
        <time>2000-01-01T07:02:17.000Z</time>
      </trkpt>
      <trkpt lat="46.23501" lon="6.8513">
        <ele>1334.1</ele>
        <time>2000-01-01T07:02:27.000Z</time>
      </trkpt>
      <trkpt lat="46.23509" lon="6.85158">
        <ele>1334.1</ele>
        <time>2000-01-01T07:02:37.000Z</time>
      </trkpt>
      <trkpt lat="46.23511" lon="6.85155">
        <ele>1333.4</ele>
        <time>2000-01-01T07:02:47.000Z</time>
      </trkpt>
      <trkpt lat="46.23514" lon="6.85158">
        <ele>1332.8</ele>
        <time>2000-01-01T07:02:57.000Z</time>
      </trkpt>
      <trkpt lat="46.2356" lon="6.8529">
        <ele>1325.1</ele>
        <time>2000-01-01T07:03:07.000Z</time>
      </trkpt>
      <trkpt lat="46.23571" lon="6.85329">
        <ele>1324.2</ele>
        <time>2000-01-01T07:03:17.000Z</time>
      </trkpt>
      <trkpt lat="46.2359" lon="6.85396">
        <ele>1322.4</ele>
        <time>2000-01-01T07:03:27.000Z</time>
      </trkpt>
      <trkpt lat="46.23601" lon="6.85426">
        <ele>1322.2</ele>
        <time>2000-01-01T07:03:37.000Z</time>
      </trkpt>
      <trkpt lat="46.23616" lon="6.85453">
        <ele>666</ele>
        <time>2000-01-01T07:03:47.000Z</time>
      </trkpt>
      <trkpt lat="46.2362" lon="6.85474">
        <ele>1321.3</ele>
        <time>2000-01-01T07:03:57.000Z</time>
      </trkpt>
      <trkpt lat="46.23629" lon="6.85587">
        <ele>997</ele>
        <time>2000-01-01T07:04:07.000Z</time>
      </trkpt>
      <trkpt lat="46.23635" lon="6.8562">
        <ele>1161</ele>
        <time>2000-01-01T07:04:17.000Z</time>
      </trkpt>
      <trkpt lat="46.23641" lon="6.85654">
        <ele>1325</ele>
        <time>2000-01-01T07:04:27.000Z</time>
      </trkpt>
      <trkpt lat="46.2364" lon="6.85679">
        <ele>1316.3</ele>
        <time>2000-01-01T07:04:37.000Z</time>
      </trkpt>
      <trkpt lat="46.23633" lon="6.85703">
        <ele>1327</ele>
        <time>2000-01-01T07:04:47.000Z</time>
      </trkpt>
      <trkpt lat="46.23625" lon="6.85765">
        <ele>1329</ele>
        <time>2000-01-01T07:04:57.000Z</time>
      </trkpt>
      <trkpt lat="46.2362" lon="6.8577">
        <ele>1321.7</ele>
        <time>2000-01-01T07:05:07.000Z</time>
      </trkpt>
      <trkpt lat="46.23623" lon="6.85779">
        <ele>1320.8</ele>
        <time>2000-01-01T07:05:17.000Z</time>
      </trkpt>
      <trkpt lat="46.23623" lon="6.85812">
        <ele>1329</ele>
        <time>2000-01-01T07:05:27.000Z</time>
      </trkpt>
      <trkpt lat="46.23623" lon="6.85779">
        <ele>1329</ele>
        <time>2000-01-01T07:05:37.000Z</time>
      </trkpt>
      <trkpt lat="46.2362" lon="6.8577">
        <ele>1321.7</ele>
        <time>2000-01-01T07:05:47.000Z</time>
      </trkpt>
      <trkpt lat="46.23625" lon="6.85765">
        <ele>1320.7</ele>
        <time>2000-01-01T07:05:57.000Z</time>
      </trkpt>
      <trkpt lat="46.23633" lon="6.85703">
        <ele>1327</ele>
        <time>2000-01-01T07:06:07.000Z</time>
      </trkpt>
      <trkpt lat="46.2364" lon="6.85679">
        <ele>1316.3</ele>
        <time>2000-01-01T07:06:17.000Z</time>
      </trkpt>
      <trkpt lat="46.23649" lon="6.85678">
        <ele>1324</ele>
        <time>2000-01-01T07:06:27.000Z</time>
      </trkpt>
      <trkpt lat="46.23666" lon="6.85681">
        <ele>1313.1</ele>
        <time>2000-01-01T07:06:37.000Z</time>
      </trkpt>
      <trkpt lat="46.23665" lon="6.85696">
        <ele>1320</ele>
        <time>2000-01-01T07:06:47.000Z</time>
      </trkpt>
      <trkpt lat="46.23668" lon="6.85706">
        <ele>1312.5</ele>
        <time>2000-01-01T07:06:57.000Z</time>
      </trkpt>
      <trkpt lat="46.23696" lon="6.85709">
        <ele>1317</ele>
        <time>2000-01-01T07:07:07.000Z</time>
      </trkpt>
      <trkpt lat="46.23698" lon="6.85704">
        <ele>1311.7</ele>
        <time>2000-01-01T07:07:17.000Z</time>
      </trkpt>
      <trkpt lat="46.23707" lon="6.85706">
        <ele>1311.6</ele>
        <time>2000-01-01T07:07:27.000Z</time>
      </trkpt>
      <trkpt lat="46.23703" lon="6.85739">
        <ele>1316</ele>
        <time>2000-01-01T07:07:37.000Z</time>
      </trkpt>
      <trkpt lat="46.237" lon="6.85773">
        <ele>1316</ele>
        <time>2000-01-01T07:07:47.000Z</time>
      </trkpt>
      <trkpt lat="46.23697" lon="6.85815">
        <ele>1316</ele>
        <time>2000-01-01T07:07:57.000Z</time>
      </trkpt>
      <trkpt lat="46.23659" lon="6.85825">
        <ele>1322</ele>
        <time>2000-01-01T07:08:07.000Z</time>
      </trkpt>
      <trkpt lat="46.23621" lon="6.85835">
        <ele>1330</ele>
        <time>2000-01-01T07:08:17.000Z</time>
      </trkpt>
      <trkpt lat="46.23583" lon="6.85844">
        <ele>1340</ele>
        <time>2000-01-01T07:08:27.000Z</time>
      </trkpt>
      <trkpt lat="46.23545" lon="6.85854">
        <ele>1368</ele>
        <time>2000-01-01T07:08:37.000Z</time>
      </trkpt>
      <trkpt lat="46.23477" lon="6.85872">
        <ele>1412</ele>
        <time>2000-01-01T07:08:47.000Z</time>
      </trkpt>
      <trkpt lat="46.23447" lon="6.8588">
        <ele>1432</ele>
        <time>2000-01-01T07:08:57.000Z</time>
      </trkpt>
      <trkpt lat="46.23389" lon="6.85896">
        <ele>1475</ele>
        <time>2000-01-01T07:09:07.000Z</time>
      </trkpt>
      <trkpt lat="46.23351" lon="6.85906">
        <ele>1494</ele>
        <time>2000-01-01T07:09:17.000Z</time>
      </trkpt>
      <trkpt lat="46.23313" lon="6.85916">
        <ele>1520</ele>
        <time>2000-01-01T07:09:27.000Z</time>
      </trkpt>
      <trkpt lat="46.23275" lon="6.85925">
        <ele>1543</ele>
        <time>2000-01-01T07:09:37.000Z</time>
      </trkpt>
      <trkpt lat="46.23237" lon="6.85935">
        <ele>1562</ele>
        <time>2000-01-01T07:09:47.000Z</time>
      </trkpt>
      <trkpt lat="46.23169" lon="6.85953">
        <ele>1589</ele>
        <time>2000-01-01T07:09:57.000Z</time>
      </trkpt>
      <trkpt lat="46.23139" lon="6.85961">
        <ele>1597</ele>
        <time>2000-01-01T07:10:07.000Z</time>
      </trkpt>
      <trkpt lat="46.23081" lon="6.85977">
        <ele>1613</ele>
        <time>2000-01-01T07:10:17.000Z</time>
      </trkpt>
      <trkpt lat="46.23043" lon="6.85987">
        <ele>1628</ele>
        <time>2000-01-01T07:10:27.000Z</time>
      </trkpt>
      <trkpt lat="46.23005" lon="6.85997">
        <ele>1643</ele>
        <time>2000-01-01T07:10:37.000Z</time>
      </trkpt>
      <trkpt lat="46.22967" lon="6.86006">
        <ele>1659</ele>
        <time>2000-01-01T07:10:47.000Z</time>
      </trkpt>
      <trkpt lat="46.22929" lon="6.86016">
        <ele>1672</ele>
        <time>2000-01-01T07:10:57.000Z</time>
      </trkpt>
      <trkpt lat="46.22861" lon="6.86034">
        <ele>1686</ele>
        <time>2000-01-01T07:11:07.000Z</time>
      </trkpt>
      <trkpt lat="46.22831" lon="6.86042">
        <ele>1692</ele>
        <time>2000-01-01T07:11:17.000Z</time>
      </trkpt>
      <trkpt lat="46.22773" lon="6.86058">
        <ele>1711</ele>
        <time>2000-01-01T07:11:27.000Z</time>
      </trkpt>
      <trkpt lat="46.22738" lon="6.86067">
        <ele>1725</ele>
        <time>2000-01-01T07:11:37.000Z</time>
      </trkpt>
      <trkpt lat="46.22702" lon="6.86076">
        <ele>1740</ele>
        <time>2000-01-01T07:11:47.000Z</time>
      </trkpt>
      <trkpt lat="46.22667" lon="6.86085">
        <ele>1758</ele>
        <time>2000-01-01T07:11:57.000Z</time>
      </trkpt>
      <trkpt lat="46.22617" lon="6.86098">
        <ele>1773</ele>
        <time>2000-01-01T07:12:07.000Z</time>
      </trkpt>
      <trkpt lat="46.22594" lon="6.86105">
        <ele>1781</ele>
        <time>2000-01-01T07:12:17.000Z</time>
      </trkpt>
      <trkpt lat="46.22563" lon="6.86117">
        <ele>1793</ele>
        <time>2000-01-01T07:12:27.000Z</time>
      </trkpt>
      <trkpt lat="46.22533" lon="6.8613">
        <ele>1801</ele>
        <time>2000-01-01T07:12:37.000Z</time>
      </trkpt>
      <trkpt lat="46.22497" lon="6.86144">
        <ele>1804</ele>
        <time>2000-01-01T07:12:47.000Z</time>
      </trkpt>
      <trkpt lat="46.22485" lon="6.86126">
        <ele>1814.1</ele>
        <time>2000-01-01T07:12:57.000Z</time>
      </trkpt>
      <trkpt lat="46.2246" lon="6.8615">
        <ele>1805</ele>
        <time>2000-01-01T07:13:07.000Z</time>
      </trkpt>
      <trkpt lat="46.2244" lon="6.86161">
        <ele>1802</ele>
        <time>2000-01-01T07:13:17.000Z</time>
      </trkpt>
      <trkpt lat="46.22416" lon="6.86182">
        <ele>1800</ele>
        <time>2000-01-01T07:13:27.000Z</time>
      </trkpt>
      <trkpt lat="46.22395" lon="6.86184">
        <ele>1797</ele>
        <time>2000-01-01T07:13:37.000Z</time>
      </trkpt>
      <trkpt lat="46.22362" lon="6.86181">
        <ele>1790</ele>
        <time>2000-01-01T07:13:47.000Z</time>
      </trkpt>
      <trkpt lat="46.22344" lon="6.86176">
        <ele>1788.4</ele>
        <time>2000-01-01T07:13:57.000Z</time>
      </trkpt>
      <trkpt lat="46.22324" lon="6.86166">
        <ele>1787</ele>
        <time>2000-01-01T07:14:07.000Z</time>
      </trkpt>
      <trkpt lat="46.22298" lon="6.8617">
        <ele>1779</ele>
        <time>2000-01-01T07:14:17.000Z</time>
      </trkpt>
      <trkpt lat="46.22274" lon="6.86186">
        <ele>1771</ele>
        <time>2000-01-01T07:14:27.000Z</time>
      </trkpt>
      <trkpt lat="46.22256" lon="6.86194">
        <ele>1766</ele>
        <time>2000-01-01T07:14:37.000Z</time>
      </trkpt>
      <trkpt lat="46.22232" lon="6.8619">
        <ele>1762</ele>
        <time>2000-01-01T07:14:47.000Z</time>
      </trkpt>
      <trkpt lat="46.22206" lon="6.86186">
        <ele>1756</ele>
        <time>2000-01-01T07:14:57.000Z</time>
      </trkpt>
      <trkpt lat="46.22178" lon="6.86196">
        <ele>1746</ele>
        <time>2000-01-01T07:15:07.000Z</time>
      </trkpt>
      <trkpt lat="46.22143" lon="6.86228">
        <ele>1734</ele>
        <time>2000-01-01T07:15:17.000Z</time>
      </trkpt>
      <trkpt lat="46.22139" lon="6.8623">
        <ele>1736.6</ele>
        <time>2000-01-01T07:15:27.000Z</time>
      </trkpt>
      <trkpt lat="46.22133" lon="6.86223">
        <ele>1735.5</ele>
        <time>2000-01-01T07:15:37.000Z</time>
      </trkpt>
      <trkpt lat="46.22127" lon="6.86203">
        <ele>1733</ele>
        <time>2000-01-01T07:15:47.000Z</time>
      </trkpt>
      <trkpt lat="46.22118" lon="6.86183">
        <ele>1731.4</ele>
        <time>2000-01-01T07:15:57.000Z</time>
      </trkpt>
      <trkpt lat="46.22101" lon="6.86175">
        <ele>1732</ele>
        <time>2000-01-01T07:16:07.000Z</time>
      </trkpt>
      <trkpt lat="46.22077" lon="6.86171">
        <ele>1731</ele>
        <time>2000-01-01T07:16:17.000Z</time>
      </trkpt>
      <trkpt lat="46.22071" lon="6.86124">
        <ele>1732</ele>
        <time>2000-01-01T07:16:27.000Z</time>
      </trkpt>
      <trkpt lat="46.22071" lon="6.86091">
        <ele>1733</ele>
        <time>2000-01-01T07:16:37.000Z</time>
      </trkpt>
      <trkpt lat="46.22068" lon="6.8608">
        <ele>1728.7</ele>
        <time>2000-01-01T07:16:47.000Z</time>
      </trkpt>
      <trkpt lat="46.22049" lon="6.86049">
        <ele>1734</ele>
        <time>2000-01-01T07:16:57.000Z</time>
      </trkpt>
      <trkpt lat="46.2203" lon="6.86024">
        <ele>1735</ele>
        <time>2000-01-01T07:17:07.000Z</time>
      </trkpt>
      <trkpt lat="46.22022" lon="6.86005">
        <ele>1731.3</ele>
        <time>2000-01-01T07:17:17.000Z</time>
      </trkpt>
      <trkpt lat="46.2201" lon="6.85964">
        <ele>1736</ele>
        <time>2000-01-01T07:17:27.000Z</time>
      </trkpt>
      <trkpt lat="46.21986" lon="6.85949">
        <ele>1738</ele>
        <time>2000-01-01T07:17:37.000Z</time>
      </trkpt>
      <trkpt lat="46.21954" lon="6.85929">
        <ele>1737</ele>
        <time>2000-01-01T07:17:47.000Z</time>
      </trkpt>
      <trkpt lat="46.21939" lon="6.85926">
        <ele>1732.6</ele>
        <time>2000-01-01T07:17:57.000Z</time>
      </trkpt>
      <trkpt lat="46.21926" lon="6.85934">
        <ele>1736</ele>
        <time>2000-01-01T07:18:07.000Z</time>
      </trkpt>
      <trkpt lat="46.21893" lon="6.85942">
        <ele>1737</ele>
        <time>2000-01-01T07:18:17.000Z</time>
      </trkpt>
      <trkpt lat="46.21853" lon="6.85944">
        <ele>1738</ele>
        <time>2000-01-01T07:18:27.000Z</time>
      </trkpt>
      <trkpt lat="46.21824" lon="6.85953">
        <ele>1739</ele>
        <time>2000-01-01T07:18:37.000Z</time>
      </trkpt>
      <trkpt lat="46.21799" lon="6.85968">
        <ele>1739</ele>
        <time>2000-01-01T07:18:47.000Z</time>
      </trkpt>
      <trkpt lat="46.21788" lon="6.85983">
        <ele>1736</ele>
        <time>2000-01-01T07:18:57.000Z</time>
      </trkpt>
      <trkpt lat="46.21781" lon="6.85994">
        <ele>1737</ele>
        <time>2000-01-01T07:19:07.000Z</time>
      </trkpt>
      <trkpt lat="46.21773" lon="6.8603">
        <ele>1736</ele>
        <time>2000-01-01T07:19:17.000Z</time>
      </trkpt>
      <trkpt lat="46.21769" lon="6.86039">
        <ele>1736.5</ele>
        <time>2000-01-01T07:19:27.000Z</time>
      </trkpt>
      <trkpt lat="46.21747" lon="6.86062">
        <ele>1736</ele>
        <time>2000-01-01T07:19:37.000Z</time>
      </trkpt>
      <trkpt lat="46.21729" lon="6.8609">
        <ele>1734</ele>
        <time>2000-01-01T07:19:47.000Z</time>
      </trkpt>
      <trkpt lat="46.21704" lon="6.86126">
        <ele>1735</ele>
        <time>2000-01-01T07:19:57.000Z</time>
      </trkpt>
      <trkpt lat="46.21669" lon="6.86088">
        <ele>1736</ele>
        <time>2000-01-01T07:20:07.000Z</time>
      </trkpt>
      <trkpt lat="46.21647" lon="6.86071">
        <ele>1736</ele>
        <time>2000-01-01T07:20:17.000Z</time>
      </trkpt>
      <trkpt lat="46.21636" lon="6.86055">
        <ele>1738.4</ele>
        <time>2000-01-01T07:20:27.000Z</time>
      </trkpt>
      <trkpt lat="46.21575" lon="6.85957">
        <ele>1747</ele>
        <time>2000-01-01T07:20:37.000Z</time>
      </trkpt>
      <trkpt lat="46.21552" lon="6.85924">
        <ele>1748</ele>
        <time>2000-01-01T07:20:47.000Z</time>
      </trkpt>
      <trkpt lat="46.2154" lon="6.85878">
        <ele>1751</ele>
        <time>2000-01-01T07:20:57.000Z</time>
      </trkpt>
      <trkpt lat="46.21522" lon="6.85836">
        <ele>1751</ele>
        <time>2000-01-01T07:21:07.000Z</time>
      </trkpt>
      <trkpt lat="46.21499" lon="6.85802">
        <ele>1752</ele>
        <time>2000-01-01T07:21:17.000Z</time>
      </trkpt>
      <trkpt lat="46.21477" lon="6.85768">
        <ele>1752</ele>
        <time>2000-01-01T07:21:27.000Z</time>
      </trkpt>
      <trkpt lat="46.21447" lon="6.85724">
        <ele>1753</ele>
        <time>2000-01-01T07:21:37.000Z</time>
      </trkpt>
      <trkpt lat="46.21416" lon="6.85682">
        <ele>1753</ele>
        <time>2000-01-01T07:21:47.000Z</time>
      </trkpt>
      <trkpt lat="46.21392" lon="6.85661">
        <ele>1752</ele>
        <time>2000-01-01T07:21:57.000Z</time>
      </trkpt>
      <trkpt lat="46.21356" lon="6.8563">
        <ele>1751</ele>
        <time>2000-01-01T07:22:07.000Z</time>
      </trkpt>
      <trkpt lat="46.21328" lon="6.85582">
        <ele>1751</ele>
        <time>2000-01-01T07:22:17.000Z</time>
      </trkpt>
      <trkpt lat="46.21306" lon="6.85564">
        <ele>1748</ele>
        <time>2000-01-01T07:22:27.000Z</time>
      </trkpt>
      <trkpt lat="46.21283" lon="6.85544">
        <ele>1748</ele>
        <time>2000-01-01T07:22:37.000Z</time>
      </trkpt>
      <trkpt lat="46.21275" lon="6.85535">
        <ele>1749</ele>
        <time>2000-01-01T07:22:47.000Z</time>
      </trkpt>
      <trkpt lat="46.21265" lon="6.85513">
        <ele>1749</ele>
        <time>2000-01-01T07:22:57.000Z</time>
      </trkpt>
      <trkpt lat="46.21249" lon="6.85488">
        <ele>1749</ele>
        <time>2000-01-01T07:23:07.000Z</time>
      </trkpt>
      <trkpt lat="46.21231" lon="6.85462">
        <ele>1748</ele>
        <time>2000-01-01T07:23:17.000Z</time>
      </trkpt>
      <trkpt lat="46.21207" lon="6.85442">
        <ele>1747</ele>
        <time>2000-01-01T07:23:27.000Z</time>
      </trkpt>
      <trkpt lat="46.21196" lon="6.85426">
        <ele>1747.5</ele>
        <time>2000-01-01T07:23:37.000Z</time>
      </trkpt>
      <trkpt lat="46.21176" lon="6.85418">
        <ele>1747</ele>
        <time>2000-01-01T07:23:47.000Z</time>
      </trkpt>
      <trkpt lat="46.21161" lon="6.85404">
        <ele>1740.3</ele>
        <time>2000-01-01T07:23:57.000Z</time>
      </trkpt>
      <trkpt lat="46.21147" lon="6.85382">
        <ele>1743</ele>
        <time>2000-01-01T07:24:07.000Z</time>
      </trkpt>
      <trkpt lat="46.21129" lon="6.85364">
        <ele>1743</ele>
        <time>2000-01-01T07:24:17.000Z</time>
      </trkpt>
      <trkpt lat="46.21124" lon="6.85355">
        <ele>1735.4</ele>
        <time>2000-01-01T07:24:27.000Z</time>
      </trkpt>
      <trkpt lat="46.21118" lon="6.85335">
        <ele>1738</ele>
        <time>2000-01-01T07:24:37.000Z</time>
      </trkpt>
      <trkpt lat="46.21116" lon="6.85332">
        <ele>1736.2</ele>
        <time>2000-01-01T07:24:47.000Z</time>
      </trkpt>
      <trkpt lat="46.21112" lon="6.85333">
        <ele>1733.6</ele>
        <time>2000-01-01T07:24:57.000Z</time>
      </trkpt>
      <trkpt lat="46.2111" lon="6.85336">
        <ele>1732.1</ele>
        <time>2000-01-01T07:25:07.000Z</time>
      </trkpt>
      <trkpt lat="46.21127" lon="6.85406">
        <ele>1734</ele>
        <time>2000-01-01T07:25:17.000Z</time>
      </trkpt>
      <trkpt lat="46.21136" lon="6.85429">
        <ele>1726.1</ele>
        <time>2000-01-01T07:25:27.000Z</time>
      </trkpt>
      <trkpt lat="46.21136" lon="6.85455">
        <ele>1728</ele>
        <time>2000-01-01T07:25:37.000Z</time>
      </trkpt>
      <trkpt lat="46.21135" lon="6.85458">
        <ele>1722.5</ele>
        <time>2000-01-01T07:25:47.000Z</time>
      </trkpt>
      <trkpt lat="46.2113" lon="6.85466">
        <ele>1721.4</ele>
        <time>2000-01-01T07:25:57.000Z</time>
      </trkpt>
      <trkpt lat="46.2111" lon="6.8548">
        <ele>1720</ele>
        <time>2000-01-01T07:26:07.000Z</time>
      </trkpt>
      <trkpt lat="46.21089" lon="6.855">
        <ele>1712</ele>
        <time>2000-01-01T07:26:17.000Z</time>
      </trkpt>
      <trkpt lat="46.21067" lon="6.85523">
        <ele>1710</ele>
        <time>2000-01-01T07:26:27.000Z</time>
      </trkpt>
      <trkpt lat="46.21042" lon="6.85543">
        <ele>1708</ele>
        <time>2000-01-01T07:26:37.000Z</time>
      </trkpt>
      <trkpt lat="46.21003" lon="6.85574">
        <ele>1705</ele>
        <time>2000-01-01T07:26:47.000Z</time>
      </trkpt>
      <trkpt lat="46.20981" lon="6.85603">
        <ele>1703</ele>
        <time>2000-01-01T07:26:57.000Z</time>
      </trkpt>
      <trkpt lat="46.2096" lon="6.85639">
        <ele>1700</ele>
        <time>2000-01-01T07:27:07.000Z</time>
      </trkpt>
      <trkpt lat="46.20939" lon="6.85656">
        <ele>1697</ele>
        <time>2000-01-01T07:27:17.000Z</time>
      </trkpt>
      <trkpt lat="46.20918" lon="6.85673">
        <ele>1697</ele>
        <time>2000-01-01T07:27:27.000Z</time>
      </trkpt>
      <trkpt lat="46.20909" lon="6.85676">
        <ele>1695</ele>
        <time>2000-01-01T07:27:37.000Z</time>
      </trkpt>
      <trkpt lat="46.20893" lon="6.85674">
        <ele>1697</ele>
        <time>2000-01-01T07:27:47.000Z</time>
      </trkpt>
      <trkpt lat="46.2088" lon="6.85659">
        <ele>1694.5</ele>
        <time>2000-01-01T07:27:57.000Z</time>
      </trkpt>
      <trkpt lat="46.20865" lon="6.85636">
        <ele>1697</ele>
        <time>2000-01-01T07:28:07.000Z</time>
      </trkpt>
      <trkpt lat="46.20859" lon="6.85633">
        <ele>1693.7</ele>
        <time>2000-01-01T07:28:17.000Z</time>
      </trkpt>
      <trkpt lat="46.20846" lon="6.85633">
        <ele>1698</ele>
        <time>2000-01-01T07:28:27.000Z</time>
      </trkpt>
      <trkpt lat="46.20833" lon="6.85647">
        <ele>1691.8</ele>
        <time>2000-01-01T07:28:37.000Z</time>
      </trkpt>
      <trkpt lat="46.2082" lon="6.85669">
        <ele>1700</ele>
        <time>2000-01-01T07:28:47.000Z</time>
      </trkpt>
      <trkpt lat="46.20789" lon="6.8571">
        <ele>1705</ele>
        <time>2000-01-01T07:28:57.000Z</time>
      </trkpt>
      <trkpt lat="46.20753" lon="6.85751">
        <ele>1705</ele>
        <time>2000-01-01T07:29:07.000Z</time>
      </trkpt>
      <trkpt lat="46.20729" lon="6.85759">
        <ele>1707</ele>
        <time>2000-01-01T07:29:17.000Z</time>
      </trkpt>
      <trkpt lat="46.20704" lon="6.85767">
        <ele>1707</ele>
        <time>2000-01-01T07:29:27.000Z</time>
      </trkpt>
      <trkpt lat="46.20682" lon="6.85784">
        <ele>1706</ele>
        <time>2000-01-01T07:29:37.000Z</time>
      </trkpt>
      <trkpt lat="46.20669" lon="6.85802">
        <ele>1705.2</ele>
        <time>2000-01-01T07:29:47.000Z</time>
      </trkpt>
      <trkpt lat="46.20654" lon="6.85837">
        <ele>1704</ele>
        <time>2000-01-01T07:29:57.000Z</time>
      </trkpt>
      <trkpt lat="46.20643" lon="6.85842">
        <ele>1701.8</ele>
        <time>2000-01-01T07:30:07.000Z</time>
      </trkpt>
      <trkpt lat="46.20605" lon="6.85841">
        <ele>1703</ele>
        <time>2000-01-01T07:30:17.000Z</time>
      </trkpt>
      <trkpt lat="46.20602" lon="6.85847">
        <ele>1701.4</ele>
        <time>2000-01-01T07:30:27.000Z</time>
      </trkpt>
      <trkpt lat="46.20596" lon="6.8585">
        <ele>1700.2</ele>
        <time>2000-01-01T07:30:37.000Z</time>
      </trkpt>
      <trkpt lat="46.2056" lon="6.85846">
        <ele>1700</ele>
        <time>2000-01-01T07:30:47.000Z</time>
      </trkpt>
      <trkpt lat="46.2055" lon="6.85853">
        <ele>1694.9</ele>
        <time>2000-01-01T07:30:57.000Z</time>
      </trkpt>
      <trkpt lat="46.20546" lon="6.85862">
        <ele>1692.2</ele>
        <time>2000-01-01T07:31:07.000Z</time>
      </trkpt>
      <trkpt lat="46.20563" lon="6.85867">
        <ele>1695</ele>
        <time>2000-01-01T07:31:17.000Z</time>
      </trkpt>
      <trkpt lat="46.20571" lon="6.85873">
        <ele>1689.7</ele>
        <time>2000-01-01T07:31:27.000Z</time>
      </trkpt>
      <trkpt lat="46.2059" lon="6.85896">
        <ele>1691</ele>
        <time>2000-01-01T07:31:37.000Z</time>
      </trkpt>
      <trkpt lat="46.20585" lon="6.85898">
        <ele>1682.9</ele>
        <time>2000-01-01T07:31:47.000Z</time>
      </trkpt>
      <trkpt lat="46.20599" lon="6.85901">
        <ele>1687</ele>
        <time>2000-01-01T07:31:57.000Z</time>
      </trkpt>
      <trkpt lat="46.20623" lon="6.85909">
        <ele>1686</ele>
        <time>2000-01-01T07:32:07.000Z</time>
      </trkpt>
      <trkpt lat="46.20649" lon="6.85918">
        <ele>1684</ele>
        <time>2000-01-01T07:32:17.000Z</time>
      </trkpt>
      <trkpt lat="46.2066" lon="6.85919">
        <ele>1674.8</ele>
        <time>2000-01-01T07:32:27.000Z</time>
      </trkpt>
      <trkpt lat="46.20702" lon="6.85934">
        <ele>1678</ele>
        <time>2000-01-01T07:32:37.000Z</time>
      </trkpt>
      <trkpt lat="46.20738" lon="6.85955">
        <ele>1673</ele>
        <time>2000-01-01T07:32:47.000Z</time>
      </trkpt>
      <trkpt lat="46.20745" lon="6.85968">
        <ele>1665.9</ele>
        <time>2000-01-01T07:32:57.000Z</time>
      </trkpt>
      <trkpt lat="46.20745" lon="6.85981">
        <ele>1667</ele>
        <time>2000-01-01T07:33:07.000Z</time>
      </trkpt>
      <trkpt lat="46.20737" lon="6.85994">
        <ele>1663.5</ele>
        <time>2000-01-01T07:33:17.000Z</time>
      </trkpt>
      <trkpt lat="46.20704" lon="6.86024">
        <ele>1660</ele>
        <time>2000-01-01T07:33:27.000Z</time>
      </trkpt>
      <trkpt lat="46.20676" lon="6.86034">
        <ele>1663</ele>
        <time>2000-01-01T07:33:37.000Z</time>
      </trkpt>
      <trkpt lat="46.20669" lon="6.85991">
        <ele>1667</ele>
        <time>2000-01-01T07:33:47.000Z</time>
      </trkpt>
      <trkpt lat="46.20656" lon="6.8591">
        <ele>1683</ele>
        <time>2000-01-01T07:33:57.000Z</time>
      </trkpt>
      <trkpt lat="46.20645" lon="6.85848">
        <ele>1701</ele>
        <time>2000-01-01T07:34:07.000Z</time>
      </trkpt>
      <trkpt lat="46.20635" lon="6.85786">
        <ele>1711</ele>
        <time>2000-01-01T07:34:17.000Z</time>
      </trkpt>
      <trkpt lat="46.20624" lon="6.85723">
        <ele>1724</ele>
        <time>2000-01-01T07:34:27.000Z</time>
      </trkpt>
      <trkpt lat="46.20617" lon="6.8568">
        <ele>1735</ele>
        <time>2000-01-01T07:34:37.000Z</time>
      </trkpt>
      <trkpt lat="46.20604" lon="6.85599">
        <ele>1769</ele>
        <time>2000-01-01T07:34:47.000Z</time>
      </trkpt>
      <trkpt lat="46.20593" lon="6.85537">
        <ele>1791</ele>
        <time>2000-01-01T07:34:57.000Z</time>
      </trkpt>
      <trkpt lat="46.20583" lon="6.85474">
        <ele>1811</ele>
        <time>2000-01-01T07:35:07.000Z</time>
      </trkpt>
      <trkpt lat="46.20572" lon="6.85412">
        <ele>1828</ele>
        <time>2000-01-01T07:35:17.000Z</time>
      </trkpt>
      <trkpt lat="46.20565" lon="6.85369">
        <ele>1840</ele>
        <time>2000-01-01T07:35:27.000Z</time>
      </trkpt>
      <trkpt lat="46.20552" lon="6.85288">
        <ele>1865</ele>
        <time>2000-01-01T07:35:37.000Z</time>
      </trkpt>
      <trkpt lat="46.20541" lon="6.85226">
        <ele>1889</ele>
        <time>2000-01-01T07:35:47.000Z</time>
      </trkpt>
      <trkpt lat="46.20531" lon="6.85163">
        <ele>1915</ele>
        <time>2000-01-01T07:35:57.000Z</time>
      </trkpt>
      <trkpt lat="46.2052" lon="6.85101">
        <ele>1940</ele>
        <time>2000-01-01T07:36:07.000Z</time>
      </trkpt>
      <trkpt lat="46.20513" lon="6.85058">
        <ele>1956</ele>
        <time>2000-01-01T07:36:17.000Z</time>
      </trkpt>
      <trkpt lat="46.205" lon="6.84977">
        <ele>1983</ele>
        <time>2000-01-01T07:36:27.000Z</time>
      </trkpt>
      <trkpt lat="46.20489" lon="6.84915">
        <ele>1994</ele>
        <time>2000-01-01T07:36:37.000Z</time>
      </trkpt>
      <trkpt lat="46.20482" lon="6.84872">
        <ele>1999</ele>
        <time>2000-01-01T07:36:47.000Z</time>
      </trkpt>
      <trkpt lat="46.20469" lon="6.84792">
        <ele>2003</ele>
        <time>2000-01-01T07:36:57.000Z</time>
      </trkpt>
      <trkpt lat="46.20447" lon="6.84746">
        <ele>2008</ele>
        <time>2000-01-01T07:37:07.000Z</time>
      </trkpt>
      <trkpt lat="46.20437" lon="6.84722">
        <ele>2011</ele>
        <time>2000-01-01T07:37:17.000Z</time>
      </trkpt>
      <trkpt lat="46.20415" lon="6.84693">
        <ele>2012</ele>
        <time>2000-01-01T07:37:27.000Z</time>
      </trkpt>
      <trkpt lat="46.20377" lon="6.84643">
        <ele>2013</ele>
        <time>2000-01-01T07:37:37.000Z</time>
      </trkpt>
      <trkpt lat="46.20355" lon="6.84621">
        <ele>2013</ele>
        <time>2000-01-01T07:37:47.000Z</time>
      </trkpt>
      <trkpt lat="46.20326" lon="6.84592">
        <ele>2011</ele>
        <time>2000-01-01T07:37:57.000Z</time>
      </trkpt>
      <trkpt lat="46.203" lon="6.84565">
        <ele>2009</ele>
        <time>2000-01-01T07:38:07.000Z</time>
      </trkpt>
      <trkpt lat="46.20278" lon="6.84547">
        <ele>2008</ele>
        <time>2000-01-01T07:38:17.000Z</time>
      </trkpt>
      <trkpt lat="46.20252" lon="6.84525">
        <ele>2008</ele>
        <time>2000-01-01T07:38:27.000Z</time>
      </trkpt>
      <trkpt lat="46.20228" lon="6.84504">
        <ele>2008</ele>
        <time>2000-01-01T07:38:37.000Z</time>
      </trkpt>
      <trkpt lat="46.20204" lon="6.84481">
        <ele>2012</ele>
        <time>2000-01-01T07:38:47.000Z</time>
      </trkpt>
      <trkpt lat="46.20182" lon="6.84461">
        <ele>2017</ele>
        <time>2000-01-01T07:38:57.000Z</time>
      </trkpt>
      <trkpt lat="46.20154" lon="6.84437">
        <ele>2024</ele>
        <time>2000-01-01T07:39:07.000Z</time>
      </trkpt>
      <trkpt lat="46.20123" lon="6.84422">
        <ele>2027</ele>
        <time>2000-01-01T07:39:17.000Z</time>
      </trkpt>
      <trkpt lat="46.20091" lon="6.84408">
        <ele>2036</ele>
        <time>2000-01-01T07:39:27.000Z</time>
      </trkpt>
      <trkpt lat="46.20047" lon="6.84387">
        <ele>2036</ele>
        <time>2000-01-01T07:39:37.000Z</time>
      </trkpt>
      <trkpt lat="46.20004" lon="6.84395">
        <ele>2037</ele>
        <time>2000-01-01T07:39:47.000Z</time>
      </trkpt>
      <trkpt lat="46.19978" lon="6.84376">
        <ele>2039</ele>
        <time>2000-01-01T07:39:57.000Z</time>
      </trkpt>
      <trkpt lat="46.19956" lon="6.84361">
        <ele>2040</ele>
        <time>2000-01-01T07:40:07.000Z</time>
      </trkpt>
      <trkpt lat="46.19932" lon="6.84345">
        <ele>2043</ele>
        <time>2000-01-01T07:40:17.000Z</time>
      </trkpt>
      <trkpt lat="46.19914" lon="6.84316">
        <ele>2048</ele>
        <time>2000-01-01T07:40:27.000Z</time>
      </trkpt>
      <trkpt lat="46.1989" lon="6.84279">
        <ele>2050</ele>
        <time>2000-01-01T07:40:37.000Z</time>
      </trkpt>
      <trkpt lat="46.19868" lon="6.84267">
        <ele>2052</ele>
        <time>2000-01-01T07:40:47.000Z</time>
      </trkpt>
      <trkpt lat="46.19845" lon="6.84255">
        <ele>2052</ele>
        <time>2000-01-01T07:40:57.000Z</time>
      </trkpt>
      <trkpt lat="46.19822" lon="6.84246">
        <ele>2051</ele>
        <time>2000-01-01T07:41:07.000Z</time>
      </trkpt>
      <trkpt lat="46.198" lon="6.84237">
        <ele>2051</ele>
        <time>2000-01-01T07:41:17.000Z</time>
      </trkpt>
      <trkpt lat="46.19771" lon="6.84237">
        <ele>2042</ele>
        <time>2000-01-01T07:41:27.000Z</time>
      </trkpt>
      <trkpt lat="46.19746" lon="6.84238">
        <ele>2037</ele>
        <time>2000-01-01T07:41:37.000Z</time>
      </trkpt>
      <trkpt lat="46.19718" lon="6.84239">
        <ele>2033</ele>
        <time>2000-01-01T07:41:47.000Z</time>
      </trkpt>
      <trkpt lat="46.19698" lon="6.84199">
        <ele>2030</ele>
        <time>2000-01-01T07:41:57.000Z</time>
      </trkpt>
      <trkpt lat="46.19664" lon="6.84231">
        <ele>2015</ele>
        <time>2000-01-01T07:42:07.000Z</time>
      </trkpt>
      <trkpt lat="46.19639" lon="6.84251">
        <ele>2005</ele>
        <time>2000-01-01T07:42:17.000Z</time>
      </trkpt>
      <trkpt lat="46.19609" lon="6.84245">
        <ele>1998</ele>
        <time>2000-01-01T07:42:27.000Z</time>
      </trkpt>
      <trkpt lat="46.19585" lon="6.84225">
        <ele>1994</ele>
        <time>2000-01-01T07:42:37.000Z</time>
      </trkpt>
      <trkpt lat="46.19577" lon="6.8419">
        <ele>1991</ele>
        <time>2000-01-01T07:42:47.000Z</time>
      </trkpt>
      <trkpt lat="46.19567" lon="6.84147">
        <ele>1989</ele>
        <time>2000-01-01T07:42:57.000Z</time>
      </trkpt>
      <trkpt lat="46.19556" lon="6.84103">
        <ele>1988</ele>
        <time>2000-01-01T07:43:07.000Z</time>
      </trkpt>
      <trkpt lat="46.1955" lon="6.84065">
        <ele>1988</ele>
        <time>2000-01-01T07:43:17.000Z</time>
      </trkpt>
      <trkpt lat="46.19542" lon="6.84012">
        <ele>1983</ele>
        <time>2000-01-01T07:43:27.000Z</time>
      </trkpt>
      <trkpt lat="46.19534" lon="6.83956">
        <ele>1978</ele>
        <time>2000-01-01T07:43:37.000Z</time>
      </trkpt>
      <trkpt lat="46.1953" lon="6.83913">
        <ele>1978</ele>
        <time>2000-01-01T07:43:47.000Z</time>
      </trkpt>
      <trkpt lat="46.19523" lon="6.83838">
        <ele>1972</ele>
        <time>2000-01-01T07:43:57.000Z</time>
      </trkpt>
      <trkpt lat="46.19506" lon="6.83876">
        <ele>1962</ele>
        <time>2000-01-01T07:44:07.000Z</time>
      </trkpt>
      <trkpt lat="46.19491" lon="6.83896">
        <ele>1959</ele>
        <time>2000-01-01T07:44:17.000Z</time>
      </trkpt>
      <trkpt lat="46.19467" lon="6.83918">
        <ele>1955</ele>
        <time>2000-01-01T07:44:27.000Z</time>
      </trkpt>
      <trkpt lat="46.1946" lon="6.8395">
        <ele>1951</ele>
        <time>2000-01-01T07:44:37.000Z</time>
      </trkpt>
      <trkpt lat="46.19441" lon="6.8397">
        <ele>1944</ele>
        <time>2000-01-01T07:44:47.000Z</time>
      </trkpt>
      <trkpt lat="46.19416" lon="6.8395">
        <ele>1934</ele>
        <time>2000-01-01T07:44:57.000Z</time>
      </trkpt>
      <trkpt lat="46.1939" lon="6.83906">
        <ele>1924</ele>
        <time>2000-01-01T07:45:07.000Z</time>
      </trkpt>
      <trkpt lat="46.19379" lon="6.83873">
        <ele>1920</ele>
        <time>2000-01-01T07:45:17.000Z</time>
      </trkpt>
      <trkpt lat="46.19367" lon="6.83835">
        <ele>1916</ele>
        <time>2000-01-01T07:45:27.000Z</time>
      </trkpt>
      <trkpt lat="46.19352" lon="6.83808">
        <ele>1911</ele>
        <time>2000-01-01T07:45:37.000Z</time>
      </trkpt>
      <trkpt lat="46.1935" lon="6.83774">
        <ele>1910</ele>
        <time>2000-01-01T07:45:47.000Z</time>
      </trkpt>
      <trkpt lat="46.19354" lon="6.83755">
        <ele>1911.3</ele>
        <time>2000-01-01T07:45:57.000Z</time>
      </trkpt>
      <trkpt lat="46.19366" lon="6.83728">
        <ele>1909</ele>
        <time>2000-01-01T07:46:07.000Z</time>
      </trkpt>
      <trkpt lat="46.19379" lon="6.83708">
        <ele>1909</ele>
        <time>2000-01-01T07:46:17.000Z</time>
      </trkpt>
      <trkpt lat="46.19384" lon="6.83664">
        <ele>1907</ele>
        <time>2000-01-01T07:46:27.000Z</time>
      </trkpt>
      <trkpt lat="46.19373" lon="6.83677">
        <ele>1903.3</ele>
        <time>2000-01-01T07:46:37.000Z</time>
      </trkpt>
      <trkpt lat="46.19322" lon="6.83724">
        <ele>1897</ele>
        <time>2000-01-01T07:46:47.000Z</time>
      </trkpt>
      <trkpt lat="46.19294" lon="6.83739">
        <ele>1893</ele>
        <time>2000-01-01T07:46:57.000Z</time>
      </trkpt>
      <trkpt lat="46.19289" lon="6.83756">
        <ele>1888.8</ele>
        <time>2000-01-01T07:47:07.000Z</time>
      </trkpt>
      <trkpt lat="46.1929" lon="6.83782">
        <ele>1890</ele>
        <time>2000-01-01T07:47:17.000Z</time>
      </trkpt>
      <trkpt lat="46.19288" lon="6.83793">
        <ele>1888</ele>
        <time>2000-01-01T07:47:27.000Z</time>
      </trkpt>
      <trkpt lat="46.19264" lon="6.8383">
        <ele>1882</ele>
        <time>2000-01-01T07:47:37.000Z</time>
      </trkpt>
      <trkpt lat="46.19259" lon="6.83833">
        <ele>1880.9</ele>
        <time>2000-01-01T07:47:47.000Z</time>
      </trkpt>
      <trkpt lat="46.1925" lon="6.83827">
        <ele>1878.2</ele>
        <time>2000-01-01T07:47:57.000Z</time>
      </trkpt>
      <trkpt lat="46.19227" lon="6.83797">
        <ele>1866</ele>
        <time>2000-01-01T07:48:07.000Z</time>
      </trkpt>
      <trkpt lat="46.19221" lon="6.83784">
        <ele>1870.3</ele>
        <time>2000-01-01T07:48:17.000Z</time>
      </trkpt>
      <trkpt lat="46.19229" lon="6.83738">
        <ele>1865</ele>
        <time>2000-01-01T07:48:27.000Z</time>
      </trkpt>
      <trkpt lat="46.19225" lon="6.83691">
        <ele>1862</ele>
        <time>2000-01-01T07:48:37.000Z</time>
      </trkpt>
      <trkpt lat="46.19227" lon="6.83666">
        <ele>1861</ele>
        <time>2000-01-01T07:48:47.000Z</time>
      </trkpt>
      <trkpt lat="46.19225" lon="6.83634">
        <ele>1859</ele>
        <time>2000-01-01T07:48:57.000Z</time>
      </trkpt>
      <trkpt lat="46.19226" lon="6.83615">
        <ele>1856</ele>
        <time>2000-01-01T07:49:07.000Z</time>
      </trkpt>
      <trkpt lat="46.19229" lon="6.83596">
        <ele>1855</ele>
        <time>2000-01-01T07:49:17.000Z</time>
      </trkpt>
      <trkpt lat="46.19237" lon="6.83564">
        <ele>1854</ele>
        <time>2000-01-01T07:49:27.000Z</time>
      </trkpt>
      <trkpt lat="46.19234" lon="6.83557">
        <ele>1850.3</ele>
        <time>2000-01-01T07:49:37.000Z</time>
      </trkpt>
      <trkpt lat="46.19225" lon="6.83557">
        <ele>1848.7</ele>
        <time>2000-01-01T07:49:47.000Z</time>
      </trkpt>
      <trkpt lat="46.19174" lon="6.83567">
        <ele>1843</ele>
        <time>2000-01-01T07:49:57.000Z</time>
      </trkpt>
      <trkpt lat="46.1915" lon="6.83564">
        <ele>1838</ele>
        <time>2000-01-01T07:50:07.000Z</time>
      </trkpt>
      <trkpt lat="46.19124" lon="6.8356">
        <ele>1835</ele>
        <time>2000-01-01T07:50:17.000Z</time>
      </trkpt>
      <trkpt lat="46.19114" lon="6.83569">
        <ele>1831.2</ele>
        <time>2000-01-01T07:50:27.000Z</time>
      </trkpt>
      <trkpt lat="46.19091" lon="6.83604">
        <ele>1827</ele>
        <time>2000-01-01T07:50:37.000Z</time>
      </trkpt>
      <trkpt lat="46.19072" lon="6.83642">
        <ele>1821</ele>
        <time>2000-01-01T07:50:47.000Z</time>
      </trkpt>
      <trkpt lat="46.19063" lon="6.83655">
        <ele>1816</ele>
        <time>2000-01-01T07:50:57.000Z</time>
      </trkpt>
      <trkpt lat="46.19061" lon="6.83717">
        <ele>1808</ele>
        <time>2000-01-01T07:51:07.000Z</time>
      </trkpt>
      <trkpt lat="46.19067" lon="6.83751">
        <ele>1807</ele>
        <time>2000-01-01T07:51:17.000Z</time>
      </trkpt>
      <trkpt lat="46.19072" lon="6.83784">
        <ele>1807</ele>
        <time>2000-01-01T07:51:27.000Z</time>
      </trkpt>
      <trkpt lat="46.19067" lon="6.83835">
        <ele>1805</ele>
        <time>2000-01-01T07:51:37.000Z</time>
      </trkpt>
      <trkpt lat="46.19078" lon="6.83886">
        <ele>1803</ele>
        <time>2000-01-01T07:51:47.000Z</time>
      </trkpt>
      <trkpt lat="46.19068" lon="6.83916">
        <ele>1798</ele>
        <time>2000-01-01T07:51:57.000Z</time>
      </trkpt>
      <trkpt lat="46.19052" lon="6.83942">
        <ele>1795</ele>
        <time>2000-01-01T07:52:07.000Z</time>
      </trkpt>
      <trkpt lat="46.19042" lon="6.83964">
        <ele>1796.8</ele>
        <time>2000-01-01T07:52:17.000Z</time>
      </trkpt>
      <trkpt lat="46.19048" lon="6.84024">
        <ele>1795</ele>
        <time>2000-01-01T07:52:27.000Z</time>
      </trkpt>
      <trkpt lat="46.19033" lon="6.84082">
        <ele>1793</ele>
        <time>2000-01-01T07:52:37.000Z</time>
      </trkpt>
      <trkpt lat="46.19014" lon="6.84101">
        <ele>1787</ele>
        <time>2000-01-01T07:52:47.000Z</time>
      </trkpt>
      <trkpt lat="46.19008" lon="6.84159">
        <ele>1783</ele>
        <time>2000-01-01T07:52:57.000Z</time>
      </trkpt>
      <trkpt lat="46.19" lon="6.84189">
        <ele>1782</ele>
        <time>2000-01-01T07:53:07.000Z</time>
      </trkpt>
      <trkpt lat="46.1899" lon="6.84235">
        <ele>1777</ele>
        <time>2000-01-01T07:53:17.000Z</time>
      </trkpt>
      <trkpt lat="46.18985" lon="6.84274">
        <ele>1775</ele>
        <time>2000-01-01T07:53:27.000Z</time>
      </trkpt>
      <trkpt lat="46.19004" lon="6.84323">
        <ele>1775</ele>
        <time>2000-01-01T07:53:37.000Z</time>
      </trkpt>
      <trkpt lat="46.19018" lon="6.84348">
        <ele>1775</ele>
        <time>2000-01-01T07:53:47.000Z</time>
      </trkpt>
      <trkpt lat="46.1904" lon="6.84375">
        <ele>1775</ele>
        <time>2000-01-01T07:53:57.000Z</time>
      </trkpt>
      <trkpt lat="46.19058" lon="6.84397">
        <ele>1775</ele>
        <time>2000-01-01T07:54:07.000Z</time>
      </trkpt>
      <trkpt lat="46.19078" lon="6.8442">
        <ele>1773</ele>
        <time>2000-01-01T07:54:17.000Z</time>
      </trkpt>
      <trkpt lat="46.19066" lon="6.84459">
        <ele>1772</ele>
        <time>2000-01-01T07:54:27.000Z</time>
      </trkpt>
      <trkpt lat="46.19055" lon="6.8449">
        <ele>1770</ele>
        <time>2000-01-01T07:54:37.000Z</time>
      </trkpt>
      <trkpt lat="46.19057" lon="6.84524">
        <ele>1770</ele>
        <time>2000-01-01T07:54:47.000Z</time>
      </trkpt>
      <trkpt lat="46.1906" lon="6.84558">
        <ele>1768</ele>
        <time>2000-01-01T07:54:57.000Z</time>
      </trkpt>
      <trkpt lat="46.19055" lon="6.84591">
        <ele>1766</ele>
        <time>2000-01-01T07:55:07.000Z</time>
      </trkpt>
      <trkpt lat="46.19051" lon="6.84624">
        <ele>1766</ele>
        <time>2000-01-01T07:55:17.000Z</time>
      </trkpt>
      <trkpt lat="46.19036" lon="6.84667">
        <ele>1763</ele>
        <time>2000-01-01T07:55:27.000Z</time>
      </trkpt>
      <trkpt lat="46.19043" lon="6.84708">
        <ele>1760</ele>
        <time>2000-01-01T07:55:37.000Z</time>
      </trkpt>
      <trkpt lat="46.19053" lon="6.84773">
        <ele>1758</ele>
        <time>2000-01-01T07:55:47.000Z</time>
      </trkpt>
      <trkpt lat="46.19046" lon="6.84785">
        <ele>1755.8</ele>
        <time>2000-01-01T07:55:57.000Z</time>
      </trkpt>
      <trkpt lat="46.19037" lon="6.84757">
        <ele>1753</ele>
        <time>2000-01-01T07:56:07.000Z</time>
      </trkpt>
      <trkpt lat="46.19028" lon="6.84724">
        <ele>1750</ele>
        <time>2000-01-01T07:56:17.000Z</time>
      </trkpt>
      <trkpt lat="46.19019" lon="6.84688">
        <ele>1750</ele>
        <time>2000-01-01T07:56:27.000Z</time>
      </trkpt>
      <trkpt lat="46.1901" lon="6.84655">
        <ele>1748</ele>
        <time>2000-01-01T07:56:37.000Z</time>
      </trkpt>
      <trkpt lat="46.19" lon="6.84618">
        <ele>1747</ele>
        <time>2000-01-01T07:56:47.000Z</time>
      </trkpt>
      <trkpt lat="46.18992" lon="6.84579">
        <ele>1743</ele>
        <time>2000-01-01T07:56:57.000Z</time>
      </trkpt>
      <trkpt lat="46.18981" lon="6.84518">
        <ele>1743</ele>
        <time>2000-01-01T07:57:07.000Z</time>
      </trkpt>
      <trkpt lat="46.18974" lon="6.84469">
        <ele>1742</ele>
        <time>2000-01-01T07:57:17.000Z</time>
      </trkpt>
      <trkpt lat="46.18945" lon="6.84448">
        <ele>1741</ele>
        <time>2000-01-01T07:57:27.000Z</time>
      </trkpt>
      <trkpt lat="46.18906" lon="6.84443">
        <ele>1731</ele>
        <time>2000-01-01T07:57:37.000Z</time>
      </trkpt>
      <trkpt lat="46.18872" lon="6.84417">
        <ele>1726</ele>
        <time>2000-01-01T07:57:47.000Z</time>
      </trkpt>
      <trkpt lat="46.18839" lon="6.84371">
        <ele>1723</ele>
        <time>2000-01-01T07:57:57.000Z</time>
      </trkpt>
      <trkpt lat="46.18827" lon="6.84342">
        <ele>1720</ele>
        <time>2000-01-01T07:58:07.000Z</time>
      </trkpt>
      <trkpt lat="46.18814" lon="6.84311">
        <ele>1718</ele>
        <time>2000-01-01T07:58:17.000Z</time>
      </trkpt>
      <trkpt lat="46.18788" lon="6.84271">
        <ele>1709</ele>
        <time>2000-01-01T07:58:27.000Z</time>
      </trkpt>
      <trkpt lat="46.18789" lon="6.84236">
        <ele>1709</ele>
        <time>2000-01-01T07:58:37.000Z</time>
      </trkpt>
      <trkpt lat="46.18791" lon="6.84198">
        <ele>1710</ele>
        <time>2000-01-01T07:58:47.000Z</time>
      </trkpt>
      <trkpt lat="46.18797" lon="6.84163">
        <ele>1709</ele>
        <time>2000-01-01T07:58:57.000Z</time>
      </trkpt>
      <trkpt lat="46.18804" lon="6.84123">
        <ele>1709</ele>
        <time>2000-01-01T07:59:07.000Z</time>
      </trkpt>
      <trkpt lat="46.18814" lon="6.84091">
        <ele>1710</ele>
        <time>2000-01-01T07:59:17.000Z</time>
      </trkpt>
      <trkpt lat="46.18825" lon="6.84058">
        <ele>1708</ele>
        <time>2000-01-01T07:59:27.000Z</time>
      </trkpt>
      <trkpt lat="46.18823" lon="6.84031">
        <ele>1708</ele>
        <time>2000-01-01T07:59:37.000Z</time>
      </trkpt>
      <trkpt lat="46.18836" lon="6.83993">
        <ele>1708</ele>
        <time>2000-01-01T07:59:47.000Z</time>
      </trkpt>
      <trkpt lat="46.18844" lon="6.83945">
        <ele>1709</ele>
        <time>2000-01-01T07:59:57.000Z</time>
      </trkpt>
      <trkpt lat="46.18836" lon="6.83915">
        <ele>1703</ele>
        <time>2000-01-01T08:00:07.000Z</time>
      </trkpt>
      <trkpt lat="46.18828" lon="6.83911">
        <ele>1702.1</ele>
        <time>2000-01-01T08:00:17.000Z</time>
      </trkpt>
      <trkpt lat="46.18787" lon="6.83898">
        <ele>1701</ele>
        <time>2000-01-01T08:00:27.000Z</time>
      </trkpt>
      <trkpt lat="46.18771" lon="6.83869">
        <ele>1699</ele>
        <time>2000-01-01T08:00:37.000Z</time>
      </trkpt>
      <trkpt lat="46.18752" lon="6.83833">
        <ele>1698</ele>
        <time>2000-01-01T08:00:47.000Z</time>
      </trkpt>
      <trkpt lat="46.18721" lon="6.83802">
        <ele>1692</ele>
        <time>2000-01-01T08:00:57.000Z</time>
      </trkpt>
      <trkpt lat="46.18705" lon="6.83764">
        <ele>1691</ele>
        <time>2000-01-01T08:01:07.000Z</time>
      </trkpt>
      <trkpt lat="46.18675" lon="6.83726">
        <ele>1690</ele>
        <time>2000-01-01T08:01:17.000Z</time>
      </trkpt>
      <trkpt lat="46.1866" lon="6.83698">
        <ele>1690</ele>
        <time>2000-01-01T08:01:27.000Z</time>
      </trkpt>
      <trkpt lat="46.18645" lon="6.83669">
        <ele>1687</ele>
        <time>2000-01-01T08:01:37.000Z</time>
      </trkpt>
      <trkpt lat="46.1862" lon="6.83699">
        <ele>1685</ele>
        <time>2000-01-01T08:01:47.000Z</time>
      </trkpt>
      <trkpt lat="46.18591" lon="6.83716">
        <ele>1680</ele>
        <time>2000-01-01T08:01:57.000Z</time>
      </trkpt>
      <trkpt lat="46.18567" lon="6.83704">
        <ele>1679</ele>
        <time>2000-01-01T08:02:07.000Z</time>
      </trkpt>
      <trkpt lat="46.18532" lon="6.83676">
        <ele>1679</ele>
        <time>2000-01-01T08:02:17.000Z</time>
      </trkpt>
      <trkpt lat="46.18513" lon="6.83682">
        <ele>1674</ele>
        <time>2000-01-01T08:02:27.000Z</time>
      </trkpt>
      <trkpt lat="46.18529" lon="6.83739">
        <ele>1670</ele>
        <time>2000-01-01T08:02:37.000Z</time>
      </trkpt>
      <trkpt lat="46.18522" lon="6.83786">
        <ele>1665</ele>
        <time>2000-01-01T08:02:47.000Z</time>
      </trkpt>
      <trkpt lat="46.18535" lon="6.83816">
        <ele>1663</ele>
        <time>2000-01-01T08:02:57.000Z</time>
      </trkpt>
      <trkpt lat="46.18548" lon="6.83849">
        <ele>1661</ele>
        <time>2000-01-01T08:03:07.000Z</time>
      </trkpt>
      <trkpt lat="46.18588" lon="6.83872">
        <ele>1661</ele>
        <time>2000-01-01T08:03:17.000Z</time>
      </trkpt>
      <trkpt lat="46.18611" lon="6.83882">
        <ele>1661</ele>
        <time>2000-01-01T08:03:27.000Z</time>
      </trkpt>
      <trkpt lat="46.18636" lon="6.83893">
        <ele>1661</ele>
        <time>2000-01-01T08:03:37.000Z</time>
      </trkpt>
      <trkpt lat="46.18667" lon="6.83917">
        <ele>1658</ele>
        <time>2000-01-01T08:03:47.000Z</time>
      </trkpt>
      <trkpt lat="46.18683" lon="6.8395">
        <ele>1658</ele>
        <time>2000-01-01T08:03:57.000Z</time>
      </trkpt>
      <trkpt lat="46.18704" lon="6.83986">
        <ele>1655</ele>
        <time>2000-01-01T08:04:07.000Z</time>
      </trkpt>
      <trkpt lat="46.18698" lon="6.8404">
        <ele>1652</ele>
        <time>2000-01-01T08:04:17.000Z</time>
      </trkpt>
      <trkpt lat="46.18688" lon="6.84073">
        <ele>1648</ele>
        <time>2000-01-01T08:04:27.000Z</time>
      </trkpt>
      <trkpt lat="46.18676" lon="6.8411">
        <ele>1647</ele>
        <time>2000-01-01T08:04:37.000Z</time>
      </trkpt>
      <trkpt lat="46.18667" lon="6.84142">
        <ele>1641</ele>
        <time>2000-01-01T08:04:47.000Z</time>
      </trkpt>
      <trkpt lat="46.18652" lon="6.84197">
        <ele>1636</ele>
        <time>2000-01-01T08:04:57.000Z</time>
      </trkpt>
      <trkpt lat="46.18642" lon="6.84245">
        <ele>1632</ele>
        <time>2000-01-01T08:05:07.000Z</time>
      </trkpt>
      <trkpt lat="46.18639" lon="6.84287">
        <ele>1628</ele>
        <time>2000-01-01T08:05:17.000Z</time>
      </trkpt>
      <trkpt lat="46.18636" lon="6.84321">
        <ele>1625</ele>
        <time>2000-01-01T08:05:27.000Z</time>
      </trkpt>
      <trkpt lat="46.18633" lon="6.84358">
        <ele>1623</ele>
        <time>2000-01-01T08:05:37.000Z</time>
      </trkpt>
      <trkpt lat="46.18633" lon="6.84393">
        <ele>1620</ele>
        <time>2000-01-01T08:05:47.000Z</time>
      </trkpt>
      <trkpt lat="46.18635" lon="6.84428">
        <ele>1617</ele>
        <time>2000-01-01T08:05:57.000Z</time>
      </trkpt>
      <trkpt lat="46.18638" lon="6.84466">
        <ele>1613</ele>
        <time>2000-01-01T08:06:07.000Z</time>
      </trkpt>
      <trkpt lat="46.18644" lon="6.84501">
        <ele>1612</ele>
        <time>2000-01-01T08:06:17.000Z</time>
      </trkpt>
      <trkpt lat="46.1865" lon="6.84539">
        <ele>1606</ele>
        <time>2000-01-01T08:06:27.000Z</time>
      </trkpt>
      <trkpt lat="46.18634" lon="6.84537">
        <ele>1608.1</ele>
        <time>2000-01-01T08:06:37.000Z</time>
      </trkpt>
      <trkpt lat="46.18626" lon="6.84514">
        <ele>1605</ele>
        <time>2000-01-01T08:06:47.000Z</time>
      </trkpt>
      <trkpt lat="46.18613" lon="6.84467">
        <ele>1605</ele>
        <time>2000-01-01T08:06:57.000Z</time>
      </trkpt>
      <trkpt lat="46.18602" lon="6.84444">
        <ele>1605</ele>
        <time>2000-01-01T08:07:07.000Z</time>
      </trkpt>
      <trkpt lat="46.18603" lon="6.84407">
        <ele>1602</ele>
        <time>2000-01-01T08:07:17.000Z</time>
      </trkpt>
      <trkpt lat="46.18581" lon="6.84367">
        <ele>1599</ele>
        <time>2000-01-01T08:07:27.000Z</time>
      </trkpt>
      <trkpt lat="46.1858" lon="6.84332">
        <ele>1597</ele>
        <time>2000-01-01T08:07:37.000Z</time>
      </trkpt>
      <trkpt lat="46.18579" lon="6.84293">
        <ele>1590</ele>
        <time>2000-01-01T08:07:47.000Z</time>
      </trkpt>
      <trkpt lat="46.18564" lon="6.84323">
        <ele>1584</ele>
        <time>2000-01-01T08:07:57.000Z</time>
      </trkpt>
      <trkpt lat="46.18547" lon="6.84358">
        <ele>1572</ele>
        <time>2000-01-01T08:08:07.000Z</time>
      </trkpt>
      <trkpt lat="46.18544" lon="6.84421">
        <ele>1568</ele>
        <time>2000-01-01T08:08:17.000Z</time>
      </trkpt>
      <trkpt lat="46.18541" lon="6.84466">
        <ele>1566</ele>
        <time>2000-01-01T08:08:27.000Z</time>
      </trkpt>
      <trkpt lat="46.18536" lon="6.84523">
        <ele>1553</ele>
        <time>2000-01-01T08:08:37.000Z</time>
      </trkpt>
      <trkpt lat="46.1854" lon="6.84555">
        <ele>1551</ele>
        <time>2000-01-01T08:08:47.000Z</time>
      </trkpt>
      <trkpt lat="46.18547" lon="6.84584">
        <ele>1549</ele>
        <time>2000-01-01T08:08:57.000Z</time>
      </trkpt>
      <trkpt lat="46.18545" lon="6.84612">
        <ele>1542</ele>
        <time>2000-01-01T08:09:07.000Z</time>
      </trkpt>
      <trkpt lat="46.18547" lon="6.84651">
        <ele>1539</ele>
        <time>2000-01-01T08:09:17.000Z</time>
      </trkpt>
      <trkpt lat="46.18536" lon="6.84612">
        <ele>1538</ele>
        <time>2000-01-01T08:09:27.000Z</time>
      </trkpt>
      <trkpt lat="46.18522" lon="6.84585">
        <ele>1538</ele>
        <time>2000-01-01T08:09:37.000Z</time>
      </trkpt>
      <trkpt lat="46.18507" lon="6.84557">
        <ele>1533</ele>
        <time>2000-01-01T08:09:47.000Z</time>
      </trkpt>
      <trkpt lat="46.1849" lon="6.84526">
        <ele>1533</ele>
        <time>2000-01-01T08:09:57.000Z</time>
      </trkpt>
      <trkpt lat="46.18484" lon="6.84495">
        <ele>1531</ele>
        <time>2000-01-01T08:10:07.000Z</time>
      </trkpt>
      <trkpt lat="46.18477" lon="6.84463">
        <ele>1530</ele>
        <time>2000-01-01T08:10:17.000Z</time>
      </trkpt>
      <trkpt lat="46.18468" lon="6.84431">
        <ele>1528</ele>
        <time>2000-01-01T08:10:27.000Z</time>
      </trkpt>
      <trkpt lat="46.18456" lon="6.84396">
        <ele>1526</ele>
        <time>2000-01-01T08:10:37.000Z</time>
      </trkpt>
      <trkpt lat="46.18439" lon="6.84357">
        <ele>1524</ele>
        <time>2000-01-01T08:10:47.000Z</time>
      </trkpt>
      <trkpt lat="46.18417" lon="6.84398">
        <ele>1516</ele>
        <time>2000-01-01T08:10:57.000Z</time>
      </trkpt>
      <trkpt lat="46.18408" lon="6.84433">
        <ele>1513</ele>
        <time>2000-01-01T08:11:07.000Z</time>
      </trkpt>
      <trkpt lat="46.18385" lon="6.84437">
        <ele>1511</ele>
        <time>2000-01-01T08:11:17.000Z</time>
      </trkpt>
      <trkpt lat="46.18366" lon="6.84454">
        <ele>1510</ele>
        <time>2000-01-01T08:11:27.000Z</time>
      </trkpt>
      <trkpt lat="46.18368" lon="6.84496">
        <ele>1506</ele>
        <time>2000-01-01T08:11:37.000Z</time>
      </trkpt>
      <trkpt lat="46.18389" lon="6.84542">
        <ele>1503</ele>
        <time>2000-01-01T08:11:47.000Z</time>
      </trkpt>
      <trkpt lat="46.18398" lon="6.84577">
        <ele>1501</ele>
        <time>2000-01-01T08:11:57.000Z</time>
      </trkpt>
      <trkpt lat="46.184" lon="6.84625">
        <ele>1497</ele>
        <time>2000-01-01T08:12:07.000Z</time>
      </trkpt>
      <trkpt lat="46.18413" lon="6.84656">
        <ele>1493</ele>
        <time>2000-01-01T08:12:17.000Z</time>
      </trkpt>
      <trkpt lat="46.18416" lon="6.8468">
        <ele>1473.4</ele>
        <time>2000-01-01T08:12:27.000Z</time>
      </trkpt>
      <trkpt lat="46.1842" lon="6.84706">
        <ele>1489</ele>
        <time>2000-01-01T08:12:37.000Z</time>
      </trkpt>
      <trkpt lat="46.18417" lon="6.84746">
        <ele>1488</ele>
        <time>2000-01-01T08:12:47.000Z</time>
      </trkpt>
      <trkpt lat="46.18427" lon="6.84806">
        <ele>1481</ele>
        <time>2000-01-01T08:12:57.000Z</time>
      </trkpt>
      <trkpt lat="46.18438" lon="6.84841">
        <ele>1476</ele>
        <time>2000-01-01T08:13:07.000Z</time>
      </trkpt>
      <trkpt lat="46.18441" lon="6.84869">
        <ele>1476</ele>
        <time>2000-01-01T08:13:17.000Z</time>
      </trkpt>
      <trkpt lat="46.18458" lon="6.84928">
        <ele>1472</ele>
        <time>2000-01-01T08:13:27.000Z</time>
      </trkpt>
      <trkpt lat="46.1847" lon="6.84985">
        <ele>1465</ele>
        <time>2000-01-01T08:13:37.000Z</time>
      </trkpt>
      <trkpt lat="46.18467" lon="6.85022">
        <ele>1466</ele>
        <time>2000-01-01T08:13:47.000Z</time>
      </trkpt>
      <trkpt lat="46.18466" lon="6.85027">
        <ele>1442.1</ele>
        <time>2000-01-01T08:13:57.000Z</time>
      </trkpt>
      <trkpt lat="46.18447" lon="6.85058">
        <ele>1466</ele>
        <time>2000-01-01T08:14:07.000Z</time>
      </trkpt>
      <trkpt lat="46.18445" lon="6.85092">
        <ele>1466</ele>
        <time>2000-01-01T08:14:17.000Z</time>
      </trkpt>
      <trkpt lat="46.18443" lon="6.85129">
        <ele>1461</ele>
        <time>2000-01-01T08:14:27.000Z</time>
      </trkpt>
      <trkpt lat="46.18466" lon="6.8517">
        <ele>1456</ele>
        <time>2000-01-01T08:14:37.000Z</time>
      </trkpt>
      <trkpt lat="46.18481" lon="6.85201">
        <ele>1448</ele>
        <time>2000-01-01T08:14:47.000Z</time>
      </trkpt>
      <trkpt lat="46.18501" lon="6.85241">
        <ele>1444</ele>
        <time>2000-01-01T08:14:57.000Z</time>
      </trkpt>
      <trkpt lat="46.18508" lon="6.85274">
        <ele>1440</ele>
        <time>2000-01-01T08:15:07.000Z</time>
      </trkpt>
      <trkpt lat="46.18515" lon="6.85308">
        <ele>1438</ele>
        <time>2000-01-01T08:15:17.000Z</time>
      </trkpt>
      <trkpt lat="46.18524" lon="6.85342">
        <ele>1436</ele>
        <time>2000-01-01T08:15:27.000Z</time>
      </trkpt>
      <trkpt lat="46.18534" lon="6.85383">
        <ele>1435</ele>
        <time>2000-01-01T08:15:37.000Z</time>
      </trkpt>
      <trkpt lat="46.18544" lon="6.85445">
        <ele>1433</ele>
        <time>2000-01-01T08:15:47.000Z</time>
      </trkpt>
      <trkpt lat="46.18551" lon="6.85479">
        <ele>1428</ele>
        <time>2000-01-01T08:15:57.000Z</time>
      </trkpt>
      <trkpt lat="46.1856" lon="6.85518">
        <ele>1427</ele>
        <time>2000-01-01T08:16:07.000Z</time>
      </trkpt>
      <trkpt lat="46.18581" lon="6.85565">
        <ele>1424</ele>
        <time>2000-01-01T08:16:17.000Z</time>
      </trkpt>
      <trkpt lat="46.1858" lon="6.85608">
        <ele>1421</ele>
        <time>2000-01-01T08:16:27.000Z</time>
      </trkpt>
      <trkpt lat="46.18586" lon="6.85646">
        <ele>1419</ele>
        <time>2000-01-01T08:16:37.000Z</time>
      </trkpt>
      <trkpt lat="46.18577" lon="6.8569">
        <ele>1423</ele>
        <time>2000-01-01T08:16:47.000Z</time>
      </trkpt>
      <trkpt lat="46.18554" lon="6.85722">
        <ele>1427</ele>
        <time>2000-01-01T08:16:57.000Z</time>
      </trkpt>
      <trkpt lat="46.18542" lon="6.85741">
        <ele>1417.8</ele>
        <time>2000-01-01T08:17:07.000Z</time>
      </trkpt>
      <trkpt lat="46.18556" lon="6.85874">
        <ele>1424</ele>
        <time>2000-01-01T08:17:17.000Z</time>
      </trkpt>
      <trkpt lat="46.18563" lon="6.85908">
        <ele>1421</ele>
        <time>2000-01-01T08:17:27.000Z</time>
      </trkpt>
      <trkpt lat="46.18571" lon="6.85947">
        <ele>1416</ele>
        <time>2000-01-01T08:17:37.000Z</time>
      </trkpt>
      <trkpt lat="46.18579" lon="6.85979">
        <ele>1411</ele>
        <time>2000-01-01T08:17:47.000Z</time>
      </trkpt>
      <trkpt lat="46.18587" lon="6.86012">
        <ele>1410</ele>
        <time>2000-01-01T08:17:57.000Z</time>
      </trkpt>
      <trkpt lat="46.18576" lon="6.86071">
        <ele>1410</ele>
        <time>2000-01-01T08:18:07.000Z</time>
      </trkpt>
      <trkpt lat="46.1858" lon="6.8611">
        <ele>1405</ele>
        <time>2000-01-01T08:18:17.000Z</time>
      </trkpt>
      <trkpt lat="46.18585" lon="6.86163">
        <ele>1401</ele>
        <time>2000-01-01T08:18:27.000Z</time>
      </trkpt>
      <trkpt lat="46.18581" lon="6.86198">
        <ele>1401</ele>
        <time>2000-01-01T08:18:37.000Z</time>
      </trkpt>
      <trkpt lat="46.18578" lon="6.86235">
        <ele>1406</ele>
        <time>2000-01-01T08:18:47.000Z</time>
      </trkpt>
      <trkpt lat="46.1858" lon="6.86273">
        <ele>1406</ele>
        <time>2000-01-01T08:18:57.000Z</time>
      </trkpt>
      <trkpt lat="46.18584" lon="6.86322">
        <ele>1400</ele>
        <time>2000-01-01T08:19:07.000Z</time>
      </trkpt>
      <trkpt lat="46.1859" lon="6.86367">
        <ele>1391</ele>
        <time>2000-01-01T08:19:17.000Z</time>
      </trkpt>
      <trkpt lat="46.18597" lon="6.86408">
        <ele>1390</ele>
        <time>2000-01-01T08:19:27.000Z</time>
      </trkpt>
      <trkpt lat="46.18604" lon="6.86429">
        <ele>1369.3</ele>
        <time>2000-01-01T08:19:37.000Z</time>
      </trkpt>
      <trkpt lat="46.18597" lon="6.86574">
        <ele>1381</ele>
        <time>2000-01-01T08:19:47.000Z</time>
      </trkpt>
      <trkpt lat="46.18588" lon="6.86599">
        <ele>1372</ele>
        <time>2000-01-01T08:19:57.000Z</time>
      </trkpt>
      <trkpt lat="46.18587" lon="6.86625">
        <ele>1361.3</ele>
        <time>2000-01-01T08:20:07.000Z</time>
      </trkpt>
      <trkpt lat="46.1857" lon="6.86673">
        <ele>1362</ele>
        <time>2000-01-01T08:20:17.000Z</time>
      </trkpt>
      <trkpt lat="46.18577" lon="6.86713">
        <ele>1358</ele>
        <time>2000-01-01T08:20:27.000Z</time>
      </trkpt>
      <trkpt lat="46.18589" lon="6.86777">
        <ele>1351</ele>
        <time>2000-01-01T08:20:37.000Z</time>
      </trkpt>
      <trkpt lat="46.18578" lon="6.86817">
        <ele>1348</ele>
        <time>2000-01-01T08:20:47.000Z</time>
      </trkpt>
      <trkpt lat="46.18569" lon="6.86868">
        <ele>1344</ele>
        <time>2000-01-01T08:20:57.000Z</time>
      </trkpt>
      <trkpt lat="46.18551" lon="6.86896">
        <ele>1342</ele>
        <time>2000-01-01T08:21:07.000Z</time>
      </trkpt>
      <trkpt lat="46.18536" lon="6.86866">
        <ele>1341</ele>
        <time>2000-01-01T08:21:17.000Z</time>
      </trkpt>
      <trkpt lat="46.18517" lon="6.86829">
        <ele>1341</ele>
        <time>2000-01-01T08:21:27.000Z</time>
      </trkpt>
      <trkpt lat="46.1849" lon="6.86794">
        <ele>1339</ele>
        <time>2000-01-01T08:21:37.000Z</time>
      </trkpt>
      <trkpt lat="46.18471" lon="6.86769">
        <ele>1338</ele>
        <time>2000-01-01T08:21:47.000Z</time>
      </trkpt>
      <trkpt lat="46.18449" lon="6.86738">
        <ele>1336</ele>
        <time>2000-01-01T08:21:57.000Z</time>
      </trkpt>
      <trkpt lat="46.1843" lon="6.86716">
        <ele>1335</ele>
        <time>2000-01-01T08:22:07.000Z</time>
      </trkpt>
      <trkpt lat="46.18406" lon="6.8669">
        <ele>1328</ele>
        <time>2000-01-01T08:22:17.000Z</time>
      </trkpt>
      <trkpt lat="46.18377" lon="6.8666">
        <ele>1323</ele>
        <time>2000-01-01T08:22:27.000Z</time>
      </trkpt>
      <trkpt lat="46.18359" lon="6.86636">
        <ele>1323</ele>
        <time>2000-01-01T08:22:37.000Z</time>
      </trkpt>
      <trkpt lat="46.18341" lon="6.86613">
        <ele>1323</ele>
        <time>2000-01-01T08:22:47.000Z</time>
      </trkpt>
      <trkpt lat="46.18321" lon="6.86589">
        <ele>1322</ele>
        <time>2000-01-01T08:22:57.000Z</time>
      </trkpt>
      <trkpt lat="46.18302" lon="6.86574">
        <ele>1318</ele>
        <time>2000-01-01T08:23:07.000Z</time>
      </trkpt>
      <trkpt lat="46.1827" lon="6.86574">
        <ele>1310</ele>
        <time>2000-01-01T08:23:17.000Z</time>
      </trkpt>
      <trkpt lat="46.18236" lon="6.86544">
        <ele>1308</ele>
        <time>2000-01-01T08:23:27.000Z</time>
      </trkpt>
      <trkpt lat="46.1821" lon="6.86518">
        <ele>1308</ele>
        <time>2000-01-01T08:23:37.000Z</time>
      </trkpt>
      <trkpt lat="46.1818" lon="6.86522">
        <ele>1300</ele>
        <time>2000-01-01T08:23:47.000Z</time>
      </trkpt>
      <trkpt lat="46.18149" lon="6.86516">
        <ele>1301</ele>
        <time>2000-01-01T08:23:57.000Z</time>
      </trkpt>
      <trkpt lat="46.1814" lon="6.8647">
        <ele>1300</ele>
        <time>2000-01-01T08:24:07.000Z</time>
      </trkpt>
      <trkpt lat="46.18108" lon="6.86464">
        <ele>1300</ele>
        <time>2000-01-01T08:24:17.000Z</time>
      </trkpt>
      <trkpt lat="46.1808" lon="6.86454">
        <ele>1296</ele>
        <time>2000-01-01T08:24:27.000Z</time>
      </trkpt>
      <trkpt lat="46.18034" lon="6.86438">
        <ele>1294</ele>
        <time>2000-01-01T08:24:37.000Z</time>
      </trkpt>
      <trkpt lat="46.18008" lon="6.86419">
        <ele>1294</ele>
        <time>2000-01-01T08:24:47.000Z</time>
      </trkpt>
      <trkpt lat="46.17986" lon="6.86404">
        <ele>1294</ele>
        <time>2000-01-01T08:24:57.000Z</time>
      </trkpt>
      <trkpt lat="46.17962" lon="6.86388">
        <ele>1294</ele>
        <time>2000-01-01T08:25:07.000Z</time>
      </trkpt>
      <trkpt lat="46.17932" lon="6.86362">
        <ele>1290</ele>
        <time>2000-01-01T08:25:17.000Z</time>
      </trkpt>
      <trkpt lat="46.17891" lon="6.86353">
        <ele>1286</ele>
        <time>2000-01-01T08:25:27.000Z</time>
      </trkpt>
      <trkpt lat="46.17858" lon="6.8631">
        <ele>1283</ele>
        <time>2000-01-01T08:25:37.000Z</time>
      </trkpt>
      <trkpt lat="46.17823" lon="6.86307">
        <ele>1280</ele>
        <time>2000-01-01T08:25:47.000Z</time>
      </trkpt>
      <trkpt lat="46.17779" lon="6.86306">
        <ele>1266</ele>
        <time>2000-01-01T08:25:57.000Z</time>
      </trkpt>
      <trkpt lat="46.17736" lon="6.86298">
        <ele>1262</ele>
        <time>2000-01-01T08:26:07.000Z</time>
      </trkpt>
      <trkpt lat="46.17712" lon="6.86296">
        <ele>1258</ele>
        <time>2000-01-01T08:26:17.000Z</time>
      </trkpt>
      <trkpt lat="46.17687" lon="6.86293">
        <ele>1251</ele>
        <time>2000-01-01T08:26:27.000Z</time>
      </trkpt>
      <trkpt lat="46.17657" lon="6.86266">
        <ele>1251</ele>
        <time>2000-01-01T08:26:37.000Z</time>
      </trkpt>
      <trkpt lat="46.17643" lon="6.86225">
        <ele>1251</ele>
        <time>2000-01-01T08:26:47.000Z</time>
      </trkpt>
      <trkpt lat="46.17611" lon="6.86182">
        <ele>1258</ele>
        <time>2000-01-01T08:26:57.000Z</time>
      </trkpt>
      <trkpt lat="46.17595" lon="6.86135">
        <ele>1260</ele>
        <time>2000-01-01T08:27:07.000Z</time>
      </trkpt>
      <trkpt lat="46.17566" lon="6.86119">
        <ele>1255</ele>
        <time>2000-01-01T08:27:17.000Z</time>
      </trkpt>
      <trkpt lat="46.17543" lon="6.86126">
        <ele>1251</ele>
        <time>2000-01-01T08:27:27.000Z</time>
      </trkpt>
      <trkpt lat="46.17519" lon="6.86134">
        <ele>1240</ele>
        <time>2000-01-01T08:27:37.000Z</time>
      </trkpt>
      <trkpt lat="46.1748" lon="6.86119">
        <ele>1240</ele>
        <time>2000-01-01T08:27:47.000Z</time>
      </trkpt>
      <trkpt lat="46.17464" lon="6.86093">
        <ele>1241</ele>
        <time>2000-01-01T08:27:57.000Z</time>
      </trkpt>
      <trkpt lat="46.17447" lon="6.86064">
        <ele>1237</ele>
        <time>2000-01-01T08:28:07.000Z</time>
      </trkpt>
      <trkpt lat="46.17415" lon="6.86072">
        <ele>1234</ele>
        <time>2000-01-01T08:28:17.000Z</time>
      </trkpt>
      <trkpt lat="46.17401" lon="6.86066">
        <ele>1221.9</ele>
        <time>2000-01-01T08:28:27.000Z</time>
      </trkpt>
      <trkpt lat="46.17379" lon="6.86051">
        <ele>1230</ele>
        <time>2000-01-01T08:28:37.000Z</time>
      </trkpt>
      <trkpt lat="46.1734" lon="6.86056">
        <ele>1223</ele>
        <time>2000-01-01T08:28:47.000Z</time>
      </trkpt>
      <trkpt lat="46.17308" lon="6.86031">
        <ele>1228</ele>
        <time>2000-01-01T08:28:57.000Z</time>
      </trkpt>
      <trkpt lat="46.17304" lon="6.85997">
        <ele>1233</ele>
        <time>2000-01-01T08:29:07.000Z</time>
      </trkpt>
      <trkpt lat="46.1728" lon="6.85962">
        <ele>1236</ele>
        <time>2000-01-01T08:29:17.000Z</time>
      </trkpt>
      <trkpt lat="46.17259" lon="6.85965">
        <ele>1232</ele>
        <time>2000-01-01T08:29:27.000Z</time>
      </trkpt>
      <trkpt lat="46.17228" lon="6.85983">
        <ele>1228</ele>
        <time>2000-01-01T08:29:37.000Z</time>
      </trkpt>
      <trkpt lat="46.17196" lon="6.86017">
        <ele>1211</ele>
        <time>2000-01-01T08:29:47.000Z</time>
      </trkpt>
      <trkpt lat="46.17179" lon="6.86057">
        <ele>1193</ele>
        <time>2000-01-01T08:29:57.000Z</time>
      </trkpt>
      <trkpt lat="46.17156" lon="6.86054">
        <ele>1192</ele>
        <time>2000-01-01T08:30:07.000Z</time>
      </trkpt>
      <trkpt lat="46.17132" lon="6.86051">
        <ele>1192</ele>
        <time>2000-01-01T08:30:17.000Z</time>
      </trkpt>
      <trkpt lat="46.17106" lon="6.86041">
        <ele>1192</ele>
        <time>2000-01-01T08:30:27.000Z</time>
      </trkpt>
      <trkpt lat="46.17073" lon="6.86028">
        <ele>1195</ele>
        <time>2000-01-01T08:30:37.000Z</time>
      </trkpt>
      <trkpt lat="46.17046" lon="6.86016">
        <ele>1195</ele>
        <time>2000-01-01T08:30:47.000Z</time>
      </trkpt>
      <trkpt lat="46.17007" lon="6.85997">
        <ele>1194</ele>
        <time>2000-01-01T08:30:57.000Z</time>
      </trkpt>
      <trkpt lat="46.16981" lon="6.85996">
        <ele>1192</ele>
        <time>2000-01-01T08:31:07.000Z</time>
      </trkpt>
      <trkpt lat="46.16947" lon="6.85993">
        <ele>1187</ele>
        <time>2000-01-01T08:31:17.000Z</time>
      </trkpt>
      <trkpt lat="46.16919" lon="6.85986">
        <ele>1186</ele>
        <time>2000-01-01T08:31:27.000Z</time>
      </trkpt>
      <trkpt lat="46.16875" lon="6.85975">
        <ele>1179</ele>
        <time>2000-01-01T08:31:37.000Z</time>
      </trkpt>
      <trkpt lat="46.16841" lon="6.85955">
        <ele>1178</ele>
        <time>2000-01-01T08:31:47.000Z</time>
      </trkpt>
      <trkpt lat="46.16848" lon="6.85978">
        <ele>1170.4</ele>
        <time>2000-01-01T08:31:57.000Z</time>
      </trkpt>
      <trkpt lat="46.1695" lon="6.86059">
        <ele>1167</ele>
        <time>2000-01-01T08:32:07.000Z</time>
      </trkpt>
      <trkpt lat="46.16973" lon="6.86075">
        <ele>1162</ele>
        <time>2000-01-01T08:32:17.000Z</time>
      </trkpt>
      <trkpt lat="46.16999" lon="6.86094">
        <ele>1157</ele>
        <time>2000-01-01T08:32:27.000Z</time>
      </trkpt>
      <trkpt lat="46.16998" lon="6.86097">
        <ele>1146.8</ele>
        <time>2000-01-01T08:32:37.000Z</time>
      </trkpt>
      <trkpt lat="46.17018" lon="6.86111">
        <ele>1153</ele>
        <time>2000-01-01T08:32:47.000Z</time>
      </trkpt>
      <trkpt lat="46.17034" lon="6.86128">
        <ele>1153</ele>
        <time>2000-01-01T08:32:57.000Z</time>
      </trkpt>
      <trkpt lat="46.17054" lon="6.86156">
        <ele>1146</ele>
        <time>2000-01-01T08:33:07.000Z</time>
      </trkpt>
      <trkpt lat="46.17084" lon="6.86198">
        <ele>1139</ele>
        <time>2000-01-01T08:33:17.000Z</time>
      </trkpt>
      <trkpt lat="46.171" lon="6.86229">
        <ele>1128</ele>
        <time>2000-01-01T08:33:27.000Z</time>
      </trkpt>
      <trkpt lat="46.17121" lon="6.86272">
        <ele>1115</ele>
        <time>2000-01-01T08:33:37.000Z</time>
      </trkpt>
      <trkpt lat="46.17153" lon="6.86307">
        <ele>1107</ele>
        <time>2000-01-01T08:33:47.000Z</time>
      </trkpt>
      <trkpt lat="46.17176" lon="6.86349">
        <ele>1099</ele>
        <time>2000-01-01T08:33:57.000Z</time>
      </trkpt>
      <trkpt lat="46.17194" lon="6.86361">
        <ele>1095</ele>
        <time>2000-01-01T08:34:07.000Z</time>
      </trkpt>
      <trkpt lat="46.17203" lon="6.86365">
        <ele>1089.8</ele>
        <time>2000-01-01T08:34:17.000Z</time>
      </trkpt>
      <trkpt lat="46.17273" lon="6.8645">
        <ele>1083</ele>
        <time>2000-01-01T08:34:27.000Z</time>
      </trkpt>
      <trkpt lat="46.17297" lon="6.86476">
        <ele>1083</ele>
        <time>2000-01-01T08:34:37.000Z</time>
      </trkpt>
      <trkpt lat="46.17319" lon="6.86503">
        <ele>1081</ele>
        <time>2000-01-01T08:34:47.000Z</time>
      </trkpt>
      <trkpt lat="46.17354" lon="6.86548">
        <ele>1079</ele>
        <time>2000-01-01T08:34:57.000Z</time>
      </trkpt>
      <trkpt lat="46.17372" lon="6.86572">
        <ele>1077</ele>
        <time>2000-01-01T08:35:07.000Z</time>
      </trkpt>
      <trkpt lat="46.17394" lon="6.86601">
        <ele>1076</ele>
        <time>2000-01-01T08:35:17.000Z</time>
      </trkpt>
      <trkpt lat="46.17403" lon="6.86609">
        <ele>1075.3</ele>
        <time>2000-01-01T08:35:27.000Z</time>
      </trkpt>
      <trkpt lat="46.17418" lon="6.86616">
        <ele>1076</ele>
        <time>2000-01-01T08:35:37.000Z</time>
      </trkpt>
      <trkpt lat="46.17449" lon="6.86628">
        <ele>1076</ele>
        <time>2000-01-01T08:35:47.000Z</time>
      </trkpt>
      <trkpt lat="46.17479" lon="6.8664">
        <ele>1075</ele>
        <time>2000-01-01T08:35:57.000Z</time>
      </trkpt>
      <trkpt lat="46.17514" lon="6.86654">
        <ele>1073</ele>
        <time>2000-01-01T08:36:07.000Z</time>
      </trkpt>
      <trkpt lat="46.17522" lon="6.8667">
        <ele>1063.6</ele>
        <time>2000-01-01T08:36:17.000Z</time>
      </trkpt>
      <trkpt lat="46.17472" lon="6.8673">
        <ele>1060</ele>
        <time>2000-01-01T08:36:27.000Z</time>
      </trkpt>
      <trkpt lat="46.17437" lon="6.86764">
        <ele>1056</ele>
        <time>2000-01-01T08:36:37.000Z</time>
      </trkpt>
      <trkpt lat="46.17436" lon="6.86785">
        <ele>1050.4</ele>
        <time>2000-01-01T08:36:47.000Z</time>
      </trkpt>
      <trkpt lat="46.17443" lon="6.86806">
        <ele>1053</ele>
        <time>2000-01-01T08:36:57.000Z</time>
      </trkpt>
      <trkpt lat="46.17466" lon="6.8684">
        <ele>1050</ele>
        <time>2000-01-01T08:37:07.000Z</time>
      </trkpt>
      <trkpt lat="46.1749" lon="6.86873">
        <ele>1046</ele>
        <time>2000-01-01T08:37:17.000Z</time>
      </trkpt>
      <trkpt lat="46.17522" lon="6.8692">
        <ele>1044</ele>
        <time>2000-01-01T08:37:27.000Z</time>
      </trkpt>
      <trkpt lat="46.17528" lon="6.86936">
        <ele>1040.6</ele>
        <time>2000-01-01T08:37:37.000Z</time>
      </trkpt>
      <trkpt lat="46.17529" lon="6.86944">
        <ele>1040.1</ele>
        <time>2000-01-01T08:37:47.000Z</time>
      </trkpt>
      <trkpt lat="46.17521" lon="6.86983">
        <ele>1039</ele>
        <time>2000-01-01T08:37:57.000Z</time>
      </trkpt>
      <trkpt lat="46.1751" lon="6.87041">
        <ele>1036</ele>
        <time>2000-01-01T08:38:07.000Z</time>
      </trkpt>
      <trkpt lat="46.17491" lon="6.87032">
        <ele>1036</ele>
        <time>2000-01-01T08:38:17.000Z</time>
      </trkpt>
      <trkpt lat="46.17491" lon="6.86987">
        <ele>1039</ele>
        <time>2000-01-01T08:38:27.000Z</time>
      </trkpt>
      <trkpt lat="46.17491" lon="6.86901">
        <ele>1044</ele>
        <time>2000-01-01T08:38:37.000Z</time>
      </trkpt>
      <trkpt lat="46.17492" lon="6.86836">
        <ele>1051</ele>
        <time>2000-01-01T08:38:47.000Z</time>
      </trkpt>
      <trkpt lat="46.17492" lon="6.8677">
        <ele>1055</ele>
        <time>2000-01-01T08:38:57.000Z</time>
      </trkpt>
      <trkpt lat="46.17493" lon="6.86705">
        <ele>1064</ele>
        <time>2000-01-01T08:39:07.000Z</time>
      </trkpt>
      <trkpt lat="46.17493" lon="6.8666">
        <ele>1069</ele>
        <time>2000-01-01T08:39:17.000Z</time>
      </trkpt>
      <trkpt lat="46.17493" lon="6.86574">
        <ele>1093</ele>
        <time>2000-01-01T08:39:27.000Z</time>
      </trkpt>
      <trkpt lat="46.17494" lon="6.86508">
        <ele>1115</ele>
        <time>2000-01-01T08:39:37.000Z</time>
      </trkpt>
      <trkpt lat="46.17494" lon="6.86463">
        <ele>1132</ele>
        <time>2000-01-01T08:39:47.000Z</time>
      </trkpt>
      <trkpt lat="46.17494" lon="6.86377">
        <ele>1164</ele>
        <time>2000-01-01T08:39:57.000Z</time>
      </trkpt>
      <trkpt lat="46.17495" lon="6.86312">
        <ele>1185</ele>
        <time>2000-01-01T08:40:07.000Z</time>
      </trkpt>
      <trkpt lat="46.17495" lon="6.86246">
        <ele>1203</ele>
        <time>2000-01-01T08:40:17.000Z</time>
      </trkpt>
      <trkpt lat="46.17496" lon="6.8618">
        <ele>1218</ele>
        <time>2000-01-01T08:40:27.000Z</time>
      </trkpt>
      <trkpt lat="46.17496" lon="6.86135">
        <ele>1233</ele>
        <time>2000-01-01T08:40:37.000Z</time>
      </trkpt>
      <trkpt lat="46.17496" lon="6.86049">
        <ele>1269</ele>
        <time>2000-01-01T08:40:47.000Z</time>
      </trkpt>
      <trkpt lat="46.17497" lon="6.85984">
        <ele>1295</ele>
        <time>2000-01-01T08:40:57.000Z</time>
      </trkpt>
      <trkpt lat="46.17497" lon="6.85918">
        <ele>1317</ele>
        <time>2000-01-01T08:41:07.000Z</time>
      </trkpt>
      <trkpt lat="46.17498" lon="6.85853">
        <ele>1336</ele>
        <time>2000-01-01T08:41:17.000Z</time>
      </trkpt>
      <trkpt lat="46.17498" lon="6.85808">
        <ele>1355</ele>
        <time>2000-01-01T08:41:27.000Z</time>
      </trkpt>
      <trkpt lat="46.17498" lon="6.85722">
        <ele>1385</ele>
        <time>2000-01-01T08:41:37.000Z</time>
      </trkpt>
      <trkpt lat="46.17499" lon="6.85656">
        <ele>1418</ele>
        <time>2000-01-01T08:41:47.000Z</time>
      </trkpt>
      <trkpt lat="46.17499" lon="6.85611">
        <ele>1441</ele>
        <time>2000-01-01T08:41:57.000Z</time>
      </trkpt>
      <trkpt lat="46.17499" lon="6.85525">
        <ele>1472</ele>
        <time>2000-01-01T08:42:07.000Z</time>
      </trkpt>
      <trkpt lat="46.175" lon="6.8546">
        <ele>1487</ele>
        <time>2000-01-01T08:42:17.000Z</time>
      </trkpt>
      <trkpt lat="46.175" lon="6.85394">
        <ele>1497</ele>
        <time>2000-01-01T08:42:27.000Z</time>
      </trkpt>
      <trkpt lat="46.17501" lon="6.85329">
        <ele>1515</ele>
        <time>2000-01-01T08:42:37.000Z</time>
      </trkpt>
      <trkpt lat="46.17501" lon="6.85284">
        <ele>1532</ele>
        <time>2000-01-01T08:42:47.000Z</time>
      </trkpt>
      <trkpt lat="46.17501" lon="6.85197">
        <ele>1557</ele>
        <time>2000-01-01T08:42:57.000Z</time>
      </trkpt>
      <trkpt lat="46.17502" lon="6.85132">
        <ele>1580</ele>
        <time>2000-01-01T08:43:07.000Z</time>
      </trkpt>
      <trkpt lat="46.17502" lon="6.85066">
        <ele>1609</ele>
        <time>2000-01-01T08:43:17.000Z</time>
      </trkpt>
      <trkpt lat="46.17503" lon="6.85001">
        <ele>1640</ele>
        <time>2000-01-01T08:43:27.000Z</time>
      </trkpt>
      <trkpt lat="46.17503" lon="6.84956">
        <ele>1666</ele>
        <time>2000-01-01T08:43:37.000Z</time>
      </trkpt>
      <trkpt lat="46.17503" lon="6.8487">
        <ele>1721</ele>
        <time>2000-01-01T08:43:47.000Z</time>
      </trkpt>
      <trkpt lat="46.17504" lon="6.84804">
        <ele>1780</ele>
        <time>2000-01-01T08:43:57.000Z</time>
      </trkpt>
      <trkpt lat="46.17504" lon="6.84763">
        <ele>1808</ele>
        <time>2000-01-01T08:44:07.000Z</time>
      </trkpt>
      <trkpt lat="46.17504" lon="6.84697">
        <ele>1872</ele>
        <time>2000-01-01T08:44:17.000Z</time>
      </trkpt>
      <trkpt lat="46.17505" lon="6.84632">
        <ele>1909</ele>
        <time>2000-01-01T08:44:27.000Z</time>
      </trkpt>
      <trkpt lat="46.17511" lon="6.8459">
        <ele>1923</ele>
        <time>2000-01-01T08:44:37.000Z</time>
      </trkpt>
      <trkpt lat="46.17521" lon="6.8452">
        <ele>1921</ele>
        <time>2000-01-01T08:44:47.000Z</time>
      </trkpt>
      <trkpt lat="46.1753" lon="6.845">
        <ele>1932.3</ele>
        <time>2000-01-01T08:44:57.000Z</time>
      </trkpt>
      <trkpt lat="46.17556" lon="6.84463">
        <ele>1919</ele>
        <time>2000-01-01T08:45:07.000Z</time>
      </trkpt>
      <trkpt lat="46.17573" lon="6.84448">
        <ele>1916</ele>
        <time>2000-01-01T08:45:17.000Z</time>
      </trkpt>
      <trkpt lat="46.17576" lon="6.84427">
        <ele>1920.6</ele>
        <time>2000-01-01T08:45:27.000Z</time>
      </trkpt>
      <trkpt lat="46.17576" lon="6.8438">
        <ele>1907</ele>
        <time>2000-01-01T08:45:37.000Z</time>
      </trkpt>
      <trkpt lat="46.1758" lon="6.84331">
        <ele>1899</ele>
        <time>2000-01-01T08:45:47.000Z</time>
      </trkpt>
      <trkpt lat="46.1758" lon="6.8432">
        <ele>1908</ele>
        <time>2000-01-01T08:45:57.000Z</time>
      </trkpt>
      <trkpt lat="46.17576" lon="6.84308">
        <ele>1907.4</ele>
        <time>2000-01-01T08:46:07.000Z</time>
      </trkpt>
      <trkpt lat="46.17574" lon="6.84274">
        <ele>1899</ele>
        <time>2000-01-01T08:46:17.000Z</time>
      </trkpt>
      <trkpt lat="46.1757" lon="6.84241">
        <ele>1899</ele>
        <time>2000-01-01T08:46:27.000Z</time>
      </trkpt>
      <trkpt lat="46.17573" lon="6.84193">
        <ele>1898</ele>
        <time>2000-01-01T08:46:37.000Z</time>
      </trkpt>
      <trkpt lat="46.17586" lon="6.8414">
        <ele>1898</ele>
        <time>2000-01-01T08:46:47.000Z</time>
      </trkpt>
      <trkpt lat="46.17595" lon="6.84075">
        <ele>1893</ele>
        <time>2000-01-01T08:46:57.000Z</time>
      </trkpt>
      <trkpt lat="46.17604" lon="6.84037">
        <ele>1892</ele>
        <time>2000-01-01T08:47:07.000Z</time>
      </trkpt>
      <trkpt lat="46.17616" lon="6.83983">
        <ele>1892</ele>
        <time>2000-01-01T08:47:17.000Z</time>
      </trkpt>
      <trkpt lat="46.17621" lon="6.83942">
        <ele>1888</ele>
        <time>2000-01-01T08:47:27.000Z</time>
      </trkpt>
      <trkpt lat="46.1763" lon="6.83875">
        <ele>1880</ele>
        <time>2000-01-01T08:47:37.000Z</time>
      </trkpt>
      <trkpt lat="46.17635" lon="6.83856">
        <ele>1878.8</ele>
        <time>2000-01-01T08:47:47.000Z</time>
      </trkpt>
      <trkpt lat="46.17655" lon="6.83803">
        <ele>1871</ele>
        <time>2000-01-01T08:47:57.000Z</time>
      </trkpt>
      <trkpt lat="46.17666" lon="6.83781">
        <ele>1869</ele>
        <time>2000-01-01T08:48:07.000Z</time>
      </trkpt>
      <trkpt lat="46.17678" lon="6.83763">
        <ele>1867.6</ele>
        <time>2000-01-01T08:48:17.000Z</time>
      </trkpt>
      <trkpt lat="46.17701" lon="6.83752">
        <ele>1864</ele>
        <time>2000-01-01T08:48:27.000Z</time>
      </trkpt>
      <trkpt lat="46.17727" lon="6.83744">
        <ele>1861</ele>
        <time>2000-01-01T08:48:37.000Z</time>
      </trkpt>
      <trkpt lat="46.17739" lon="6.83744">
        <ele>1861.8</ele>
        <time>2000-01-01T08:48:47.000Z</time>
      </trkpt>
      <trkpt lat="46.17756" lon="6.83727">
        <ele>1858</ele>
        <time>2000-01-01T08:48:57.000Z</time>
      </trkpt>
      <trkpt lat="46.17761" lon="6.83719">
        <ele>1855.6</ele>
        <time>2000-01-01T08:49:07.000Z</time>
      </trkpt>
      <trkpt lat="46.17765" lon="6.83703">
        <ele>1852</ele>
        <time>2000-01-01T08:49:17.000Z</time>
      </trkpt>
      <trkpt lat="46.17765" lon="6.83673">
        <ele>1848</ele>
        <time>2000-01-01T08:49:27.000Z</time>
      </trkpt>
      <trkpt lat="46.17747" lon="6.83645">
        <ele>1844</ele>
        <time>2000-01-01T08:49:37.000Z</time>
      </trkpt>
      <trkpt lat="46.17741" lon="6.83632">
        <ele>1841.5</ele>
        <time>2000-01-01T08:49:47.000Z</time>
      </trkpt>
      <trkpt lat="46.17739" lon="6.83616">
        <ele>1839</ele>
        <time>2000-01-01T08:49:57.000Z</time>
      </trkpt>
      <trkpt lat="46.17743" lon="6.83587">
        <ele>1835</ele>
        <time>2000-01-01T08:50:07.000Z</time>
      </trkpt>
      <trkpt lat="46.17754" lon="6.83554">
        <ele>1832</ele>
        <time>2000-01-01T08:50:17.000Z</time>
      </trkpt>
      <trkpt lat="46.17766" lon="6.83515">
        <ele>1828</ele>
        <time>2000-01-01T08:50:27.000Z</time>
      </trkpt>
      <trkpt lat="46.1777" lon="6.8347">
        <ele>1823</ele>
        <time>2000-01-01T08:50:37.000Z</time>
      </trkpt>
      <trkpt lat="46.17776" lon="6.83461">
        <ele>1828.2</ele>
        <time>2000-01-01T08:50:47.000Z</time>
      </trkpt>
      <trkpt lat="46.17778" lon="6.83448">
        <ele>1827.2</ele>
        <time>2000-01-01T08:50:57.000Z</time>
      </trkpt>
      <trkpt lat="46.17776" lon="6.83421">
        <ele>1819</ele>
        <time>2000-01-01T08:51:07.000Z</time>
      </trkpt>
      <trkpt lat="46.17764" lon="6.83385">
        <ele>1815</ele>
        <time>2000-01-01T08:51:17.000Z</time>
      </trkpt>
      <trkpt lat="46.17751" lon="6.83356">
        <ele>1810</ele>
        <time>2000-01-01T08:51:27.000Z</time>
      </trkpt>
      <trkpt lat="46.17755" lon="6.83346">
        <ele>1814.5</ele>
        <time>2000-01-01T08:51:37.000Z</time>
      </trkpt>
      <trkpt lat="46.17763" lon="6.83337">
        <ele>1812.9</ele>
        <time>2000-01-01T08:51:47.000Z</time>
      </trkpt>
      <trkpt lat="46.17764" lon="6.83329">
        <ele>1808</ele>
        <time>2000-01-01T08:51:57.000Z</time>
      </trkpt>
      <trkpt lat="46.17778" lon="6.83292">
        <ele>1806</ele>
        <time>2000-01-01T08:52:07.000Z</time>
      </trkpt>
      <trkpt lat="46.1779" lon="6.83262">
        <ele>1806</ele>
        <time>2000-01-01T08:52:17.000Z</time>
      </trkpt>
      <trkpt lat="46.17802" lon="6.83229">
        <ele>1806</ele>
        <time>2000-01-01T08:52:27.000Z</time>
      </trkpt>
      <trkpt lat="46.17807" lon="6.83197">
        <ele>1806</ele>
        <time>2000-01-01T08:52:37.000Z</time>
      </trkpt>
      <trkpt lat="46.17821" lon="6.83138">
        <ele>1807</ele>
        <time>2000-01-01T08:52:47.000Z</time>
      </trkpt>
      <trkpt lat="46.17835" lon="6.83087">
        <ele>1807</ele>
        <time>2000-01-01T08:52:57.000Z</time>
      </trkpt>
      <trkpt lat="46.17842" lon="6.83048">
        <ele>1805</ele>
        <time>2000-01-01T08:53:07.000Z</time>
      </trkpt>
      <trkpt lat="46.17854" lon="6.83053">
        <ele>1808.1</ele>
        <time>2000-01-01T08:53:17.000Z</time>
      </trkpt>
      <trkpt lat="46.17865" lon="6.8305">
        <ele>1804</ele>
        <time>2000-01-01T08:53:27.000Z</time>
      </trkpt>
      <trkpt lat="46.17886" lon="6.83007">
        <ele>1803</ele>
        <time>2000-01-01T08:53:37.000Z</time>
      </trkpt>
      <trkpt lat="46.17891" lon="6.82989">
        <ele>1803.1</ele>
        <time>2000-01-01T08:53:47.000Z</time>
      </trkpt>
      <trkpt lat="46.17917" lon="6.82976">
        <ele>1799</ele>
        <time>2000-01-01T08:53:57.000Z</time>
      </trkpt>
      <trkpt lat="46.17936" lon="6.82954">
        <ele>1797</ele>
        <time>2000-01-01T08:54:07.000Z</time>
      </trkpt>
      <trkpt lat="46.17949" lon="6.8293">
        <ele>1794</ele>
        <time>2000-01-01T08:54:17.000Z</time>
      </trkpt>
      <trkpt lat="46.17962" lon="6.82916">
        <ele>1785.9</ele>
        <time>2000-01-01T08:54:27.000Z</time>
      </trkpt>
      <trkpt lat="46.17974" lon="6.82914">
        <ele>1791</ele>
        <time>2000-01-01T08:54:37.000Z</time>
      </trkpt>
      <trkpt lat="46.17989" lon="6.82921">
        <ele>1777.6</ele>
        <time>2000-01-01T08:54:47.000Z</time>
      </trkpt>
      <trkpt lat="46.18019" lon="6.82922">
        <ele>1778</ele>
        <time>2000-01-01T08:54:57.000Z</time>
      </trkpt>
      <trkpt lat="46.18022" lon="6.82928">
        <ele>1768.6</ele>
        <time>2000-01-01T08:55:07.000Z</time>
      </trkpt>
      <trkpt lat="46.1804" lon="6.82926">
        <ele>1774</ele>
        <time>2000-01-01T08:55:17.000Z</time>
      </trkpt>
      <trkpt lat="46.18055" lon="6.82916">
        <ele>1765.2</ele>
        <time>2000-01-01T08:55:27.000Z</time>
      </trkpt>
      <trkpt lat="46.18072" lon="6.829">
        <ele>1769</ele>
        <time>2000-01-01T08:55:37.000Z</time>
      </trkpt>
      <trkpt lat="46.181" lon="6.82894">
        <ele>1767</ele>
        <time>2000-01-01T08:55:47.000Z</time>
      </trkpt>
      <trkpt lat="46.18136" lon="6.8288">
        <ele>1761</ele>
        <time>2000-01-01T08:55:57.000Z</time>
      </trkpt>
      <trkpt lat="46.1814" lon="6.82881">
        <ele>1753.9</ele>
        <time>2000-01-01T08:56:07.000Z</time>
      </trkpt>
      <trkpt lat="46.18143" lon="6.82887">
        <ele>1753.2</ele>
        <time>2000-01-01T08:56:17.000Z</time>
      </trkpt>
      <trkpt lat="46.18153" lon="6.8289">
        <ele>1760</ele>
        <time>2000-01-01T08:56:27.000Z</time>
      </trkpt>
      <trkpt lat="46.18163" lon="6.82881">
        <ele>1753.9</ele>
        <time>2000-01-01T08:56:37.000Z</time>
      </trkpt>
      <trkpt lat="46.18173" lon="6.82869">
        <ele>1759</ele>
        <time>2000-01-01T08:56:47.000Z</time>
      </trkpt>
      <trkpt lat="46.18175" lon="6.82863">
        <ele>1753.9</ele>
        <time>2000-01-01T08:56:57.000Z</time>
      </trkpt>
      <trkpt lat="46.18188" lon="6.82864">
        <ele>1750.8</ele>
        <time>2000-01-01T08:57:07.000Z</time>
      </trkpt>
      <trkpt lat="46.18192" lon="6.82869">
        <ele>1756</ele>
        <time>2000-01-01T08:57:17.000Z</time>
      </trkpt>
      <trkpt lat="46.18191" lon="6.82894">
        <ele>1745.1</ele>
        <time>2000-01-01T08:57:27.000Z</time>
      </trkpt>
      <trkpt lat="46.18201" lon="6.8292">
        <ele>1744</ele>
        <time>2000-01-01T08:57:37.000Z</time>
      </trkpt>
      <trkpt lat="46.18206" lon="6.82956">
        <ele>1738</ele>
        <time>2000-01-01T08:57:47.000Z</time>
      </trkpt>
      <trkpt lat="46.18215" lon="6.82968">
        <ele>1729.7</ele>
        <time>2000-01-01T08:57:57.000Z</time>
      </trkpt>
      <trkpt lat="46.18217" lon="6.83004">
        <ele>1727</ele>
        <time>2000-01-01T08:58:07.000Z</time>
      </trkpt>
      <trkpt lat="46.18224" lon="6.83015">
        <ele>1718.2</ele>
        <time>2000-01-01T08:58:17.000Z</time>
      </trkpt>
      <trkpt lat="46.18223" lon="6.83022">
        <ele>1717</ele>
        <time>2000-01-01T08:58:27.000Z</time>
      </trkpt>
      <trkpt lat="46.18218" lon="6.83026">
        <ele>1724</ele>
        <time>2000-01-01T08:58:37.000Z</time>
      </trkpt>
      <trkpt lat="46.18224" lon="6.83051">
        <ele>1711.3</ele>
        <time>2000-01-01T08:58:47.000Z</time>
      </trkpt>
      <trkpt lat="46.18243" lon="6.8308">
        <ele>1712</ele>
        <time>2000-01-01T08:58:57.000Z</time>
      </trkpt>
      <trkpt lat="46.18256" lon="6.83093">
        <ele>1700.9</ele>
        <time>2000-01-01T08:59:07.000Z</time>
      </trkpt>
      <trkpt lat="46.18263" lon="6.83113">
        <ele>1706</ele>
        <time>2000-01-01T08:59:17.000Z</time>
      </trkpt>
      <trkpt lat="46.18263" lon="6.83124">
        <ele>1696.5</ele>
        <time>2000-01-01T08:59:27.000Z</time>
      </trkpt>
      <trkpt lat="46.18277" lon="6.83123">
        <ele>1704</ele>
        <time>2000-01-01T08:59:37.000Z</time>
      </trkpt>
      <trkpt lat="46.18284" lon="6.83132">
        <ele>1693.8</ele>
        <time>2000-01-01T08:59:47.000Z</time>
      </trkpt>
      <trkpt lat="46.1829" lon="6.83147">
        <ele>1702</ele>
        <time>2000-01-01T08:59:57.000Z</time>
      </trkpt>
      <trkpt lat="46.18312" lon="6.83167">
        <ele>1699</ele>
        <time>2000-01-01T09:00:07.000Z</time>
      </trkpt>
      <trkpt lat="46.18321" lon="6.83186">
        <ele>1689</ele>
        <time>2000-01-01T09:00:17.000Z</time>
      </trkpt>
      <trkpt lat="46.18323" lon="6.83195">
        <ele>1695</ele>
        <time>2000-01-01T09:00:27.000Z</time>
      </trkpt>
      <trkpt lat="46.18322" lon="6.83232">
        <ele>1692</ele>
        <time>2000-01-01T09:00:37.000Z</time>
      </trkpt>
      <trkpt lat="46.18326" lon="6.83256">
        <ele>1683.1</ele>
        <time>2000-01-01T09:00:47.000Z</time>
      </trkpt>
      <trkpt lat="46.18324" lon="6.8327">
        <ele>1690</ele>
        <time>2000-01-01T09:00:57.000Z</time>
      </trkpt>
      <trkpt lat="46.18316" lon="6.83294">
        <ele>1683.2</ele>
        <time>2000-01-01T09:01:07.000Z</time>
      </trkpt>
      <trkpt lat="46.18317" lon="6.83306">
        <ele>1690</ele>
        <time>2000-01-01T09:01:17.000Z</time>
      </trkpt>
      <trkpt lat="46.18321" lon="6.83322">
        <ele>1681.9</ele>
        <time>2000-01-01T09:01:27.000Z</time>
      </trkpt>
      <trkpt lat="46.18344" lon="6.83371">
        <ele>1684</ele>
        <time>2000-01-01T09:01:37.000Z</time>
      </trkpt>
      <trkpt lat="46.18352" lon="6.83375">
        <ele>1677.8</ele>
        <time>2000-01-01T09:01:47.000Z</time>
      </trkpt>
      <trkpt lat="46.18359" lon="6.83389">
        <ele>1684</ele>
        <time>2000-01-01T09:01:57.000Z</time>
      </trkpt>
      <trkpt lat="46.18395" lon="6.83417">
        <ele>1683</ele>
        <time>2000-01-01T09:02:07.000Z</time>
      </trkpt>
      <trkpt lat="46.18387" lon="6.83446">
        <ele>1683</ele>
        <time>2000-01-01T09:02:17.000Z</time>
      </trkpt>
      <trkpt lat="46.1841" lon="6.8339">
        <ele>1683</ele>
        <time>2000-01-01T09:02:27.000Z</time>
      </trkpt>
      <trkpt lat="46.18432" lon="6.8334">
        <ele>1689</ele>
        <time>2000-01-01T09:02:37.000Z</time>
      </trkpt>
      <trkpt lat="46.18453" lon="6.8329">
        <ele>1696</ele>
        <time>2000-01-01T09:02:47.000Z</time>
      </trkpt>
      <trkpt lat="46.18475" lon="6.83241">
        <ele>1704</ele>
        <time>2000-01-01T09:02:57.000Z</time>
      </trkpt>
      <trkpt lat="46.18496" lon="6.83191">
        <ele>1712</ele>
        <time>2000-01-01T09:03:07.000Z</time>
      </trkpt>
      <trkpt lat="46.18518" lon="6.83141">
        <ele>1719</ele>
        <time>2000-01-01T09:03:17.000Z</time>
      </trkpt>
      <trkpt lat="46.1854" lon="6.83092">
        <ele>1730</ele>
        <time>2000-01-01T09:03:27.000Z</time>
      </trkpt>
      <trkpt lat="46.18578" lon="6.83003">
        <ele>1746</ele>
        <time>2000-01-01T09:03:37.000Z</time>
      </trkpt>
      <trkpt lat="46.18601" lon="6.82947">
        <ele>1764</ele>
        <time>2000-01-01T09:03:47.000Z</time>
      </trkpt>
      <trkpt lat="46.18623" lon="6.82897">
        <ele>1778</ele>
        <time>2000-01-01T09:03:57.000Z</time>
      </trkpt>
      <trkpt lat="46.18644" lon="6.82847">
        <ele>1790</ele>
        <time>2000-01-01T09:04:07.000Z</time>
      </trkpt>
      <trkpt lat="46.18666" lon="6.82798">
        <ele>1800</ele>
        <time>2000-01-01T09:04:17.000Z</time>
      </trkpt>
      <trkpt lat="46.18687" lon="6.82748">
        <ele>1811</ele>
        <time>2000-01-01T09:04:27.000Z</time>
      </trkpt>
      <trkpt lat="46.18709" lon="6.82698">
        <ele>1829</ele>
        <time>2000-01-01T09:04:37.000Z</time>
      </trkpt>
      <trkpt lat="46.18731" lon="6.82648">
        <ele>1851</ele>
        <time>2000-01-01T09:04:47.000Z</time>
      </trkpt>
      <trkpt lat="46.18769" lon="6.8256">
        <ele>1876</ele>
        <time>2000-01-01T09:04:57.000Z</time>
      </trkpt>
      <trkpt lat="46.18785" lon="6.82522">
        <ele>1894</ele>
        <time>2000-01-01T09:05:07.000Z</time>
      </trkpt>
      <trkpt lat="46.18816" lon="6.82449">
        <ele>1927</ele>
        <time>2000-01-01T09:05:17.000Z</time>
      </trkpt>
      <trkpt lat="46.18837" lon="6.824">
        <ele>1944</ele>
        <time>2000-01-01T09:05:27.000Z</time>
      </trkpt>
      <trkpt lat="46.18858" lon="6.82351">
        <ele>1957</ele>
        <time>2000-01-01T09:05:37.000Z</time>
      </trkpt>
      <trkpt lat="46.18879" lon="6.82303">
        <ele>1967</ele>
        <time>2000-01-01T09:05:47.000Z</time>
      </trkpt>
      <trkpt lat="46.189" lon="6.82254">
        <ele>1976</ele>
        <time>2000-01-01T09:05:57.000Z</time>
      </trkpt>
      <trkpt lat="46.18922" lon="6.82205">
        <ele>1988</ele>
        <time>2000-01-01T09:06:07.000Z</time>
      </trkpt>
      <trkpt lat="46.1896" lon="6.82117">
        <ele>2012</ele>
        <time>2000-01-01T09:06:17.000Z</time>
      </trkpt>
      <trkpt lat="46.18978" lon="6.82074">
        <ele>2026</ele>
        <time>2000-01-01T09:06:27.000Z</time>
      </trkpt>
      <trkpt lat="46.18996" lon="6.82032">
        <ele>2044</ele>
        <time>2000-01-01T09:06:37.000Z</time>
      </trkpt>
      <trkpt lat="46.19031" lon="6.8195">
        <ele>2093</ele>
        <time>2000-01-01T09:06:47.000Z</time>
      </trkpt>
      <trkpt lat="46.19047" lon="6.81912">
        <ele>2114</ele>
        <time>2000-01-01T09:06:57.000Z</time>
      </trkpt>
      <trkpt lat="46.19079" lon="6.8184">
        <ele>2156</ele>
        <time>2000-01-01T09:07:07.000Z</time>
      </trkpt>
      <trkpt lat="46.19094" lon="6.81805">
        <ele>2170</ele>
        <time>2000-01-01T09:07:17.000Z</time>
      </trkpt>
      <trkpt lat="46.19118" lon="6.81749">
        <ele>2195</ele>
        <time>2000-01-01T09:07:27.000Z</time>
      </trkpt>
      <trkpt lat="46.19131" lon="6.8172">
        <ele>2208</ele>
        <time>2000-01-01T09:07:37.000Z</time>
      </trkpt>
      <trkpt lat="46.19144" lon="6.81688">
        <ele>2223</ele>
        <time>2000-01-01T09:07:47.000Z</time>
      </trkpt>
      <trkpt lat="46.19159" lon="6.81651">
        <ele>2234</ele>
        <time>2000-01-01T09:07:57.000Z</time>
      </trkpt>
      <trkpt lat="46.19172" lon="6.81616">
        <ele>2237</ele>
        <time>2000-01-01T09:08:07.000Z</time>
      </trkpt>
      <trkpt lat="46.1919" lon="6.81566">
        <ele>2240</ele>
        <time>2000-01-01T09:08:17.000Z</time>
      </trkpt>
      <trkpt lat="46.19188" lon="6.81537">
        <ele>2242</ele>
        <time>2000-01-01T09:08:27.000Z</time>
      </trkpt>
      <trkpt lat="46.19179" lon="6.81502">
        <ele>2240</ele>
        <time>2000-01-01T09:08:37.000Z</time>
      </trkpt>
      <trkpt lat="46.19163" lon="6.81484">
        <ele>2239</ele>
        <time>2000-01-01T09:08:47.000Z</time>
      </trkpt>
      <trkpt lat="46.19149" lon="6.81474">
        <ele>2238.9</ele>
        <time>2000-01-01T09:08:57.000Z</time>
      </trkpt>
      <trkpt lat="46.19133" lon="6.81471">
        <ele>2232</ele>
        <time>2000-01-01T09:09:07.000Z</time>
      </trkpt>
      <trkpt lat="46.1909" lon="6.81474">
        <ele>2223</ele>
        <time>2000-01-01T09:09:17.000Z</time>
      </trkpt>
      <trkpt lat="46.19078" lon="6.81483">
        <ele>2228.5</ele>
        <time>2000-01-01T09:09:27.000Z</time>
      </trkpt>
      <trkpt lat="46.19065" lon="6.81499">
        <ele>2218</ele>
        <time>2000-01-01T09:09:37.000Z</time>
      </trkpt>
      <trkpt lat="46.19042" lon="6.81532">
        <ele>2213</ele>
        <time>2000-01-01T09:09:47.000Z</time>
      </trkpt>
      <trkpt lat="46.19033" lon="6.81557">
        <ele>2210</ele>
        <time>2000-01-01T09:09:57.000Z</time>
      </trkpt>
      <trkpt lat="46.19018" lon="6.81586">
        <ele>2209</ele>
        <time>2000-01-01T09:10:07.000Z</time>
      </trkpt>
      <trkpt lat="46.18995" lon="6.81617">
        <ele>2203</ele>
        <time>2000-01-01T09:10:17.000Z</time>
      </trkpt>
      <trkpt lat="46.18958" lon="6.81656">
        <ele>2192</ele>
        <time>2000-01-01T09:10:27.000Z</time>
      </trkpt>
      <trkpt lat="46.1892" lon="6.81689">
        <ele>2183</ele>
        <time>2000-01-01T09:10:37.000Z</time>
      </trkpt>
      <trkpt lat="46.18894" lon="6.81695">
        <ele>2174</ele>
        <time>2000-01-01T09:10:47.000Z</time>
      </trkpt>
      <trkpt lat="46.18861" lon="6.81703">
        <ele>2168</ele>
        <time>2000-01-01T09:10:57.000Z</time>
      </trkpt>
      <trkpt lat="46.18848" lon="6.8172">
        <ele>2178.5</ele>
        <time>2000-01-01T09:11:07.000Z</time>
      </trkpt>
      <trkpt lat="46.18859" lon="6.8172">
        <ele>2168</ele>
        <time>2000-01-01T09:11:17.000Z</time>
      </trkpt>
      <trkpt lat="46.18879" lon="6.81712">
        <ele>2169</ele>
        <time>2000-01-01T09:11:27.000Z</time>
      </trkpt>
      <trkpt lat="46.18894" lon="6.81713">
        <ele>2180.3</ele>
        <time>2000-01-01T09:11:37.000Z</time>
      </trkpt>
      <trkpt lat="46.18911" lon="6.81733">
        <ele>2172</ele>
        <time>2000-01-01T09:11:47.000Z</time>
      </trkpt>
      <trkpt lat="46.18917" lon="6.81734">
        <ele>2178.2</ele>
        <time>2000-01-01T09:11:57.000Z</time>
      </trkpt>
      <trkpt lat="46.18928" lon="6.8173">
        <ele>2179.7</ele>
        <time>2000-01-01T09:12:07.000Z</time>
      </trkpt>
      <trkpt lat="46.1894" lon="6.81737">
        <ele>2170</ele>
        <time>2000-01-01T09:12:17.000Z</time>
      </trkpt>
      <trkpt lat="46.1895" lon="6.81762">
        <ele>2173</ele>
        <time>2000-01-01T09:12:27.000Z</time>
      </trkpt>
      <trkpt lat="46.18955" lon="6.81769">
        <ele>2166</ele>
        <time>2000-01-01T09:12:37.000Z</time>
      </trkpt>
      <trkpt lat="46.18961" lon="6.8177">
        <ele>2166.2</ele>
        <time>2000-01-01T09:12:47.000Z</time>
      </trkpt>
      <trkpt lat="46.18973" lon="6.81761">
        <ele>2176</ele>
        <time>2000-01-01T09:12:57.000Z</time>
      </trkpt>
      <trkpt lat="46.18981" lon="6.81761">
        <ele>2171.2</ele>
        <time>2000-01-01T09:13:07.000Z</time>
      </trkpt>
      <trkpt lat="46.19003" lon="6.81773">
        <ele>2170</ele>
        <time>2000-01-01T09:13:17.000Z</time>
      </trkpt>
      <trkpt lat="46.19007" lon="6.81779">
        <ele>2168.3</ele>
        <time>2000-01-01T09:13:27.000Z</time>
      </trkpt>
      <trkpt lat="46.19013" lon="6.81804">
        <ele>2167</ele>
        <time>2000-01-01T09:13:37.000Z</time>
      </trkpt>
      <trkpt lat="46.1902" lon="6.81816">
        <ele>2157.4</ele>
        <time>2000-01-01T09:13:47.000Z</time>
      </trkpt>
      <trkpt lat="46.19024" lon="6.81816">
        <ele>2159</ele>
        <time>2000-01-01T09:13:57.000Z</time>
      </trkpt>
      <trkpt lat="46.19037" lon="6.81807">
        <ele>2165</ele>
        <time>2000-01-01T09:14:07.000Z</time>
      </trkpt>
      <trkpt lat="46.19046" lon="6.81806">
        <ele>2160.2</ele>
        <time>2000-01-01T09:14:17.000Z</time>
      </trkpt>
      <trkpt lat="46.19054" lon="6.81808">
        <ele>2157.3</ele>
        <time>2000-01-01T09:14:27.000Z</time>
      </trkpt>
      <trkpt lat="46.19069" lon="6.81825">
        <ele>2158</ele>
        <time>2000-01-01T09:14:37.000Z</time>
      </trkpt>
      <trkpt lat="46.19078" lon="6.8186">
        <ele>2145</ele>
        <time>2000-01-01T09:14:47.000Z</time>
      </trkpt>
      <trkpt lat="46.1909" lon="6.81879">
        <ele>2144.8</ele>
        <time>2000-01-01T09:14:57.000Z</time>
      </trkpt>
      <trkpt lat="46.19097" lon="6.81895">
        <ele>2133</ele>
        <time>2000-01-01T09:15:07.000Z</time>
      </trkpt>
      <trkpt lat="46.19106" lon="6.8191">
        <ele>2137.5</ele>
        <time>2000-01-01T09:15:17.000Z</time>
      </trkpt>
      <trkpt lat="46.19123" lon="6.81927">
        <ele>2123</ele>
        <time>2000-01-01T09:15:27.000Z</time>
      </trkpt>
      <trkpt lat="46.19131" lon="6.81941">
        <ele>2127.8</ele>
        <time>2000-01-01T09:15:37.000Z</time>
      </trkpt>
      <trkpt lat="46.19132" lon="6.82007">
        <ele>2105</ele>
        <time>2000-01-01T09:15:47.000Z</time>
      </trkpt>
      <trkpt lat="46.19147" lon="6.82037">
        <ele>2100</ele>
        <time>2000-01-01T09:15:57.000Z</time>
      </trkpt>
      <trkpt lat="46.19165" lon="6.82075">
        <ele>2095</ele>
        <time>2000-01-01T09:16:07.000Z</time>
      </trkpt>
      <trkpt lat="46.19173" lon="6.82101">
        <ele>2089</ele>
        <time>2000-01-01T09:16:17.000Z</time>
      </trkpt>
      <trkpt lat="46.19178" lon="6.82112">
        <ele>2096.1</ele>
        <time>2000-01-01T09:16:27.000Z</time>
      </trkpt>
      <trkpt lat="46.19185" lon="6.82118">
        <ele>2095.4</ele>
        <time>2000-01-01T09:16:37.000Z</time>
      </trkpt>
      <trkpt lat="46.19208" lon="6.82119">
        <ele>2084</ele>
        <time>2000-01-01T09:16:47.000Z</time>
      </trkpt>
      <trkpt lat="46.19224" lon="6.82126">
        <ele>2088.7</ele>
        <time>2000-01-01T09:16:57.000Z</time>
      </trkpt>
      <trkpt lat="46.19227" lon="6.82124">
        <ele>2082</ele>
        <time>2000-01-01T09:17:07.000Z</time>
      </trkpt>
      <trkpt lat="46.19222" lon="6.82069">
        <ele>2079</ele>
        <time>2000-01-01T09:17:17.000Z</time>
      </trkpt>
      <trkpt lat="46.19223" lon="6.82063">
        <ele>2078.9</ele>
        <time>2000-01-01T09:17:27.000Z</time>
      </trkpt>
      <trkpt lat="46.19231" lon="6.82062">
        <ele>2075.5</ele>
        <time>2000-01-01T09:17:37.000Z</time>
      </trkpt>
      <trkpt lat="46.19244" lon="6.82084">
        <ele>2073</ele>
        <time>2000-01-01T09:17:47.000Z</time>
      </trkpt>
      <trkpt lat="46.19265" lon="6.82103">
        <ele>2071</ele>
        <time>2000-01-01T09:17:57.000Z</time>
      </trkpt>
      <trkpt lat="46.19275" lon="6.82107">
        <ele>2065</ele>
        <time>2000-01-01T09:18:07.000Z</time>
      </trkpt>
      <trkpt lat="46.19291" lon="6.82105">
        <ele>2067</ele>
        <time>2000-01-01T09:18:17.000Z</time>
      </trkpt>
      <trkpt lat="46.19309" lon="6.82094">
        <ele>2065</ele>
        <time>2000-01-01T09:18:27.000Z</time>
      </trkpt>
      <trkpt lat="46.19341" lon="6.82095">
        <ele>2058</ele>
        <time>2000-01-01T09:18:37.000Z</time>
      </trkpt>
      <trkpt lat="46.19369" lon="6.82084">
        <ele>2054</ele>
        <time>2000-01-01T09:18:47.000Z</time>
      </trkpt>
      <trkpt lat="46.19413" lon="6.82066">
        <ele>2042</ele>
        <time>2000-01-01T09:18:57.000Z</time>
      </trkpt>
      <trkpt lat="46.19424" lon="6.82065">
        <ele>2032.6</ele>
        <time>2000-01-01T09:19:07.000Z</time>
      </trkpt>
      <trkpt lat="46.19486" lon="6.82045">
        <ele>2028</ele>
        <time>2000-01-01T09:19:17.000Z</time>
      </trkpt>
      <trkpt lat="46.19499" lon="6.82038">
        <ele>2016.5</ele>
        <time>2000-01-01T09:19:27.000Z</time>
      </trkpt>
      <trkpt lat="46.19552" lon="6.81998">
        <ele>2011</ele>
        <time>2000-01-01T09:19:37.000Z</time>
      </trkpt>
      <trkpt lat="46.19575" lon="6.81983">
        <ele>2008</ele>
        <time>2000-01-01T09:19:47.000Z</time>
      </trkpt>
      <trkpt lat="46.19605" lon="6.81965">
        <ele>2006</ele>
        <time>2000-01-01T09:19:57.000Z</time>
      </trkpt>
      <trkpt lat="46.19618" lon="6.81951">
        <ele>1997.3</ele>
        <time>2000-01-01T09:20:07.000Z</time>
      </trkpt>
      <trkpt lat="46.19638" lon="6.8192">
        <ele>2001</ele>
        <time>2000-01-01T09:20:17.000Z</time>
      </trkpt>
      <trkpt lat="46.19644" lon="6.81896">
        <ele>1993.2</ele>
        <time>2000-01-01T09:20:27.000Z</time>
      </trkpt>
      <trkpt lat="46.19681" lon="6.81808">
        <ele>1995</ele>
        <time>2000-01-01T09:20:37.000Z</time>
      </trkpt>
      <trkpt lat="46.1969" lon="6.81769">
        <ele>1992</ele>
        <time>2000-01-01T09:20:47.000Z</time>
      </trkpt>
      <trkpt lat="46.19705" lon="6.81709">
        <ele>1987</ele>
        <time>2000-01-01T09:20:57.000Z</time>
      </trkpt>
      <trkpt lat="46.19703" lon="6.81674">
        <ele>1984</ele>
        <time>2000-01-01T09:21:07.000Z</time>
      </trkpt>
      <trkpt lat="46.19702" lon="6.81639">
        <ele>1981</ele>
        <time>2000-01-01T09:21:17.000Z</time>
      </trkpt>
      <trkpt lat="46.19704" lon="6.81603">
        <ele>1979</ele>
        <time>2000-01-01T09:21:27.000Z</time>
      </trkpt>
      <trkpt lat="46.19711" lon="6.81569">
        <ele>1978</ele>
        <time>2000-01-01T09:21:37.000Z</time>
      </trkpt>
      <trkpt lat="46.19709" lon="6.81552">
        <ele>1977.7</ele>
        <time>2000-01-01T09:21:47.000Z</time>
      </trkpt>
      <trkpt lat="46.19696" lon="6.81533">
        <ele>1978</ele>
        <time>2000-01-01T09:21:57.000Z</time>
      </trkpt>
      <trkpt lat="46.19691" lon="6.81517">
        <ele>1976.8</ele>
        <time>2000-01-01T09:22:07.000Z</time>
      </trkpt>
      <trkpt lat="46.19688" lon="6.81488">
        <ele>1978</ele>
        <time>2000-01-01T09:22:17.000Z</time>
      </trkpt>
      <trkpt lat="46.19676" lon="6.81465">
        <ele>1978</ele>
        <time>2000-01-01T09:22:27.000Z</time>
      </trkpt>
      <trkpt lat="46.19676" lon="6.81458">
        <ele>1974.5</ele>
        <time>2000-01-01T09:22:37.000Z</time>
      </trkpt>
      <trkpt lat="46.19681" lon="6.81432">
        <ele>1980</ele>
        <time>2000-01-01T09:22:47.000Z</time>
      </trkpt>
      <trkpt lat="46.19679" lon="6.81417">
        <ele>1977.5</ele>
        <time>2000-01-01T09:22:57.000Z</time>
      </trkpt>
      <trkpt lat="46.19666" lon="6.81371">
        <ele>1982</ele>
        <time>2000-01-01T09:23:07.000Z</time>
      </trkpt>
      <trkpt lat="46.19659" lon="6.81357">
        <ele>1978.3</ele>
        <time>2000-01-01T09:23:17.000Z</time>
      </trkpt>
      <trkpt lat="46.1965" lon="6.81329">
        <ele>1981</ele>
        <time>2000-01-01T09:23:27.000Z</time>
      </trkpt>
      <trkpt lat="46.19651" lon="6.8132">
        <ele>1981.2</ele>
        <time>2000-01-01T09:23:37.000Z</time>
      </trkpt>
      <trkpt lat="46.19655" lon="6.81309">
        <ele>1982.5</ele>
        <time>2000-01-01T09:23:47.000Z</time>
      </trkpt>
      <trkpt lat="46.19665" lon="6.813">
        <ele>1981</ele>
        <time>2000-01-01T09:23:57.000Z</time>
      </trkpt>
      <trkpt lat="46.19666" lon="6.81294">
        <ele>1982.3</ele>
        <time>2000-01-01T09:24:07.000Z</time>
      </trkpt>
      <trkpt lat="46.19701" lon="6.8129">
        <ele>1975</ele>
        <time>2000-01-01T09:24:17.000Z</time>
      </trkpt>
      <trkpt lat="46.19727" lon="6.81292">
        <ele>1974</ele>
        <time>2000-01-01T09:24:27.000Z</time>
      </trkpt>
      <trkpt lat="46.19751" lon="6.81285">
        <ele>1971</ele>
        <time>2000-01-01T09:24:37.000Z</time>
      </trkpt>
      <trkpt lat="46.19768" lon="6.81259">
        <ele>1968</ele>
        <time>2000-01-01T09:24:47.000Z</time>
      </trkpt>
      <trkpt lat="46.19787" lon="6.81229">
        <ele>1967</ele>
        <time>2000-01-01T09:24:57.000Z</time>
      </trkpt>
      <trkpt lat="46.19815" lon="6.81176">
        <ele>1967</ele>
        <time>2000-01-01T09:25:07.000Z</time>
      </trkpt>
      <trkpt lat="46.19816" lon="6.81166">
        <ele>1964.4</ele>
        <time>2000-01-01T09:25:17.000Z</time>
      </trkpt>
      <trkpt lat="46.198" lon="6.81135">
        <ele>1968</ele>
        <time>2000-01-01T09:25:27.000Z</time>
      </trkpt>
      <trkpt lat="46.19788" lon="6.81123">
        <ele>1964.5</ele>
        <time>2000-01-01T09:25:37.000Z</time>
      </trkpt>
      <trkpt lat="46.19785" lon="6.81115">
        <ele>1970</ele>
        <time>2000-01-01T09:25:47.000Z</time>
      </trkpt>
      <trkpt lat="46.19782" lon="6.81095">
        <ele>1966.2</ele>
        <time>2000-01-01T09:25:57.000Z</time>
      </trkpt>
      <trkpt lat="46.19771" lon="6.81082">
        <ele>1971</ele>
        <time>2000-01-01T09:26:07.000Z</time>
      </trkpt>
      <trkpt lat="46.19769" lon="6.81074">
        <ele>1967.1</ele>
        <time>2000-01-01T09:26:17.000Z</time>
      </trkpt>
      <trkpt lat="46.19778" lon="6.81031">
        <ele>1971</ele>
        <time>2000-01-01T09:26:27.000Z</time>
      </trkpt>
      <trkpt lat="46.198" lon="6.81008">
        <ele>1971</ele>
        <time>2000-01-01T09:26:37.000Z</time>
      </trkpt>
      <trkpt lat="46.19802" lon="6.8099">
        <ele>1965.6</ele>
        <time>2000-01-01T09:26:47.000Z</time>
      </trkpt>
      <trkpt lat="46.19796" lon="6.80967">
        <ele>1971</ele>
        <time>2000-01-01T09:26:57.000Z</time>
      </trkpt>
      <trkpt lat="46.19782" lon="6.80952">
        <ele>1967.3</ele>
        <time>2000-01-01T09:27:07.000Z</time>
      </trkpt>
      <trkpt lat="46.19783" lon="6.80926">
        <ele>1973</ele>
        <time>2000-01-01T09:27:17.000Z</time>
      </trkpt>
      <trkpt lat="46.19773" lon="6.80905">
        <ele>1970</ele>
        <time>2000-01-01T09:27:27.000Z</time>
      </trkpt>
      <trkpt lat="46.19783" lon="6.80894">
        <ele>1974</ele>
        <time>2000-01-01T09:27:37.000Z</time>
      </trkpt>
      <trkpt lat="46.19786" lon="6.80885">
        <ele>1970.2</ele>
        <time>2000-01-01T09:27:47.000Z</time>
      </trkpt>
      <trkpt lat="46.19783" lon="6.80855">
        <ele>1976</ele>
        <time>2000-01-01T09:27:57.000Z</time>
      </trkpt>
      <trkpt lat="46.19775" lon="6.80846">
        <ele>1972.8</ele>
        <time>2000-01-01T09:28:07.000Z</time>
      </trkpt>
      <trkpt lat="46.19757" lon="6.80836">
        <ele>1978</ele>
        <time>2000-01-01T09:28:17.000Z</time>
      </trkpt>
      <trkpt lat="46.19756" lon="6.80794">
        <ele>1981</ele>
        <time>2000-01-01T09:28:27.000Z</time>
      </trkpt>
      <trkpt lat="46.19743" lon="6.80771">
        <ele>1982</ele>
        <time>2000-01-01T09:28:37.000Z</time>
      </trkpt>
      <trkpt lat="46.19724" lon="6.8072">
        <ele>1983</ele>
        <time>2000-01-01T09:28:47.000Z</time>
      </trkpt>
      <trkpt lat="46.197" lon="6.80697">
        <ele>1985</ele>
        <time>2000-01-01T09:28:57.000Z</time>
      </trkpt>
      <trkpt lat="46.19696" lon="6.80653">
        <ele>1990</ele>
        <time>2000-01-01T09:29:07.000Z</time>
      </trkpt>
      <trkpt lat="46.19692" lon="6.80615">
        <ele>1993</ele>
        <time>2000-01-01T09:29:17.000Z</time>
      </trkpt>
      <trkpt lat="46.19687" lon="6.80567">
        <ele>1993</ele>
        <time>2000-01-01T09:29:27.000Z</time>
      </trkpt>
      <trkpt lat="46.19691" lon="6.80533">
        <ele>1993</ele>
        <time>2000-01-01T09:29:37.000Z</time>
      </trkpt>
      <trkpt lat="46.19696" lon="6.80499">
        <ele>1993</ele>
        <time>2000-01-01T09:29:47.000Z</time>
      </trkpt>
      <trkpt lat="46.19709" lon="6.80472">
        <ele>1991</ele>
        <time>2000-01-01T09:29:57.000Z</time>
      </trkpt>
      <trkpt lat="46.19727" lon="6.80447">
        <ele>1990</ele>
        <time>2000-01-01T09:30:07.000Z</time>
      </trkpt>
      <trkpt lat="46.19749" lon="6.80417">
        <ele>1988</ele>
        <time>2000-01-01T09:30:17.000Z</time>
      </trkpt>
      <trkpt lat="46.1976" lon="6.80385">
        <ele>1987</ele>
        <time>2000-01-01T09:30:27.000Z</time>
      </trkpt>
      <trkpt lat="46.19776" lon="6.80357">
        <ele>1985</ele>
        <time>2000-01-01T09:30:37.000Z</time>
      </trkpt>
      <trkpt lat="46.19793" lon="6.80327">
        <ele>1983</ele>
        <time>2000-01-01T09:30:47.000Z</time>
      </trkpt>
      <trkpt lat="46.19805" lon="6.80291">
        <ele>1980</ele>
        <time>2000-01-01T09:30:57.000Z</time>
      </trkpt>
      <trkpt lat="46.19807" lon="6.80273">
        <ele>1979.6</ele>
        <time>2000-01-01T09:31:07.000Z</time>
      </trkpt>
      <trkpt lat="46.19817" lon="6.80253">
        <ele>1975</ele>
        <time>2000-01-01T09:31:17.000Z</time>
      </trkpt>
      <trkpt lat="46.19826" lon="6.80209">
        <ele>1973</ele>
        <time>2000-01-01T09:31:27.000Z</time>
      </trkpt>
      <trkpt lat="46.19831" lon="6.80155">
        <ele>1972</ele>
        <time>2000-01-01T09:31:37.000Z</time>
      </trkpt>
      <trkpt lat="46.19836" lon="6.80134">
        <ele>1972</ele>
        <time>2000-01-01T09:31:47.000Z</time>
      </trkpt>
      <trkpt lat="46.19849" lon="6.80086">
        <ele>1966</ele>
        <time>2000-01-01T09:31:57.000Z</time>
      </trkpt>
      <trkpt lat="46.1986" lon="6.80062">
        <ele>1964</ele>
        <time>2000-01-01T09:32:07.000Z</time>
      </trkpt>
      <trkpt lat="46.1987" lon="6.80052">
        <ele>1965.2</ele>
        <time>2000-01-01T09:32:17.000Z</time>
      </trkpt>
      <trkpt lat="46.19897" lon="6.80003">
        <ele>1956</ele>
        <time>2000-01-01T09:32:27.000Z</time>
      </trkpt>
      <trkpt lat="46.19908" lon="6.79975">
        <ele>1952</ele>
        <time>2000-01-01T09:32:37.000Z</time>
      </trkpt>
      <trkpt lat="46.19929" lon="6.79939">
        <ele>1945</ele>
        <time>2000-01-01T09:32:47.000Z</time>
      </trkpt>
      <trkpt lat="46.19952" lon="6.79917">
        <ele>1942</ele>
        <time>2000-01-01T09:32:57.000Z</time>
      </trkpt>
      <trkpt lat="46.19985" lon="6.79899">
        <ele>1936</ele>
        <time>2000-01-01T09:33:07.000Z</time>
      </trkpt>
      <trkpt lat="46.20007" lon="6.79879">
        <ele>1934</ele>
        <time>2000-01-01T09:33:17.000Z</time>
      </trkpt>
      <trkpt lat="46.20016" lon="6.79864">
        <ele>1936.4</ele>
        <time>2000-01-01T09:33:27.000Z</time>
      </trkpt>
      <trkpt lat="46.20026" lon="6.79855">
        <ele>1932</ele>
        <time>2000-01-01T09:33:37.000Z</time>
      </trkpt>
      <trkpt lat="46.20029" lon="6.79848">
        <ele>1935.4</ele>
        <time>2000-01-01T09:33:47.000Z</time>
      </trkpt>
      <trkpt lat="46.20039" lon="6.79814">
        <ele>1930</ele>
        <time>2000-01-01T09:33:57.000Z</time>
      </trkpt>
      <trkpt lat="46.20058" lon="6.79776">
        <ele>1929</ele>
        <time>2000-01-01T09:34:07.000Z</time>
      </trkpt>
      <trkpt lat="46.20088" lon="6.79766">
        <ele>1927</ele>
        <time>2000-01-01T09:34:17.000Z</time>
      </trkpt>
      <trkpt lat="46.20093" lon="6.79761">
        <ele>1928.1</ele>
        <time>2000-01-01T09:34:27.000Z</time>
      </trkpt>
      <trkpt lat="46.20101" lon="6.79745">
        <ele>1922</ele>
        <time>2000-01-01T09:34:37.000Z</time>
      </trkpt>
      <trkpt lat="46.20096" lon="6.79727">
        <ele>1922.5</ele>
        <time>2000-01-01T09:34:47.000Z</time>
      </trkpt>
      <trkpt lat="46.20106" lon="6.79722">
        <ele>1919</ele>
        <time>2000-01-01T09:34:57.000Z</time>
      </trkpt>
      <trkpt lat="46.20104" lon="6.79717">
        <ele>1919.6</ele>
        <time>2000-01-01T09:35:07.000Z</time>
      </trkpt>
      <trkpt lat="46.20094" lon="6.79703">
        <ele>1917.3</ele>
        <time>2000-01-01T09:35:17.000Z</time>
      </trkpt>
      <trkpt lat="46.20084" lon="6.79696">
        <ele>1916</ele>
        <time>2000-01-01T09:35:27.000Z</time>
      </trkpt>
      <trkpt lat="46.20082" lon="6.79689">
        <ele>1914.9</ele>
        <time>2000-01-01T09:35:37.000Z</time>
      </trkpt>
      <trkpt lat="46.20083" lon="6.79683">
        <ele>1913.2</ele>
        <time>2000-01-01T09:35:47.000Z</time>
      </trkpt>
      <trkpt lat="46.20098" lon="6.79685">
        <ele>1910</ele>
        <time>2000-01-01T09:35:57.000Z</time>
      </trkpt>
      <trkpt lat="46.20107" lon="6.79667">
        <ele>1908.2</ele>
        <time>2000-01-01T09:36:07.000Z</time>
      </trkpt>
      <trkpt lat="46.20108" lon="6.79649">
        <ele>1902</ele>
        <time>2000-01-01T09:36:17.000Z</time>
      </trkpt>
      <trkpt lat="46.2011" lon="6.79643">
        <ele>1903.7</ele>
        <time>2000-01-01T09:36:27.000Z</time>
      </trkpt>
      <trkpt lat="46.20137" lon="6.79608">
        <ele>1893</ele>
        <time>2000-01-01T09:36:37.000Z</time>
      </trkpt>
      <trkpt lat="46.20138" lon="6.79586">
        <ele>1891.3</ele>
        <time>2000-01-01T09:36:47.000Z</time>
      </trkpt>
      <trkpt lat="46.20151" lon="6.79567">
        <ele>1887</ele>
        <time>2000-01-01T09:36:57.000Z</time>
      </trkpt>
      <trkpt lat="46.20161" lon="6.79539">
        <ele>1885</ele>
        <time>2000-01-01T09:37:07.000Z</time>
      </trkpt>
      <trkpt lat="46.20182" lon="6.7951">
        <ele>1883</ele>
        <time>2000-01-01T09:37:17.000Z</time>
      </trkpt>
      <trkpt lat="46.20198" lon="6.79486">
        <ele>1879</ele>
        <time>2000-01-01T09:37:27.000Z</time>
      </trkpt>
      <trkpt lat="46.20215" lon="6.79462">
        <ele>1877</ele>
        <time>2000-01-01T09:37:37.000Z</time>
      </trkpt>
      <trkpt lat="46.20242" lon="6.79434">
        <ele>1875</ele>
        <time>2000-01-01T09:37:47.000Z</time>
      </trkpt>
      <trkpt lat="46.2025" lon="6.79417">
        <ele>1876.1</ele>
        <time>2000-01-01T09:37:57.000Z</time>
      </trkpt>
      <trkpt lat="46.20277" lon="6.79384">
        <ele>1870</ele>
        <time>2000-01-01T09:38:07.000Z</time>
      </trkpt>
      <trkpt lat="46.20287" lon="6.79356">
        <ele>1865</ele>
        <time>2000-01-01T09:38:17.000Z</time>
      </trkpt>
      <trkpt lat="46.20296" lon="6.79346">
        <ele>1869.3</ele>
        <time>2000-01-01T09:38:27.000Z</time>
      </trkpt>
      <trkpt lat="46.20308" lon="6.79325">
        <ele>1862</ele>
        <time>2000-01-01T09:38:37.000Z</time>
      </trkpt>
      <trkpt lat="46.20321" lon="6.79315">
        <ele>1867.8</ele>
        <time>2000-01-01T09:38:47.000Z</time>
      </trkpt>
      <trkpt lat="46.2034" lon="6.79266">
        <ele>1861</ele>
        <time>2000-01-01T09:38:57.000Z</time>
      </trkpt>
      <trkpt lat="46.20346" lon="6.79261">
        <ele>1859.3</ele>
        <time>2000-01-01T09:39:07.000Z</time>
      </trkpt>
      <trkpt lat="46.20364" lon="6.79261">
        <ele>1861</ele>
        <time>2000-01-01T09:39:17.000Z</time>
      </trkpt>
      <trkpt lat="46.20387" lon="6.79254">
        <ele>1857</ele>
        <time>2000-01-01T09:39:27.000Z</time>
      </trkpt>
      <trkpt lat="46.20411" lon="6.79248">
        <ele>1856</ele>
        <time>2000-01-01T09:39:37.000Z</time>
      </trkpt>
      <trkpt lat="46.20433" lon="6.79231">
        <ele>1853</ele>
        <time>2000-01-01T09:39:47.000Z</time>
      </trkpt>
      <trkpt lat="46.20457" lon="6.79224">
        <ele>1848</ele>
        <time>2000-01-01T09:39:57.000Z</time>
      </trkpt>
      <trkpt lat="46.20476" lon="6.79206">
        <ele>1844</ele>
        <time>2000-01-01T09:40:07.000Z</time>
      </trkpt>
      <trkpt lat="46.20517" lon="6.7919">
        <ele>1842</ele>
        <time>2000-01-01T09:40:17.000Z</time>
      </trkpt>
      <trkpt lat="46.20547" lon="6.79146">
        <ele>1835</ele>
        <time>2000-01-01T09:40:27.000Z</time>
      </trkpt>
      <trkpt lat="46.20569" lon="6.79134">
        <ele>1834</ele>
        <time>2000-01-01T09:40:37.000Z</time>
      </trkpt>
      <trkpt lat="46.20591" lon="6.79104">
        <ele>1834</ele>
        <time>2000-01-01T09:40:47.000Z</time>
      </trkpt>
      <trkpt lat="46.20607" lon="6.79076">
        <ele>1832</ele>
        <time>2000-01-01T09:40:57.000Z</time>
      </trkpt>
      <trkpt lat="46.20627" lon="6.79044">
        <ele>1828</ele>
        <time>2000-01-01T09:41:07.000Z</time>
      </trkpt>
      <trkpt lat="46.20644" lon="6.7903">
        <ele>1826</ele>
        <time>2000-01-01T09:41:17.000Z</time>
      </trkpt>
      <trkpt lat="46.20658" lon="6.79022">
        <ele>1824.8</ele>
        <time>2000-01-01T09:41:27.000Z</time>
      </trkpt>
      <trkpt lat="46.20662" lon="6.79018">
        <ele>1821</ele>
        <time>2000-01-01T09:41:37.000Z</time>
      </trkpt>
      <trkpt lat="46.20668" lon="6.78997">
        <ele>1819.6</ele>
        <time>2000-01-01T09:41:47.000Z</time>
      </trkpt>
      <trkpt lat="46.20687" lon="6.78977">
        <ele>1814</ele>
        <time>2000-01-01T09:41:57.000Z</time>
      </trkpt>
      <trkpt lat="46.20695" lon="6.78975">
        <ele>1816.7</ele>
        <time>2000-01-01T09:42:07.000Z</time>
      </trkpt>
      <trkpt lat="46.20698" lon="6.78938">
        <ele>1808</ele>
        <time>2000-01-01T09:42:17.000Z</time>
      </trkpt>
      <trkpt lat="46.20696" lon="6.78931">
        <ele>1810.8</ele>
        <time>2000-01-01T09:42:27.000Z</time>
      </trkpt>
      <trkpt lat="46.207" lon="6.78906">
        <ele>1805</ele>
        <time>2000-01-01T09:42:37.000Z</time>
      </trkpt>
      <trkpt lat="46.2071" lon="6.78872">
        <ele>1804</ele>
        <time>2000-01-01T09:42:47.000Z</time>
      </trkpt>
      <trkpt lat="46.20726" lon="6.78841">
        <ele>1804</ele>
        <time>2000-01-01T09:42:57.000Z</time>
      </trkpt>
      <trkpt lat="46.20743" lon="6.78824">
        <ele>1804</ele>
        <time>2000-01-01T09:43:07.000Z</time>
      </trkpt>
      <trkpt lat="46.2075" lon="6.78795">
        <ele>1803</ele>
        <time>2000-01-01T09:43:17.000Z</time>
      </trkpt>
      <trkpt lat="46.20749" lon="6.78786">
        <ele>1802.6</ele>
        <time>2000-01-01T09:43:27.000Z</time>
      </trkpt>
      <trkpt lat="46.20751" lon="6.78779">
        <ele>1802.1</ele>
        <time>2000-01-01T09:43:37.000Z</time>
      </trkpt>
      <trkpt lat="46.20778" lon="6.78761">
        <ele>1798</ele>
        <time>2000-01-01T09:43:47.000Z</time>
      </trkpt>
      <trkpt lat="46.20808" lon="6.78747">
        <ele>1791</ele>
        <time>2000-01-01T09:43:57.000Z</time>
      </trkpt>
      <trkpt lat="46.20838" lon="6.78732">
        <ele>1788</ele>
        <time>2000-01-01T09:44:07.000Z</time>
      </trkpt>
      <trkpt lat="46.20872" lon="6.78716">
        <ele>1779</ele>
        <time>2000-01-01T09:44:17.000Z</time>
      </trkpt>
      <trkpt lat="46.20902" lon="6.78691">
        <ele>1773</ele>
        <time>2000-01-01T09:44:27.000Z</time>
      </trkpt>
      <trkpt lat="46.20921" lon="6.7868">
        <ele>1773</ele>
        <time>2000-01-01T09:44:37.000Z</time>
      </trkpt>
      <trkpt lat="46.20935" lon="6.78683">
        <ele>1774.2</ele>
        <time>2000-01-01T09:44:47.000Z</time>
      </trkpt>
      <trkpt lat="46.2094" lon="6.7868">
        <ele>1773</ele>
        <time>2000-01-01T09:44:57.000Z</time>
      </trkpt>
      <trkpt lat="46.20936" lon="6.78648">
        <ele>1761</ele>
        <time>2000-01-01T09:45:07.000Z</time>
      </trkpt>
      <trkpt lat="46.2094" lon="6.7863">
        <ele>1761.3</ele>
        <time>2000-01-01T09:45:17.000Z</time>
      </trkpt>
      <trkpt lat="46.20948" lon="6.78609">
        <ele>1752</ele>
        <time>2000-01-01T09:45:27.000Z</time>
      </trkpt>
      <trkpt lat="46.20963" lon="6.78589">
        <ele>1750</ele>
        <time>2000-01-01T09:45:37.000Z</time>
      </trkpt>
      <trkpt lat="46.2097" lon="6.78584">
        <ele>1751.8</ele>
        <time>2000-01-01T09:45:47.000Z</time>
      </trkpt>
      <trkpt lat="46.21" lon="6.78578">
        <ele>1749</ele>
        <time>2000-01-01T09:45:57.000Z</time>
      </trkpt>
      <trkpt lat="46.21016" lon="6.78571">
        <ele>1751.9</ele>
        <time>2000-01-01T09:46:07.000Z</time>
      </trkpt>
      <trkpt lat="46.2103" lon="6.78551">
        <ele>1742</ele>
        <time>2000-01-01T09:46:17.000Z</time>
      </trkpt>
      <trkpt lat="46.21044" lon="6.78516">
        <ele>1735</ele>
        <time>2000-01-01T09:46:27.000Z</time>
      </trkpt>
      <trkpt lat="46.21064" lon="6.78465">
        <ele>1734</ele>
        <time>2000-01-01T09:46:37.000Z</time>
      </trkpt>
      <trkpt lat="46.2107" lon="6.78441">
        <ele>1735.5</ele>
        <time>2000-01-01T09:46:47.000Z</time>
      </trkpt>
      <trkpt lat="46.21073" lon="6.78407">
        <ele>1726</ele>
        <time>2000-01-01T09:46:57.000Z</time>
      </trkpt>
      <trkpt lat="46.21087" lon="6.78353">
        <ele>1722</ele>
        <time>2000-01-01T09:47:07.000Z</time>
      </trkpt>
      <trkpt lat="46.21089" lon="6.78303">
        <ele>1718</ele>
        <time>2000-01-01T09:47:17.000Z</time>
      </trkpt>
      <trkpt lat="46.21101" lon="6.78274">
        <ele>1715</ele>
        <time>2000-01-01T09:47:27.000Z</time>
      </trkpt>
      <trkpt lat="46.21113" lon="6.78243">
        <ele>1710</ele>
        <time>2000-01-01T09:47:37.000Z</time>
      </trkpt>
      <trkpt lat="46.21117" lon="6.78215">
        <ele>1702</ele>
        <time>2000-01-01T09:47:47.000Z</time>
      </trkpt>
      <trkpt lat="46.2112" lon="6.78164">
        <ele>1690</ele>
        <time>2000-01-01T09:47:57.000Z</time>
      </trkpt>
      <trkpt lat="46.21136" lon="6.78106">
        <ele>1684</ele>
        <time>2000-01-01T09:48:07.000Z</time>
      </trkpt>
      <trkpt lat="46.21133" lon="6.78097">
        <ele>1685</ele>
        <time>2000-01-01T09:48:17.000Z</time>
      </trkpt>
      <trkpt lat="46.21133" lon="6.78083">
        <ele>1680.9</ele>
        <time>2000-01-01T09:48:27.000Z</time>
      </trkpt>
      <trkpt lat="46.21144" lon="6.78051">
        <ele>1675</ele>
        <time>2000-01-01T09:48:37.000Z</time>
      </trkpt>
      <trkpt lat="46.2116" lon="6.77992">
        <ele>1667</ele>
        <time>2000-01-01T09:48:47.000Z</time>
      </trkpt>
      <trkpt lat="46.21174" lon="6.77928">
        <ele>1648</ele>
        <time>2000-01-01T09:48:57.000Z</time>
      </trkpt>
      <trkpt lat="46.21192" lon="6.77889">
        <ele>1643</ele>
        <time>2000-01-01T09:49:07.000Z</time>
      </trkpt>
      <trkpt lat="46.21213" lon="6.77859">
        <ele>1638</ele>
        <time>2000-01-01T09:49:17.000Z</time>
      </trkpt>
      <trkpt lat="46.21229" lon="6.77832">
        <ele>1635</ele>
        <time>2000-01-01T09:49:27.000Z</time>
      </trkpt>
      <trkpt lat="46.21246" lon="6.77809">
        <ele>1633</ele>
        <time>2000-01-01T09:49:37.000Z</time>
      </trkpt>
      <trkpt lat="46.21263" lon="6.77785">
        <ele>1631</ele>
        <time>2000-01-01T09:49:47.000Z</time>
      </trkpt>
      <trkpt lat="46.21266" lon="6.77774">
        <ele>1632.2</ele>
        <time>2000-01-01T09:49:57.000Z</time>
      </trkpt>
      <trkpt lat="46.21266" lon="6.77764">
        <ele>1629.7</ele>
        <time>2000-01-01T09:50:07.000Z</time>
      </trkpt>
      <trkpt lat="46.2126" lon="6.77749">
        <ele>1621</ele>
        <time>2000-01-01T09:50:17.000Z</time>
      </trkpt>
      <trkpt lat="46.21243" lon="6.77749">
        <ele>1619.3</ele>
        <time>2000-01-01T09:50:27.000Z</time>
      </trkpt>
      <trkpt lat="46.21156" lon="6.7779">
        <ele>1606</ele>
        <time>2000-01-01T09:50:37.000Z</time>
      </trkpt>
      <trkpt lat="46.21133" lon="6.7781">
        <ele>1605</ele>
        <time>2000-01-01T09:50:47.000Z</time>
      </trkpt>
      <trkpt lat="46.21101" lon="6.77836">
        <ele>1600</ele>
        <time>2000-01-01T09:50:57.000Z</time>
      </trkpt>
      <trkpt lat="46.21084" lon="6.77849">
        <ele>1596</ele>
        <time>2000-01-01T09:51:07.000Z</time>
      </trkpt>
      <trkpt lat="46.2105" lon="6.77863">
        <ele>1589</ele>
        <time>2000-01-01T09:51:17.000Z</time>
      </trkpt>
      <trkpt lat="46.21039" lon="6.7787">
        <ele>1590</ele>
        <time>2000-01-01T09:51:27.000Z</time>
      </trkpt>
      <trkpt lat="46.21012" lon="6.77904">
        <ele>1585</ele>
        <time>2000-01-01T09:51:37.000Z</time>
      </trkpt>
      <trkpt lat="46.20993" lon="6.77932">
        <ele>1579</ele>
        <time>2000-01-01T09:51:47.000Z</time>
      </trkpt>
      <trkpt lat="46.20969" lon="6.77969">
        <ele>1571</ele>
        <time>2000-01-01T09:51:57.000Z</time>
      </trkpt>
      <trkpt lat="46.2095" lon="6.77988">
        <ele>1567</ele>
        <time>2000-01-01T09:52:07.000Z</time>
      </trkpt>
      <trkpt lat="46.20929" lon="6.78007">
        <ele>1563</ele>
        <time>2000-01-01T09:52:17.000Z</time>
      </trkpt>
      <trkpt lat="46.209" lon="6.78024">
        <ele>1559</ele>
        <time>2000-01-01T09:52:27.000Z</time>
      </trkpt>
      <trkpt lat="46.20871" lon="6.78041">
        <ele>1553</ele>
        <time>2000-01-01T09:52:37.000Z</time>
      </trkpt>
      <trkpt lat="46.20841" lon="6.78059">
        <ele>1545</ele>
        <time>2000-01-01T09:52:47.000Z</time>
      </trkpt>
      <trkpt lat="46.20825" lon="6.78063">
        <ele>1544.3</ele>
        <time>2000-01-01T09:52:57.000Z</time>
      </trkpt>
      <trkpt lat="46.20794" lon="6.78049">
        <ele>1535</ele>
        <time>2000-01-01T09:53:07.000Z</time>
      </trkpt>
      <trkpt lat="46.20776" lon="6.78048">
        <ele>1533.3</ele>
        <time>2000-01-01T09:53:17.000Z</time>
      </trkpt>
      <trkpt lat="46.20758" lon="6.78052">
        <ele>1529</ele>
        <time>2000-01-01T09:53:27.000Z</time>
      </trkpt>
      <trkpt lat="46.20719" lon="6.78071">
        <ele>1525</ele>
        <time>2000-01-01T09:53:37.000Z</time>
      </trkpt>
      <trkpt lat="46.20709" lon="6.78066">
        <ele>1525.5</ele>
        <time>2000-01-01T09:53:47.000Z</time>
      </trkpt>
      <trkpt lat="46.20705" lon="6.78051">
        <ele>1523</ele>
        <time>2000-01-01T09:53:57.000Z</time>
      </trkpt>
      <trkpt lat="46.20723" lon="6.78005">
        <ele>1516</ele>
        <time>2000-01-01T09:54:07.000Z</time>
      </trkpt>
      <trkpt lat="46.20733" lon="6.77969">
        <ele>1511</ele>
        <time>2000-01-01T09:54:17.000Z</time>
      </trkpt>
      <trkpt lat="46.20748" lon="6.77919">
        <ele>1506</ele>
        <time>2000-01-01T09:54:27.000Z</time>
      </trkpt>
      <trkpt lat="46.20746" lon="6.77903">
        <ele>1506.3</ele>
        <time>2000-01-01T09:54:37.000Z</time>
      </trkpt>
      <trkpt lat="46.20736" lon="6.77856">
        <ele>1501</ele>
        <time>2000-01-01T09:54:47.000Z</time>
      </trkpt>
      <trkpt lat="46.20722" lon="6.77817">
        <ele>1499</ele>
        <time>2000-01-01T09:54:57.000Z</time>
      </trkpt>
      <trkpt lat="46.207" lon="6.77781">
        <ele>1496</ele>
        <time>2000-01-01T09:55:07.000Z</time>
      </trkpt>
      <trkpt lat="46.2069" lon="6.7776">
        <ele>1496.2</ele>
        <time>2000-01-01T09:55:17.000Z</time>
      </trkpt>
      <trkpt lat="46.20702" lon="6.77744">
        <ele>1495</ele>
        <time>2000-01-01T09:55:27.000Z</time>
      </trkpt>
    </trkseg>
  </trk>
</gpx>